WN1416 / N8532S 7700 Squawk Report (22nd of May, 2022)

Aircraft B738 Reg No. N8532S Age 5 years old
Model 737 Jet engines 2 First flight 18-05-17
Registered 06-06-17 Rollout N/A Delivered 06-06-17
Construction No. 63576 Line No. 6423 Series 800
ADSHEX ABB52C Airline name Southwest Airlines Owner N/A
Airfield based Dallas-Love Field~TX~N First tracked N/A

Flight history for N8532S

Route Flight No Date Playback
La Guardia (LGA) - Chicago Midway Intl (MDW) - Denver Intl (DEN) - Bob Hope (BUR) - San Francisco Intl (SFO) WN2840 2022-06-28 07:16:00
Nashville Intl (BNA) - Lambert St Louis Intl (STL) WN2210 2022-06-28 04:08:00
Phoenix Sky Harbor Intl (PHX) - Metropolitan Oakland Intl (OAK) - Portland Intl (PDX) - Chicago Midway Intl (MDW) - Nashville Intl (BNA) WN2209 2022-06-28 02:11:00
Chicago Midway Intl (MDW) - Metropolitan Oakland Intl (OAK) WN1800 2022-06-27 15:47:00
Nashville Intl (BNA) - Chicago Midway Intl (MDW) WN2186 2022-06-27 11:17:00
Philadelphia Intl (PHL) - Nashville Intl (BNA) WN2690 2022-06-27 03:59:00
Miami Intl (MIA) - William P Hobby (HOU) - Salt Lake City Intl (SLC) - Denver Intl (DEN) - Philadelphia Intl (PHL) WN2907 2022-06-26 23:24:00
Baltimore Washington Intl (BWI) - San Antonio Intl (SAT) - Denver Intl (DEN) - Albuquerque International Sunport (ABQ) - William P Hobby (HOU) WN294 2022-06-26 18:50:00
Long Island Mac Arthur (ISP) - Baltimore Washington Intl (BWI) WN1345 2022-06-26 10:47:00
Orlando Intl (MCO) - Long Island Mac Arthur (ISP) WN3624 2022-06-26 02:44:00
Manchester-Boston Regional Airport (MHT) - Orlando Intl (MCO) WN3623 2022-06-25 23:25:00
Valley Intl (HRL) - William P Hobby (HOU) - Tampa Intl (TPA) - Manchester-Boston Regional Airport (MHT) WN3622 2022-06-25 19:48:00
Phoenix Sky Harbor Intl (PHX) - Austin Bergstrom Intl (AUS) - William P Hobby (HOU) - Valley Intl (HRL) WN1731 2022-06-25 04:12:00
Kansas City Intl (MCI) - Chicago Midway Intl (MDW) - Phoenix Sky Harbor Intl (PHX) WN545 2022-06-24 21:40:00
Norfolk Intl (ORF) - Baltimore Washington Intl (BWI) - Kansas City Intl (MCI) WN2116 2022-06-24 15:08:00
Chicago Midway Intl (MDW) - Norfolk Intl (ORF) WN4494 2022-06-24 07:01:00
William P Hobby (HOU) - Chicago Midway Intl (MDW) WN800 2022-06-24 04:37:00
Reno Tahoe Intl (RNO) - McCarran Intl (LAS) - William P Hobby (HOU) WN341 2022-06-24 01:25:00
Phoenix Sky Harbor Intl (PHX) - Reno Tahoe Intl (RNO) WN381 2022-06-23 17:44:00
Kahului (OGG) - Daniel K. Inouye International (HNL) HA335 2022-06-23 02:50:00
Time Lat Lon Altitude Heading Speed Vertical Rate
2022-05-23 02:44:38 GMT 36.154282 -95.885223 1,075 2 147 -832
2022-05-23 02:44:17 GMT 36.139668 -95.886162 1,350 3 148 -832
2022-05-23 02:44:08 GMT 36.133347 -95.886612 1,525 3 151 -1024
2022-05-23 02:43:56 GMT 36.124969 -95.887238 1,675 3 153 -1024
2022-05-23 02:43:46 GMT 36.117088 -95.887794 1,850 3 159 -640
2022-05-23 02:43:35 GMT 36.109501 -95.888321 1,975 3 166 -1088
2022-05-23 02:43:25 GMT 36.102402 -95.888786 2,150 3 170 -1024
2022-05-23 02:43:16 GMT 36.093998 -95.889435 2,300 3 175 -960
2022-05-23 02:43:03 GMT 36.083954 -95.890160 2,500 3 174 -960
2022-05-23 02:42:55 GMT 36.077053 -95.890427 2,650 1 174 -1024
2022-05-23 02:42:43 GMT 36.068527 -95.891586 2,825 18 168 -896
2022-05-23 02:41:34 GMT 36.066578 -95.945183 3,925 130 185 -896
2022-05-23 02:41:30 GMT 36.068768 -95.948334 3,975 130 192 -1024
2022-05-23 02:41:14 GMT 36.078415 -95.962090 4,300 130 196 -1024
2022-05-23 02:40:55 GMT 36.089813 -95.978561 5,400 130 200 -1024
2022-05-23 02:40:45 GMT 36.095860 -95.987373 4,750 130 205 -1088
2022-05-23 02:40:40 GMT 36.099445 -95.992577 4,850 130 206 -1088
2022-05-23 02:40:28 GMT 36.106018 -96.002197 5,050 130 209 -1088
2022-05-23 02:40:14 GMT 36.115829 -96.016479 5,250 130 219 -704
2022-05-23 02:40:08 GMT 36.124352 -96.028687 5,400 130 234 -512
2022-05-23 02:39:57 GMT 36.126492 -96.031845 5,425 130 234 -576
2022-05-23 02:39:48 GMT 36.135773 -96.045280 5,500 130 248 -192
2022-05-23 02:39:35 GMT 36.142639 -96.055183 5,525 130 259 -384
2022-05-23 02:39:21 GMT 36.154655 -96.072281 5,650 130 265 -640
2022-05-23 02:39:16 GMT 36.158333 -96.077660 5,750 130 271 -1024
2022-05-23 02:39:06 GMT 36.167038 -96.090340 5,950 130 272 -1280
2022-05-23 02:38:52 GMT 36.178482 -96.107079 6,250 129 274 -1280
2022-05-23 02:38:44 GMT 36.183983 -96.115173 6,400 130 275 -1280
2022-05-23 02:38:34 GMT 36.197250 -96.134209 6,750 130 275 -1344
2022-05-23 02:38:20 GMT 36.203751 -96.143700 6,925 130 276 -1344
2022-05-23 02:38:13 GMT 36.210381 -96.153397 7,100 130 277 -1344
2022-05-23 02:38:01 GMT 36.220108 -96.167709 7,325 129 277 -1344
2022-05-23 02:37:45 GMT 36.233185 -96.186905 7,700 130 278 -1280
2022-05-23 02:37:41 GMT 36.237259 -96.192802 7,800 130 278 -1152
2022-05-23 02:37:24 GMT 36.250534 -96.211906 8,100 130 278 -1152
2022-05-23 02:37:20 GMT 36.253811 -96.216621 8,175 130 275 -1024
2022-05-23 02:37:15 GMT 36.258820 -96.223755 8,300 130 273 -1152
2022-05-23 02:37:11 GMT 36.261475 -96.227592 8,350 130 272 -1088
2022-05-23 02:37:06 GMT 36.265137 -96.232857 8,425 130 273 -1152
2022-05-23 02:36:59 GMT 36.271175 -96.241638 8,575 130 273 -1152
2022-05-23 02:36:51 GMT 36.277740 -96.251221 8,725 130 275 -1152
2022-05-23 02:36:48 GMT 36.280930 -96.255859 8,800 130 276 -1152
2022-05-23 02:36:44 GMT 36.283859 -96.260201 8,875 130 276 -1152
2022-05-23 02:36:38 GMT 36.288914 -96.267586 8,975 130 280 -1344
2022-05-23 02:36:33 GMT 36.293106 -96.273766 9,075 130 279 -1152
2022-05-23 02:36:22 GMT 36.301807 -96.286575 9,275 130 279 -1152
2022-05-23 02:36:14 GMT 36.308838 -96.296684 9,450 130 280 -1280
2022-05-23 02:36:10 GMT 36.313072 -96.302879 9,550 130 280 -1280
2022-05-23 02:36:06 GMT 36.315170 -96.305923 9,600 130 281 -1152
2022-05-23 02:36:02 GMT 36.318287 -96.310417 9,675 130 282 -768
2022-05-23 02:35:58 GMT 36.322083 -96.315994 9,700 130 284 -512
2022-05-23 02:35:50 GMT 36.329498 -96.326752 9,775 130 291 -448
2022-05-23 02:35:46 GMT 36.332718 -96.331398 9,800 130 294 -512
2022-05-23 02:35:43 GMT 36.335999 -96.336136 9,825 130 295 -512
2022-05-23 02:35:37 GMT 36.341286 -96.343842 9,875 130 300 -448
2022-05-23 02:35:32 GMT 36.345287 -96.349632 9,900 130 304 -448
2022-05-23 02:35:26 GMT 36.350739 -96.357597 9,950 130 307 -512
2022-05-23 02:35:21 GMT 36.355225 -96.364174 10,000 130 310 -512
2022-05-23 02:35:12 GMT 36.364094 -96.377151 10,075 130 317 -512
2022-05-23 02:34:57 GMT 36.378246 -96.398018 10,225 129 329 -576
2022-05-23 02:34:55 GMT 36.379761 -96.400223 10,225 129 330 -512
2022-05-23 02:34:50 GMT 36.384296 -96.406898 10,275 129 335 -512
2022-05-23 02:34:45 GMT 36.389606 -96.414787 10,325 129 338 -640
2022-05-23 02:34:40 GMT 36.395142 -96.422997 10,375 130 342 -960
2022-05-23 02:34:34 GMT 36.401150 -96.431854 10,475 129 345 -1088
2022-05-23 02:34:29 GMT 36.405899 -96.438850 10,575 129 348 -1088
2022-05-23 02:34:26 GMT 36.410599 -96.445816 10,650 129 350 -1024
2022-05-23 02:34:19 GMT 36.417068 -96.455383 10,750 129 350 -960
2022-05-23 02:34:12 GMT 36.423447 -96.464813 10,850 129 352 -1024
2022-05-23 02:34:09 GMT 36.426941 -96.470009 10,900 129 352 -1024
2022-05-23 02:34:05 GMT 36.431992 -96.477470 11,000 129 352 -1024
2022-05-23 02:33:58 GMT 36.437973 -96.486259 11,075 130 352 -1024
2022-05-23 02:33:53 GMT 36.443512 -96.494438 11,175 130 354 -1024
2022-05-23 02:33:49 GMT 36.449100 -96.502625 11,275 130 354 -1024
2022-05-23 02:33:43 GMT 36.454056 -96.509743 11,350 130 355 -1024
2022-05-23 02:33:38 GMT 36.460007 -96.518440 11,425 130 355 -1024
2022-05-23 02:33:32 GMT 36.465912 -96.526909 11,525 130 356 -960
2022-05-23 02:33:28 GMT 36.470978 -96.534180 11,600 131 356 -960
2022-05-23 02:33:22 GMT 36.476982 -96.542709 11,700 130 356 -1024
2022-05-23 02:33:16 GMT 36.483032 -96.551743 11,800 128 357 -960
2022-05-23 02:33:13 GMT 36.487473 -96.558891 11,875 126 359 -960
2022-05-23 02:33:06 GMT 36.493332 -96.569077 11,975 123 363 -1024
2022-05-23 02:33:00 GMT 36.498734 -96.579666 12,075 120 368 -1216
2022-05-23 02:32:57 GMT 36.501747 -96.586189 12,175 118 370 -1728
2022-05-23 02:32:51 GMT 36.506699 -96.597572 12,350 117 372 -1792
2022-05-23 02:32:46 GMT 36.510178 -96.605698 12,475 117 372 -1792
2022-05-23 02:32:40 GMT 36.514618 -96.616119 12,650 117 373 -1792
2022-05-23 02:32:35 GMT 36.518833 -96.625984 12,800 118 374 -1856
2022-05-23 02:32:31 GMT 36.523304 -96.636444 12,975 118 375 -1856
2022-05-23 02:32:26 GMT 36.527073 -96.645149 13,125 118 376 -1856
2022-05-23 02:32:15 GMT 36.535538 -96.664642 13,425 118 378 -1856
2022-05-23 02:32:04 GMT 36.544327 -96.684898 13,750 118 380 -1920
2022-05-23 02:31:59 GMT 36.548950 -96.695595 13,925 118 381 -1920
2022-05-23 02:31:55 GMT 36.553162 -96.705261 14,100 118 382 -1920
2022-05-23 02:31:49 GMT 36.558216 -96.716972 14,275 118 384 -1920
2022-05-23 02:31:43 GMT 36.561813 -96.725288 14,425 117 384 -1920
2022-05-23 02:31:38 GMT 36.566551 -96.736488 14,600 117 386 -1920
2022-05-23 02:31:34 GMT 36.570507 -96.745781 14,750 117 387 -1920
2022-05-23 02:31:28 GMT 36.575256 -96.756943 14,950 117 388 -1984
2022-05-23 02:31:20 GMT 36.581406 -96.771523 15,175 117 389 -1984
2022-05-23 02:31:16 GMT 36.584518 -96.778915 15,300 117 390 -1920
2022-05-23 02:31:12 GMT 36.588104 -96.787506 15,425 117 391 -1920
2022-05-23 02:31:07 GMT 36.592808 -96.798553 15,625 117 393 -1984
2022-05-23 02:31:02 GMT 36.597042 -96.808487 15,800 117 393 -2112
2022-05-23 02:30:54 GMT 36.603195 -96.822968 16,050 117 393 -2176
2022-05-23 02:30:51 GMT 36.605896 -96.829430 16,175 117 393 -2176
2022-05-23 02:30:45 GMT 36.610611 -96.840424 16,375 117 394 -2176
2022-05-23 02:30:42 GMT 36.614220 -96.849045 16,525 117 394 -2176
2022-05-23 02:30:34 GMT 36.620544 -96.863876 16,750 117 394 -2176
2022-05-23 02:30:31 GMT 36.622787 -96.869087 16,900 117 395 -2112
2022-05-23 02:30:24 GMT 36.628372 -96.882248 17,125 117 394 -2240
2022-05-23 02:30:20 GMT 36.632034 -96.890884 17,300 117 394 -2368
2022-05-23 02:30:15 GMT 36.637589 -96.903969 17,550 117 393 -2432
2022-05-23 02:30:11 GMT 36.640659 -96.911278 17,700 117 393 -2240
2022-05-23 02:30:00 GMT 36.649414 -96.931786 18,000 117 395 -1664
2022-05-23 02:29:54 GMT 36.655186 -96.945343 18,200 117 398 -1664
2022-05-23 02:29:49 GMT 36.658443 -96.953056 18,300 117 399 -1664
2022-05-23 02:29:43 GMT 36.664078 -96.966133 18,500 118 402 -1728
2022-05-23 02:29:39 GMT 36.667236 -96.973572 18,600 118 402 -1728
2022-05-23 02:29:33 GMT 36.673599 -96.988449 18,800 118 404 -1728
2022-05-23 02:29:26 GMT 36.679905 -97.003197 19,025 117 420 -1984
2022-05-23 02:29:19 GMT 36.685684 -97.016716 19,200 117 409 -1728
2022-05-23 02:29:12 GMT 36.692055 -97.031715 19,400 117 411 -1728
2022-05-23 02:29:08 GMT 36.695114 -97.038918 19,500 117 412 -1728
2022-05-23 02:29:01 GMT 36.701366 -97.053810 19,700 117 415 -1664
2022-05-23 02:28:57 GMT 36.704041 -97.060143 19,800 117 416 -1664
2022-05-23 02:28:48 GMT 36.713470 -97.082443 20,100 117 419 -1984
2022-05-23 02:28:40 GMT 36.720127 -97.098106 20,350 117 421 -1984
2022-05-23 02:28:37 GMT 36.722733 -97.104294 20,450 117 421 -1984
2022-05-23 02:28:27 GMT 36.732227 -97.126617 20,800 117 424 -1984
2022-05-23 02:28:20 GMT 36.739105 -97.143059 21,050 117 427 -1984
2022-05-23 02:28:16 GMT 36.741943 -97.149757 21,150 118 427 -1984
2022-05-23 02:28:06 GMT 36.751877 -97.171440 21,500 121 428 -2048
2022-05-23 02:27:59 GMT 36.759842 -97.187515 21,750 121 429 -2048
2022-05-23 02:27:56 GMT 36.763187 -97.194237 21,875 121 429 -2112
2022-05-23 02:27:48 GMT 36.770737 -97.209549 22,100 121 432 -2048
2022-05-23 02:27:45 GMT 36.773846 -97.215858 22,225 121 432 -2048
2022-05-23 02:27:38 GMT 36.781815 -97.231865 22,475 121 433 -2048
2022-05-23 02:27:34 GMT 36.784882 -97.238045 22,575 121 434 -2048
2022-05-23 02:27:27 GMT 36.792793 -97.254013 22,825 121 436 -2048
2022-05-23 02:27:24 GMT 36.795914 -97.260300 22,925 121 437 -2048
2022-05-23 02:27:17 GMT 36.804016 -97.276550 23,175 121 439 -2048
2022-05-23 02:27:14 GMT 36.806580 -97.281761 23,275 121 439 -2048
2022-05-23 02:27:04 GMT 36.817978 -97.304794 23,625 121 442 -2048
2022-05-23 02:26:55 GMT 36.826778 -97.322449 23,900 121 444 -2048
2022-05-23 02:26:52 GMT 36.829617 -97.328171 24,000 121 445 -2048
2022-05-23 02:26:45 GMT 36.837765 -97.344650 24,250 121 446 -2048
2022-05-23 02:26:42 GMT 36.840370 -97.349854 24,350 121 447 -2048
2022-05-23 02:26:33 GMT 36.852100 -97.373619 24,725 121 449 -2112
2022-05-23 02:26:22 GMT 36.862656 -97.394852 25,050 121 451 -2112
2022-05-23 02:26:12 GMT 36.874352 -97.418518 25,525 121 455 -2112
2022-05-23 02:26:04 GMT 36.883484 -97.436981 25,725 121 457 -2112
2022-05-23 02:26:01 GMT 36.885757 -97.441566 25,800 121 457 -2112
2022-05-23 02:25:51 GMT 36.897171 -97.464859 26,150 121 460 -2112
2022-05-23 02:25:41 GMT 36.908894 -97.488678 26,525 121 463 -2112
2022-05-23 02:25:30 GMT 36.920719 -97.512856 26,900 121 467 -2112
2022-05-23 02:25:22 GMT 36.930313 -97.532593 27,200 121 469 -2112
2022-05-23 02:25:19 GMT 36.933289 -97.538605 27,300 121 470 -2112
2022-05-23 02:25:08 GMT 36.944458 -97.561577 27,650 121 473 -2112
2022-05-23 02:24:59 GMT 36.956192 -97.585579 28,025 121 477 -2112
2022-05-23 02:24:48 GMT 36.968216 -97.610191 28,375 121 480 -2176
2022-05-23 02:24:40 GMT 36.981052 -97.636337 28,800 121 483 -2176
2022-05-23 02:24:29 GMT 36.990601 -97.655891 29,100 121 486 -2304
2022-05-23 02:24:26 GMT 36.995621 -97.666130 29,250 121 487 -2304
2022-05-23 02:24:17 GMT 37.004375 -97.684044 29,550 121 488 -2432
2022-05-23 02:24:12 GMT 37.010658 -97.696815 29,775 121 489 -2432
2022-05-23 02:24:07 GMT 37.016602 -97.709015 29,975 121 491 -2432
2022-05-23 02:24:04 GMT 37.019642 -97.715210 30,075 121 491 -2432
2022-05-23 02:23:57 GMT 37.029510 -97.735512 30,425 121 492 -2432
2022-05-23 02:23:54 GMT 37.031754 -97.740044 30,500 121 493 -2496
2022-05-23 02:23:47 GMT 37.040825 -97.758736 30,825 121 495 -2432
2022-05-23 02:23:44 GMT 37.043747 -97.764824 30,925 121 495 -2368
2022-05-23 02:23:36 GMT 37.054047 -97.786095 31,250 121 497 -2304
2022-05-23 02:23:33 GMT 37.056931 -97.791992 31,350 121 498 -2624
2022-05-23 02:23:26 GMT 37.065590 -97.809906 31,725 121 496 -3264
2022-05-23 02:23:23 GMT 37.068615 -97.816116 31,850 121 496 -3520
2022-05-23 02:23:15 GMT 37.081558 -97.842896 32,375 121 493 -3968
2022-05-23 02:23:12 GMT 37.081558 -97.842896 32,550 121 491 -3904
2022-05-23 02:23:05 GMT 37.090542 -97.861374 33,025 121 488 -3712
2022-05-23 02:23:01 GMT 37.095989 -97.872543 33,300 121 485 -3520
2022-05-23 02:22:52 GMT 37.105438 -97.891945 33,750 121 484 -3392
2022-05-23 02:22:44 GMT 37.115307 -97.912186 34,225 121 482 -3328
2022-05-23 02:22:33 GMT 37.127289 -97.936806 34,725 121 481 -2304
2022-05-23 02:22:23 GMT 37.139050 -97.960968 34,975 121 481 -512
2022-05-23 02:22:12 GMT 37.151459 -97.986473 35,000 121 481 0
2022-05-23 02:22:06 GMT 37.159561 -98.003128 35,000 121 481 0
2022-05-23 02:22:01 GMT 37.163498 -98.011253 35,000 121 480 0
2022-05-23 02:21:57 GMT 37.168854 -98.022301 35,000 121 480 0
2022-05-23 02:21:49 GMT 37.177963 -98.041054 35,000 121 480 0
2022-05-23 02:21:42 GMT 37.186905 -98.059547 35,000 121 480 0
2022-05-23 02:21:38 GMT 37.190414 -98.066826 35,000 121 480 0
2022-05-23 02:21:30 GMT 37.199383 -98.085342 35,000 121 480 0
2022-05-23 02:21:25 GMT 37.207249 -98.101639 35,000 121 480 0
2022-05-23 02:21:19 GMT 37.211998 -98.111496 35,000 121 480 0
2022-05-23 02:21:16 GMT 37.215225 -98.118134 35,000 121 480 0
2022-05-23 02:21:11 GMT 37.222641 -98.133568 35,000 121 480 0
2022-05-23 02:21:07 GMT 37.226578 -98.141808 35,000 121 480 0
2022-05-23 02:20:58 GMT 37.235916 -98.161148 35,000 121 480 0
2022-05-23 02:20:55 GMT 37.240112 -98.169884 35,000 121 480 0
2022-05-23 02:20:50 GMT 37.245987 -98.182129 35,000 121 480 0
2022-05-23 02:20:47 GMT 37.250381 -98.191299 35,000 121 480 0
2022-05-23 02:20:39 GMT 37.258255 -98.207664 35,000 121 480 0
2022-05-23 02:20:35 GMT 37.262413 -98.216278 35,000 121 480 0
2022-05-23 02:20:28 GMT 37.272003 -98.236221 35,000 121 480 0
2022-05-23 02:20:25 GMT 37.274841 -98.242134 35,000 121 480 0
2022-05-23 02:20:17 GMT 37.283340 -98.259850 35,000 121 480 0
2022-05-23 02:20:13 GMT 37.288055 -98.269608 35,000 121 480 0
2022-05-23 02:20:07 GMT 37.298035 -98.290413 35,000 121 480 0
2022-05-23 02:19:57 GMT 37.305847 -98.306679 35,000 121 480 0
2022-05-23 02:19:54 GMT 37.310944 -98.317352 35,000 121 480 0
2022-05-23 02:19:46 GMT 37.319485 -98.335220 35,000 120 480 0
2022-05-23 02:19:43 GMT 37.322605 -98.341728 35,000 120 480 0
2022-05-23 02:19:34 GMT 37.331917 -98.361191 35,000 120 480 64
2022-05-23 02:19:31 GMT 37.336166 -98.370064 35,000 120 480 64
2022-05-23 02:19:27 GMT 37.341156 -98.380463 35,000 120 480 64
2022-05-23 02:19:22 GMT 37.347519 -98.393730 35,000 120 480 128
2022-05-23 02:19:16 GMT 37.353283 -98.405853 35,000 120 480 64
2022-05-23 02:19:11 GMT 37.358414 -98.416580 35,000 120 478 -960
2022-05-23 02:19:04 GMT 37.367249 -98.435051 35,200 120 477 -960
2022-05-23 02:18:56 GMT 37.376793 -98.455116 35,250 120 477 -960
2022-05-23 02:18:53 GMT 37.379211 -98.460190 35,275 120 477 -960
2022-05-23 02:18:45 GMT 37.388569 -98.479774 35,400 120 477 -960
2022-05-23 02:18:42 GMT 37.391418 -98.485771 35,425 120 477 -960
2022-05-23 02:18:32 GMT 37.403046 -98.510315 35,600 120 477 -960
2022-05-23 02:18:24 GMT 37.412567 -98.530418 35,725 120 477 -960
2022-05-23 02:18:20 GMT 37.418335 -98.542572 35,825 120 477 -960
2022-05-23 02:18:12 GMT 37.426510 -98.559784 35,925 120 477 -896
2022-05-23 02:18:09 GMT 37.428726 -98.564430 35,975 120 477 -896
2022-05-23 02:18:04 GMT 37.435352 -98.578354 36,100 120 476 -1024
2022-05-23 02:18:00 GMT 37.439987 -98.588150 36,125 120 474 -1024
2022-05-23 02:17:53 GMT 37.447178 -98.603188 36,225 120 474 -960
2022-05-23 02:17:49 GMT 37.451935 -98.613167 36,300 120 475 -960
2022-05-23 02:17:43 GMT 37.458725 -98.627373 36,400 120 475 -960
2022-05-23 02:17:37 GMT 37.465897 -98.642265 36,500 120 475 -1024
2022-05-23 02:17:33 GMT 37.470520 -98.651970 36,575 120 477 -1024
2022-05-23 02:17:30 GMT 37.473770 -98.658859 36,600 120 477 -1024
2022-05-23 02:17:27 GMT 37.476059 -98.663658 36,650 120 477 -1024
2022-05-23 02:17:22 GMT 37.482147 -98.676567 36,725 120 477 -1088
2022-05-23 02:17:17 GMT 37.487724 -98.688332 36,825 120 478 -1088
2022-05-23 02:17:11 GMT 37.494324 -98.702225 36,950 120 477 -832
2022-05-23 02:17:08 GMT 37.498993 -98.712097 36,975 120 477 -512
2022-05-23 02:17:02 GMT 37.505787 -98.726486 37,000 120 477 0
2022-05-23 02:16:57 GMT 37.510910 -98.737297 37,000 120 477 0
2022-05-23 02:16:51 GMT 37.517284 -98.750847 37,000 120 477 0
2022-05-23 02:16:45 GMT 37.523621 -98.764282 37,000 120 477 0
2022-05-23 02:16:41 GMT 37.529110 -98.775925 37,000 120 477 0
2022-05-23 02:16:35 GMT 37.536072 -98.790642 37,000 120 477 0
2022-05-23 02:16:30 GMT 37.540741 -98.800575 37,000 120 477 0
2022-05-23 02:16:26 GMT 37.544613 -98.808708 37,000 120 477 -64
2022-05-23 02:16:19 GMT 37.552853 -98.826141 37,000 120 476 0
2022-05-23 02:16:15 GMT 37.557739 -98.836533 37,025 120 476 0
2022-05-23 02:16:10 GMT 37.563885 -98.849548 37,000 120 476 0
2022-05-23 02:16:04 GMT 37.570450 -98.863518 37,000 120 476 0
2022-05-23 02:15:59 GMT 37.576035 -98.875343 37,025 120 476 -64
2022-05-23 02:15:55 GMT 37.581070 -98.886070 37,025 120 476 64
2022-05-23 02:15:48 GMT 37.587582 -98.899940 37,000 120 476 64
2022-05-23 02:15:44 GMT 37.591911 -98.909134 37,000 120 476 0
2022-05-23 02:15:39 GMT 37.599033 -98.924240 37,000 120 476 0
2022-05-23 02:15:33 GMT 37.604462 -98.935799 37,000 120 476 0
2022-05-23 02:15:28 GMT 37.610687 -98.949005 37,000 120 476 64
2022-05-23 02:15:23 GMT 37.616776 -98.961983 37,000 120 476 0
2022-05-23 02:15:18 GMT 37.622223 -98.973549 37,000 120 476 0
2022-05-23 02:15:12 GMT 37.627987 -98.985802 37,000 120 476 0
2022-05-23 02:15:07 GMT 37.634228 -98.999054 37,000 120 477 0
2022-05-23 02:15:03 GMT 37.639626 -99.010521 37,000 120 477 0
2022-05-23 02:14:56 GMT 37.646423 -99.024971 37,000 120 477 0
2022-05-23 02:14:51 GMT 37.651634 -99.036079 37,000 120 477 0
2022-05-23 02:14:47 GMT 37.657471 -99.048409 37,000 120 477 0
2022-05-23 02:14:42 GMT 37.662964 -99.060036 37,000 120 477 0
2022-05-23 02:14:36 GMT 37.669231 -99.073509 37,000 120 477 -64
2022-05-23 02:14:31 GMT 37.674316 -99.084290 37,000 120 477 0
2022-05-23 02:14:28 GMT 37.679104 -99.094528 37,000 120 477 0
2022-05-23 02:14:25 GMT 37.680908 -99.098312 37,000 120 477 0
2022-05-23 02:14:19 GMT 37.687805 -99.113098 37,000 120 477 0
2022-05-23 02:14:16 GMT 37.692230 -99.122536 37,000 120 477 0
2022-05-23 02:14:09 GMT 37.700237 -99.139732 37,000 120 477 0
2022-05-23 02:14:05 GMT 37.703659 -99.147110 37,000 120 477 64
2022-05-23 02:14:01 GMT 37.709175 -99.158897 37,000 120 477 0
2022-05-23 02:13:58 GMT 37.711945 -99.164879 37,000 120 477 0
2022-05-23 02:13:55 GMT 37.715973 -99.173409 37,000 120 477 0
2022-05-23 02:13:48 GMT 37.722931 -99.188370 37,000 120 477 0
2022-05-23 02:13:44 GMT 37.727188 -99.197540 37,000 120 478 0
2022-05-23 02:13:39 GMT 37.734421 -99.213089 37,000 120 478 0
2022-05-23 02:13:33 GMT 37.739807 -99.224693 37,000 120 477 0
2022-05-23 02:13:27 GMT 37.746044 -99.238068 37,000 120 477 0
2022-05-23 02:13:24 GMT 37.750885 -99.248520 37,000 120 477 0
2022-05-23 02:13:19 GMT 37.756100 -99.259743 37,000 120 477 0
2022-05-23 02:13:16 GMT 37.758591 -99.265038 37,000 120 477 0
2022-05-23 02:13:13 GMT 37.762150 -99.272758 37,000 120 477 0
2022-05-23 02:13:02 GMT 37.773602 -99.297302 37,000 120 478 0
2022-05-23 02:12:55 GMT 37.782078 -99.315567 37,025 120 478 0
2022-05-23 02:12:52 GMT 37.786285 -99.324646 37,025 120 478 0
2022-05-23 02:12:45 GMT 37.792595 -99.338257 37,000 120 478 0
2022-05-23 02:12:42 GMT 37.796692 -99.347099 37,000 120 478 0
2022-05-23 02:12:36 GMT 37.804886 -99.364769 37,000 120 478 -64
2022-05-23 02:12:30 GMT 37.809120 -99.373901 37,025 120 478 -64
2022-05-23 02:12:25 GMT 37.815639 -99.388000 37,025 120 478 0
2022-05-23 02:12:15 GMT 37.827187 -99.412956 37,000 120 478 -64
2022-05-23 02:12:10 GMT 37.831924 -99.423233 37,025 120 478 0
2022-05-23 02:12:04 GMT 37.839706 -99.440125 37,000 120 478 0
2022-05-23 02:12:00 GMT 37.844082 -99.449615 37,000 120 478 0
2022-05-23 02:11:54 GMT 37.850693 -99.463829 37,000 120 478 0
2022-05-23 02:11:49 GMT 37.854996 -99.473137 37,000 120 478 0
2022-05-23 02:11:43 GMT 37.862705 -99.489799 37,000 120 478 0
2022-05-23 02:11:39 GMT 37.866852 -99.498795 37,000 120 478 0
2022-05-23 02:11:33 GMT 37.873993 -99.514160 37,000 120 478 -64
2022-05-23 02:11:22 GMT 37.885483 -99.538940 37,000 120 478 64
2022-05-23 02:11:19 GMT 37.889053 -99.546638 37,000 120 478 64
2022-05-23 02:11:13 GMT 37.897106 -99.564018 37,000 120 479 0
2022-05-23 02:11:09 GMT 37.900784 -99.571960 37,000 120 479 0
2022-05-23 02:11:01 GMT 37.908463 -99.588608 37,000 120 479 0
2022-05-23 02:10:57 GMT 37.912888 -99.598228 37,000 120 479 0
2022-05-23 02:10:52 GMT 37.920273 -99.614204 37,000 120 480 0
2022-05-23 02:10:47 GMT 37.924431 -99.623245 37,000 120 479 0
2022-05-23 02:10:38 GMT 37.935608 -99.647453 37,000 120 479 0
2022-05-23 02:10:31 GMT 37.943344 -99.664284 37,000 120 480 0
2022-05-23 02:10:26 GMT 37.948269 -99.675072 37,000 120 480 0
2022-05-23 02:10:20 GMT 37.955017 -99.689758 37,000 120 480 0
2022-05-23 02:10:08 GMT 37.968750 -99.719734 37,000 120 481 0
2022-05-23 02:10:02 GMT 37.975662 -99.734764 37,000 120 481 0
2022-05-23 02:09:59 GMT 37.979279 -99.742653 37,000 120 481 0
2022-05-23 02:09:55 GMT 37.982666 -99.750130 37,000 120 481 0
2022-05-23 02:09:44 GMT 37.995796 -99.778786 37,000 119 482 0
2022-05-23 02:09:35 GMT 38.004822 -99.798576 37,000 120 482 0
2022-05-23 02:09:28 GMT 38.013428 -99.817398 37,025 120 482 0
2022-05-23 02:09:16 GMT 38.025925 -99.844688 37,000 120 482 0
2022-05-23 02:09:08 GMT 38.036716 -99.868233 37,000 120 482 0
2022-05-23 02:08:52 GMT 38.053520 -99.904953 37,000 120 483 0
2022-05-23 02:08:46 GMT 38.060852 -99.920891 37,000 120 483 0
2022-05-23 02:08:35 GMT 38.072701 -99.946922 37,000 120 483 0
2022-05-23 02:08:25 GMT 38.083923 -99.971558 37,000 119 484 0
2022-05-23 02:08:15 GMT 38.095791 -99.997620 37,000 119 484 0
2022-05-23 02:08:03 GMT 38.107864 -100.024147 37,000 119 484 0
2022-05-23 02:07:52 GMT 38.119999 -100.050880 37,025 119 484 0
2022-05-23 02:07:43 GMT 38.131531 -100.076393 37,000 119 483 64
2022-05-23 02:07:32 GMT 38.143646 -100.103180 37,025 119 483 0
2022-05-23 02:07:20 GMT 38.155422 -100.129211 37,000 119 482 0
2022-05-23 02:07:11 GMT 38.167328 -100.155632 37,025 119 482 0
2022-05-23 02:07:00 GMT 38.178513 -100.180443 37,000 119 482 0
2022-05-23 02:06:50 GMT 38.190434 -100.206894 37,000 119 482 0
2022-05-23 02:06:39 GMT 38.201279 -100.230896 37,000 119 482 0
2022-05-23 02:06:29 GMT 38.213242 -100.257294 37,000 119 482 0
2022-05-23 02:06:17 GMT 38.225510 -100.284492 37,000 119 482 0
2022-05-23 02:06:06 GMT 38.238647 -100.313477 37,000 120 481 -64
2022-05-23 02:05:56 GMT 38.248810 -100.335747 37,000 119 481 0
2022-05-23 02:05:46 GMT 38.260529 -100.361687 37,025 119 480 64
2022-05-23 02:05:36 GMT 38.272270 -100.387634 36,900 119 480 1472
2022-05-23 02:05:24 GMT 38.284286 -100.414337 36,625 119 482 1600
2022-05-23 02:05:14 GMT 38.296051 -100.440521 36,300 119 486 1856
2022-05-23 02:05:02 GMT 38.309280 -100.469971 35,975 119 489 1536
2022-05-23 02:04:52 GMT 38.321056 -100.496361 35,675 119 492 1792
2022-05-23 02:04:42 GMT 38.332169 -100.521217 35,350 119 497 1664
2022-05-23 02:04:31 GMT 38.343681 -100.547050 35,075 119 498 832
2022-05-23 02:04:22 GMT 38.354946 -100.572311 35,000 119 496 -128
2022-05-23 02:04:09 GMT 38.369190 -100.604134 35,000 119 496 -64
2022-05-23 02:04:01 GMT 38.379250 -100.626648 35,000 119 497 0
2022-05-23 02:03:48 GMT 38.394005 -100.659843 35,000 119 497 0
2022-05-23 02:03:36 GMT 38.405548 -100.685837 35,000 119 498 0
2022-05-23 02:03:27 GMT 38.417130 -100.711967 35,000 119 498 0
2022-05-23 02:03:16 GMT 38.428528 -100.737579 35,000 119 498 0
2022-05-23 02:03:04 GMT 38.442932 -100.769897 35,000 119 498 0
2022-05-23 02:02:52 GMT 38.456680 -100.800812 35,000 119 498 0
2022-05-23 02:02:41 GMT 38.468349 -100.827026 35,000 119 498 -64
2022-05-23 02:02:34 GMT 38.476959 -100.846375 35,000 119 498 0
2022-05-23 02:02:26 GMT 38.486893 -100.868645 35,000 119 499 0
2022-05-23 02:02:13 GMT 38.500843 -100.900085 34,975 119 497 704
2022-05-23 02:02:03 GMT 38.512760 -100.927063 34,750 119 498 1344
2022-05-23 02:01:53 GMT 38.522907 -100.950134 34,550 119 498 1216
2022-05-23 02:01:44 GMT 38.534546 -100.976540 34,350 119 497 1216
2022-05-23 02:01:31 GMT 38.547684 -101.006332 34,100 119 497 1216
2022-05-23 02:01:22 GMT 38.559128 -101.032425 33,900 119 497 1280
2022-05-23 02:01:12 GMT 38.570251 -101.057800 33,675 119 497 1408
2022-05-23 02:01:00 GMT 38.582401 -101.085449 33,400 119 497 1408
2022-05-23 02:00:51 GMT 38.593994 -101.111816 33,150 119 498 896
2022-05-23 02:00:38 GMT 38.606918 -101.141212 33,025 119 497 320
2022-05-23 02:00:25 GMT 38.622856 -101.177490 33,000 119 496 0
2022-05-23 02:00:09 GMT 38.640381 -101.217636 33,000 119 496 0
2022-05-23 01:59:52 GMT 38.659698 -101.261940 33,000 118 495 0
2022-05-23 01:59:46 GMT 38.665218 -101.274658 33,000 118 495 0
2022-05-23 01:59:36 GMT 38.677551 -101.303078 33,000 118 495 0
2022-05-23 01:59:22 GMT 38.692200 -101.336815 33,000 118 495 0
2022-05-23 01:59:12 GMT 38.703369 -101.362434 33,000 119 495 64
2022-05-23 01:58:53 GMT 38.723736 -101.409180 33,000 119 495 0
2022-05-23 01:58:44 GMT 38.735870 -101.436951 33,000 119 495 0
2022-05-23 01:58:32 GMT 38.748138 -101.464951 33,000 119 495 0
2022-05-23 01:58:22 GMT 38.759857 -101.491760 33,000 119 495 0
2022-05-23 01:58:11 GMT 38.772522 -101.520691 33,000 119 494 0
2022-05-23 01:58:04 GMT 38.780155 -101.538269 33,000 119 493 0
2022-05-23 01:58:01 GMT 38.783524 -101.545914 33,000 119 494 0
2022-05-23 01:57:56 GMT 38.787838 -101.555725 33,000 119 494 0
2022-05-23 01:57:51 GMT 38.794785 -101.571526 33,000 119 494 0
2022-05-23 01:57:46 GMT 38.798996 -101.581085 33,000 119 494 0
2022-05-23 01:57:43 GMT 38.803432 -101.591187 33,000 119 494 0
2022-05-23 01:57:39 GMT 38.808041 -101.601807 33,000 119 494 0
2022-05-23 01:57:29 GMT 38.818909 -101.626579 33,000 119 494 0
2022-05-23 01:57:26 GMT 38.822342 -101.634521 33,000 119 494 0
2022-05-23 01:57:21 GMT 38.826233 -101.643478 33,000 118 494 64
2022-05-23 01:57:16 GMT 38.833008 -101.659180 33,000 118 494 0
2022-05-23 01:57:10 GMT 38.840195 -101.676079 33,000 118 495 -64
2022-05-23 01:57:05 GMT 38.845093 -101.687843 33,000 117 495 0
2022-05-23 01:56:59 GMT 38.850815 -101.701813 33,000 117 495 0
2022-05-23 01:56:56 GMT 38.854126 -101.709900 33,000 117 495 64
2022-05-23 01:56:51 GMT 38.860130 -101.724548 33,000 117 496 0
2022-05-23 01:56:42 GMT 38.868465 -101.744812 33,000 117 496 0
2022-05-23 01:56:39 GMT 38.871552 -101.752388 33,000 117 496 0
2022-05-23 01:56:34 GMT 38.879517 -101.771790 33,000 117 496 0
2022-05-23 01:56:28 GMT 38.884247 -101.783264 33,000 117 495 0
2022-05-23 01:56:24 GMT 38.888577 -101.793823 33,000 117 495 0
2022-05-23 01:56:19 GMT 38.893974 -101.807007 33,000 117 496 0
2022-05-23 01:56:13 GMT 38.899330 -101.820068 33,000 117 496 0
2022-05-23 01:56:08 GMT 38.905106 -101.834305 33,000 117 496 0
2022-05-23 01:56:03 GMT 38.911156 -101.849060 33,000 117 496 0
2022-05-23 01:55:59 GMT 38.915634 -101.859978 33,000 117 496 0
2022-05-23 01:55:53 GMT 38.922089 -101.875801 33,000 117 497 0
2022-05-23 01:55:47 GMT 38.927078 -101.888100 33,000 117 497 0
2022-05-23 01:55:41 GMT 38.933533 -101.903984 33,000 117 497 0
2022-05-23 01:55:38 GMT 38.938339 -101.915771 33,000 117 497 0
2022-05-23 01:55:31 GMT 38.944950 -101.932007 33,000 117 498 0
2022-05-23 01:55:27 GMT 38.948906 -101.941650 33,000 117 498 0
2022-05-23 01:55:20 GMT 38.956192 -101.959633 33,000 117 499 0
2022-05-23 01:55:16 GMT 38.962082 -101.974121 33,000 117 499 0
2022-05-23 01:55:10 GMT 38.968094 -101.988953 33,000 117 499 -64
2022-05-23 01:55:07 GMT 38.971207 -101.996643 33,025 117 499 0
2022-05-23 01:55:03 GMT 38.974140 -102.003845 33,000 117 499 64
2022-05-23 01:54:59 GMT 38.978329 -102.014282 33,000 117 500 64
2022-05-23 01:54:54 GMT 38.983521 -102.027161 33,000 117 500 0
2022-05-23 01:54:51 GMT 38.986633 -102.034744 33,000 117 500 0
2022-05-23 01:54:46 GMT 38.997894 -102.062630 33,000 117 500 64
2022-05-23 01:54:43 GMT 38.997894 -102.062630 33,000 117 500 64
2022-05-23 01:54:38 GMT 39.001419 -102.071350 33,000 117 500 0
2022-05-23 01:54:35 GMT 39.004677 -102.079529 33,000 117 500 64
2022-05-23 01:54:31 GMT 39.009518 -102.091553 33,000 117 500 -64
2022-05-23 01:54:28 GMT 39.011707 -102.096985 33,000 117 500 -64
2022-05-23 01:54:23 GMT 39.016434 -102.108788 33,000 117 500 -64
2022-05-23 01:54:18 GMT 39.023064 -102.125244 33,000 117 500 0
2022-05-23 01:54:15 GMT 39.032097 -102.147522 33,000 117 500 0
2022-05-23 01:54:09 GMT 39.032097 -102.147522 33,000 117 500 0
2022-05-23 01:54:05 GMT 39.035385 -102.155777 33,000 117 500 0
2022-05-23 01:54:02 GMT 39.039173 -102.165161 33,000 117 500 0
2022-05-23 01:53:56 GMT 39.045551 -102.181091 33,000 117 500 0
2022-05-23 01:53:52 GMT 39.050446 -102.193275 33,000 117 500 64
2022-05-23 01:53:46 GMT 39.057037 -102.209694 33,000 117 500 64
2022-05-23 01:53:41 GMT 39.060837 -102.219185 33,000 117 501 0
2022-05-23 01:53:38 GMT 39.065430 -102.230591 33,000 117 501 0
2022-05-23 01:53:35 GMT 39.067932 -102.236916 33,000 117 501 0
2022-05-23 01:53:30 GMT 39.073288 -102.250290 33,000 117 501 0
2022-05-23 01:53:27 GMT 39.076180 -102.257446 33,000 117 501 0
2022-05-23 01:53:24 GMT 39.080372 -102.267944 33,000 117 501 0
2022-05-23 01:53:20 GMT 39.084091 -102.277283 33,000 117 501 0
2022-05-23 01:53:14 GMT 39.090054 -102.292175 33,000 117 501 -64
2022-05-23 01:53:11 GMT 39.092606 -102.298599 33,000 117 501 -64
2022-05-23 01:53:07 GMT 39.098236 -102.312630 33,000 117 500 0
2022-05-23 01:53:02 GMT 39.103455 -102.325584 33,000 117 500 0
2022-05-23 01:52:59 GMT 39.106812 -102.333923 33,000 117 500 64
2022-05-23 01:52:53 GMT 39.112885 -102.348991 33,000 117 501 64
2022-05-23 01:52:49 GMT 39.117893 -102.361572 33,000 117 501 -128
2022-05-23 01:52:44 GMT 39.122589 -102.373352 33,000 117 501 0
2022-05-23 01:52:40 GMT 39.128132 -102.387207 33,000 117 501 64
2022-05-23 01:52:36 GMT 39.131516 -102.395622 33,000 117 501 -64
2022-05-23 01:52:32 GMT 39.136002 -102.406799 33,000 117 500 -64
2022-05-23 01:52:28 GMT 39.139633 -102.415833 33,000 117 500 0
2022-05-23 01:52:23 GMT 39.145405 -102.430298 33,000 117 500 0
2022-05-23 01:52:19 GMT 39.148151 -102.437073 33,000 117 500 -64
2022-05-23 01:52:15 GMT 39.153458 -102.450317 33,000 117 500 64
2022-05-23 01:52:12 GMT 39.156998 -102.459167 33,000 117 500 64
2022-05-23 01:52:07 GMT 39.162395 -102.472656 33,000 117 500 -64
2022-05-23 01:52:04 GMT 39.164070 -102.476868 33,000 117 500 -128
2022-05-23 01:51:59 GMT 39.170654 -102.493248 33,025 117 500 -64
2022-05-23 01:51:56 GMT 39.173195 -102.499695 33,000 117 499 384
2022-05-23 01:51:53 GMT 39.175941 -102.506592 33,000 117 499 448
2022-05-23 01:51:48 GMT 39.182144 -102.522148 32,925 116 498 896
2022-05-23 01:51:43 GMT 39.186722 -102.533730 32,875 117 497 960
2022-05-23 01:51:38 GMT 39.192608 -102.548523 32,775 117 497 1088
2022-05-23 01:51:32 GMT 39.198441 -102.563225 32,675 117 496 1024
2022-05-23 01:51:26 GMT 39.203613 -102.576241 32,575 117 495 1216
2022-05-23 01:51:21 GMT 39.209415 -102.590759 32,475 117 494 1152
2022-05-23 01:51:17 GMT 39.214767 -102.604126 32,375 117 494 1088
2022-05-23 01:51:14 GMT 39.217651 -102.611389 32,325 117 494 1216
2022-05-23 01:51:11 GMT 39.220818 -102.619446 32,250 117 494 1344
2022-05-23 01:51:06 GMT 39.224499 -102.628662 32,175 116 493 1344
2022-05-23 01:51:03 GMT 39.228836 -102.639709 32,050 116 494 1536
2022-05-23 01:51:00 GMT 39.231491 -102.646339 32,000 116 494 1600
2022-05-23 01:50:55 GMT 39.236599 -102.659302 31,875 116 495 1600
2022-05-23 01:50:50 GMT 39.242699 -102.674866 31,700 116 495 1728
2022-05-23 01:50:45 GMT 39.247375 -102.686943 31,575 116 496 1856
2022-05-23 01:50:41 GMT 39.251541 -102.697685 31,450 116 497 1856
2022-05-23 01:50:38 GMT 39.254196 -102.704613 31,375 116 498 1920
2022-05-23 01:50:35 GMT 39.256348 -102.710167 31,300 116 498 1984
2022-05-23 01:50:31 GMT 39.261887 -102.724434 30,500 116 501 1472
2022-05-23 01:50:28 GMT 39.266006 -102.735062 30,975 116 500 2112
2022-05-23 01:50:24 GMT 39.269234 -102.743347 30,875 116 500 2176
2022-05-23 01:50:20 GMT 39.272415 -102.751541 30,750 116 501 1984
2022-05-23 01:50:15 GMT 39.277725 -102.765099 30,575 116 501 1408
2022-05-23 01:50:12 GMT 39.280518 -102.772263 30,550 116 501 1472
2022-05-23 01:50:09 GMT 39.284595 -102.782654 30,275 116 501 1536
2022-05-23 01:50:05 GMT 39.288834 -102.793457 30,325 116 502 1344
2022-05-23 01:50:02 GMT 39.291672 -102.800720 30,325 116 502 1344
2022-05-23 01:49:59 GMT 39.300888 -102.824219 29,975 116 501 1408
2022-05-23 01:49:55 GMT 39.300888 -102.824219 30,075 116 501 1408
2022-05-23 01:49:52 GMT 39.302261 -102.827728 30,050 116 501 1408
2022-05-23 01:49:49 GMT 39.305450 -102.835876 29,975 116 501 1472
2022-05-23 01:49:44 GMT 39.310593 -102.848930 29,800 116 501 1600
2022-05-23 01:49:40 GMT 39.314201 -102.858215 29,775 116 501 1600
2022-05-23 01:49:37 GMT 39.317276 -102.866066 29,550 116 501 1664
2022-05-23 01:49:33 GMT 39.321625 -102.877113 29,575 116 501 1536
2022-05-23 01:49:30 GMT 39.325237 -102.886414 29,475 116 501 1472
2022-05-23 01:49:27 GMT 39.327942 -102.893349 29,325 116 500 1664
2022-05-23 01:49:22 GMT 39.332497 -102.905029 29,200 116 500 1728
2022-05-23 01:49:19 GMT 39.335663 -102.913086 29,200 116 500 1664
2022-05-23 01:49:16 GMT 39.339615 -102.923149 29,125 116 501 1408
2022-05-23 01:49:13 GMT 39.343094 -102.932343 29,025 115 501 1536
2022-05-23 01:49:10 GMT 39.346619 -102.941895 28,925 114 503 1856
2022-05-23 01:49:06 GMT 39.349228 -102.949478 28,850 113 503 1728
2022-05-23 01:49:02 GMT 39.353073 -102.961121 28,725 111 505 1472
2022-05-23 01:48:59 GMT 39.356186 -102.971214 28,650 110 505 1344
2022-05-23 01:48:55 GMT 39.359207 -102.981483 28,575 110 505 1408
2022-05-23 01:48:52 GMT 39.361687 -102.990112 28,475 110 505 1664
2022-05-23 01:48:48 GMT 39.365387 -103.002914 28,350 110 505 1536
2022-05-23 01:48:45 GMT 39.367126 -103.008888 28,300 110 505 1472
2022-05-23 01:48:41 GMT 39.370331 -103.019997 28,225 110 504 1408
2022-05-23 01:48:38 GMT 39.372952 -103.029053 28,100 110 503 1472
2022-05-23 01:48:35 GMT 39.375961 -103.039520 28,050 110 503 1472
2022-05-23 01:48:30 GMT 39.378864 -103.049438 27,975 110 502 1344
2022-05-23 01:48:27 GMT 39.381702 -103.059265 27,850 110 501 1280
2022-05-23 01:48:24 GMT 39.384384 -103.068535 27,825 110 501 1408
2022-05-23 01:48:20 GMT 39.387680 -103.079941 27,725 110 500 1472
2022-05-23 01:48:17 GMT 39.390610 -103.090034 27,625 110 500 1472
2022-05-23 01:48:14 GMT 39.392643 -103.097168 27,575 110 499 1344
2022-05-23 01:48:10 GMT 39.395416 -103.106750 27,500 110 498 1216
2022-05-23 01:48:06 GMT 39.399391 -103.120544 27,400 110 497 1280
2022-05-23 01:48:03 GMT 39.401722 -103.128601 27,325 110 496 1408
2022-05-23 01:48:00 GMT 39.403748 -103.135529 27,275 110 496 1408
2022-05-23 01:47:54 GMT 39.412380 -103.165527 27,125 110 481 1152
2022-05-23 01:47:49 GMT 39.412380 -103.165527 27,025 110 493 1344
2022-05-23 01:47:45 GMT 39.415733 -103.177124 26,925 110 492 1344
2022-05-23 01:47:42 GMT 39.418667 -103.187439 26,850 110 491 1408
2022-05-23 01:47:39 GMT 39.420620 -103.194153 26,775 110 490 1408
2022-05-23 01:47:34 GMT 39.424206 -103.206543 26,675 110 489 1344
2022-05-23 01:47:31 GMT 39.426861 -103.215820 26,625 110 488 1152
2022-05-23 01:47:28 GMT 39.428650 -103.222046 26,575 110 487 1152
2022-05-23 01:47:24 GMT 39.432541 -103.235603 26,475 110 486 1344
2022-05-23 01:47:18 GMT 39.436775 -103.250366 26,350 110 484 1280
2022-05-23 01:47:12 GMT 39.440777 -103.264343 26,250 110 483 1216
2022-05-23 01:47:07 GMT 39.446133 -103.283020 26,100 110 479 960
2022-05-23 01:47:02 GMT 39.448833 -103.292419 23,250 110 460 2240
2022-05-23 01:46:55 GMT 39.454185 -103.311035 25,900 110 475 1536
2022-05-23 01:46:52 GMT 39.457306 -103.321877 25,825 110 474 1216
2022-05-23 01:46:45 GMT 39.462517 -103.340088 25,675 110 472 1408
2022-05-23 01:46:41 GMT 39.465778 -103.351440 25,575 110 471 1472
2022-05-23 01:46:35 GMT 39.471130 -103.370117 25,375 110 468 1856
2022-05-23 01:46:30 GMT 39.473373 -103.377945 25,300 110 467 1792
2022-05-23 01:46:26 GMT 39.476391 -103.388550 25,175 110 467 1536
2022-05-23 01:46:20 GMT 39.481659 -103.407082 25,000 110 464 1600
2022-05-23 01:46:16 GMT 39.484306 -103.416321 24,900 110 463 2432
2022-05-23 01:46:09 GMT 39.489517 -103.434631 24,625 110 464 1600
2022-05-23 01:46:05 GMT 39.491894 -103.443054 24,550 110 462 1216
2022-05-23 01:45:58 GMT 39.497131 -103.461594 24,350 109 460 2560
2022-05-23 01:45:55 GMT 39.499649 -103.470490 24,200 110 459 2432
2022-05-23 01:45:52 GMT 39.501801 -103.478195 24,075 110 460 2240
2022-05-23 01:45:48 GMT 39.504974 -103.489258 23,925 110 459 2048
2022-05-23 01:45:44 GMT 39.507114 -103.496643 23,825 110 459 1792
2022-05-23 01:45:37 GMT 39.512703 -103.516235 23,600 110 456 1984
2022-05-23 01:45:33 GMT 39.515308 -103.525452 23,475 110 456 2176
2022-05-23 01:45:30 GMT 39.517868 -103.534561 23,350 109 456 2240
2022-05-23 01:45:26 GMT 39.520290 -103.543152 23,225 109 456 1792
2022-05-23 01:45:23 GMT 39.522308 -103.550262 23,150 109 454 1344
2022-05-23 01:45:19 GMT 39.525410 -103.561462 23,075 109 452 1344
2022-05-23 01:45:16 GMT 39.528259 -103.571701 22,925 109 450 2240
2022-05-23 01:45:13 GMT 39.529770 -103.576950 22,850 110 450 2688
2022-05-23 01:45:06 GMT 39.535263 -103.596420 22,500 110 450 2816
2022-05-23 01:45:03 GMT 39.537506 -103.604240 22,350 110 451 2560
2022-05-23 01:44:59 GMT 39.540306 -103.614136 22,200 110 450 1984
2022-05-23 01:44:54 GMT 39.543137 -103.624062 22,100 110 450 1664
2022-05-23 01:44:51 GMT 39.546684 -103.636475 21,975 110 447 1664
2022-05-23 01:44:48 GMT 39.547760 -103.640366 21,925 110 447 1664
2022-05-23 01:44:45 GMT 39.550003 -103.648300 21,825 110 445 1984
2022-05-23 01:44:42 GMT 39.552383 -103.656601 21,725 110 445 2048
2022-05-23 01:44:38 GMT 39.554993 -103.665741 21,600 110 444 1920
2022-05-23 01:44:33 GMT 39.558414 -103.677734 21,450 110 442 1600
2022-05-23 01:44:30 GMT 39.560513 -103.685059 21,375 110 441 1408
2022-05-23 01:44:27 GMT 39.562466 -103.692017 21,300 110 440 1408
2022-05-23 01:44:24 GMT 39.565536 -103.702759 21,175 110 436 1856
2022-05-23 01:44:20 GMT 39.568039 -103.711533 21,075 110 435 2304
2022-05-23 01:44:14 GMT 39.572010 -103.725586 20,850 110 435 2304
2022-05-23 01:44:11 GMT 39.574081 -103.732910 20,750 110 434 2048
2022-05-23 01:44:07 GMT 39.576736 -103.742348 20,625 109 433 2048
2022-05-23 01:44:01 GMT 39.581085 -103.757690 20,375 109 431 2176
2022-05-23 01:43:58 GMT 39.583183 -103.765381 20,275 109 431 2240
2022-05-23 01:43:53 GMT 39.585835 -103.774719 20,025 111 428 2432
2022-05-23 01:43:50 GMT 39.588547 -103.783958 19,975 112 427 2496
2022-05-23 01:43:45 GMT 39.591515 -103.793335 19,725 113 425 2304
2022-05-23 01:43:42 GMT 39.593994 -103.800735 19,625 115 424 2176
2022-05-23 01:43:39 GMT 39.596729 -103.808411 19,575 115 422 2176
2022-05-23 01:43:34 GMT 39.600311 -103.817871 19,400 116 420 2304
2022-05-23 01:43:31 GMT 39.603664 -103.826172 19,150 117 418 2432
2022-05-23 01:43:28 GMT 39.605900 -103.831665 19,150 117 418 2368
2022-05-23 01:43:23 GMT 39.611435 -103.845100 18,825 118 416 2048
2022-05-23 01:43:20 GMT 39.613312 -103.849640 18,825 118 416 2048
2022-05-23 01:43:17 GMT 39.615784 -103.855667 18,775 117 415 2368
2022-05-23 01:43:14 GMT 39.619171 -103.863968 18,625 117 413 2368
2022-05-23 01:43:11 GMT 39.621773 -103.870239 18,475 117 413 2240
2022-05-23 01:43:08 GMT 39.625443 -103.879196 18,350 118 412 2304
2022-05-23 01:43:04 GMT 39.628647 -103.887016 18,225 118 410 2368
2022-05-23 01:43:01 GMT 39.631641 -103.894165 18,050 117 409 2560
2022-05-23 01:42:58 GMT 39.633831 -103.899536 17,975 118 408 2560
2022-05-23 01:42:54 GMT 39.637390 -103.908211 17,800 117 409 2560
2022-05-23 01:42:50 GMT 39.640366 -103.915733 17,550 114 409 2112
2022-05-23 01:42:47 GMT 39.642906 -103.922791 17,550 114 409 2176
2022-05-23 01:42:43 GMT 39.646027 -103.931885 17,350 111 408 1920
2022-05-23 01:42:40 GMT 39.647564 -103.936707 17,350 111 408 1920
2022-05-23 01:42:37 GMT 39.650620 -103.946907 17,175 109 407 2368
2022-05-23 01:42:30 GMT 39.655106 -103.963982 16,675 104 407 2368
2022-05-23 01:42:26 GMT 39.656708 -103.970909 16,725 105 408 2496
2022-05-23 01:42:22 GMT 39.658596 -103.979919 16,550 104 408 2368
2022-05-23 01:42:19 GMT 39.660004 -103.987564 16,275 101 407 2496
2022-05-23 01:42:15 GMT 39.661285 -103.995148 16,300 101 407 2496
2022-05-23 01:42:10 GMT 39.663574 -104.011391 15,975 99 407 3136
2022-05-23 01:42:05 GMT 39.664856 -104.021004 15,775 99 407 3264
2022-05-23 01:42:02 GMT 39.665997 -104.029358 15,575 99 407 3264
2022-05-23 01:41:58 GMT 39.667397 -104.039856 15,350 100 407 2816
2022-05-23 01:41:54 GMT 39.668198 -104.045540 15,250 100 406 2560
2022-05-23 01:41:49 GMT 39.670280 -104.060913 14,975 99 405 2816
2022-05-23 01:41:45 GMT 39.671585 -104.070259 14,800 99 404 2880
2022-05-23 01:41:41 GMT 39.672840 -104.079773 14,600 99 403 2624
2022-05-23 01:41:37 GMT 39.673725 -104.085938 14,500 99 403 2496
2022-05-23 01:41:33 GMT 39.674984 -104.095520 14,350 99 400 2112
2022-05-23 01:41:28 GMT 39.676804 -104.108833 14,075 100 396 1920
2022-05-23 01:41:24 GMT 39.678360 -104.120003 14,000 100 394 2048
2022-05-23 01:41:19 GMT 39.679962 -104.131897 13,800 100 392 2176
2022-05-23 01:41:12 GMT 39.682289 -104.148560 13,550 100 389 2048
2022-05-23 01:41:09 GMT 39.682938 -104.153198 13,450 100 387 2112
2022-05-23 01:41:06 GMT 39.683762 -104.159348 13,400 100 385 2176
2022-05-23 01:41:02 GMT 39.685593 -104.172424 13,200 100 382 2048
2022-05-23 01:40:56 GMT 39.687134 -104.183594 13,025 100 379 1728
2022-05-23 01:40:53 GMT 39.688065 -104.190186 12,950 100 375 1216
2022-05-23 01:40:48 GMT 39.689415 -104.200195 12,825 100 366 1152
2022-05-23 01:40:44 GMT 39.690533 -104.207947 12,800 100 369 1344
2022-05-23 01:40:40 GMT 39.692207 -104.219971 12,700 99 363 1088
2022-05-23 01:40:36 GMT 39.693230 -104.227661 12,075 99 360 1152
2022-05-23 01:40:32 GMT 39.694336 -104.235954 12,550 99 355 1024
2022-05-23 01:40:29 GMT 39.695328 -104.243164 12,500 99 351 832
2022-05-23 01:40:24 GMT 39.696259 -104.250221 12,475 99 344 576
2022-05-23 01:40:20 GMT 39.697357 -104.258400 12,425 99 340 576
2022-05-23 01:40:15 GMT 39.699097 -104.271004 12,300 101 333 1344
2022-05-23 01:40:10 GMT 39.700214 -104.278015 12,225 103 329 1152
2022-05-23 01:40:07 GMT 39.702026 -104.287300 12,150 105 324 768
2022-05-23 01:40:04 GMT 39.704266 -104.297424 12,075 106 318 640
2022-05-23 01:40:01 GMT 39.704266 -104.297424 12,100 106 313 640
2022-05-23 01:39:56 GMT 39.706238 -104.305931 12,025 106 307 1280
2022-05-23 01:39:53 GMT 39.707012 -104.309204 11,875 106 301 2240
2022-05-23 01:39:49 GMT 39.708801 -104.317039 11,825 106 301 2240
2022-05-23 01:39:43 GMT 39.712643 -104.333679 11,450 106 298 3008
2022-05-23 01:39:40 GMT 39.712643 -104.333679 11,400 106 298 3072
2022-05-23 01:39:33 GMT 39.716766 -104.351486 10,975 106 297 3328
2022-05-23 01:39:29 GMT 39.716766 -104.351486 10,825 106 298 3392
2022-05-23 01:39:23 GMT 39.720978 -104.370056 10,375 106 298 2752
2022-05-23 01:39:18 GMT 39.720978 -104.370056 10,325 106 297 2240
2022-05-23 01:39:14 GMT 39.722946 -104.378891 10,150 105 296 1664
2022-05-23 01:39:11 GMT 39.723816 -104.382896 10,100 105 296 1408
2022-05-23 01:39:08 GMT 39.724747 -104.387268 10,050 105 294 1024
2022-05-23 01:39:01 GMT 39.727306 -104.399658 9,950 105 292 832
2022-05-23 01:38:57 GMT 39.728470 -104.405090 9,900 105 291 768
2022-05-23 01:38:51 GMT 39.730957 -104.417229 9,850 104 290 0
2022-05-23 01:38:48 GMT 39.732010 -104.422241 9,850 104 290 0
2022-05-23 01:38:42 GMT 39.734070 -104.432335 9,850 104 290 64
2022-05-23 01:38:39 GMT 39.734756 -104.435730 9,850 105 291 -64
2022-05-23 01:38:36 GMT 39.735733 -104.440430 9,850 104 290 0
2022-05-23 01:38:30 GMT 39.738293 -104.452881 9,850 105 291 -64
2022-05-23 01:38:27 GMT 39.739319 -104.457886 9,850 105 291 0
2022-05-23 01:38:19 GMT 39.742111 -104.471313 9,875 105 291 -64
2022-05-23 01:38:16 GMT 39.743042 -104.475708 9,875 105 292 -64
2022-05-23 01:38:09 GMT 39.745789 -104.488770 9,875 105 292 -64
2022-05-23 01:38:05 GMT 39.749008 -104.494041 9,200 103 289 2944
2022-05-23 01:38:04 GMT 39.749580 -104.497429 9,200 103 289 2944
2022-05-23 01:38:02 GMT 39.749870 -104.499123 9,200 103 289 2944
2022-05-23 01:38:01 GMT 39.750149 -104.500809 9,200 103 289 2944
2022-05-23 01:37:59 GMT 39.750721 -104.504204 9,200 103 289 2944
2022-05-23 01:37:58 GMT 39.751011 -104.505890 9,200 103 289 2944
2022-05-23 01:37:57 GMT 39.751579 -104.509277 9,200 103 289 2944
2022-05-23 01:37:55 GMT 39.751869 -104.510971 9,200 103 289 2944
2022-05-23 01:37:54 GMT 39.752159 -104.512672 9,200 103 289 2944
2022-05-23 01:37:52 GMT 39.752731 -104.516052 9,200 103 289 2944
2022-05-23 01:37:51 GMT 39.753010 -104.517754 9,200 103 289 2944
2022-05-23 01:37:50 GMT 39.753300 -104.519440 9,200 103 289 2944
2022-05-23 01:37:49 GMT 39.753868 -104.522827 9,200 103 289 2944
2022-05-23 01:37:47 GMT 39.754162 -104.524521 9,200 103 289 2944
2022-05-23 01:37:46 GMT 39.754730 -104.527908 9,200 103 289 2944
2022-05-23 01:37:44 GMT 39.755020 -104.529602 9,200 103 289 2944
2022-05-23 01:37:43 GMT 39.755299 -104.531303 9,200 103 289 2944
2022-05-23 01:37:42 GMT 39.755871 -104.534683 9,200 103 289 2944
2022-05-23 01:37:41 GMT 39.756161 -104.536377 9,200 103 289 2944
2022-05-23 01:37:39 GMT 39.756439 -104.538071 9,200 103 289 2944
2022-05-23 01:37:38 GMT 39.756729 -104.539772 9,200 103 289 2944
2022-05-23 01:37:37 GMT 39.757019 -104.541458 9,200 103 289 2944
2022-05-23 01:37:35 GMT 39.757591 -104.544853 9,200 103 289 2944
2022-05-23 01:37:34 GMT 39.757751 -104.547050 8,900 106 275 2944
2022-05-23 01:37:32 GMT 39.758400 -104.550240 8,900 106 275 2944
2022-05-23 01:37:31 GMT 39.758732 -104.551826 8,900 106 275 2944
2022-05-23 01:37:30 GMT 39.759048 -104.553429 8,900 106 275 2944
2022-05-23 01:37:29 GMT 39.759571 -104.556938 8,500 110 265 2944
2022-05-23 01:37:27 GMT 39.759960 -104.558449 8,500 110 265 2944
2022-05-23 01:37:26 GMT 39.760479 -104.562111 8,500 114 256 672
2022-05-23 01:37:24 GMT 39.760941 -104.563522 8,500 114 256 672
2022-05-23 01:37:23 GMT 39.761398 -104.564941 8,500 114 256 672
2022-05-23 01:37:22 GMT 39.762321 -104.567772 8,500 114 256 672
2022-05-23 01:37:20 GMT 39.762440 -104.569092 8,300 118 264 672
2022-05-23 01:37:19 GMT 39.763550 -104.571922 8,300 118 264 672
2022-05-23 01:37:17 GMT 39.764099 -104.573334 8,300 118 264 672
2022-05-23 01:37:16 GMT 39.764660 -104.574738 8,300 118 264 672
2022-05-23 01:37:14 GMT 39.765572 -104.577438 8,000 121 274 672
2022-05-23 01:37:13 GMT 39.766220 -104.578842 8,000 121 274 672
2022-05-23 01:37:12 GMT 39.766880 -104.580254 8,000 121 274 672
2022-05-23 01:37:11 GMT 39.767502 -104.581612 8,000 122 276 672
2022-05-23 01:37:09 GMT 39.768742 -104.584541 8,000 126 270 672
2022-05-23 01:37:08 GMT 39.769470 -104.585861 8,000 126 270 672
2022-05-23 01:37:07 GMT 39.770199 -104.587219 8,000 126 267 672
2022-05-23 01:37:05 GMT 39.771629 -104.589844 7,800 129 264 672
2022-05-23 01:37:04 GMT 39.772369 -104.591148 7,800 130 262 672
2022-05-23 01:37:03 GMT 39.773121 -104.592400 7,800 131 260 672
2022-05-23 01:37:01 GMT 39.774639 -104.594803 7,800 133 259 672
2022-05-23 01:37:00 GMT 39.775471 -104.596001 7,800 134 256 672
2022-05-23 01:36:59 GMT 39.776279 -104.597137 7,800 134 254 672
2022-05-23 01:36:57 GMT 39.777920 -104.599327 7,700 134 252 672
2022-05-23 01:36:56 GMT 39.778728 -104.600418 7,700 134 250 672
2022-05-23 01:36:54 GMT 39.780380 -104.602577 7,700 134 247 672
2022-05-23 01:36:53 GMT 39.781189 -104.603638 7,700 134 246 672
2022-05-23 01:36:52 GMT 39.781979 -104.604668 7,500 134 246 672
2022-05-23 01:36:51 GMT 39.783569 -104.606789 7,500 134 243 672
2022-05-23 01:36:49 GMT 39.784370 -104.607841 7,500 134 240 672
2022-05-23 01:36:48 GMT 39.785141 -104.608849 7,500 133 240 672
2022-05-23 01:36:47 GMT 39.785931 -104.609863 7,500 133 239 672
2022-05-23 01:36:45 GMT 39.787479 -104.611954 7,500 132 235 672
2022-05-23 01:36:44 GMT 39.788261 -104.613022 7,500 132 231 672
2022-05-23 01:36:43 GMT 39.788979 -104.614021 7,400 132 232 672
2022-05-23 01:36:42 GMT 39.789700 -104.615021 7,400 132 232 672
2022-05-23 01:36:40 GMT 39.791149 -104.617081 7,400 132 229 672
2022-05-23 01:36:39 GMT 39.791901 -104.618134 7,400 132 226 672
2022-05-23 01:36:37 GMT 39.793308 -104.620087 7,400 132 225 672
2022-05-23 01:36:36 GMT 39.794029 -104.621094 7,400 132 223 672
2022-05-23 01:36:34 GMT 39.796162 -104.623993 7,325 131 218 672
2022-05-23 01:36:32 GMT 39.796848 -104.624962 7,325 131 216 672
2022-05-23 01:36:31 GMT 39.797539 -104.625908 7,300 131 214 672
2022-05-23 01:36:29 GMT 39.798851 -104.627762 7,275 132 213 672
2022-05-23 01:36:28 GMT 39.799500 -104.628693 7,100 134 212 672
2022-05-23 01:36:27 GMT 39.800159 -104.629631 7,100 136 210 672
2022-05-23 01:36:26 GMT 39.801559 -104.631378 7,100 139 205 864
2022-05-23 01:36:24 GMT 39.802979 -104.633018 7,100 143 200 864
2022-05-23 01:36:22 GMT 39.803699 -104.633789 7,100 145 198 864
2022-05-23 01:36:21 GMT 39.804459 -104.634468 7,100 146 196 864
2022-05-23 01:36:20 GMT 39.805950 -104.635757 7,000 150 194 864
2022-05-23 01:36:18 GMT 39.806690 -104.636360 7,000 152 194 864
2022-05-23 01:36:17 GMT 39.807468 -104.636932 7,000 153 192 864
2022-05-23 01:36:16 GMT 39.809059 -104.638023 6,925 157 188 864
2022-05-23 01:36:14 GMT 39.809879 -104.638428 6,925 158 186 864
2022-05-23 01:36:13 GMT 39.810631 -104.638847 6,925 159 188 864
2022-05-23 01:36:12 GMT 39.811451 -104.639282 6,925 161 184 864
2022-05-23 01:36:10 GMT 39.813061 -104.639992 6,850 164 181 864
2022-05-23 01:36:09 GMT 39.813839 -104.640297 6,850 166 182 864
2022-05-23 01:36:08 GMT 39.814651 -104.640602 6,850 168 180 864
2022-05-23 01:36:07 GMT 39.816299 -104.641068 6,800 170 173 864
2022-05-23 01:36:05 GMT 39.817089 -104.641258 6,775 171 172 864
2022-05-23 01:36:03 GMT 39.818680 -104.641579 6,700 174 167 864
2022-05-23 01:36:02 GMT 39.819469 -104.641701 6,700 175 166 864
2022-05-23 01:36:01 GMT 39.820210 -104.641823 6,650 176 168 864
2022-05-23 01:35:59 GMT 39.821770 -104.641930 6,600 177 166 864
2022-05-23 01:35:58 GMT 39.822552 -104.641991 6,500 178 164 864
2022-05-23 01:35:56 GMT 39.824070 -104.642052 6,475 179 164 864
2022-05-23 01:35:55 GMT 39.824821 -104.642082 6,450 179 165 864
2022-05-23 01:35:54 GMT 39.825588 -104.642082 6,300 179 164 864
2022-05-23 01:35:53 GMT 39.826328 -104.642097 6,300 180 166 864
2022-05-23 01:35:51 GMT 39.827850 -104.642082 6,200 180 166 864
2022-05-23 01:35:50 GMT 39.828651 -104.642090 6,200 181 159 864
2022-05-23 01:35:49 GMT 39.830139 -104.642029 6,150 181 157 864
2022-05-23 01:35:47 GMT 39.830860 -104.642021 6,100 181 167 864
2022-05-23 01:35:46 GMT 39.831631 -104.641960 6,050 181 164 864
2022-05-23 01:35:45 GMT 39.832409 -104.641922 5,900 180 161 864
2022-05-23 01:35:43 GMT 39.833931 -104.641876 5,900 180 159 864
2022-05-23 01:35:42 GMT 39.834660 -104.641876 5,675 181 161 864
2022-05-23 01:35:41 GMT 39.835388 -104.641853 5,675 181 163 864
2022-05-23 01:35:39 GMT 39.836891 -104.641808 5,675 181 165 864
2022-05-23 01:35:38 GMT 39.837650 -104.641777 5,675 181 164 864
2022-05-23 01:35:37 GMT 39.839169 -104.641739 5,600 181 160 864
2022-05-23 01:35:35 GMT 39.839890 -104.641701 5,550 181 162 864
2022-05-23 01:35:34 GMT 39.840641 -104.641693 5,525 181 161 864
2022-05-23 01:35:33 GMT 39.842110 -104.641647 5,425 180 164 864
2022-05-23 01:35:31 GMT 39.842869 -104.641632 5,400 180 162 864
2022-05-23 01:35:30 GMT 39.843609 -104.641617 5,350 181 162 864
2022-05-23 01:35:28 GMT 39.845100 -104.641563 5,275 180 162 864
2022-05-23 01:35:27 GMT 39.845810 -104.641548 5,250 180 164 864
2022-05-23 01:35:26 GMT 39.846539 -104.641541 5,225 180 165 864
2022-05-23 01:35:24 GMT 39.848049 -104.641510 5,200 180 161 800
2022-05-23 01:35:23 GMT 39.848808 -104.641502 5,200 180 155 800
2022-05-23 01:35:22 GMT 39.849541 -104.641510 5,200 181 152 -224
2022-05-23 01:35:20 GMT 39.850971 -104.641441 5,200 179 143 -224
2022-05-23 01:35:19 GMT 39.851631 -104.641441 5,200 179 142 -224
2022-05-23 01:35:18 GMT 39.852291 -104.641457 5,200 180 139 -224
2022-05-23 01:35:17 GMT 39.853550 -104.641434 5,200 180 135 -224
2022-05-23 01:35:15 GMT 39.854179 -104.641441 5,200 180 132 -224
2022-05-23 01:35:14 GMT 39.854832 -104.641449 5,200 180 125 -224
2022-05-23 01:35:12 GMT 39.855980 -104.641418 5,200 180 117 -224
2022-05-23 01:35:11 GMT 39.856522 -104.641418 5,200 180 115 -224
2022-05-23 01:35:10 GMT 39.857059 -104.641403 5,200 180 110 -224
2022-05-23 01:35:09 GMT 39.857578 -104.641418 5,200 180 107 -224
2022-05-23 01:35:08 GMT 39.858551 -104.641411 5,200 181 101 -224
2022-05-23 01:35:06 GMT 39.859032 -104.641388 5,175 180 96
2022-05-23 01:35:05 GMT 39.859470 -104.641380 0 180 93
2022-05-23 01:35:04 GMT 39.859909 -104.641373 0 180 87
2022-05-23 01:35:02 GMT 39.860710 -104.641342 0 179 79
2022-05-23 01:35:01 GMT 39.861092 -104.641327 0 179 75
2022-05-23 01:35:00 GMT 39.861450 -104.641357 0 180 70
2022-05-23 01:34:59 GMT 39.862080 -104.641380 0 181 63
2022-05-23 01:34:57 GMT 39.862389 -104.641357 0 181 57
2022-05-23 01:34:56 GMT 39.862652 -104.641342 0 180 54
2022-05-23 01:34:55 GMT 39.863159 -104.641319 0 180 44
2022-05-23 01:34:53 GMT 39.863392 -104.641342 0 180 37
2022-05-23 01:34:52 GMT 39.863579 -104.641319 0 180 32
2022-05-23 01:34:51 GMT 39.863918 -104.641342 0 183 21
2022-05-23 01:34:49 GMT 39.864052 -104.641312 0 177 15
2022-05-23 01:34:48 GMT 39.864231 -104.641327 0 178 8
2022-05-23 01:34:46 GMT 39.864288 -104.641312 0 182 7
2022-05-23 01:34:45 GMT 39.864368 -104.641319 0 180 0
2022-05-23 01:34:44 GMT 39.864380 -104.641319 0 180 0
2022-05-23 01:34:40 GMT 39.864380 -104.641327 0 180 0
2022-05-23 01:34:37 GMT 39.864368 -104.641327 0 180 0
2022-05-23 01:34:33 GMT 39.864380 -104.641319 0 180 0
2022-05-23 01:34:31 GMT 39.864391 -104.641327 0 181 2
2022-05-23 01:34:30 GMT 39.864380 -104.641327 0 181 0
2022-05-23 01:34:29 GMT 39.864391 -104.641342 0 181 2
2022-05-23 01:34:27 GMT 39.864368 -104.641319 0 181 0
2022-05-23 01:34:26 GMT 39.864380 -104.641327 0 181 0
2022-05-23 01:34:25 GMT 39.864368 -104.641327 0 181 0
2022-05-23 01:34:23 GMT 39.864361 -104.641342 0 188 4
2022-05-23 01:34:21 GMT 39.864380 -104.641327 0 188 4
2022-05-23 01:34:19 GMT 39.864429 -104.641289 0 174 6
2022-05-23 01:34:17 GMT 39.864449 -104.641296 0 182 8
2022-05-23 01:34:16 GMT 39.864479 -104.641312 0 178 8
2022-05-23 01:34:14 GMT 39.864540 -104.641296 0 154 9
2022-05-23 01:34:13 GMT 39.864590 -104.641281 0 134 8
2022-05-23 01:34:11 GMT 39.864658 -104.641327 0 128 10
2022-05-23 01:34:10 GMT 39.864681 -104.641373 0 126 10
2022-05-23 01:34:09 GMT 39.864712 -104.641418 0 124 11
2022-05-23 01:34:08 GMT 39.864738 -104.641479 0 119 10
2022-05-23 01:34:06 GMT 39.864799 -104.641563 0 100 10
2022-05-23 01:34:05 GMT 39.864819 -104.641586 0 95 13
2022-05-23 01:34:04 GMT 39.864819 -104.641678 0 97 13
2022-05-23 01:34:03 GMT 39.864830 -104.641769 0 95 11
2022-05-23 01:34:01 GMT 39.864849 -104.641922 0 94 9
2022-05-23 01:34:00 GMT 39.864849 -104.641960 0 91 10
2022-05-23 01:33:58 GMT 39.864861 -104.642090 0 88 10
2022-05-23 01:33:57 GMT 39.864849 -104.642174 0 89 9
2022-05-23 01:33:56 GMT 39.864849 -104.642220 0 92 9
2022-05-23 01:33:55 GMT 39.864849 -104.642303 0 94 11
2022-05-23 01:33:53 GMT 39.864880 -104.642410 0 85 6
2022-05-23 01:33:52 GMT 39.864868 -104.642479 0 83 7
2022-05-23 01:33:50 GMT 39.864861 -104.642532 0 85 6
2022-05-23 01:33:49 GMT 39.864861 -104.642570 0 88 6
2022-05-23 01:33:47 GMT 39.864861 -104.642647 0 85 5
2022-05-23 01:33:46 GMT 39.864849 -104.642693 0 85 4
2022-05-23 01:33:45 GMT 39.864861 -104.642723 0 79 4
2022-05-23 01:33:43 GMT 39.864849 -104.642761 0 78 3
2022-05-23 01:33:42 GMT 39.864849 -104.642776 0 72 3
2022-05-23 01:33:41 GMT 39.864861 -104.642830 0 69 0
2022-05-23 01:33:39 GMT 39.864861 -104.642830 0 71 0
2022-05-23 01:33:37 GMT 39.864849 -104.642830 0 71 0
2022-05-23 01:33:34 GMT 39.864849 -104.642838 0 72 0
2022-05-23 01:33:29 GMT 39.864849 -104.642830 0 72 0
2022-05-23 01:33:27 GMT 39.864849 -104.642822 0 72 0
2022-05-23 01:33:25 GMT 39.864849 -104.642830 0 74 0
2022-05-23 01:33:24 GMT 39.864849 -104.642822 0 74 0
2022-05-23 01:33:22 GMT 39.864841 -104.642799 0 71 3
2022-05-23 01:33:20 GMT 39.864861 -104.642830 0 71 0
2022-05-23 01:33:19 GMT 39.864868 -104.642838 0 71 1
2022-05-23 01:33:17 GMT 39.864868 -104.642822 0 81 3
2022-05-23 01:33:16 GMT 39.864868 -104.642830 0 84 4
2022-05-23 01:33:15 GMT 39.864841 -104.642883 0 91 2
2022-05-23 01:33:13 GMT 39.864849 -104.642883 0 91 5
2022-05-23 01:33:12 GMT 39.864861 -104.642906 0 91 4
2022-05-23 01:33:10 GMT 39.864849 -104.642960 0 100 3
2022-05-23 01:33:09 GMT 39.864849 -104.642982 0 96 4
2022-05-23 01:33:08 GMT 39.864868 -104.643013 0 89 4
2022-05-23 01:33:07 GMT 39.864861 -104.643021 0 92 5
2022-05-23 01:33:06 GMT 39.864861 -104.643089 0 94 5
2022-05-23 01:33:04 GMT 39.864868 -104.643120 0 89 5
2022-05-23 01:33:02 GMT 39.864868 -104.643188 0 88 7
2022-05-23 01:33:00 GMT 39.864849 -104.643219 0 93 9
2022-05-23 01:32:59 GMT 39.864849 -104.643280 0 96 8
2022-05-23 01:32:57 GMT 39.864861 -104.643356 0 94 10
2022-05-23 01:32:56 GMT 39.864868 -104.643417 0 91 10
2022-05-23 01:32:55 GMT 39.864880 -104.643494 0 87 9
2022-05-23 01:32:54 GMT 39.864891 -104.643539 0 83 9
2022-05-23 01:32:52 GMT 39.864868 -104.643646 0 84 10
2022-05-23 01:32:51 GMT 39.864868 -104.643700 0 86 11
2022-05-23 01:32:50 GMT 39.864849 -104.643753 0 92 13
2022-05-23 01:32:48 GMT 39.864861 -104.643921 0 93 10
2022-05-23 01:32:47 GMT 39.864849 -104.643982 0 95 10
2022-05-23 01:32:46 GMT 39.864861 -104.644028 0 93 11
2022-05-23 01:32:44 GMT 39.864880 -104.644157 0 87 12
2022-05-23 01:32:43 GMT 39.864868 -104.644318 0 87 10
2022-05-23 01:32:41 GMT 39.864861 -104.644371 0 91 11
2022-05-23 01:32:40 GMT 39.864868 -104.644440 0 90 11
2022-05-23 01:32:39 GMT 39.864868 -104.644577 0 92 11
2022-05-23 01:32:37 GMT 39.864868 -104.644592 0 91 17
2022-05-23 01:32:36 GMT 39.864880 -104.644707 0 87 15
2022-05-23 01:32:34 GMT 39.864880 -104.644882 0 85 15
2022-05-23 01:32:33 GMT 39.864868 -104.644974 0 88 14
2022-05-23 01:32:32 GMT 39.864861 -104.645073 0 94 13
2022-05-23 01:32:30 GMT 39.864880 -104.645233 0 90 13
2022-05-23 01:32:29 GMT 39.864868 -104.645317 0 90 12
2022-05-23 01:32:28 GMT 39.864868 -104.645401 0 91 11
2022-05-23 01:32:27 GMT 39.864880 -104.645538 0 90 10
2022-05-23 01:32:25 GMT 39.864880 -104.645599 0 90 11
2022-05-23 01:32:24 GMT 39.864868 -104.645660 0 93 11
2022-05-23 01:32:23 GMT 39.864880 -104.645729 0 88 10
2022-05-23 01:32:21 GMT 39.864880 -104.645851 0 90 11
2022-05-23 01:32:20 GMT 39.864868 -104.645912 0 91 11
2022-05-23 01:32:19 GMT 39.864880 -104.645973 0 90 13
2022-05-23 01:32:17 GMT 39.864880 -104.646103 0 87 15
2022-05-23 01:32:16 GMT 39.864868 -104.646187 0 90 15
2022-05-23 01:32:15 GMT 39.864868 -104.646301 0 92 15
2022-05-23 01:32:14 GMT 39.864868 -104.646446 0 93 18
2022-05-23 01:32:12 GMT 39.864891 -104.646561 0 89 18
2022-05-23 01:32:11 GMT 39.864880 -104.646667 0 91 18
2022-05-23 01:32:09 GMT 39.864891 -104.646889 0 90 18
2022-05-23 01:32:08 GMT 39.864891 -104.646988 0 91 19
2022-05-23 01:32:07 GMT 39.864899 -104.647087 0 90 20
2022-05-23 01:32:05 GMT 39.864899 -104.647331 0 90 20
2022-05-23 01:32:03 GMT 39.864899 -104.647560 0 88 20
2022-05-23 01:32:02 GMT 39.864910 -104.647690 0 86 20
2022-05-23 01:32:01 GMT 39.864891 -104.647797 0 91 21
2022-05-23 01:32:00 GMT 39.864891 -104.647926 0 91 21
2022-05-23 01:31:58 GMT 39.864899 -104.648178 0 90 20
2022-05-23 01:31:57 GMT 39.864899 -104.648300 0 90 21
2022-05-23 01:31:56 GMT 39.864899 -104.648453 0 91 19
2022-05-23 01:31:54 GMT 39.864910 -104.648666 0 86 20
2022-05-23 01:31:53 GMT 39.864899 -104.648804 0 88 19
2022-05-23 01:31:51 GMT 39.864891 -104.649017 0 91 21
2022-05-23 01:31:50 GMT 39.864899 -104.649147 0 89 20
2022-05-23 01:31:49 GMT 39.864891 -104.649269 0 92 20
2022-05-23 01:31:47 GMT 39.864899 -104.649513 0 89 21
2022-05-23 01:31:46 GMT 39.864899 -104.649643 0 92 20
2022-05-23 01:31:45 GMT 39.864899 -104.649773 0 94 20
2022-05-23 01:31:44 GMT 39.864922 -104.649902 0 88 18
2022-05-23 01:31:42 GMT 39.864910 -104.650124 0 90 18
2022-05-23 01:31:41 GMT 39.864910 -104.650238 0 91 17
2022-05-23 01:31:40 GMT 39.864922 -104.650322 0 87 20
2022-05-23 01:31:39 GMT 39.864910 -104.650574 0 89 18
2022-05-23 01:31:37 GMT 39.864922 -104.650688 0 86 17
2022-05-23 01:31:36 GMT 39.864910 -104.650803 0 88 17
2022-05-23 01:31:34 GMT 39.864910 -104.650993 0 89 19
2022-05-23 01:31:33 GMT 39.864899 -104.651108 0 90 19
2022-05-23 01:31:32 GMT 39.864910 -104.651237 0 88 18
2022-05-23 01:31:30 GMT 39.864922 -104.651451 0 89 19
2022-05-23 01:31:29 GMT 39.864910 -104.651550 0 90 20
2022-05-23 01:31:28 GMT 39.864899 -104.651657 0 93 22
2022-05-23 01:31:26 GMT 39.864922 -104.651932 0 90 21
2022-05-23 01:31:25 GMT 39.864910 -104.652061 0 91 21
2022-05-23 01:31:24 GMT 39.864929 -104.652184 0 88 21
2022-05-23 01:31:22 GMT 39.864922 -104.652390 0 89 26
2022-05-23 01:31:21 GMT 39.864922 -104.652573 0 89 23
2022-05-23 01:31:20 GMT 39.864910 -104.652702 0 91 25
2022-05-23 01:31:18 GMT 39.864910 -104.653000 0 93 24
2022-05-23 01:31:17 GMT 39.864922 -104.653160 0 90 22
2022-05-23 01:31:16 GMT 39.864929 -104.653290 0 90 23
2022-05-23 01:31:14 GMT 39.864929 -104.653572 0 88 24
2022-05-23 01:31:13 GMT 39.864929 -104.653709 0 90 24
2022-05-23 01:31:12 GMT 39.864929 -104.653862 0 88 24
2022-05-23 01:31:10 GMT 39.864922 -104.654152 0 91 24
2022-05-23 01:31:09 GMT 39.864922 -104.654312 0 93 23
2022-05-23 01:31:08 GMT 39.864929 -104.654442 0 92 24
2022-05-23 01:31:06 GMT 39.864948 -104.654732 0 88 22
2022-05-23 01:31:05 GMT 39.864948 -104.654861 0 87 23
2022-05-23 01:31:04 GMT 39.864948 -104.654999 0 86 23
2022-05-23 01:31:03 GMT 39.864941 -104.655151 0 89 22
2022-05-23 01:31:01 GMT 39.864922 -104.655388 0 95 24
2022-05-23 01:30:59 GMT 39.864941 -104.655670 0 93 24
2022-05-23 01:30:57 GMT 39.864960 -104.655983 0 90 22
2022-05-23 01:30:56 GMT 39.864971 -104.656113 0 89 21
2022-05-23 01:30:55 GMT 39.864971 -104.656342 0 85 23
2022-05-23 01:30:53 GMT 39.864948 -104.656487 0 89 22
2022-05-23 01:30:52 GMT 39.864941 -104.656647 0 94 20
2022-05-23 01:30:51 GMT 39.864960 -104.656754 0 88 21
2022-05-23 01:30:49 GMT 39.864960 -104.657021 0 89 18
2022-05-23 01:30:48 GMT 39.864960 -104.657112 0 90 19
2022-05-23 01:30:47 GMT 39.864979 -104.657211 0 86 22
2022-05-23 01:30:45 GMT 39.864960 -104.657478 0 88 18
2022-05-23 01:30:44 GMT 39.864960 -104.657593 0 88 18
2022-05-23 01:30:42 GMT 39.864948 -104.657799 0 93 19
2022-05-23 01:30:41 GMT 39.864960 -104.657944 0 89 17
2022-05-23 01:30:40 GMT 39.864971 -104.658020 0 89 19
2022-05-23 01:30:38 GMT 39.864948 -104.658249 0 93 19
2022-05-23 01:30:37 GMT 39.864979 -104.658379 0 88 18
2022-05-23 01:30:36 GMT 39.864971 -104.658607 0 89 17
2022-05-23 01:30:34 GMT 39.864960 -104.658707 0 91 18
2022-05-23 01:30:33 GMT 39.864960 -104.658829 0 92 16
2022-05-23 01:30:31 GMT 39.864979 -104.658997 0 89 19
2022-05-23 01:30:30 GMT 39.864971 -104.659142 0 92 17
2022-05-23 01:30:29 GMT 39.864979 -104.659248 0 91 17
2022-05-23 01:30:27 GMT 39.864971 -104.659447 0 96 16
2022-05-23 01:30:26 GMT 39.864990 -104.659554 0 92 16
2022-05-23 01:30:25 GMT 39.865002 -104.659653 0 86 17
2022-05-23 01:30:24 GMT 39.864990 -104.659752 0 87 15
2022-05-23 01:30:23 GMT 39.864990 -104.659851 0 86 14
2022-05-23 01:30:21 GMT 39.864990 -104.660027 0 88 13
2022-05-23 01:30:19 GMT 39.864979 -104.660187 0 88 14
2022-05-23 01:30:18 GMT 39.864979 -104.660248 0 89 16
2022-05-23 01:30:17 GMT 39.864971 -104.660393 0 93 11
2022-05-23 01:30:16 GMT 39.864990 -104.660492 0 81 8
2022-05-23 01:30:14 GMT 39.864971 -104.660561 0 82 13
2022-05-23 01:30:13 GMT 39.864960 -104.660629 0 93 15
2022-05-23 01:30:12 GMT 39.864960 -104.660751 0 95 12
2022-05-23 01:30:10 GMT 39.864960 -104.660881 0 98 13
2022-05-23 01:30:09 GMT 39.864979 -104.660973 0 92 12
2022-05-23 01:30:08 GMT 39.864990 -104.661049 0 89 11
2022-05-23 01:30:06 GMT 39.865009 -104.661148 0 80 15
2022-05-23 01:30:05 GMT 39.864979 -104.661270 0 85 10
2022-05-23 01:30:04 GMT 39.864979 -104.661324 0 89 11
2022-05-23 01:30:02 GMT 39.864948 -104.661438 0 99 15
2022-05-23 01:30:01 GMT 39.864971 -104.661522 0 94 15
2022-05-23 01:29:59 GMT 39.864979 -104.661697 0 77 13
2022-05-23 01:29:58 GMT 39.865002 -104.661812 0 59 10
2022-05-23 01:29:57 GMT 39.864979 -104.661873 0 55 10
2022-05-23 01:29:56 GMT 39.864929 -104.661957 0 51 12
2022-05-23 01:29:54 GMT 39.864929 -104.662041 0 39 12
2022-05-23 01:29:53 GMT 39.864868 -104.662086 0 37 10
2022-05-23 01:29:52 GMT 39.864819 -104.662148 0 29 8
2022-05-23 01:29:50 GMT 39.864780 -104.662231 0 2 10
2022-05-23 01:29:49 GMT 39.864681 -104.662239 0 3 10
2022-05-23 01:29:47 GMT 39.864620 -104.662277 0 348 8
2022-05-23 01:29:45 GMT 39.864559 -104.662239 0 7 10
2022-05-23 01:29:43 GMT 39.864460 -104.662262 0 2 9
2022-05-23 01:29:42 GMT 39.864429 -104.662277 0 357 9
2022-05-23 01:29:41 GMT 39.864399 -104.662292 0 355 11
2022-05-23 01:29:39 GMT 39.864288 -104.662277 0 351 9
2022-05-23 01:29:38 GMT 39.864208 -104.662292 0 349 6
2022-05-23 01:29:37 GMT 39.864208 -104.662262 0 359 8
2022-05-23 01:29:35 GMT 39.864140 -104.662239 0 4 9
2022-05-23 01:29:34 GMT 39.864109 -104.662262 0 2 11
2022-05-23 01:29:33 GMT 39.864071 -104.662277 0 357 12
2022-05-23 01:29:31 GMT 39.863960 -104.662270 0 4 12
2022-05-23 01:29:30 GMT 39.863918 -104.662292 0 351 16
2022-05-23 01:29:29 GMT 39.863838 -104.662292 0 347 16
2022-05-23 01:29:28 GMT 39.863781 -104.662270 0 351 17
2022-05-23 01:29:27 GMT 39.863621 -104.662216 0 9 16
2022-05-23 01:29:25 GMT 39.863560 -104.662216 0 10 17
2022-05-23 01:29:24 GMT 39.863411 -104.662300 0 354 16
2022-05-23 01:29:22 GMT 39.863338 -104.662270 0 1 17
2022-05-23 01:29:21 GMT 39.863270 -104.662262 0 2 20
2022-05-23 01:29:20 GMT 39.863098 -104.662292 0 358 20
2022-05-23 01:29:18 GMT 39.862999 -104.662277 0 358 18
2022-05-23 01:29:17 GMT 39.862911 -104.662292 0 355 19
2022-05-23 01:29:15 GMT 39.862751 -104.662270 0 359 19
2022-05-23 01:29:14 GMT 39.862659 -104.662247 0 4 19
2022-05-23 01:29:13 GMT 39.862560 -104.662277 0 358 15
2022-05-23 01:29:11 GMT 39.862431 -104.662270 0 359 18
2022-05-23 01:29:10 GMT 39.862339 -104.662277 0 354 19
2022-05-23 01:29:09 GMT 39.862240 -104.662239 0 2 16
2022-05-23 01:29:08 GMT 39.862091 -104.662239 0 3 16
2022-05-23 01:29:06 GMT 39.862011 -104.662231 0 8 15
2022-05-23 01:29:05 GMT 39.861950 -104.662239 0 10 16
2022-05-23 01:29:04 GMT 39.861889 -104.662277 0 354 17
2022-05-23 01:29:02 GMT 39.861729 -104.662300 0 353 16
2022-05-23 01:29:01 GMT 39.861660 -104.662270 0 359 16
2022-05-23 01:29:00 GMT 39.861591 -104.662262 0 6 15
2022-05-23 01:28:58 GMT 39.861462 -104.662262 0 27 15
2022-05-23 01:28:57 GMT 39.861389 -104.662247 0 36 15
2022-05-23 01:28:56 GMT 39.861340 -104.662331 0 32 15
2022-05-23 01:28:55 GMT 39.861229 -104.662399 0 50 15
2022-05-23 01:28:53 GMT 39.861160 -104.662437 0 65 15
2022-05-23 01:28:52 GMT 39.861099 -104.662537 0 79 12
2022-05-23 01:28:50 GMT 39.861080 -104.662682 0 77 15
2022-05-23 01:28:49 GMT 39.861050 -104.662750 0 85 15
2022-05-23 01:28:48 GMT 39.861038 -104.662827 0 89 17
2022-05-23 01:28:47 GMT 39.861019 -104.662949 0 96 15
2022-05-23 01:28:45 GMT 39.861038 -104.663139 0 91 11
2022-05-23 01:28:44 GMT 39.861061 -104.663170 0 83 14
2022-05-23 01:28:42 GMT 39.861050 -104.663330 0 86 16
2022-05-23 01:28:41 GMT 39.861050 -104.663429 0 85 15
2022-05-23 01:28:39 GMT 39.861038 -104.663597 0 94 16
2022-05-23 01:28:38 GMT 39.861038 -104.663742 0 91 12
2022-05-23 01:28:37 GMT 39.861061 -104.663780 0 87 14
2022-05-23 01:28:36 GMT 39.861061 -104.663910 0 86 18
2022-05-23 01:28:34 GMT 39.861050 -104.664009 0 91 19
2022-05-23 01:28:33 GMT 39.861061 -104.664169 0 85 14
2022-05-23 01:28:32 GMT 39.861061 -104.664268 0 85 13
2022-05-23 01:28:30 GMT 39.861061 -104.664429 0 90 13
2022-05-23 01:28:29 GMT 39.861038 -104.664490 0 94 15
2022-05-23 01:28:28 GMT 39.861050 -104.664703 0 94 12
2022-05-23 01:28:26 GMT 39.861050 -104.664757 0 94 14
2022-05-23 01:28:24 GMT 39.861050 -104.664909 0 102 17
2022-05-23 01:28:23 GMT 39.861061 -104.665039 0 108 15
2022-05-23 01:28:22 GMT 39.861118 -104.665176 0 100 17
2022-05-23 01:28:20 GMT 39.861141 -104.665314 0 102 15
2022-05-23 01:28:19 GMT 39.861130 -104.665390 0 110 17
2022-05-23 01:28:18 GMT 39.861172 -104.665443 0 101 20
2022-05-23 01:28:17 GMT 39.861221 -104.665688 0 101 16
2022-05-23 01:28:15 GMT 39.861259 -104.665779 0 92 17
2022-05-23 01:28:13 GMT 39.861271 -104.665993 0 87 17
2022-05-23 01:28:12 GMT 39.861271 -104.666077 0 88 18
2022-05-23 01:28:11 GMT 39.861271 -104.666191 0 87 18
2022-05-23 01:28:09 GMT 39.861259 -104.666389 0 90 19
2022-05-23 01:28:08 GMT 39.861271 -104.666496 0 89 18
2022-05-23 01:28:07 GMT 39.861252 -104.666611 0 92 18
2022-05-23 01:28:06 GMT 39.861259 -104.666733 0 91 18
2022-05-23 01:28:04 GMT 39.861279 -104.666939 0 88 20
2022-05-23 01:28:03 GMT 39.861240 -104.667091 0 96 17
2022-05-23 01:28:02 GMT 39.861271 -104.667168 0 91 18
2022-05-23 01:28:00 GMT 39.861340 -104.667397 0 81 18
2022-05-23 01:27:59 GMT 39.861309 -104.667519 0 83 18
2022-05-23 01:27:58 GMT 39.861309 -104.667618 0 82 18
2022-05-23 01:27:56 GMT 39.861252 -104.667824 0 92 19
2022-05-23 01:27:55 GMT 39.861240 -104.667938 0 96 19
2022-05-23 01:27:54 GMT 39.861252 -104.668060 0 98 17
2022-05-23 01:27:53 GMT 39.861240 -104.668167 0 102 17
2022-05-23 01:27:51 GMT 39.861340 -104.668358 0 87 17
2022-05-23 01:27:50 GMT 39.861370 -104.668480 0 84 15
2022-05-23 01:27:49 GMT 39.861320 -104.668571 0 92 15
2022-05-23 01:27:48 GMT 39.861328 -104.668831 0 92 13
2022-05-23 01:27:46 GMT 39.861351 -104.668930 0 93 13
2022-05-23 01:27:45 GMT 39.861279 -104.669197 0 99 10
2022-05-23 01:27:43 GMT 39.861279 -104.669258 0 100 10
2022-05-23 01:27:42 GMT 39.861290 -104.669296 0 100 10
2022-05-23 01:27:41 GMT 39.861301 -104.669411 0 101 9
2022-05-23 01:27:39 GMT 39.861301 -104.669449 0 101 11
2022-05-23 01:27:38 GMT 39.861309 -104.669456 0 100 14
2022-05-23 01:27:37 GMT 39.861450 -104.669724 0 76 12
2022-05-23 01:27:35 GMT 39.861530 -104.669762 0 71 14
2022-05-23 01:27:34 GMT 39.861519 -104.669838 0 78 14
2022-05-23 01:27:33 GMT 39.861389 -104.670029 0 112 10
2022-05-23 01:27:31 GMT 39.861401 -104.670082 0 113 10
2022-05-23 01:27:30 GMT 39.861359 -104.670258 0 123 8
2022-05-23 01:27:28 GMT 39.861370 -104.670311 0 130 8
2022-05-23 01:27:27 GMT 39.861382 -104.670357 0 134 9
2022-05-23 01:27:26 GMT 39.861401 -104.670403 0 138 9
2022-05-23 01:27:24 GMT 39.861301 -104.670464 0 138 16
2022-05-23 01:27:23 GMT 39.861351 -104.670517 0 138 16
2022-05-23 01:27:22 GMT 39.861408 -104.670593 0 138 16
We lost coverage of the aircraft here for a total of 83 minutes
2022-05-23 00:04:33 GMT 39.861389 -104.675598 0 76 17 -32
2022-05-23 00:04:32 GMT 39.861382 -104.675697 0 76 17 -32
2022-05-23 00:04:31 GMT 39.861359 -104.675797 0 76 17 -32
2022-05-23 00:04:30 GMT 39.861340 -104.675903 0 76 17 -32
2022-05-23 00:04:28 GMT 39.861290 -104.676064 0 79 19 -32
2022-05-23 00:04:27 GMT 39.861252 -104.676163 0 82 19 -32
2022-05-23 00:04:26 GMT 39.861229 -104.676247 0 84 20 -32
2022-05-23 00:04:24 GMT 39.861191 -104.676483 0 89 20 -32
2022-05-23 00:04:23 GMT 39.861172 -104.676598 0 91 20 -32
2022-05-23 00:04:22 GMT 39.861149 -104.676842 0 94 21 -32
2022-05-23 00:04:20 GMT 39.861149 -104.676964 0 95 21 -32
2022-05-23 00:04:18 GMT 39.861160 -104.677208 0 95 21 -32
2022-05-23 00:04:17 GMT 39.861179 -104.677322 0 94 22 -32
2022-05-23 00:04:16 GMT 39.861191 -104.677567 0 95 22 -32
2022-05-23 00:04:14 GMT 39.861198 -104.677689 0 95 23 -32
2022-05-23 00:04:13 GMT 39.861210 -104.677818 0 95 23 -32
2022-05-23 00:04:11 GMT 39.861229 -104.678078 0 95 23 -32
2022-05-23 00:04:10 GMT 39.861252 -104.678352 0 95 24 -32
2022-05-23 00:04:08 GMT 39.861259 -104.678497 0 94 23 -32
2022-05-23 00:04:07 GMT 39.861279 -104.678642 0 93 23 -32
2022-05-23 00:04:06 GMT 39.861309 -104.678932 0 91 22 -32
2022-05-23 00:04:04 GMT 39.861328 -104.679070 0 91 22 -32
2022-05-23 00:04:03 GMT 39.861320 -104.679337 0 92 22 -32
2022-05-23 00:04:01 GMT 39.861320 -104.679482 0 92 22 -32
2022-05-23 00:04:00 GMT 39.861328 -104.679619 0 93 22 -32
2022-05-23 00:03:58 GMT 39.861328 -104.679893 0 93 21 -32
2022-05-23 00:03:57 GMT 39.861340 -104.680023 0 93 21 -32
2022-05-23 00:03:55 GMT 39.861340 -104.680260 0 93 21 -32
2022-05-23 00:03:54 GMT 39.861340 -104.680367 0 94 21 -32
2022-05-23 00:03:52 GMT 39.861328 -104.680580 0 94 21 -32
2022-05-23 00:03:51 GMT 39.861340 -104.680702 0 94 22 -32
2022-05-23 00:03:49 GMT 39.861359 -104.680962 0 93 21 -32
2022-05-23 00:03:48 GMT 39.861389 -104.681099 0 85 20 -32
2022-05-23 00:03:47 GMT 39.861370 -104.681351 0 89 19 -32
2022-05-23 00:03:46 GMT 39.861359 -104.681450 0 93 19 -32
2022-05-23 00:03:44 GMT 39.861370 -104.681549 0 91 23 -32
2022-05-23 00:03:43 GMT 39.861382 -104.681839 0 90 20 -32
2022-05-23 00:03:41 GMT 39.861370 -104.681961 0 91 20 -32
2022-05-23 00:03:40 GMT 39.861382 -104.682098 0 90 18 -32
2022-05-23 00:03:39 GMT 39.861382 -104.682312 0 92 19 -32
2022-05-23 00:03:37 GMT 39.861370 -104.682442 0 95 17 -32
2022-05-23 00:03:36 GMT 39.861389 -104.682541 0 93 18 -32
2022-05-23 00:03:34 GMT 39.861382 -104.682762 0 99 18 -32
2022-05-23 00:03:33 GMT 39.861370 -104.682869 0 96 17 -32
2022-05-23 00:03:32 GMT 39.861401 -104.683037 0 80 18 -32
2022-05-23 00:03:30 GMT 39.861401 -104.683151 0 72 17 -32
2022-05-23 00:03:29 GMT 39.861401 -104.683228 0 62 18 -32
2022-05-23 00:03:28 GMT 39.861351 -104.683456 0 43 18 -32
2022-05-23 00:03:26 GMT 39.861301 -104.683563 0 35 17 -32
2022-05-23 00:03:25 GMT 39.861229 -104.683640 0 34 15 -32
2022-05-23 00:03:24 GMT 39.861141 -104.683777 0 16 17 -32
2022-05-23 00:03:22 GMT 39.861080 -104.683830 0 10 18 -32
2022-05-23 00:03:21 GMT 39.861000 -104.683823 0 16 19 -32
2022-05-23 00:03:20 GMT 39.860851 -104.683937 0 14 18 -32
2022-05-23 00:03:18 GMT 39.860771 -104.683922 0 28 19 -32
2022-05-23 00:03:16 GMT 39.860600 -104.683998 0 46 18 -32
2022-05-23 00:03:15 GMT 39.860531 -104.684082 0 55 17 -32
2022-05-23 00:03:14 GMT 39.860409 -104.684219 0 74 19 -32
2022-05-23 00:03:12 GMT 39.860378 -104.684319 0 79 20 -32
2022-05-23 00:03:11 GMT 39.860329 -104.684532 0 87 21 -32
2022-05-23 00:03:09 GMT 39.860329 -104.684647 0 86 23 -32
2022-05-23 00:03:08 GMT 39.860298 -104.684753 0 90 26 -32
2022-05-23 00:03:06 GMT 39.860298 -104.685051 0 89 25 -32
2022-05-23 00:03:05 GMT 39.860321 -104.685181 0 87 27 -32
2022-05-23 00:03:04 GMT 39.860291 -104.685493 0 94 29 -32
2022-05-23 00:03:02 GMT 39.860310 -104.685852 0 93 25 -32
2022-05-23 00:03:00 GMT 39.860321 -104.685989 0 92 26 -32
2022-05-23 00:02:59 GMT 39.860329 -104.686150 0 88 26 -32
2022-05-23 00:02:58 GMT 39.860329 -104.686317 0 89 25 -32
2022-05-23 00:02:56 GMT 39.860329 -104.686607 0 87 25 -32
2022-05-23 00:02:55 GMT 39.860329 -104.686760 0 88 26 -32
2022-05-23 00:02:54 GMT 39.860310 -104.687080 0 90 22 -32
2022-05-23 00:02:52 GMT 39.860291 -104.687202 0 96 25 -32
2022-05-23 00:02:51 GMT 39.860321 -104.687347 0 93 25 -32
2022-05-23 00:02:50 GMT 39.860321 -104.687538 0 92 21 -32
2022-05-23 00:02:48 GMT 39.860321 -104.687798 0 92 21 -32
2022-05-23 00:02:47 GMT 39.860340 -104.687920 0 88 22 -32
2022-05-23 00:02:46 GMT 39.860321 -104.688049 0 94 22 -32
2022-05-23 00:02:44 GMT 39.860352 -104.688339 0 86 21 -32
2022-05-23 00:02:43 GMT 39.860352 -104.688469 0 85 21 -32
2022-05-23 00:02:42 GMT 39.860310 -104.688568 0 94 22 -32
2022-05-23 00:02:40 GMT 39.860329 -104.688850 0 94 20 -32
2022-05-23 00:02:39 GMT 39.860352 -104.688950 0 87 22 -32
2022-05-23 00:02:37 GMT 39.860359 -104.689232 0 81 20 -32
2022-05-23 00:02:36 GMT 39.860359 -104.689346 0 82 21 -32
2022-05-23 00:02:35 GMT 39.860340 -104.689560 0 88 23 -32
2022-05-23 00:02:33 GMT 39.860340 -104.689690 0 91 24 -32
2022-05-23 00:02:32 GMT 39.860359 -104.689842 0 92 22 -32
2022-05-23 00:02:31 GMT 39.860359 -104.690102 0 107 22 -32
2022-05-23 00:02:29 GMT 39.860390 -104.690224 0 113 23 -32
2022-05-23 00:02:28 GMT 39.860420 -104.690369 0 120 22 -32
2022-05-23 00:02:26 GMT 39.860512 -104.690582 0 132 24 -32
2022-05-23 00:02:25 GMT 39.860580 -104.690727 0 140 23 -32
2022-05-23 00:02:24 GMT 39.860649 -104.690826 0 144 24 -32
2022-05-23 00:02:22 GMT 39.860821 -104.691017 0 150 27 -32
2022-05-23 00:02:21 GMT 39.860931 -104.691093 0 148 27 -32
2022-05-23 00:02:19 GMT 39.861118 -104.691238 0 151 32 -32
2022-05-23 00:02:18 GMT 39.861271 -104.691338 0 150 32 -32
2022-05-23 00:02:17 GMT 39.861511 -104.691521 0 151 33 -32
2022-05-23 00:02:15 GMT 39.861641 -104.691597 0 149 34 -32
2022-05-23 00:02:14 GMT 39.861790 -104.691704 0 148 33 -32
2022-05-23 00:02:13 GMT 39.861919 -104.691803 0 148 33 -32
2022-05-23 00:02:11 GMT 39.862171 -104.692032 0 153 35 -32
2022-05-23 00:02:10 GMT 39.862339 -104.692108 0 149 33 -32
2022-05-23 00:02:08 GMT 39.862591 -104.692299 0 150 35 -32
2022-05-23 00:02:07 GMT 39.862740 -104.692429 0 152 33 -32
2022-05-23 00:02:06 GMT 39.862869 -104.692513 0 151 34 -32
2022-05-23 00:02:04 GMT 39.863140 -104.692688 0 148 34 -32
2022-05-23 00:02:03 GMT 39.863270 -104.692802 0 149 36 -32
2022-05-23 00:02:02 GMT 39.863571 -104.693031 0 150 34 -32
2022-05-23 00:02:00 GMT 39.863689 -104.693130 0 153 35 -32
2022-05-23 00:01:59 GMT 39.863831 -104.693207 0 150 36 -32
2022-05-23 00:01:57 GMT 39.864128 -104.693413 0 147 33 -32
2022-05-23 00:01:56 GMT 39.864262 -104.693550 0 151 33 -32
2022-05-23 00:01:55 GMT 39.864391 -104.693619 0 148 33 -32
2022-05-23 00:01:53 GMT 39.864639 -104.693863 0 154 34 -32
2022-05-23 00:01:52 GMT 39.864761 -104.693939 0 153 37 -32
2022-05-23 00:01:50 GMT 39.865082 -104.694130 0 149 35 -32
2022-05-23 00:01:49 GMT 39.865349 -104.694321 0 147 39 -32
2022-05-23 00:01:47 GMT 39.865501 -104.694458 0 149 38 -32
2022-05-23 00:01:46 GMT 39.865639 -104.694603 0 153 38 -32
2022-05-23 00:01:44 GMT 39.865959 -104.694801 0 150 37 -32
2022-05-23 00:01:43 GMT 39.866112 -104.694901 0 150 38 -32
2022-05-23 00:01:41 GMT 39.866402 -104.695129 0 154 40 -32
2022-05-23 00:01:40 GMT 39.866589 -104.695221 0 151 39 -32
2022-05-23 00:01:39 GMT 39.866749 -104.695320 0 152 40 -32
2022-05-23 00:01:37 GMT 39.867069 -104.695541 0 156 39 -32
2022-05-23 00:01:36 GMT 39.867229 -104.695663 0 158 39 -32
2022-05-23 00:01:34 GMT 39.867569 -104.695839 0 164 39 -32
2022-05-23 00:01:33 GMT 39.867741 -104.695892 0 162 38 -32
2022-05-23 00:01:31 GMT 39.868069 -104.696053 0 168 38 -32
2022-05-23 00:01:30 GMT 39.868240 -104.696098 0 170 39 -32
2022-05-23 00:01:29 GMT 39.868431 -104.696136 0 168 37 -32
2022-05-23 00:01:28 GMT 39.868790 -104.696228 0 172 36 -32
2022-05-23 00:01:26 GMT 39.868931 -104.696289 0 178 41 -32
2022-05-23 00:01:25 GMT 39.869308 -104.696312 0 178 39 -32
2022-05-23 00:01:23 GMT 39.869461 -104.696327 0 179 42 -32
2022-05-23 00:01:22 GMT 39.869862 -104.696358 0 182 41 -32
2022-05-23 00:01:20 GMT 39.870029 -104.696342 0 181 43 -32
2022-05-23 00:01:18 GMT 39.870441 -104.696312 0 179 44 -32
2022-05-23 00:01:17 GMT 39.870640 -104.696320 0 180 46 -32
2022-05-23 00:01:16 GMT 39.870850 -104.696342 0 182 48 -32
2022-05-23 00:01:14 GMT 39.871311 -104.696289 0 178 49 -32
2022-05-23 00:01:13 GMT 39.871521 -104.696320 0 181 52 -32
2022-05-23 00:01:12 GMT 39.871990 -104.696312 0 180 56 -32
2022-05-23 00:01:10 GMT 39.872238 -104.696289 0 179 57 -32
2022-05-23 00:01:09 GMT 39.872501 -104.696297 0 180 59 -32
2022-05-23 00:01:07 GMT 39.873051 -104.696297 0 180 62 -32
2022-05-23 00:01:06 GMT 39.873310 -104.696312 0 181 66 -32
2022-05-23 00:01:05 GMT 39.873631 -104.696312 0 182 65 -32
2022-05-23 00:01:03 GMT 39.874210 -104.696281 0 181 68 -32
2022-05-23 00:01:02 GMT 39.874519 -104.696281 0 182 68 -32
2022-05-23 00:01:01 GMT 39.874828 -104.696251 0 180 69 -32
2022-05-23 00:01:00 GMT 39.875462 -104.696228 0 180 72 -32
2022-05-23 00:00:58 GMT 39.875820 -104.696220 0 180 70 -32
2022-05-23 00:00:57 GMT 39.876141 -104.696243 0 181 71 -32
2022-05-23 00:00:55 GMT 39.876808 -104.696228 5,100 181 72 -32
2022-05-23 00:00:54 GMT 39.877140 -104.696198 5,100 179 74 -32
2022-05-23 00:00:53 GMT 39.877491 -104.696182 5,100 178 74 0
2022-05-23 00:00:51 GMT 39.878189 -104.696190 5,100 179 79 0
2022-05-23 00:00:50 GMT 39.878540 -104.696213 5,100 179 83 0
2022-05-23 00:00:49 GMT 39.879318 -104.696213 5,100 180 87 0
2022-05-23 00:00:47 GMT 39.879711 -104.696220 5,100 180 91 0
2022-05-23 00:00:46 GMT 39.880131 -104.696190 5,100 179 93 0
2022-05-23 00:00:44 GMT 39.881001 -104.696213 5,100 180 96 0
2022-05-23 00:00:43 GMT 39.881420 -104.696213 5,100 180 101 0
2022-05-23 00:00:42 GMT 39.881901 -104.696167 5,100 179 103 0
2022-05-23 00:00:40 GMT 39.882870 -104.696167 5,100 179 108 0
2022-05-23 00:00:39 GMT 39.883362 -104.696159 5,100 179 112 0
2022-05-23 00:00:37 GMT 39.884392 -104.696167 5,100 179 120 -128
2022-05-23 00:00:36 GMT 39.884930 -104.696182 5,100 180 124 -128
2022-05-23 00:00:34 GMT 39.886059 -104.696159 5,100 180 132 0
2022-05-23 00:00:33 GMT 39.886631 -104.696190 5,125 180 137 0
2022-05-23 00:00:31 GMT 39.887878 -104.696167 5,125 180 142 0
2022-05-23 00:00:30 GMT 39.888512 -104.696152 5,125 180 145 0
2022-05-23 00:00:29 GMT 39.889839 -104.696129 5,125 180 148 -1088
2022-05-23 00:00:27 GMT 39.890549 -104.696152 5,125 181 145 -1088
2022-05-23 00:00:26 GMT 39.891201 -104.696121 5,150 181 149 -1088
2022-05-23 00:00:24 GMT 39.892570 -104.696068 5,150 180 152 -1088
2022-05-23 00:00:23 GMT 39.893291 -104.696060 5,175 180 150 -1088
2022-05-23 00:00:22 GMT 39.894699 -104.696060 5,200 180 147 -1088
2022-05-23 00:00:20 GMT 39.895390 -104.696030 5,225 180 147 -1088
2022-05-23 00:00:19 GMT 39.896042 -104.696030 5,225 180 149 -1088
2022-05-23 00:00:18 GMT 39.897400 -104.695992 5,300 180 156 -1088
2022-05-23 00:00:16 GMT 39.898109 -104.695961 5,300 179 154 -1088
2022-05-23 00:00:15 GMT 39.898800 -104.695976 5,275 179 158 -1088
2022-05-23 00:00:14 GMT 39.900261 -104.696037 5,300 180 147 -1088
2022-05-23 00:00:12 GMT 39.900890 -104.696060 5,325 180 153 -1088
2022-05-23 00:00:11 GMT 39.901581 -104.696030 5,325 179 153 -1088
2022-05-23 00:00:09 GMT 39.903000 -104.695992 5,350 177 154 -1088
2022-05-23 00:00:08 GMT 39.903770 -104.696098 5,350 181 146 -1088
2022-05-23 00:00:07 GMT 39.904419 -104.696068 5,375 181 150 -1088
2022-05-23 00:00:06 GMT 39.905880 -104.696060 5,500 180 143 -1088
2022-05-23 00:00:04 GMT 39.906521 -104.696030 5,500 180 147 -1088
2022-05-23 00:00:03 GMT 39.907242 -104.695992 5,500 179 144 -1088
2022-05-23 00:00:01 GMT 39.908569 -104.696037 5,525 181 153 -1088
2022-05-23 00:00:00 GMT 39.909222 -104.695976 5,525 181 158 -1088
2022-05-22 23:59:58 GMT 39.910690 -104.695923 5,525 179 152 -1088
2022-05-22 23:59:57 GMT 39.911350 -104.695908 5,525 178 156 -1088
2022-05-22 23:59:56 GMT 39.911991 -104.695923 5,550 179 164 -1088
2022-05-22 23:59:55 GMT 39.913521 -104.695953 5,550 180 154 -1088
2022-05-22 23:59:53 GMT 39.914280 -104.695938 5,600 179 148 -576
2022-05-22 23:59:52 GMT 39.914902 -104.695923 5,600 179 153 -576
2022-05-22 23:59:51 GMT 39.916309 -104.695953 5,600 181 154 -576
2022-05-22 23:59:49 GMT 39.917000 -104.695930 5,725 181 153 -576
2022-05-22 23:59:48 GMT 39.917671 -104.695938 5,725 182 156 -576
2022-05-22 23:59:46 GMT 39.919079 -104.695801 5,725 179 154 -576
2022-05-22 23:59:45 GMT 39.919701 -104.695778 5,725 178 160 -576
2022-05-22 23:59:43 GMT 39.921169 -104.695778 5,725 179 157 -576
2022-05-22 23:59:42 GMT 39.921879 -104.695770 5,725 178 155 -576
2022-05-22 23:59:41 GMT 39.923290 -104.695824 5,800 180 155 -576
2022-05-22 23:59:39 GMT 39.924110 -104.695831 5,800 180 145 -576
2022-05-22 23:59:37 GMT 39.925419 -104.695763 5,800 178 150 -576
2022-05-22 23:59:36 GMT 39.926811 -104.695869 5,800 180 150 -576
2022-05-22 23:59:34 GMT 39.927528 -104.695930 5,800 182 149 -576
2022-05-22 23:59:33 GMT 39.928230 -104.695869 5,825 181 149 -576
2022-05-22 23:59:32 GMT 39.929600 -104.695808 5,825 180 150 -576
2022-05-22 23:59:30 GMT 39.930340 -104.695824 5,900 181 146 -576
2022-05-22 23:59:29 GMT 39.930950 -104.695778 5,900 180 153 -576
2022-05-22 23:59:27 GMT 39.932362 -104.695709 5,900 179 155 -576
2022-05-22 23:59:26 GMT 39.933071 -104.695717 5,900 178 156 -576
2022-05-22 23:59:25 GMT 39.933781 -104.695717 5,900 178 157 -576
2022-05-22 23:59:23 GMT 39.935261 -104.695740 6,100 179 154 -576
2022-05-22 23:59:22 GMT 39.935982 -104.695847 6,100 181 153 -576
2022-05-22 23:59:20 GMT 39.937389 -104.695824 6,100 181 153 -576
2022-05-22 23:59:19 GMT 39.938099 -104.695778 6,100 181 153 -576
2022-05-22 23:59:18 GMT 39.938808 -104.695747 6,100 181 153 -576
2022-05-22 23:59:16 GMT 39.940262 -104.695702 6,100 181 151 -576
2022-05-22 23:59:15 GMT 39.940922 -104.695671 6,100 181 154 -576
2022-05-22 23:59:14 GMT 39.941631 -104.695618 6,100 180 154 -576
2022-05-22 23:59:12 GMT 39.943050 -104.695587 6,100 180 154 -576
2022-05-22 23:59:11 GMT 39.943779 -104.695587 6,100 180 153 -576
2022-05-22 23:59:10 GMT 39.944439 -104.695587 6,200 180 156 -576
2022-05-22 23:59:08 GMT 39.945881 -104.695557 6,200 180 156 -576
2022-05-22 23:59:07 GMT 39.946609 -104.695541 6,200 180 155 -576
2022-05-22 23:59:06 GMT 39.947330 -104.695511 6,200 180 155 -576
2022-05-22 23:59:04 GMT 39.948769 -104.695480 6,200 180 155 -576
2022-05-22 23:59:03 GMT 39.949490 -104.695473 6,200 180 155 -576
2022-05-22 23:59:02 GMT 39.950218 -104.695457 6,200 180 154 -576
2022-05-22 23:59:00 GMT 39.951599 -104.695457 6,300 180 158 -576
2022-05-22 23:58:59 GMT 39.952320 -104.695450 6,300 180 158 -576
2022-05-22 23:58:58 GMT 39.953812 -104.695473 6,300 180 157 -576
2022-05-22 23:58:56 GMT 39.954521 -104.695450 6,400 180 158 -576
2022-05-22 23:58:55 GMT 39.955250 -104.695442 6,400 180 158 -576
2022-05-22 23:58:53 GMT 39.956730 -104.695389 6,400 179 158 -576
2022-05-22 23:58:52 GMT 39.957451 -104.695396 6,400 180 158 -544
2022-05-22 23:58:51 GMT 39.958149 -104.695419 6,400 180 160 -544
2022-05-22 23:58:50 GMT 39.959641 -104.695396 6,400 180 160 -544
2022-05-22 23:58:48 GMT 39.960400 -104.695396 6,400 180 158 -544
2022-05-22 23:58:47 GMT 39.961121 -104.695419 6,600 180 159 -544
2022-05-22 23:58:46 GMT 39.962582 -104.695381 6,600 180 160 -544
2022-05-22 23:58:44 GMT 39.963322 -104.695351 6,600 179 160 -544
2022-05-22 23:58:43 GMT 39.964062 -104.695374 6,600 180 160 -544
2022-05-22 23:58:41 GMT 39.965519 -104.695374 6,600 180 161 -544
2022-05-22 23:58:40 GMT 39.966290 -104.695328 6,600 179 160 -544
2022-05-22 23:58:39 GMT 39.967018 -104.695320 6,600 179 161 -544
2022-05-22 23:58:37 GMT 39.968479 -104.695351 6,600 180 163 -544
2022-05-22 23:58:36 GMT 39.969261 -104.695351 6,600 180 161 -544
2022-05-22 23:58:34 GMT 39.970741 -104.695351 6,600 180 163 -544
2022-05-22 23:58:33 GMT 39.971451 -104.695374 6,800 181 167 -544
2022-05-22 23:58:32 GMT 39.972191 -104.695358 6,800 181 169 -544
2022-05-22 23:58:31 GMT 39.972969 -104.695374 6,800 181 169 -544
2022-05-22 23:58:30 GMT 39.974499 -104.695312 6,800 181 171 -544
2022-05-22 23:58:26 GMT 39.976593 -104.695251 6,700 182 165 -960
2022-05-22 23:58:23 GMT 39.978596 -104.695152 6,750 182 165 -960
2022-05-22 23:58:19 GMT 39.982273 -104.695091 6,825 185 176 -64
2022-05-22 23:58:15 GMT 39.984467 -104.695068 6,825 178 165 -320
2022-05-22 23:58:12 GMT 39.988186 -104.695213 6,825 178 167 0
2022-05-22 23:58:06 GMT 39.992615 -104.695251 6,825 182 172 -128
2022-05-22 23:58:02 GMT 39.994629 -104.695190 6,825 184 175 -64
2022-05-22 23:57:58 GMT 39.997868 -104.694901 6,825 182 180 0
2022-05-22 23:57:53 GMT 40.003548 -104.694405 6,850 182 180 0
2022-05-22 23:57:49 GMT 40.005615 -104.694458 6,850 176 180 0
2022-05-22 23:57:44 GMT 40.009506 -104.694962 6,850 164 179 0
2022-05-22 23:57:41 GMT 40.012894 -104.696045 6,825 157 181 0
2022-05-22 23:57:35 GMT 40.017700 -104.698395 6,850 158 180 64
2022-05-22 23:57:32 GMT 40.020123 -104.699646 6,850 157 181 0
2022-05-22 23:57:25 GMT 40.025616 -104.702515 6,850 158 182 64
2022-05-22 23:57:21 GMT 40.034546 -104.707214 6,825 158 183 -192
2022-05-22 23:57:13 GMT 40.034546 -104.707214 6,850 158 183 -192
2022-05-22 23:57:10 GMT 40.036423 -104.708191 6,850 158 184 64
2022-05-22 23:57:04 GMT 40.042282 -104.711243 6,875 157 186 -512
2022-05-22 23:57:00 GMT 40.044662 -104.712524 6,900 157 185 -896
2022-05-22 23:56:53 GMT 40.050522 -104.715576 7,050 158 184 -1088
2022-05-22 23:56:49 GMT 40.052895 -104.716812 7,175 156 188 -896
2022-05-22 23:56:43 GMT 40.058670 -104.719971 7,200 156 188 -1088
2022-05-22 23:56:40 GMT 40.061096 -104.721252 7,200 156 188 -1088
2022-05-22 23:56:37 GMT 40.062672 -104.722176 7,250 156 188 -1344
2022-05-22 23:56:31 GMT 40.068535 -104.725426 7,400 156 189 -704
2022-05-22 23:56:28 GMT 40.070251 -104.726379 7,425 156 190 -640
2022-05-22 23:56:22 GMT 40.075657 -104.729485 7,475 154 193 -576
2022-05-22 23:56:19 GMT 40.078308 -104.731140 7,500 150 196 -448
2022-05-22 23:56:10 GMT 40.083664 -104.736267 7,625 132 199 -1280
2022-05-22 23:56:07 GMT 40.085403 -104.739014 7,700 117 203 -1024
2022-05-22 23:56:01 GMT 40.088272 -104.747398 7,825 100 208 -1408
2022-05-22 23:55:58 GMT 40.088692 -104.750954 7,900 94 207 -1536
2022-05-22 23:55:55 GMT 40.088783 -104.753387 7,950 88 209 -1216
2022-05-22 23:55:50 GMT 40.088654 -104.760193 8,025 87 210 -896
2022-05-22 23:55:46 GMT 40.088505 -104.764626 8,150 88 211 -960
2022-05-22 23:55:42 GMT 40.088287 -104.771179 8,175 88 211 -1024
2022-05-22 23:55:39 GMT 40.088226 -104.773491 8,200 87 211 -1088
2022-05-22 23:55:36 GMT 40.088104 -104.778320 8,275 88 212 -896
2022-05-22 23:55:29 GMT 40.087902 -104.786911 8,375 88 214 -1088
2022-05-22 23:55:25 GMT 40.087784 -104.791382 8,425 87 214 -1216
2022-05-22 23:55:19 GMT 40.087482 -104.801582 8,575 86 217 -512
2022-05-22 23:55:16 GMT 40.087296 -104.804886 8,600 83 219 -576
2022-05-22 23:55:09 GMT 40.085899 -104.813873 8,700 62 226 -640
2022-05-22 23:55:06 GMT 40.084488 -104.818176 8,725 42 235 -384
2022-05-22 23:55:03 GMT 40.082733 -104.821808 8,750 52 230 -192
2022-05-22 23:55:00 GMT 40.081512 -104.823853 8,750 47 232 -128
2022-05-22 23:54:55 GMT 40.076431 -104.829529 8,800 30 239 -768
2022-05-22 23:54:48 GMT 40.070206 -104.833130 9,000 7 243 -1536
2022-05-22 23:54:45 GMT 40.066582 -104.834099 8,975 7 243 -1536
2022-05-22 23:54:39 GMT 40.061417 -104.834656 9,075 1 244 -896
2022-05-22 23:54:35 GMT 40.055283 -104.834900 9,175 1 244 -768
2022-05-22 23:54:29 GMT 40.049561 -104.835083 9,225 1 245 -704
2022-05-22 23:54:26 GMT 40.045353 -104.835289 9,275 1 245 -896
2022-05-22 23:54:22 GMT 40.040588 -104.835449 9,325 1 245 -832
2022-05-22 23:54:16 GMT 40.034412 -104.835724 9,425 1 247 -768
2022-05-22 23:54:13 GMT 40.031296 -104.835815 9,500 1 247 -768
2022-05-22 23:54:06 GMT 40.022030 -104.836227 9,525 2 251 -1152
2022-05-22 23:54:02 GMT 40.019096 -104.836349 9,625 2 251 -1280
2022-05-22 23:53:54 GMT 40.008904 -104.836914 9,750 2 252 -1344
2022-05-22 23:53:51 GMT 40.006668 -104.837036 9,800 1 253 -1152
2022-05-22 23:53:48 GMT 40.001221 -104.837288 9,850 1 253 -960
2022-05-22 23:53:45 GMT 39.998707 -104.837349 9,900 0 255 -640
2022-05-22 23:53:42 GMT 39.995216 -104.837410 9,925 0 255 -576
2022-05-22 23:53:38 GMT 39.991104 -104.837463 9,950 0 256 -576
2022-05-22 23:53:35 GMT 39.985718 -104.837540 10,025 1 258 -1088
2022-05-22 23:53:31 GMT 39.982040 -104.837601 10,050 1 258 -1088
2022-05-22 23:53:27 GMT 39.977371 -104.837769 10,150 1 259 -1216
2022-05-22 23:53:24 GMT 39.968727 -104.838097 10,250 1 259 -1088
2022-05-22 23:53:20 GMT 39.968727 -104.838097 10,250 1 259 -1088
2022-05-22 23:53:17 GMT 39.965881 -104.838196 10,300 1 259 -896
2022-05-22 23:53:13 GMT 39.961304 -104.838318 10,375 0 261 -832
2022-05-22 23:53:10 GMT 39.956909 -104.838440 10,400 0 261 -896
2022-05-22 23:53:07 GMT 39.952789 -104.838501 10,475 0 262 -1088
2022-05-22 23:53:04 GMT 39.948853 -104.838562 10,525 0 262 -1152
2022-05-22 23:53:01 GMT 39.945099 -104.838623 10,575 0 263 -1024
2022-05-22 23:52:56 GMT 39.939697 -104.838684 10,650 0 263 -832
2022-05-22 23:52:52 GMT 39.935211 -104.838783 10,700 0 266 -640
2022-05-22 23:52:49 GMT 39.926273 -104.838974 10,750 0 266 -640
2022-05-22 23:52:46 GMT 39.926273 -104.838974 10,775 0 268 -640
2022-05-22 23:52:43 GMT 39.923080 -104.838989 10,800 0 268 -768
2022-05-22 23:52:40 GMT 39.919327 -104.839005 10,850 0 270 -640
2022-05-22 23:52:32 GMT 39.910259 -104.838867 10,900 0 274 -448
2022-05-22 23:52:29 GMT 39.905823 -104.838890 10,925 0 276 -704
2022-05-22 23:52:25 GMT 39.901550 -104.838989 10,950 0 277 -704
2022-05-22 23:52:21 GMT 39.895500 -104.839050 11,125 0 281 -640
2022-05-22 23:52:17 GMT 39.891495 -104.839066 11,100 1 285 -704
2022-05-22 23:52:13 GMT 39.884701 -104.839172 11,100 1 285 -832
2022-05-22 23:52:09 GMT 39.879364 -104.839302 11,275 0 287 -640
2022-05-22 23:52:04 GMT 39.872314 -104.839424 11,225 0 290 -640
2022-05-22 23:52:01 GMT 39.868408 -104.839478 11,250 0 290 -704
2022-05-22 23:51:58 GMT 39.865494 -104.839485 11,275 0 292 -640
2022-05-22 23:51:55 GMT 39.861469 -104.839539 11,300 0 294 -576
2022-05-22 23:51:51 GMT 39.857025 -104.839607 11,325 0 295 -576
2022-05-22 23:51:48 GMT 39.851440 -104.839661 11,375 0 298 -640
2022-05-22 23:51:41 GMT 39.842010 -104.839783 11,475 0 302 -960
2022-05-22 23:51:38 GMT 39.833401 -104.839905 11,525 0 304 -1152
2022-05-22 23:51:35 GMT 39.833401 -104.839905 11,550 0 304 -1280
2022-05-22 23:51:30 GMT 39.826126 -104.840019 11,675 0 305 -1216
2022-05-22 23:51:27 GMT 39.822464 -104.840080 11,725 0 306 -1216
2022-05-22 23:51:23 GMT 39.818207 -104.840141 11,775 0 307 -1152
2022-05-22 23:51:20 GMT 39.813446 -104.840263 11,925 0 308 -1344
2022-05-22 23:51:17 GMT 39.804108 -104.840378 12,050 0 309 -1344
2022-05-22 23:51:14 GMT 39.804108 -104.840378 12,000 0 309 -1344
2022-05-22 23:51:11 GMT 39.799511 -104.840454 12,075 0 309 -1408
2022-05-22 23:51:08 GMT 39.794724 -104.840561 12,150 0 309 -1344
2022-05-22 23:51:04 GMT 39.788849 -104.840698 12,250 0 310 -1344
2022-05-22 23:50:59 GMT 39.783588 -104.840759 12,325 0 310 -1344
2022-05-22 23:50:56 GMT 39.777740 -104.840858 12,425 0 311 -1408
2022-05-22 23:50:53 GMT 39.774216 -104.840919 12,475 0 311 -1408
2022-05-22 23:50:48 GMT 39.765656 -104.840981 12,625 0 312 -1344
2022-05-22 23:50:45 GMT 39.762779 -104.841003 12,650 0 313 -1344
2022-05-22 23:50:41 GMT 39.755611 -104.841003 12,750 1 313 -1408
2022-05-22 23:50:36 GMT 39.748627 -104.841331 12,900 5 314 -1408
2022-05-22 23:50:33 GMT 39.745693 -104.841675 12,950 8 314 -1472
2022-05-22 23:50:30 GMT 39.741135 -104.842529 13,000 11 315 -1408
2022-05-22 23:50:26 GMT 39.735306 -104.844200 13,125 18 317 -1024
2022-05-22 23:50:23 GMT 39.725723 -104.848389 13,175 22 320 -640
2022-05-22 23:50:19 GMT 39.725723 -104.848389 13,200 25 322 -384
2022-05-22 23:50:16 GMT 39.720978 -104.851196 13,225 27 324 -384
2022-05-22 23:50:12 GMT 39.716042 -104.854736 13,250 32 328 -448
2022-05-22 23:50:08 GMT 39.709850 -104.860046 13,300 35 331 -832
2022-05-22 23:50:05 GMT 39.707565 -104.862175 13,375 35 333 -1344
2022-05-22 23:50:02 GMT 39.702393 -104.866951 13,425 35 333 -1408
2022-05-22 23:49:59 GMT 39.699463 -104.869698 13,475 35 334 -1408
2022-05-22 23:49:55 GMT 39.694519 -104.874237 13,550 35 334 -1344
2022-05-22 23:49:52 GMT 39.689835 -104.878601 13,650 35 336 -1408
2022-05-22 23:49:49 GMT 39.686646 -104.881516 13,700 35 336 -1344
2022-05-22 23:49:45 GMT 39.682152 -104.885620 13,825 35 336 -1408
2022-05-22 23:49:42 GMT 39.679092 -104.888504 13,850 35 337 -1408
2022-05-22 23:49:39 GMT 39.675156 -104.892143 13,900 35 338 -1408
2022-05-22 23:49:36 GMT 39.669617 -104.897224 14,025 35 339 -1408
2022-05-22 23:49:33 GMT 39.665859 -104.900635 14,075 35 340 -1344
2022-05-22 23:49:28 GMT 39.657619 -104.908142 14,225 35 342 -1344
2022-05-22 23:49:24 GMT 39.654545 -104.910950 14,275 35 342 -1408
2022-05-22 23:49:21 GMT 39.649658 -104.915436 14,375 35 343 -1408
2022-05-22 23:49:18 GMT 39.646538 -104.918335 14,425 35 343 -1408
2022-05-22 23:49:15 GMT 39.638901 -104.925346 14,525 35 345 -1408
2022-05-22 23:49:12 GMT 39.638901 -104.925346 14,550 35 345 -1408
2022-05-22 23:49:09 GMT 39.635468 -104.928513 14,625 35 346 -1408
2022-05-22 23:49:05 GMT 39.630066 -104.933525 14,750 35 347 -1472
2022-05-22 23:49:02 GMT 39.623962 -104.939087 14,825 35 347 -1472
2022-05-22 23:48:59 GMT 39.618759 -104.943855 14,925 35 348 -1472
2022-05-22 23:48:53 GMT 39.614456 -104.947792 15,025 35 349 -1472
2022-05-22 23:48:50 GMT 39.609604 -104.952156 15,100 34 349 -1472
2022-05-22 23:48:47 GMT 39.605576 -104.955795 15,200 34 350 -1408
2022-05-22 23:48:44 GMT 39.601364 -104.959618 15,250 34 351 -1408
2022-05-22 23:48:41 GMT 39.597565 -104.963013 15,300 34 351 -1408
2022-05-22 23:48:38 GMT 39.594086 -104.966125 15,375 34 352 -1408
2022-05-22 23:48:33 GMT 39.586487 -104.973083 15,525 35 353 -1408
2022-05-22 23:48:30 GMT 39.583553 -104.975769 15,575 35 354 -1408
2022-05-22 23:48:27 GMT 39.580807 -104.978271 15,600 35 354 -1408
2022-05-22 23:48:24 GMT 39.574631 -104.983978 15,700 35 355 -1408
2022-05-22 23:48:21 GMT 39.568680 -104.989594 15,825 35 356 -1408
2022-05-22 23:48:18 GMT 39.568680 -104.989594 15,900 35 356 -1408
2022-05-22 23:48:15 GMT 39.563690 -104.994186 16,050 35 356 -1408
2022-05-22 23:48:12 GMT 39.559067 -104.998474 16,025 35 357 -1344
2022-05-22 23:48:09 GMT 39.555202 -105.002014 16,050 35 357 -1344
2022-05-22 23:48:04 GMT 39.546341 -105.010132 16,175 35 357 -1344
2022-05-22 23:48:01 GMT 39.543823 -105.012459 16,250 35 358 -1280
2022-05-22 23:47:58 GMT 39.541100 -105.014893 16,700 35 359 -1408
2022-05-22 23:47:55 GMT 39.536316 -105.019325 16,350 35 359 -1408
2022-05-22 23:47:52 GMT 39.528111 -105.026794 16,500 35 360 -1344
2022-05-22 23:47:49 GMT 39.528111 -105.026794 16,525 35 360 -1472
2022-05-22 23:47:46 GMT 39.524853 -105.029785 16,550 35 360 -1536
2022-05-22 23:47:42 GMT 39.518921 -105.035210 16,700 35 360 -1344
2022-05-22 23:47:39 GMT 39.515396 -105.038429 16,750 35 361 -1216
2022-05-22 23:47:36 GMT 39.510609 -105.042786 16,775 35 361 -896
2022-05-22 23:47:33 GMT 39.507156 -105.045898 16,825 35 363 -512
2022-05-22 23:47:30 GMT 39.502972 -105.049683 16,825 35 365 -64
2022-05-22 23:47:27 GMT 39.499249 -105.053040 16,850 35 365 0
2022-05-22 23:47:24 GMT 39.493710 -105.058105 16,850 35 365 64
2022-05-22 23:47:19 GMT 39.484131 -105.066856 16,825 35 367 128
2022-05-22 23:47:13 GMT 39.472385 -105.077759 16,825 35 367 128
2022-05-22 23:47:08 GMT 39.472385 -105.077759 16,825 35 370 -64
2022-05-22 23:47:05 GMT 39.468155 -105.081657 16,825 35 371 -192
2022-05-22 23:47:00 GMT 39.460190 -105.089111 16,875 35 375 -768
2022-05-22 23:46:57 GMT 39.455769 -105.093262 16,925 35 376 -1152
2022-05-22 23:46:54 GMT 39.453186 -105.095634 16,950 35 376 -1280
2022-05-22 23:46:50 GMT 39.446785 -105.101624 17,100 36 375 -2048
2022-05-22 23:46:47 GMT 39.440357 -105.107666 17,225 36 375 -1984
2022-05-22 23:46:44 GMT 39.438995 -105.108948 17,250 36 375 -1984
2022-05-22 23:46:41 GMT 39.435562 -105.112175 17,350 35 374 -1984
2022-05-22 23:46:37 GMT 39.424297 -105.122681 17,650 35 371 -1600
2022-05-22 23:46:34 GMT 39.424297 -105.122681 17,600 35 372 -2048
2022-05-22 23:46:27 GMT 39.413776 -105.132385 17,875 35 371 -1600
2022-05-22 23:46:24 GMT 39.410156 -105.135757 18,200 35 371 -1344
2022-05-22 23:46:18 GMT 39.403290 -105.142082 18,100 35 371 -1280
2022-05-22 23:46:15 GMT 39.396648 -105.148254 18,125 35 372 -1344
2022-05-22 23:46:09 GMT 39.389057 -105.155273 18,300 35 372 -1344
2022-05-22 23:46:06 GMT 39.385025 -105.159042 18,350 35 373 -1344
2022-05-22 23:46:03 GMT 39.377560 -105.165955 18,400 35 376 -1280
2022-05-22 23:46:00 GMT 39.377560 -105.165955 18,450 35 373 -1344
2022-05-22 23:45:56 GMT 39.372395 -105.170776 18,525 35 373 -1344
2022-05-22 23:45:53 GMT 39.365551 -105.177185 18,625 35 375 -1280
2022-05-22 23:45:49 GMT 39.361908 -105.180534 18,675 35 375 -1280
2022-05-22 23:45:46 GMT 39.356052 -105.186035 18,775 35 376 -1280
2022-05-22 23:45:43 GMT 39.352890 -105.188957 18,900 36 377 -1280
2022-05-22 23:45:40 GMT 39.346184 -105.195251 18,925 36 377 -1280
2022-05-22 23:45:37 GMT 39.343113 -105.198120 18,975 36 377 -1280
2022-05-22 23:45:33 GMT 39.338287 -105.202690 19,050 35 378 -1280
2022-05-22 23:45:30 GMT 39.333298 -105.207291 19,125 35 379 -1344
2022-05-22 23:45:25 GMT 39.327118 -105.213081 19,250 35 379 -1344
2022-05-22 23:45:22 GMT 39.317879 -105.221558 19,300 35 379 -1344
2022-05-22 23:45:19 GMT 39.317879 -105.221558 19,375 35 380 -1344
2022-05-22 23:45:14 GMT 39.311279 -105.227585 19,475 37 382 -1280
2022-05-22 23:45:11 GMT 39.299168 -105.239685 19,675 38 383 -1216
2022-05-22 23:45:05 GMT 39.299168 -105.239685 19,700 40 385 -1344
2022-05-22 23:45:01 GMT 39.291439 -105.248291 19,775 42 387 -1344
2022-05-22 23:44:57 GMT 39.288506 -105.251770 19,825 43 389 -1152
2022-05-22 23:44:54 GMT 39.285339 -105.255615 19,900 45 392 -576
2022-05-22 23:44:51 GMT 39.280872 -105.261292 19,900 46 394 -512
2022-05-22 23:44:48 GMT 39.274704 -105.269501 19,950 47 398 -512
2022-05-22 23:44:45 GMT 39.271820 -105.273621 19,950 48 399 -512
2022-05-22 23:44:41 GMT 39.267426 -105.280128 19,975 50 403 -448
2022-05-22 23:44:36 GMT 39.260620 -105.290894 20,025 51 409 -448
2022-05-22 23:44:33 GMT 39.258087 -105.294937 20,050 51 410 -448
2022-05-22 23:44:30 GMT 39.255455 -105.299194 20,050 51 411 -448
2022-05-22 23:44:27 GMT 39.252193 -105.304443 20,075 51 413 -448
2022-05-22 23:44:23 GMT 39.247398 -105.312195 20,100 51 416 -512
2022-05-22 23:44:20 GMT 39.243305 -105.318726 20,150 51 419 -512
2022-05-22 23:44:17 GMT 39.238770 -105.325928 20,175 51 422 -448
2022-05-22 23:44:12 GMT 39.229618 -105.340515 20,225 51 428 -576
2022-05-22 23:44:09 GMT 39.229618 -105.340515 20,225 51 428 -576
2022-05-22 23:44:06 GMT 39.226547 -105.345390 20,250 51 429 -576
2022-05-22 23:44:02 GMT 39.220215 -105.355469 20,300 51 434 -512
2022-05-22 23:43:59 GMT 39.217209 -105.360260 20,350 51 438 -576
2022-05-22 23:43:56 GMT 39.210938 -105.370354 20,375 51 440 -576
2022-05-22 23:43:49 GMT 39.203339 -105.382416 20,425 51 444 -512
2022-05-22 23:43:46 GMT 39.200317 -105.387192 20,450 50 446 -448
2022-05-22 23:43:41 GMT 39.189957 -105.403687 20,475 50 452 -448
2022-05-22 23:43:38 GMT 39.189957 -105.403687 20,500 50 453 -640
2022-05-22 23:43:35 GMT 39.185951 -105.409973 20,550 50 455 -1024
2022-05-22 23:43:31 GMT 39.179214 -105.420624 20,675 50 457 -1984
2022-05-22 23:43:28 GMT 39.175804 -105.426025 20,775 50 458 -2176
2022-05-22 23:43:25 GMT 39.171894 -105.432190 20,875 50 458 -2176
2022-05-22 23:43:20 GMT 39.165283 -105.442627 21,050 50 459 -2048
2022-05-22 23:43:17 GMT 39.161743 -105.448242 21,275 50 461 -2112
2022-05-22 23:43:14 GMT 39.157974 -105.454124 21,225 50 461 -2048
2022-05-22 23:43:10 GMT 39.152573 -105.462524 21,400 50 462 -2048
2022-05-22 23:43:07 GMT 39.149128 -105.467957 21,500 50 462 -2048
2022-05-22 23:43:04 GMT 39.142914 -105.477646 21,625 50 463 -2048
2022-05-22 23:43:00 GMT 39.138283 -105.484863 21,775 50 464 -1984
2022-05-22 23:42:57 GMT 39.133999 -105.491577 21,850 50 464 -1984
2022-05-22 23:42:51 GMT 39.125202 -105.505371 22,075 50 466 -2048
2022-05-22 23:42:48 GMT 39.121765 -105.510727 22,150 50 468 -2112
2022-05-22 23:42:42 GMT 39.114532 -105.522011 22,400 50 470 -2112
2022-05-22 23:42:39 GMT 39.110001 -105.529114 22,450 50 470 -2112
2022-05-22 23:42:36 GMT 39.104782 -105.537292 22,575 50 471 -2112
2022-05-22 23:42:31 GMT 39.099838 -105.545059 22,775 50 473 -2112
2022-05-22 23:42:28 GMT 39.093567 -105.554848 22,850 50 473 -2048
2022-05-22 23:42:25 GMT 39.090591 -105.559448 23,025 50 476 -2048
2022-05-22 23:42:20 GMT 39.084560 -105.568909 23,075 50 476 -2048
2022-05-22 23:42:17 GMT 39.079441 -105.576904 23,375 50 478 -2176
2022-05-22 23:42:14 GMT 39.076321 -105.581848 23,375 50 478 -2176
2022-05-22 23:42:10 GMT 39.070404 -105.591095 23,525 50 479 -2368
2022-05-22 23:42:07 GMT 39.064682 -105.600052 23,600 50 480 -2368
2022-05-22 23:42:04 GMT 39.061295 -105.605423 23,800 50 480 -2304
2022-05-22 23:41:58 GMT 39.052860 -105.618713 23,925 50 481 -2240
2022-05-22 23:41:55 GMT 39.048706 -105.625183 24,025 50 482 -2240
2022-05-22 23:41:52 GMT 39.044388 -105.631958 26,475 50 486 -2304
2022-05-22 23:41:47 GMT 39.037308 -105.643158 24,400 50 484 -2240
2022-05-22 23:41:44 GMT 39.031956 -105.651550 24,575 50 489 -2304
2022-05-22 23:41:38 GMT 39.023392 -105.665039 24,800 50 486 -2304
2022-05-22 23:41:35 GMT 39.020271 -105.669922 24,800 50 487 -2304
2022-05-22 23:41:32 GMT 39.016617 -105.675636 24,900 50 487 -2304
2022-05-22 23:41:28 GMT 39.010483 -105.685310 25,125 50 501 -2368
2022-05-22 23:41:24 GMT 39.005096 -105.693726 25,200 50 489 -2304
2022-05-22 23:41:21 GMT 38.999649 -105.702332 25,350 50 490 -2304
2022-05-22 23:41:18 GMT 38.996017 -105.708008 25,450 50 490 -2304
2022-05-22 23:41:14 GMT 38.990154 -105.717224 25,600 50 491 -2304
2022-05-22 23:41:06 GMT 38.979584 -105.733765 25,875 50 493 -2304
2022-05-22 23:41:03 GMT 38.974976 -105.740906 26,000 50 493 -2304
2022-05-22 23:40:55 GMT 38.957336 -105.768364 26,425 50 495 -2304
2022-05-22 23:40:52 GMT 38.957336 -105.768364 26,475 50 496 -2368
2022-05-22 23:40:46 GMT 38.950165 -105.779541 26,675 50 497 -2304
2022-05-22 23:40:42 GMT 38.944016 -105.789024 26,825 50 497 -2304
2022-05-22 23:40:36 GMT 38.935127 -105.802795 27,075 50 499 -2368
2022-05-22 23:40:33 GMT 38.929138 -105.812073 27,225 50 500 -2368
2022-05-22 23:40:25 GMT 38.919533 -105.826904 27,650 50 502 -2368
2022-05-22 23:40:21 GMT 38.913437 -105.836311 27,650 50 502 -2368
2022-05-22 23:40:15 GMT 38.904007 -105.850822 28,025 50 505 -2432
2022-05-22 23:40:11 GMT 38.898834 -105.858765 28,050 50 504 -2432
2022-05-22 23:40:05 GMT 38.888168 -105.875122 28,325 50 506 -2432
2022-05-22 23:40:00 GMT 38.877914 -105.890884 28,600 50 508 -2496
2022-05-22 23:39:54 GMT 38.872002 -105.899902 28,775 50 509 -2496
2022-05-22 23:39:48 GMT 38.859604 -105.918892 29,200 50 512 0
2022-05-22 23:39:44 GMT 38.856308 -105.924026 29,200 50 511 -2368
2022-05-22 23:39:39 GMT 38.850403 -105.932983 29,325 50 512 -2304
2022-05-22 23:39:34 GMT 38.842072 -105.945740 29,550 50 514 -2432
2022-05-22 23:39:30 GMT 38.834343 -105.957581 29,750 50 515 -2752
2022-05-22 23:39:22 GMT 38.823944 -105.973526 30,100 50 515 -3072
2022-05-22 23:39:18 GMT 38.818176 -105.982422 30,275 50 515 -2944
2022-05-22 23:39:13 GMT 38.810928 -105.993591 30,500 50 515 -2624
2022-05-22 23:39:09 GMT 38.802521 -106.006546 30,725 50 515 -2112
2022-05-22 23:39:02 GMT 38.791981 -106.022888 30,925 50 515 -1088
2022-05-22 23:38:58 GMT 38.785927 -106.032166 30,975 50 515 -448
2022-05-22 23:38:51 GMT 38.775223 -106.048645 31,000 50 516 0
2022-05-22 23:38:47 GMT 38.770054 -106.056580 31,000 50 515 0
2022-05-22 23:38:42 GMT 38.763721 -106.066345 31,000 50 515 0
2022-05-22 23:38:37 GMT 38.753853 -106.081421 31,000 50 515 0
2022-05-22 23:38:31 GMT 38.745392 -106.094376 31,000 50 515 0
2022-05-22 23:38:28 GMT 38.740120 -106.102356 31,000 49 514 -64
2022-05-22 23:38:25 GMT 38.737381 -106.106491 31,000 49 514 -64
2022-05-22 23:38:22 GMT 38.732021 -106.114685 31,000 49 514 -64
2022-05-22 23:38:16 GMT 38.721359 -106.130974 31,000 50 513 0
2022-05-22 23:38:09 GMT 38.711166 -106.146484 31,000 50 513 0
2022-05-22 23:38:05 GMT 38.704975 -106.155945 31,000 50 513 0
2022-05-22 23:38:01 GMT 38.701111 -106.161804 31,000 50 513 0
2022-05-22 23:37:57 GMT 38.694855 -106.171341 31,000 50 513 -64
2022-05-22 23:37:53 GMT 38.687656 -106.182312 31,000 50 514 -64
2022-05-22 23:37:48 GMT 38.679199 -106.195282 31,000 50 514 0
2022-05-22 23:37:44 GMT 38.672882 -106.204956 31,000 50 514 0
2022-05-22 23:37:41 GMT 38.669769 -106.209732 31,000 50 514 0
2022-05-22 23:37:36 GMT 38.660751 -106.223701 31,000 50 514 64
2022-05-22 23:37:30 GMT 38.654045 -106.234070 31,000 50 515 64
2022-05-22 23:37:25 GMT 38.645107 -106.247925 31,000 50 515 0
2022-05-22 23:37:21 GMT 38.638596 -106.257973 31,000 50 515 0
2022-05-22 23:37:15 GMT 38.628799 -106.273140 31,000 50 517 0
2022-05-22 23:37:10 GMT 38.622345 -106.283112 31,000 50 517 0
2022-05-22 23:37:04 GMT 38.613419 -106.296844 31,000 50 518 0
2022-05-22 23:37:00 GMT 38.608006 -106.305237 31,000 50 519 0
2022-05-22 23:36:54 GMT 38.597031 -106.322098 31,000 50 519 -64
2022-05-22 23:36:51 GMT 38.591572 -106.330505 31,000 50 519 -64
2022-05-22 23:36:43 GMT 38.581146 -106.346519 31,000 50 519 -64
2022-05-22 23:36:38 GMT 38.574005 -106.357506 31,025 50 520 -64
2022-05-22 23:36:34 GMT 38.567139 -106.368073 31,025 50 520 -64
2022-05-22 23:36:29 GMT 38.559311 -106.380135 31,025 50 520 0
2022-05-22 23:36:24 GMT 38.550797 -106.393211 31,025 50 520 0
2022-05-22 23:36:19 GMT 38.543243 -106.404915 31,025 50 519 0
2022-05-22 23:36:12 GMT 38.534637 -106.418152 31,025 50 519 0
2022-05-22 23:36:07 GMT 38.526810 -106.430176 31,025 50 519 0
2022-05-22 23:35:58 GMT 38.510899 -106.454712 31,025 50 519 64
2022-05-22 23:35:51 GMT 38.502548 -106.467613 31,025 50 520 128
2022-05-22 23:35:47 GMT 38.493626 -106.481323 31,000 50 519 128
2022-05-22 23:35:42 GMT 38.486435 -106.492332 31,000 50 519 128
2022-05-22 23:35:36 GMT 38.478516 -106.504570 31,000 50 518 -64
2022-05-22 23:35:30 GMT 38.470257 -106.517334 31,025 50 518 -512
2022-05-22 23:35:26 GMT 38.461784 -106.530396 31,075 50 518 -768
2022-05-22 23:35:21 GMT 38.454617 -106.541443 31,150 50 517 -768
2022-05-22 23:35:14 GMT 38.445969 -106.554848 31,225 50 517 -832
2022-05-22 23:35:10 GMT 38.438602 -106.566162 31,275 50 517 -832
2022-05-22 23:35:05 GMT 38.430176 -106.579147 31,350 50 516 -832
2022-05-22 23:35:00 GMT 38.422668 -106.590729 31,425 50 516 -704
2022-05-22 23:34:53 GMT 38.412918 -106.605713 31,500 50 515 -832
2022-05-22 23:34:48 GMT 38.406052 -106.616295 31,550 50 516 -896
2022-05-22 23:34:42 GMT 38.397263 -106.629837 31,650 50 516 -960
2022-05-22 23:34:38 GMT 38.388519 -106.643295 31,750 50 516 -960
2022-05-22 23:34:33 GMT 38.381531 -106.654022 31,825 50 514 -960
2022-05-22 23:34:28 GMT 38.374779 -106.664352 31,900 50 513 -960
2022-05-22 23:34:22 GMT 38.365631 -106.678413 31,975 50 512 -960
2022-05-22 23:34:12 GMT 38.348942 -106.703995 32,175 50 513 -1024
2022-05-22 23:34:01 GMT 38.331711 -106.730370 32,350 50 513 -960
2022-05-22 23:33:50 GMT 38.317337 -106.752281 32,500 50 513 -896
2022-05-22 23:33:46 GMT 38.310490 -106.762810 32,550 50 512 -896
2022-05-22 23:33:40 GMT 38.300903 -106.777351 32,650 50 511 -960
2022-05-22 23:33:34 GMT 38.293945 -106.787987 32,725 50 511 -1024
2022-05-22 23:33:29 GMT 38.285248 -106.801132 32,825 49 511 -1024
2022-05-22 23:33:25 GMT 38.277878 -106.812294 32,900 49 511 -960
2022-05-22 23:33:19 GMT 38.268734 -106.826096 33,000 49 511 -960
2022-05-22 23:33:13 GMT 38.262077 -106.836128 33,075 49 511 -960
2022-05-22 23:33:08 GMT 38.252335 -106.850807 33,150 49 511 -960
2022-05-22 23:33:04 GMT 38.246433 -106.859718 33,225 49 511 -960
2022-05-22 23:32:57 GMT 38.236473 -106.874702 33,325 49 510 -1024
2022-05-22 23:32:52 GMT 38.229954 -106.884491 33,400 49 510 -1024
2022-05-22 23:32:46 GMT 38.219376 -106.900421 33,525 49 510 -960
2022-05-22 23:32:43 GMT 38.214615 -106.907547 33,575 49 510 -896
2022-05-22 23:32:35 GMT 38.204304 -106.923065 33,675 49 509 -896
2022-05-22 23:32:32 GMT 38.198765 -106.931427 33,725 50 508 -896
2022-05-22 23:32:26 GMT 38.188011 -106.947723 33,850 49 506 -960
2022-05-22 23:32:22 GMT 38.182564 -106.955727 33,925 48 505 -1024
2022-05-22 23:32:15 GMT 38.171951 -106.970291 34,025 45 502 -1024
2022-05-22 23:32:10 GMT 38.165497 -106.978493 34,100 44 502 -1024
2022-05-22 23:32:04 GMT 38.154465 -106.991646 34,200 41 499 -1024
2022-05-22 23:32:01 GMT 38.147511 -106.999313 34,250 40 498 -960
2022-05-22 23:31:54 GMT 38.135605 -107.011513 34,375 37 497 -960
2022-05-22 23:31:49 GMT 38.127167 -107.019493 34,450 35 496 -960
2022-05-22 23:31:45 GMT 38.119438 -107.026421 34,500 33 494 -960
2022-05-22 23:31:40 GMT 38.109558 -107.034653 34,575 31 493 -960
2022-05-22 23:31:33 GMT 38.094486 -107.045883 34,700 28 491 -960
2022-05-22 23:31:29 GMT 38.088593 -107.049965 34,750 28 491 -960
2022-05-22 23:31:22 GMT 38.072933 -107.060570 34,875 28 492 -1024
2022-05-22 23:31:11 GMT 38.052635 -107.074303 35,050 28 493 -896
2022-05-22 23:31:07 GMT 38.045746 -107.078949 35,100 28 493 -896
2022-05-22 23:31:04 GMT 38.036133 -107.085434 35,150 27 493 -832
2022-05-22 23:31:01 GMT 38.031036 -107.088814 35,200 27 493 -896
2022-05-22 23:30:58 GMT 38.024521 -107.093231 35,250 27 493 -896
2022-05-22 23:30:53 GMT 38.015533 -107.099228 35,325 27 493 -896
2022-05-22 23:30:49 GMT 38.009308 -107.103432 35,350 27 493 -896
2022-05-22 23:30:43 GMT 37.993332 -107.114128 35,475 27 493 -960
2022-05-22 23:30:40 GMT 37.988583 -107.117294 35,525 27 493 -1024
2022-05-22 23:30:32 GMT 37.973190 -107.127625 35,650 27 493 -1024
2022-05-22 23:30:29 GMT 37.966782 -107.131889 35,700 27 493 -1088
2022-05-22 23:30:21 GMT 37.953049 -107.141068 35,850 27 492 -1088
2022-05-22 23:30:17 GMT 37.943333 -107.147507 35,925 27 492 -960
2022-05-22 23:30:11 GMT 37.930801 -107.155914 35,975 27 492 -320
2022-05-22 23:30:08 GMT 37.924576 -107.160057 36,000 27 492 -64
2022-05-22 23:30:04 GMT 37.915543 -107.166077 36,000 27 492 -64
2022-05-22 23:30:00 GMT 37.910328 -107.169601 36,000 27 492 -64
2022-05-22 23:29:51 GMT 37.889877 -107.183205 36,000 27 490 -64
2022-05-22 23:29:40 GMT 37.868958 -107.197166 36,000 27 489 0
2022-05-22 23:29:29 GMT 37.848633 -107.210724 36,000 27 489 64
2022-05-22 23:29:19 GMT 37.827557 -107.224709 36,000 27 488 -64
2022-05-22 23:29:09 GMT 37.806244 -107.238892 36,000 27 488 0
2022-05-22 23:29:05 GMT 37.797901 -107.244415 36,000 27 487 0
2022-05-22 23:28:59 GMT 37.785938 -107.252357 36,000 27 487 64
2022-05-22 23:28:51 GMT 37.769974 -107.262924 36,000 27 487 128
2022-05-22 23:28:48 GMT 37.765091 -107.266243 36,000 27 487 128
2022-05-22 23:28:41 GMT 37.749722 -107.276360 36,000 27 486 0
2022-05-22 23:28:38 GMT 37.743347 -107.280617 36,000 27 486 -64
2022-05-22 23:28:29 GMT 37.728195 -107.290611 36,000 27 485 -64
2022-05-22 23:28:26 GMT 37.721558 -107.294991 36,000 27 485 -64
2022-05-22 23:28:22 GMT 37.709267 -107.303108 36,000 27 484 0
2022-05-22 23:28:17 GMT 37.701599 -107.308197 36,000 27 484 0
2022-05-22 23:28:10 GMT 37.689331 -107.316261 36,000 27 483 64
2022-05-22 23:28:06 GMT 37.681149 -107.321678 36,000 27 484 64
2022-05-22 23:27:56 GMT 37.660904 -107.335136 36,000 27 483 0
2022-05-22 23:27:48 GMT 37.646191 -107.344849 36,000 27 483 -64
2022-05-22 23:27:45 GMT 37.639904 -107.349022 36,000 27 483 -64
2022-05-22 23:27:34 GMT 37.619476 -107.362488 36,000 27 482 0
2022-05-22 23:27:24 GMT 37.598740 -107.376167 36,000 27 482 64
2022-05-22 23:27:14 GMT 37.578362 -107.389626 36,000 27 482 0
2022-05-22 23:27:04 GMT 37.558022 -107.403061 36,000 27 483 0
2022-05-22 23:26:53 GMT 37.536987 -107.416954 36,000 27 484 0
2022-05-22 23:26:42 GMT 37.516308 -107.430588 36,000 27 484 0
2022-05-22 23:26:32 GMT 37.495514 -107.444305 36,000 27 485 0
2022-05-22 23:26:20 GMT 37.472305 -107.459557 36,000 27 485 64
2022-05-22 23:26:12 GMT 37.454865 -107.471008 36,000 27 485 64
2022-05-22 23:25:35 GMT 37.382889 -107.518356 36,000 27 485 -64
2022-05-22 23:25:30 GMT 37.371391 -107.525940 36,000 27 486 0
2022-05-22 23:25:22 GMT 37.357193 -107.535255 36,000 27 486 0
2022-05-22 23:25:18 GMT 37.349232 -107.540512 36,000 27 486 0
2022-05-22 23:25:11 GMT 37.335686 -107.549408 36,000 27 486 -64
2022-05-22 23:25:08 GMT 37.329681 -107.553345 36,000 27 486 -64
2022-05-22 23:25:02 GMT 37.315842 -107.562462 36,000 27 486 0
2022-05-22 23:24:58 GMT 37.306091 -107.568832 36,000 27 486 0
2022-05-22 23:24:51 GMT 37.294395 -107.576515 36,000 27 485 64
2022-05-22 23:24:40 GMT 37.274139 -107.589752 36,000 27 486 64
2022-05-22 23:24:37 GMT 37.264694 -107.595917 36,000 27 486 0
2022-05-22 23:24:29 GMT 37.251251 -107.604713 36,000 27 486 0
2022-05-22 23:24:25 GMT 37.243652 -107.609711 36,000 27 486 0
2022-05-22 23:24:20 GMT 37.232071 -107.617279 36,000 27 486 0
2022-05-22 23:24:16 GMT 37.222752 -107.623322 36,000 27 486 -64
2022-05-22 23:24:08 GMT 37.210228 -107.631500 36,000 27 484 0
2022-05-22 23:24:04 GMT 37.201988 -107.636879 36,000 27 484 0
2022-05-22 23:23:58 GMT 37.190231 -107.644508 36,000 27 485 64
2022-05-22 23:23:54 GMT 37.180115 -107.651115 36,000 27 485 64
2022-05-22 23:23:49 GMT 37.169727 -107.657898 36,000 27 485 64
2022-05-22 23:23:44 GMT 37.160019 -107.664207 36,000 27 485 64
2022-05-22 23:23:38 GMT 37.148895 -107.671448 36,000 27 485 0
2022-05-22 23:23:32 GMT 37.138779 -107.678055 36,000 27 485 0
2022-05-22 23:23:28 GMT 37.128063 -107.685066 36,000 27 485 0
2022-05-22 23:23:23 GMT 37.117821 -107.691750 36,000 27 484 -64
2022-05-22 23:23:17 GMT 37.107147 -107.698738 36,000 27 484 0
2022-05-22 23:23:10 GMT 37.094173 -107.707214 36,000 27 483 0
2022-05-22 23:23:06 GMT 37.087006 -107.711891 36,000 27 483 0
2022-05-22 23:23:02 GMT 37.075562 -107.719368 36,000 27 482 -64
2022-05-22 23:22:56 GMT 37.066406 -107.725327 36,000 27 481 -64
2022-05-22 23:22:50 GMT 37.055347 -107.732590 36,000 27 481 0
2022-05-22 23:22:45 GMT 37.044315 -107.739754 36,000 27 480 0
2022-05-22 23:22:41 GMT 37.033859 -107.746605 36,000 27 480 -64
2022-05-22 23:22:35 GMT 37.023743 -107.753143 36,000 27 480 -64
2022-05-22 23:22:29 GMT 37.010651 -107.761620 36,000 27 479 0
2022-05-22 23:22:25 GMT 37.005074 -107.765251 36,000 27 479 0
2022-05-22 23:22:19 GMT 36.991379 -107.774124 36,000 27 479 64
2022-05-22 23:22:14 GMT 36.984264 -107.778748 36,000 27 479 64
2022-05-22 23:22:08 GMT 36.970764 -107.787460 36,000 27 479 64
2022-05-22 23:22:04 GMT 36.963821 -107.791946 36,000 27 479 64
2022-05-22 23:21:57 GMT 36.949722 -107.801018 36,000 27 479 0
2022-05-22 23:21:54 GMT 36.943623 -107.804955 36,000 27 478 0
2022-05-22 23:21:47 GMT 36.928772 -107.814568 36,000 27 478 -64
2022-05-22 23:21:44 GMT 36.922760 -107.818420 36,000 27 478 -64
2022-05-22 23:21:36 GMT 36.907871 -107.828003 36,000 27 477 -64
2022-05-22 23:21:32 GMT 36.900925 -107.832504 36,000 27 477 0
2022-05-22 23:21:26 GMT 36.886642 -107.841675 36,000 27 476 0
2022-05-22 23:21:23 GMT 36.881607 -107.844955 36,000 27 476 0
2022-05-22 23:21:15 GMT 36.866814 -107.854515 36,000 27 475 64
2022-05-22 23:21:12 GMT 36.861603 -107.857864 36,000 27 475 64
2022-05-22 23:21:05 GMT 36.845863 -107.868034 36,000 27 476 64
2022-05-22 23:21:00 GMT 36.839348 -107.872246 36,000 27 476 64
2022-05-22 23:20:52 GMT 36.820724 -107.884254 36,000 27 476 -64
2022-05-22 23:20:44 GMT 36.804657 -107.894669 36,000 27 477 -64
2022-05-22 23:20:41 GMT 36.800522 -107.897316 36,000 27 477 -128
2022-05-22 23:20:31 GMT 36.779293 -107.911102 36,000 27 476 -64
2022-05-22 23:20:23 GMT 36.763325 -107.921448 36,025 27 475 0
2022-05-22 23:20:20 GMT 36.759182 -107.924133 36,000 27 475 64
2022-05-22 23:20:09 GMT 36.738968 -107.937180 36,000 27 475 64
2022-05-22 23:20:00 GMT 36.718868 -107.950195 36,000 27 475 0
2022-05-22 23:19:49 GMT 36.698822 -107.963104 36,000 27 474 64
2022-05-22 23:19:39 GMT 36.678368 -107.976204 36,000 27 474 -64
2022-05-22 23:19:28 GMT 36.658173 -107.989197 36,000 27 474 0
2022-05-22 23:19:17 GMT 36.637253 -108.002586 36,000 27 475 0
2022-05-22 23:19:08 GMT 36.617340 -108.015419 36,000 27 476 0
2022-05-22 23:18:56 GMT 36.596764 -108.028564 36,000 27 476 64
2022-05-22 23:18:47 GMT 36.576187 -108.041725 36,000 27 476 -64
2022-05-22 23:18:36 GMT 36.556732 -108.054199 36,000 27 476 0
2022-05-22 23:18:25 GMT 36.535629 -108.067703 36,000 27 477 0
2022-05-22 23:18:16 GMT 36.515808 -108.080399 36,000 27 477 0
2022-05-22 23:18:04 GMT 36.494114 -108.094307 36,000 27 478 0
2022-05-22 23:17:55 GMT 36.474518 -108.106842 36,000 27 478 0
2022-05-22 23:17:43 GMT 36.452171 -108.121071 36,000 27 478 0
2022-05-22 23:17:34 GMT 36.433178 -108.133171 36,000 27 476 0
2022-05-22 23:17:24 GMT 36.412949 -108.146034 36,000 27 476 0
2022-05-22 23:17:12 GMT 36.389969 -108.160629 36,000 27 476 64
2022-05-22 23:17:01 GMT 36.369495 -108.173668 36,000 27 476 64
2022-05-22 23:16:51 GMT 36.350647 -108.185692 36,000 27 476 -64
2022-05-22 23:16:47 GMT 36.340988 -108.191872 36,000 27 476 -64
2022-05-22 23:16:41 GMT 36.331604 -108.197884 36,000 27 476 0
2022-05-22 23:16:35 GMT 36.319263 -108.205750 36,000 27 475 0
2022-05-22 23:16:29 GMT 36.306839 -108.213676 36,000 27 475 0
2022-05-22 23:16:19 GMT 36.286259 -108.226730 36,000 27 474 -64
2022-05-22 23:16:11 GMT 36.271084 -108.236366 36,000 27 474 -64
2022-05-22 23:16:07 GMT 36.264751 -108.240402 36,025 27 474 -64
2022-05-22 23:15:57 GMT 36.243988 -108.253555 36,000 27 473 64
2022-05-22 23:15:47 GMT 36.224945 -108.265633 36,000 27 473 64
2022-05-22 23:15:37 GMT 36.204071 -108.278847 36,000 27 473 64
2022-05-22 23:15:28 GMT 36.189285 -108.288231 36,000 27 473 64
2022-05-22 23:15:25 GMT 36.183060 -108.292175 36,000 27 474 128
2022-05-22 23:15:19 GMT 36.168945 -108.301064 35,975 27 474 0
2022-05-22 23:15:16 GMT 36.162827 -108.304939 35,975 27 474 -64
2022-05-22 23:15:08 GMT 36.148884 -108.313744 36,000 27 474 64
2022-05-22 23:15:04 GMT 36.142365 -108.317871 35,975 27 474 128
2022-05-22 23:14:58 GMT 36.128998 -108.326340 35,975 27 474 -192
2022-05-22 23:14:54 GMT 36.121902 -108.330803 36,000 27 473 -704
2022-05-22 23:14:47 GMT 36.108242 -108.339455 36,100 27 472 -896
2022-05-22 23:14:44 GMT 36.099655 -108.344879 36,150 27 471 -960
2022-05-22 23:14:37 GMT 36.088413 -108.351959 36,250 27 471 -960
2022-05-22 23:14:33 GMT 36.080521 -108.356956 36,325 27 472 -960
2022-05-22 23:14:27 GMT 36.068344 -108.364677 36,425 27 472 -1088
2022-05-22 23:14:23 GMT 36.060200 -108.369843 36,475 27 472 -1088
2022-05-22 23:14:15 GMT 36.047379 -108.377953 36,600 27 473 -1088
2022-05-22 23:14:11 GMT 36.038818 -108.383331 36,675 27 474 -1024
2022-05-22 23:14:06 GMT 36.027603 -108.390427 36,775 27 474 -1088
2022-05-22 23:14:02 GMT 36.018539 -108.396149 36,875 27 473 -1024
2022-05-22 23:13:50 GMT 35.997913 -108.409172 37,000 27 473 -64
2022-05-22 23:13:44 GMT 35.986862 -108.416176 37,000 27 473 0
2022-05-22 23:13:40 GMT 35.975758 -108.423195 37,000 27 473 0
2022-05-22 23:13:35 GMT 35.966072 -108.429329 37,000 27 473 0
2022-05-22 23:13:29 GMT 35.957062 -108.435059 37,000 27 473 -64
2022-05-22 23:13:23 GMT 35.945297 -108.442497 37,000 27 473 -64
2022-05-22 23:13:19 GMT 35.936977 -108.447739 37,000 27 473 0
2022-05-22 23:13:14 GMT 35.926208 -108.454575 37,000 27 473 0
2022-05-22 23:13:09 GMT 35.915936 -108.461006 37,000 27 473 0
2022-05-22 23:13:03 GMT 35.906158 -108.467155 37,000 27 473 -64
2022-05-22 23:12:58 GMT 35.895905 -108.473625 37,000 27 472 -64
2022-05-22 23:12:42 GMT 35.863495 -108.493935 37,000 27 471 64
2022-05-22 23:12:36 GMT 35.853058 -108.500519 37,000 27 471 64
2022-05-22 23:12:31 GMT 35.844498 -108.505898 37,000 26 471 0
2022-05-22 23:12:24 GMT 35.828510 -108.515877 37,000 26 471 0
2022-05-22 23:12:18 GMT 35.816895 -108.523125 37,000 26 471 0
2022-05-22 23:12:15 GMT 35.813187 -108.525467 37,000 26 472 0
2022-05-22 23:12:10 GMT 35.803001 -108.531776 37,000 26 472 0
2022-05-22 23:12:05 GMT 35.791176 -108.539192 37,000 26 471 0
2022-05-22 23:12:00 GMT 35.784332 -108.543465 37,000 26 471 0
2022-05-22 23:11:54 GMT 35.772583 -108.550697 37,000 26 471 0
2022-05-22 23:11:51 GMT 35.763943 -108.556084 37,000 26 471 0
2022-05-22 23:11:44 GMT 35.751114 -108.564095 37,000 26 470 0
2022-05-22 23:11:37 GMT 35.738850 -108.571686 37,000 26 470 -64
2022-05-22 23:11:28 GMT 35.720276 -108.583260 37,000 26 470 0
2022-05-22 23:11:19 GMT 35.703472 -108.593658 37,000 26 470 0
2022-05-22 23:11:07 GMT 35.680710 -108.607803 37,000 26 470 0
2022-05-22 23:10:55 GMT 35.657364 -108.622398 37,000 27 471 0
2022-05-22 23:10:47 GMT 35.640106 -108.633209 37,000 27 473 0
2022-05-22 23:10:36 GMT 35.619259 -108.646309 37,000 27 473 0
2022-05-22 23:10:26 GMT 35.598541 -108.659401 37,000 27 474 0
2022-05-22 23:10:14 GMT 35.577621 -108.672523 37,000 27 476 0
2022-05-22 23:10:05 GMT 35.556931 -108.685455 37,000 27 477 -64
2022-05-22 23:09:53 GMT 35.536057 -108.698502 37,000 27 476 0
2022-05-22 23:09:44 GMT 35.517334 -108.710175 37,000 26 475 0
2022-05-22 23:09:37 GMT 35.503784 -108.718643 37,000 26 475 0
2022-05-22 23:09:15 GMT 35.460796 -108.745308 37,000 26 475 0
2022-05-22 23:09:12 GMT 35.453625 -108.749748 37,000 26 475 64
2022-05-22 23:09:03 GMT 35.436913 -108.760094 37,000 26 474 64
2022-05-22 23:09:00 GMT 35.431320 -108.763557 37,000 26 474 64
2022-05-22 23:08:54 GMT 35.417873 -108.771896 37,000 26 474 -64
2022-05-22 23:08:51 GMT 35.411865 -108.775635 37,000 26 474 -64
2022-05-22 23:08:40 GMT 35.390499 -108.788780 37,000 26 474 0
2022-05-22 23:08:32 GMT 35.375931 -108.797775 37,000 26 474 -64
2022-05-22 23:08:29 GMT 35.370392 -108.801208 37,000 26 473 -64
2022-05-22 23:08:18 GMT 35.347904 -108.815025 37,000 26 473 0
2022-05-22 23:08:08 GMT 35.329285 -108.826447 37,000 26 473 0
2022-05-22 23:07:58 GMT 35.308662 -108.839157 37,000 26 474 0
2022-05-22 23:07:46 GMT 35.287109 -108.852425 37,000 26 474 64
2022-05-22 23:07:41 GMT 35.275238 -108.859665 37,000 26 476 0
2022-05-22 23:07:37 GMT 35.266670 -108.864983 37,000 26 476 0
2022-05-22 23:07:30 GMT 35.255081 -108.872116 37,000 26 477 -64
2022-05-22 23:07:25 GMT 35.243023 -108.879539 37,000 26 477 0
2022-05-22 23:07:19 GMT 35.233337 -108.885498 37,000 26 478 0
2022-05-22 23:07:14 GMT 35.223679 -108.891495 37,000 26 479 0
2022-05-22 23:07:10 GMT 35.213791 -108.897629 37,000 26 479 0
2022-05-22 23:07:04 GMT 35.202026 -108.904892 37,000 26 480 0
2022-05-22 23:06:53 GMT 35.181793 -108.917450 37,000 26 481 0
2022-05-22 23:06:43 GMT 35.159821 -108.931015 37,000 26 481 64
2022-05-22 23:06:31 GMT 35.137535 -108.944893 37,000 26 481 0
2022-05-22 23:06:20 GMT 35.114639 -108.958923 37,000 26 481 -64
2022-05-22 23:06:10 GMT 35.097687 -108.969269 37,000 26 480 64
2022-05-22 23:06:00 GMT 35.076134 -108.982491 37,000 26 481 0
2022-05-22 23:05:50 GMT 35.055370 -108.995193 37,000 26 480 -128
2022-05-22 23:05:39 GMT 35.034702 -109.007950 37,025 26 480 128
2022-05-22 23:05:29 GMT 35.003677 -109.026978 37,000 26 480 -64
2022-05-22 23:05:13 GMT 34.982796 -109.039764 37,000 26 479 64
2022-05-22 23:05:03 GMT 34.961243 -109.052872 37,000 26 478 -192
2022-05-22 23:04:52 GMT 34.939865 -109.065933 37,000 26 477 192
2022-05-22 23:04:40 GMT 34.918648 -109.078850 37,000 26 478 -64
2022-05-22 23:04:31 GMT 34.896255 -109.092522 37,000 26 477 -64
2022-05-22 23:04:18 GMT 34.873028 -109.106773 37,000 26 477 0
2022-05-22 23:04:08 GMT 34.853165 -109.118904 37,025 26 476 128
2022-05-22 23:03:53 GMT 34.825077 -109.136063 37,000 26 476 192
2022-05-22 23:03:47 GMT 34.810867 -109.144798 37,000 26 477 -64
2022-05-22 23:03:36 GMT 34.789978 -109.157578 37,000 26 476 0
2022-05-22 23:03:25 GMT 34.769867 -109.169830 37,000 26 476 0
2022-05-22 23:03:14 GMT 34.747375 -109.183533 37,000 26 477 64
2022-05-22 23:03:04 GMT 34.728333 -109.195076 37,000 26 477 0
2022-05-22 23:02:54 GMT 34.706554 -109.208336 37,000 26 478 128
2022-05-22 23:02:42 GMT 34.684982 -109.221481 37,000 26 478 -64
2022-05-22 23:02:33 GMT 34.665684 -109.233284 37,000 26 477 -64
2022-05-22 23:02:16 GMT 34.633987 -109.252640 37,000 26 477 0
2022-05-22 23:02:12 GMT 34.623596 -109.258919 37,000 26 475 -128
2022-05-22 23:01:37 GMT 34.556305 -109.299843 37,000 26 475 0
2022-05-22 23:01:33 GMT 34.546738 -109.305611 37,000 26 474 -64
2022-05-22 23:01:29 GMT 34.540924 -109.309143 37,000 26 474 -64
2022-05-22 23:01:19 GMT 34.519821 -109.321869 37,000 26 474 64
2022-05-22 23:01:10 GMT 34.503681 -109.331650 37,000 26 475 64
2022-05-22 23:01:07 GMT 34.499165 -109.334396 37,000 26 475 64
2022-05-22 23:01:00 GMT 34.482220 -109.344582 37,000 26 474 0
2022-05-22 23:00:55 GMT 34.473095 -109.350128 37,000 26 475 0
2022-05-22 23:00:48 GMT 34.461411 -109.357178 37,000 26 475 0
2022-05-22 23:00:43 GMT 34.451355 -109.363235 37,000 26 474 -128
2022-05-22 23:00:40 GMT 34.443722 -109.367805 37,000 26 474 -128
2022-05-22 23:00:32 GMT 34.426823 -109.377998 37,025 26 474 0
2022-05-22 23:00:29 GMT 34.422867 -109.380333 37,025 26 474 0
2022-05-22 23:00:23 GMT 34.411377 -109.387222 37,000 26 473 -64
2022-05-22 23:00:19 GMT 34.402477 -109.392586 37,000 26 473 0
2022-05-22 23:00:11 GMT 34.386200 -109.402359 37,000 26 473 0
2022-05-22 23:00:07 GMT 34.381294 -109.405289 37,000 26 473 0
2022-05-22 23:00:02 GMT 34.370178 -109.411942 37,000 26 473 0
2022-05-22 22:59:58 GMT 34.360657 -109.417664 37,000 26 473 0
2022-05-22 22:59:51 GMT 34.349220 -109.424515 37,000 26 473 0
2022-05-22 22:59:46 GMT 34.339863 -109.430122 37,000 26 473 -64
2022-05-22 22:59:41 GMT 34.329163 -109.436554 37,000 26 474 0
2022-05-22 22:59:35 GMT 34.318451 -109.443001 37,000 26 474 64
2022-05-22 22:59:31 GMT 34.308163 -109.449181 37,000 26 474 64
2022-05-22 22:59:26 GMT 34.297222 -109.455704 37,000 26 474 0
2022-05-22 22:59:19 GMT 34.286179 -109.462334 37,000 26 474 -64
2022-05-22 22:59:14 GMT 34.277435 -109.467552 37,000 26 474 0
2022-05-22 22:59:09 GMT 34.266590 -109.474129 37,000 26 475 64
2022-05-22 22:59:05 GMT 34.256069 -109.480537 37,000 26 475 0
2022-05-22 22:58:59 GMT 34.245968 -109.486656 37,000 26 475 0
2022-05-22 22:58:56 GMT 34.240520 -109.489922 37,000 26 475 0
2022-05-22 22:58:53 GMT 34.235912 -109.492722 37,000 26 475 -64
2022-05-22 22:58:48 GMT 34.224976 -109.499329 37,000 26 475 -64
2022-05-22 22:58:44 GMT 34.214539 -109.505608 37,000 26 475 0
2022-05-22 22:58:41 GMT 34.211052 -109.507713 37,000 26 475 0
2022-05-22 22:58:38 GMT 34.205189 -109.511208 37,000 26 475 64
2022-05-22 22:58:35 GMT 34.199066 -109.514915 37,000 26 475 0
2022-05-22 22:58:32 GMT 34.193409 -109.518356 37,000 26 475 0
2022-05-22 22:58:28 GMT 34.184658 -109.523621 37,000 26 476 0
2022-05-22 22:58:23 GMT 34.175034 -109.529434 37,000 26 475 -64
2022-05-22 22:58:17 GMT 34.163956 -109.536049 37,000 26 475 0
2022-05-22 22:58:12 GMT 34.152771 -109.542732 37,000 26 475 64
2022-05-22 22:58:09 GMT 34.147888 -109.545685 37,000 26 475 64
2022-05-22 22:58:03 GMT 34.135078 -109.553375 37,000 26 475 0
2022-05-22 22:58:00 GMT 34.129166 -109.556900 37,000 26 476 0
2022-05-22 22:57:55 GMT 34.120880 -109.561844 37,000 26 476 -64
2022-05-22 22:57:52 GMT 34.114784 -109.565506 37,000 26 476 0
2022-05-22 22:57:49 GMT 34.108543 -109.569221 37,000 26 476 0
2022-05-22 22:57:46 GMT 34.101562 -109.573402 37,000 26 476 0
2022-05-22 22:57:42 GMT 34.093002 -109.578476 37,000 26 476 0
2022-05-22 22:57:38 GMT 34.087132 -109.581924 37,000 26 476 0
2022-05-22 22:57:35 GMT 34.079731 -109.586388 37,000 26 476 -64
2022-05-22 22:57:31 GMT 34.073444 -109.590111 37,000 26 475 0
2022-05-22 22:57:27 GMT 34.063431 -109.596077 37,000 26 475 0
2022-05-22 22:57:22 GMT 34.053543 -109.602020 37,000 26 475 0
2022-05-22 22:57:18 GMT 34.045933 -109.606529 37,000 26 475 0
2022-05-22 22:57:14 GMT 34.039135 -109.610657 37,000 26 475 0
2022-05-22 22:57:10 GMT 34.032524 -109.614601 37,000 26 476 64
2022-05-22 22:57:06 GMT 34.024200 -109.619560 37,000 26 475 0
2022-05-22 22:57:03 GMT 34.018421 -109.622955 37,000 26 475 0
2022-05-22 22:56:59 GMT 34.007900 -109.629311 37,000 26 476 64
2022-05-22 22:56:56 GMT 34.003784 -109.631729 37,000 26 476 64
2022-05-22 22:56:53 GMT 33.997890 -109.635262 37,000 26 475 64
2022-05-22 22:56:49 GMT 33.988037 -109.641144 37,000 26 476 0
2022-05-22 22:56:45 GMT 33.983414 -109.643898 37,000 26 476 0
2022-05-22 22:56:42 GMT 33.976959 -109.647758 37,000 26 476 0
2022-05-22 22:56:38 GMT 33.966934 -109.653702 37,000 26 477 0
2022-05-22 22:56:35 GMT 33.963116 -109.655975 37,000 26 477 0
2022-05-22 22:56:32 GMT 33.956085 -109.660149 37,000 26 477 0
2022-05-22 22:56:27 GMT 33.946171 -109.665985 37,000 26 477 0
2022-05-22 22:56:24 GMT 33.934982 -109.672592 37,000 26 477 0
2022-05-22 22:56:21 GMT 33.934982 -109.672592 37,000 26 477 0
2022-05-22 22:56:14 GMT 33.921844 -109.680382 37,000 26 477 0
2022-05-22 22:56:10 GMT 33.913147 -109.685539 37,000 26 477 0
2022-05-22 22:56:07 GMT 33.905365 -109.690132 37,000 26 478 0
2022-05-22 22:56:03 GMT 33.897152 -109.695053 37,000 26 478 0
2022-05-22 22:56:00 GMT 33.892868 -109.697624 37,000 26 478 0
2022-05-22 22:55:54 GMT 33.880646 -109.704933 37,000 26 478 -64
2022-05-22 22:55:50 GMT 33.872757 -109.709641 37,000 26 478 0
2022-05-22 22:55:46 GMT 33.863342 -109.715248 37,000 26 478 0
2022-05-22 22:55:43 GMT 33.859119 -109.717773 37,000 26 477 0
2022-05-22 22:55:40 GMT 33.852230 -109.721886 37,000 26 477 0
2022-05-22 22:55:35 GMT 33.844345 -109.726570 37,000 26 477 -64
2022-05-22 22:55:32 GMT 33.838730 -109.729897 37,000 26 477 0
2022-05-22 22:55:29 GMT 33.831467 -109.734192 37,000 26 477 0
2022-05-22 22:55:26 GMT 33.823746 -109.738731 37,000 26 477 0
2022-05-22 22:55:22 GMT 33.817410 -109.742493 37,000 26 477 0
2022-05-22 22:55:19 GMT 33.807953 -109.748093 37,000 26 476 0
2022-05-22 22:55:13 GMT 33.799438 -109.753082 37,000 26 476 0
2022-05-22 22:55:09 GMT 33.791943 -109.757484 37,000 26 477 0
2022-05-22 22:55:05 GMT 33.782318 -109.763168 37,000 26 477 0
2022-05-22 22:55:02 GMT 33.779140 -109.765038 37,000 26 477 0
2022-05-22 22:54:59 GMT 33.770142 -109.770348 37,000 26 476 0
2022-05-22 22:54:53 GMT 33.758102 -109.777519 37,000 26 476 64
2022-05-22 22:54:49 GMT 33.750824 -109.781837 37,000 26 476 0
2022-05-22 22:54:42 GMT 33.737045 -109.789963 37,000 26 476 -128
2022-05-22 22:54:39 GMT 33.732971 -109.792374 37,000 26 475 256
2022-05-22 22:54:36 GMT 33.726768 -109.796043 36,800 26 475 960
2022-05-22 22:54:30 GMT 33.714436 -109.803368 36,925 26 475 960
2022-05-22 22:54:27 GMT 33.708344 -109.806946 36,925 26 475 960
2022-05-22 22:54:19 GMT 33.693375 -109.815865 36,800 26 474 960
2022-05-22 22:54:16 GMT 33.675293 -109.826508 36,625 26 475 960
2022-05-22 22:54:10 GMT 33.675293 -109.826508 36,625 26 475 896
2022-05-22 22:54:07 GMT 33.666138 -109.831894 36,525 26 474 960
2022-05-22 22:54:00 GMT 33.654007 -109.839066 36,475 26 475 1024
2022-05-22 22:53:55 GMT 33.641922 -109.846245 36,375 26 475 1024
2022-05-22 22:53:48 GMT 33.630501 -109.853043 36,275 26 475 1024
2022-05-22 22:53:45 GMT 33.624962 -109.856300 36,225 26 476 1024
2022-05-22 22:53:39 GMT 33.612396 -109.863731 36,125 26 475 960
2022-05-22 22:53:36 GMT 33.608597 -109.865974 36,100 26 475 1024
2022-05-22 22:53:26 GMT 33.589966 -109.877014 35,875 26 476 1088
2022-05-22 22:53:23 GMT 33.583786 -109.880661 35,875 26 476 1088
2022-05-22 22:53:16 GMT 33.568817 -109.889488 35,750 26 477 1152
2022-05-22 22:53:13 GMT 33.560898 -109.894165 35,650 26 477 1152
2022-05-22 22:53:06 GMT 33.546612 -109.902596 35,525 26 477 1024
2022-05-22 22:53:02 GMT 33.536884 -109.908348 35,425 26 477 1088
2022-05-22 22:52:55 GMT 33.526382 -109.914536 35,325 26 477 1088
2022-05-22 22:52:49 GMT 33.512421 -109.922775 35,200 26 477 1024
2022-05-22 22:52:44 GMT 33.506836 -109.926010 35,125 26 477 960
2022-05-22 22:52:41 GMT 33.498459 -109.930954 35,100 26 476 896
2022-05-22 22:52:34 GMT 33.485825 -109.938484 35,000 26 476 896
2022-05-22 22:52:31 GMT 33.478928 -109.942543 34,950 26 475 960
2022-05-22 22:52:25 GMT 33.464775 -109.950951 34,825 26 475 960
2022-05-22 22:52:22 GMT 33.461796 -109.952744 34,800 26 475 960
2022-05-22 22:52:19 GMT 33.455750 -109.956284 34,750 26 475 960
2022-05-22 22:52:15 GMT 33.448242 -109.960732 34,700 26 474 1024
2022-05-22 22:52:12 GMT 33.439823 -109.965691 34,625 26 474 1024
2022-05-22 22:52:09 GMT 33.435585 -109.968155 34,575 26 474 1024
2022-05-22 22:52:04 GMT 33.424694 -109.974548 34,500 26 473 960
2022-05-22 22:52:01 GMT 33.421715 -109.976341 34,475 26 473 960
2022-05-22 22:51:58 GMT 33.413380 -109.981216 34,400 26 473 1024
2022-05-22 22:51:49 GMT 33.390987 -109.994331 34,200 26 472 1088
2022-05-22 22:51:44 GMT 33.387314 -109.996490 34,125 26 472 1216
2022-05-22 22:51:41 GMT 33.380768 -110.000336 34,100 26 472 1216
2022-05-22 22:51:36 GMT 33.368042 -110.007751 33,975 26 472 1216
2022-05-22 22:51:30 GMT 33.359528 -110.012749 33,875 26 472 1216
2022-05-22 22:51:22 GMT 33.342636 -110.022636 33,675 26 472 1152
2022-05-22 22:51:19 GMT 33.335815 -110.026596 33,650 26 472 1088
2022-05-22 22:51:16 GMT 33.328331 -110.030991 33,575 26 470 1088
2022-05-22 22:51:11 GMT 33.321716 -110.034836 33,525 26 471 1088
2022-05-22 22:51:08 GMT 33.316910 -110.037636 33,475 26 471 1024
2022-05-22 22:51:03 GMT 33.306152 -110.043953 33,400 26 470 1088
2022-05-22 22:50:59 GMT 33.297180 -110.049171 33,325 26 470 1024
2022-05-22 22:50:54 GMT 33.287750 -110.054718 33,225 26 470 1088
2022-05-22 22:50:50 GMT 33.281639 -110.058289 33,175 26 468 1088
2022-05-22 22:50:47 GMT 33.275894 -110.061638 33,075 26 468 1152
2022-05-22 22:50:44 GMT 33.268524 -110.065926 33,050 26 468 1216
2022-05-22 22:50:38 GMT 33.256531 -110.072899 32,925 26 468 1280
2022-05-22 22:50:32 GMT 33.247841 -110.077965 32,775 26 468 1152
2022-05-22 22:50:29 GMT 33.238762 -110.083290 32,750 26 468 1280
2022-05-22 22:50:26 GMT 33.234695 -110.085648 32,700 26 468 1280
2022-05-22 22:50:22 GMT 33.225861 -110.090866 32,600 26 468 1280
2022-05-22 22:50:19 GMT 33.218418 -110.095230 32,500 26 469 1344
2022-05-22 22:50:16 GMT 33.215515 -110.096962 32,475 26 469 1408
2022-05-22 22:50:10 GMT 33.201553 -110.105148 32,300 26 469 1472
2022-05-22 22:50:06 GMT 33.194401 -110.109299 32,225 26 470 1600
2022-05-22 22:49:57 GMT 33.177502 -110.119164 31,950 26 470 2048
2022-05-22 22:49:54 GMT 33.169212 -110.123985 31,800 26 471 2048
2022-05-22 22:49:51 GMT 33.164513 -110.126732 31,725 26 472 2048
2022-05-22 22:49:46 GMT 33.156006 -110.131676 31,500 26 473 2048
2022-05-22 22:49:43 GMT 33.148731 -110.135925 31,450 26 474 1920
2022-05-22 22:49:40 GMT 33.143425 -110.139008 31,350 26 474 1856
2022-05-22 22:49:36 GMT 33.136551 -110.143051 31,200 26 475 2112
2022-05-22 22:49:33 GMT 33.130875 -110.146400 31,150 26 476 2176
2022-05-22 22:49:29 GMT 33.122383 -110.151390 31,000 26 477 1856
2022-05-22 22:49:25 GMT 33.113525 -110.156563 30,900 26 478 1088
2022-05-22 22:49:22 GMT 33.107857 -110.159859 30,850 26 477 832
2022-05-22 22:49:18 GMT 33.101852 -110.163330 30,825 26 476 960
2022-05-22 22:49:14 GMT 33.093567 -110.168152 30,725 25 475 1792
2022-05-22 22:49:10 GMT 33.086151 -110.172440 30,575 25 477 2432
2022-05-22 22:49:07 GMT 33.078140 -110.177048 30,400 26 478 2368
2022-05-22 22:49:04 GMT 33.073242 -110.179909 30,250 26 481 2304
2022-05-22 22:49:01 GMT 33.065735 -110.184303 30,175 26 481 2304
2022-05-22 22:48:58 GMT 33.059956 -110.187660 30,075 26 482 2048
2022-05-22 22:48:54 GMT 33.051224 -110.192764 29,950 26 483 1408
2022-05-22 22:48:51 GMT 33.047947 -110.194664 29,900 26 483 1216
2022-05-22 22:48:48 GMT 33.038216 -110.200325 29,800 26 482 0
2022-05-22 22:48:43 GMT 33.030487 -110.204788 29,725 26 482 1280
2022-05-22 22:48:40 GMT 33.023117 -110.209076 29,650 26 482 1280
2022-05-22 22:48:37 GMT 33.017029 -110.212593 29,575 26 481 1216
2022-05-22 22:48:33 GMT 33.009682 -110.216866 29,500 26 481 1216
2022-05-22 22:48:29 GMT 33.002556 -110.221008 29,450 26 480 1152
2022-05-22 22:48:26 GMT 32.995331 -110.225174 29,375 26 478 1152
2022-05-22 22:48:22 GMT 32.988640 -110.229080 29,250 26 478 1152
2022-05-22 22:48:19 GMT 32.981518 -110.233231 29,250 26 478 1152
2022-05-22 22:48:14 GMT 32.970062 -110.239838 29,075 26 476 1152
2022-05-22 22:48:10 GMT 32.963974 -110.243408 29,075 26 476 1024
2022-05-22 22:48:07 GMT 32.960056 -110.245674 29,050 26 476 1088
2022-05-22 22:48:02 GMT 32.948135 -110.252579 28,925 26 475 1216
2022-05-22 22:47:58 GMT 32.937744 -110.258621 28,825 26 474 1088
2022-05-22 22:47:52 GMT 32.928360 -110.264061 28,725 26 473 1152
2022-05-22 22:47:49 GMT 32.921814 -110.267853 28,650 26 471 1216
2022-05-22 22:47:46 GMT 32.912338 -110.273361 28,550 25 470 1152
2022-05-22 22:47:39 GMT 32.902222 -110.279221 28,450 26 469 1152
2022-05-22 22:47:36 GMT 32.898048 -110.281601 28,425 26 469 1216
2022-05-22 22:47:32 GMT 32.887665 -110.287628 28,300 26 468 1344
2022-05-22 22:47:29 GMT 32.884548 -110.289452 28,275 26 467 1344
2022-05-22 22:47:26 GMT 32.876907 -110.293839 28,175 26 467 1088
2022-05-22 22:47:19 GMT 32.863831 -110.301445 28,050 26 464 1280
2022-05-22 22:47:16 GMT 32.858734 -110.304382 28,000 26 464 1472
2022-05-22 22:47:09 GMT 32.845551 -110.312073 27,800 26 462 1280
2022-05-22 22:47:06 GMT 32.840012 -110.315262 27,700 26 462 1280
2022-05-22 22:46:59 GMT 32.824959 -110.324036 27,600 26 459 1408
2022-05-22 22:46:56 GMT 32.818497 -110.327782 27,525 26 459 1472
2022-05-22 22:46:47 GMT 32.801640 -110.337486 27,350 25 457 1088
2022-05-22 22:46:44 GMT 32.794376 -110.341637 27,275 25 455 1280
2022-05-22 22:46:39 GMT 32.785950 -110.346458 27,175 25 455 1344
2022-05-22 22:46:35 GMT 32.779633 -110.350143 27,100 25 454 1408
2022-05-22 22:46:31 GMT 32.770214 -110.355591 27,000 26 453 1408
2022-05-22 22:46:27 GMT 32.764721 -110.358734 26,925 26 453 1472
2022-05-22 22:46:23 GMT 32.759182 -110.361984 26,850 26 452 1536
2022-05-22 22:46:19 GMT 32.750793 -110.366837 26,750 25 450 1088
2022-05-22 22:46:16 GMT 32.745850 -110.369698 26,650 25 449 1088
2022-05-22 22:46:13 GMT 32.737255 -110.374649 26,600 26 448 1344
2022-05-22 22:46:07 GMT 32.726967 -110.380592 26,400 25 447 1664
2022-05-22 22:46:04 GMT 32.721634 -110.383652 26,375 25 447 1664
2022-05-22 22:46:01 GMT 32.717743 -110.385902 26,325 25 447 1664
2022-05-22 22:45:55 GMT 32.705429 -110.392990 26,075 25 445 1600
2022-05-22 22:45:52 GMT 32.697781 -110.397408 26,025 25 445 1664
2022-05-22 22:45:45 GMT 32.685608 -110.404465 25,825 26 444 1920
2022-05-22 22:45:41 GMT 32.681076 -110.407051 25,700 26 444 1792
2022-05-22 22:45:34 GMT 32.666473 -110.415512 25,500 26 441 1600
2022-05-22 22:45:31 GMT 32.660980 -110.418640 25,425 25 441 1728
2022-05-22 22:45:28 GMT 32.656162 -110.421455 25,375 25 441 1792
2022-05-22 22:45:24 GMT 32.640930 -110.430176 25,200 25 440 1856
2022-05-22 22:45:21 GMT 32.640930 -110.430176 25,125 25 440 1856
2022-05-22 22:45:18 GMT 32.635960 -110.433060 25,050 25 440 1728
2022-05-22 22:45:14 GMT 32.629906 -110.436531 24,950 26 439 1664
2022-05-22 22:45:11 GMT 32.624134 -110.439896 24,850 25 439 1728
2022-05-22 22:45:07 GMT 32.617447 -110.443687 24,750 25 438 1856
2022-05-22 22:45:03 GMT 32.608818 -110.448692 24,550 25 436 2048
2022-05-22 22:45:00 GMT 32.604908 -110.450935 24,550 25 436 2048
2022-05-22 22:44:57 GMT 32.597717 -110.455063 24,400 25 436 1792
2022-05-22 22:44:54 GMT 32.586685 -110.461380 24,300 25 436 1600
2022-05-22 22:44:51 GMT 32.579350 -110.465622 24,200 25 434 1728
2022-05-22 22:44:46 GMT 32.579350 -110.465622 24,125 25 434 1792
2022-05-22 22:44:42 GMT 32.572880 -110.469322 23,925 26 432 1792
2022-05-22 22:44:39 GMT 32.567184 -110.472641 23,925 26 432 1792
2022-05-22 22:44:36 GMT 32.559952 -110.476761 23,800 26 432 1856
2022-05-22 22:44:33 GMT 32.553421 -110.480591 23,675 26 431 1920
2022-05-22 22:44:30 GMT 32.540852 -110.487823 23,500 26 429 2176
2022-05-22 22:44:25 GMT 32.540852 -110.487823 23,425 26 429 2240
2022-05-22 22:44:22 GMT 32.535313 -110.491074 23,175 26 429 2432
2022-05-22 22:44:19 GMT 32.529491 -110.494377 23,175 26 430 2368
2022-05-22 22:44:15 GMT 32.522369 -110.498528 23,025 26 430 2112
2022-05-22 22:44:11 GMT 32.516876 -110.501724 22,925 26 428 1984
2022-05-22 22:44:07 GMT 32.507858 -110.506973 22,450 26 426 2304
2022-05-22 22:44:04 GMT 32.503738 -110.509331 22,675 26 428 2240
2022-05-22 22:44:01 GMT 32.497787 -110.512848 22,525 26 428 2240
2022-05-22 22:43:58 GMT 32.491924 -110.516235 22,425 26 427 2176
2022-05-22 22:43:54 GMT 32.484432 -110.520615 22,275 26 427 2048
2022-05-22 22:43:49 GMT 32.475861 -110.525650 22,050 26 426 2368
2022-05-22 22:43:46 GMT 32.470230 -110.528946 21,950 26 426 2688
2022-05-22 22:43:43 GMT 32.466156 -110.531357 21,850 26 426 2752
2022-05-22 22:43:39 GMT 32.457150 -110.536644 21,625 26 426 2560
2022-05-22 22:43:36 GMT 32.453522 -110.538719 21,550 26 426 2304
2022-05-22 22:43:33 GMT 32.447250 -110.542458 21,400 26 426 2304
2022-05-22 22:43:29 GMT 32.441483 -110.545807 21,075 26 425 2368
2022-05-22 22:43:26 GMT 32.436264 -110.548882 21,075 26 425 2432
2022-05-22 22:43:22 GMT 32.428986 -110.553177 21,000 26 425 2496
2022-05-22 22:43:19 GMT 32.423035 -110.556625 20,825 26 425 2624
2022-05-22 22:43:16 GMT 32.417313 -110.559982 20,725 26 425 2560
2022-05-22 22:43:12 GMT 32.410446 -110.563934 20,550 26 425 2368
2022-05-22 22:43:07 GMT 32.401108 -110.569321 20,325 25 423 2176
2022-05-22 22:43:04 GMT 32.395615 -110.572449 20,250 25 422 2240
2022-05-22 22:43:01 GMT 32.393051 -110.573875 20,150 25 422 2432
2022-05-22 22:42:58 GMT 32.386623 -110.577507 19,875 25 421 2432
2022-05-22 22:42:55 GMT 32.380280 -110.581070 19,900 25 421 2176
2022-05-22 22:42:51 GMT 32.373276 -110.584976 19,775 24 419 1984
2022-05-22 22:42:48 GMT 32.367828 -110.587936 19,675 24 418 2048
2022-05-22 22:42:44 GMT 32.362335 -110.590904 19,550 24 417 2048
2022-05-22 22:42:41 GMT 32.355835 -110.594315 19,450 23 415 2112
2022-05-22 22:42:37 GMT 32.349567 -110.597511 19,225 22 414 2240
2022-05-22 22:42:34 GMT 32.343704 -110.600433 19,175 23 413 2368
2022-05-22 22:42:30 GMT 32.336334 -110.604256 19,025 26 413 2368
2022-05-22 22:42:25 GMT 32.326759 -110.610237 18,800 31 412 2240
2022-05-22 22:42:22 GMT 32.325073 -110.611450 18,750 32 413 2176
2022-05-22 22:42:18 GMT 32.318844 -110.616516 18,625 38 412 1792
2022-05-22 22:42:13 GMT 32.309532 -110.625824 18,425 44 410 2496
2022-05-22 22:42:09 GMT 32.304367 -110.632210 18,250 49 411 2752
2022-05-22 22:42:04 GMT 32.298222 -110.641571 18,025 58 411 1856
2022-05-22 22:41:59 GMT 32.293240 -110.651550 17,825 63 409 1920
2022-05-22 22:41:55 GMT 32.290867 -110.657661 17,750 68 408 2304
2022-05-22 22:41:52 GMT 32.288177 -110.666489 17,575 73 407 2752
2022-05-22 22:41:48 GMT 32.286537 -110.673859 17,425 79 408 2880
2022-05-22 22:41:45 GMT 32.285477 -110.681488 17,275 83 408 2432
2022-05-22 22:41:41 GMT 32.285019 -110.688248 17,150 87 407 2048
2022-05-22 22:41:38 GMT 32.284882 -110.692581 17,075 89 407 2240
2022-05-22 22:41:34 GMT 32.284767 -110.704185 16,875 90 405 2432
2022-05-22 22:41:31 GMT 32.284790 -110.711647 16,725 90 404 2688
2022-05-22 22:41:27 GMT 32.284836 -110.720490 16,550 90 404 2816
2022-05-22 22:41:22 GMT 32.284863 -110.731201 16,325 90 403 2816
2022-05-22 22:41:18 GMT 32.284882 -110.740044 16,150 90 403 2368
2022-05-22 22:41:13 GMT 32.284882 -110.749710 15,975 90 401 2112
2022-05-22 22:41:09 GMT 32.284908 -110.758499 15,600 90 400 2560
2022-05-22 22:41:06 GMT 32.284908 -110.766457 15,650 90 399 3072
2022-05-22 22:41:01 GMT 32.284954 -110.777672 15,400 90 399 2688
2022-05-22 22:40:57 GMT 32.284973 -110.785255 15,250 90 399 2240
2022-05-22 22:40:52 GMT 32.285065 -110.794701 15,075 90 396 2048
2022-05-22 22:40:49 GMT 32.285095 -110.803787 14,925 90 394 2176
2022-05-22 22:40:45 GMT 32.285110 -110.812668 14,825 90 393 2112
2022-05-22 22:40:41 GMT 32.285095 -110.818756 14,700 90 391 2240
2022-05-22 22:40:37 GMT 32.285095 -110.828232 14,450 90 388 2560
2022-05-22 22:40:34 GMT 32.285095 -110.834671 14,400 90 387 2560
2022-05-22 22:40:30 GMT 32.285110 -110.841835 14,100 90 386 2560
2022-05-22 22:40:27 GMT 32.285110 -110.850456 14,075 89 385 2624
2022-05-22 22:40:23 GMT 32.285095 -110.856644 13,950 90 383 2752
2022-05-22 22:40:20 GMT 32.285110 -110.864029 13,800 90 382 2752
2022-05-22 22:40:17 GMT 32.285065 -110.871223 13,675 90 381 1984
2022-05-22 22:40:13 GMT 32.285065 -110.880119 13,575 90 377 896
2022-05-22 22:40:09 GMT 32.285095 -110.885231 13,525 90 373 832
2022-05-22 22:40:05 GMT 32.285110 -110.894295 13,450 90 365 832
2022-05-22 22:40:02 GMT 32.285141 -110.900314 13,450 90 363 896
2022-05-22 22:39:59 GMT 32.285156 -110.906380 13,400 90 359 1024
2022-05-22 22:39:56 GMT 32.285156 -110.914345 13,325 90 354 960
2022-05-22 22:39:52 GMT 32.285187 -110.920937 13,275 90 349 896
2022-05-22 22:39:49 GMT 32.285202 -110.926102 13,225 90 346 896
2022-05-22 22:39:46 GMT 32.285233 -110.932487 13,150 90 341 960
2022-05-22 22:39:43 GMT 32.285233 -110.938538 13,125 90 338 960
2022-05-22 22:39:38 GMT 32.285278 -110.945717 13,050 90 333 832
2022-05-22 22:39:35 GMT 32.285328 -110.951599 13,025 90 328 896
2022-05-22 22:39:31 GMT 32.285339 -110.959442 12,925 90 323 1664
2022-05-22 22:39:28 GMT 32.285385 -110.965042 12,825 90 321 2176
2022-05-22 22:39:23 GMT 32.285431 -110.973778 12,575 90 319 2432
2022-05-22 22:39:20 GMT 32.285465 -110.978111 12,525 90 318 2496
2022-05-22 22:39:16 GMT 32.285561 -110.983772 12,375 90 317 2560
2022-05-22 22:39:13 GMT 32.285614 -110.989105 12,250 90 315 2368
2022-05-22 22:39:10 GMT 32.285706 -110.996521 12,100 90 313 1792
2022-05-22 22:39:07 GMT 32.285748 -111.001541 12,000 89 310 1728
2022-05-22 22:39:02 GMT 32.285698 -111.009727 11,825 87 306 2688
2022-05-22 22:38:59 GMT 32.285278 -111.019371 11,675 86 305 3328
2022-05-22 22:38:56 GMT 32.285278 -111.019371 11,500 85 305 3520
2022-05-22 22:38:53 GMT 32.284397 -111.029457 11,275 83 305 3200
2022-05-22 22:38:50 GMT 32.284397 -111.029457 11,175 80 305 3008
2022-05-22 22:38:46 GMT 32.283463 -111.036240 10,975 77 305 2752
2022-05-22 22:38:42 GMT 32.282135 -111.042831 10,800 74 305 2816
2022-05-22 22:38:39 GMT 32.281231 -111.046722 10,325 70 304 2816
2022-05-22 22:38:32 GMT 32.277832 -111.057320 10,275 58 303 3200
2022-05-22 22:38:29 GMT 32.274853 -111.063255 10,125 54 304 3456
2022-05-22 22:38:25 GMT 32.271927 -111.067764 9,925 46 304 3776
2022-05-22 22:38:20 GMT 32.266754 -111.073402 9,650 36 306 3136
2022-05-22 22:38:17 GMT 32.264519 -111.075256 9,400 24 305 2432
2022-05-22 22:38:14 GMT 32.260162 -111.078094 9,400 24 305 2432
2022-05-22 22:38:10 GMT 32.253891 -111.080788 9,250 14 302 1664
2022-05-22 22:38:04 GMT 32.245617 -111.082146 9,125 0 292 1280
2022-05-22 22:37:59 GMT 32.240032 -111.081757 9,025 351 285 1344
2022-05-22 22:37:52 GMT 32.231140 -111.078728 8,925 335 274 896
2022-05-22 22:37:49 GMT 32.226856 -111.075928 8,825 326 268 1536
2022-05-22 22:37:43 GMT 32.221413 -111.070709 8,675 315 259 960
2022-05-22 22:37:40 GMT 32.218506 -111.067108 8,650 313 254 640
2022-05-22 22:37:36 GMT 32.216011 -111.063873 8,600 313 243 1088
2022-05-22 22:37:32 GMT 32.213104 -111.060074 8,525 312 242 1536
2022-05-22 22:37:27 GMT 32.209167 -111.054970 8,350 313 233 2240
2022-05-22 22:37:19 GMT 32.202988 -111.047058 7,950 313 230 3392
2022-05-22 22:37:16 GMT 32.201248 -111.044807 7,800 313 231 3456
2022-05-22 22:37:08 GMT 32.195389 -111.037247 7,300 313 233 3648
2022-05-22 22:37:01 GMT 32.190170 -111.030525 6,925 312 237 2816
2022-05-22 22:36:56 GMT 32.186684 -111.025925 6,700 312 237 2752
2022-05-22 22:36:49 GMT 32.182121 -111.019981 6,375 312 239 2752
2022-05-22 22:36:46 GMT 32.178543 -111.015251 6,175 312 237 3200
2022-05-22 22:36:40 GMT 32.174625 -111.010063 5,825 311 239 3584
2022-05-22 22:36:35 GMT 32.170532 -111.004433 5,475 312 240 3072
2022-05-22 22:36:28 GMT 32.166550 -110.999046 5,225 312 239 2752
2022-05-22 22:36:24 GMT 32.163300 -110.994766 5,025 313 239 2816
2022-05-22 22:36:19 GMT 32.159042 -110.989326 4,800 313 236 2432
2022-05-22 22:36:14 GMT 32.155334 -110.984657 4,625 313 229 896
2022-05-22 22:36:07 GMT 32.151024 -110.979179 4,575 313 221 256
2022-05-22 22:36:03 GMT 32.148136 -110.975594 4,525 314 213 1024
2022-05-22 22:35:58 GMT 32.144257 -110.970757 4,400 315 208 1024
2022-05-22 22:35:53 GMT 32.140690 -110.966400 4,300 314 200 960
2022-05-22 22:35:46 GMT 32.137024 -110.961967 4,200 315 189 832
2022-05-22 22:35:42 GMT 32.134323 -110.958786 4,100 317 183 1664
2022-05-22 22:35:36 GMT 32.129936 -110.954178 3,875 321 182 2112
2022-05-22 22:35:32 GMT 32.127331 -110.951767 3,725 320 180 2560
2022-05-22 22:35:22 GMT 32.122208 -110.946274 3,075 317 176 4032
2022-05-22 22:35:19 GMT 32.120224 -110.944008 3,075 317 176 4032
2022-05-22 22:35:13 GMT 32.115921 -110.939064 2,700 316 182 1856
2022-05-22 22:35:10 GMT 32.114712 -110.937645 2,650 316 178 640
2022-05-22 22:34:56 GMT 32.107265 -110.928955 2,675 315 134 -64
2022-05-22 22:34:49 GMT 32.105171 -110.926544 2,675 315 87 0
2022-05-22 22:34:39 GMT 32.102875 -110.923836 0 315 30
2022-05-22 22:34:28 GMT 32.102306 -110.923126 0 295 9
2022-05-22 22:34:18 GMT 32.102280 -110.922676 0 227 9
2022-05-22 22:34:07 GMT 32.102551 -110.922356 0 222 7
2022-05-22 22:33:55 GMT 32.102760 -110.922134 0 225 0
2022-05-22 22:33:39 GMT 32.102772 -110.922119 0 225 0
2022-05-22 22:33:34 GMT 32.102772 -110.922119 0 225 0
2022-05-22 22:33:25 GMT 32.102772 -110.922119 0 225 0
2022-05-22 22:33:14 GMT 32.102772 -110.922119 0 225 2
2022-05-22 22:33:04 GMT 32.102863 -110.922005 0 222 4
2022-05-22 22:32:52 GMT 32.103004 -110.921867 0 191 4
2022-05-22 22:32:43 GMT 32.103172 -110.921829 0 157 5
2022-05-22 22:32:31 GMT 32.103424 -110.922020 0 137 9
2022-05-22 22:32:22 GMT 32.103786 -110.922424 0 135 12
2022-05-22 22:32:11 GMT 32.104191 -110.922913 0 135 13
2022-05-22 22:32:01 GMT 32.104660 -110.923462 0 135 15
2022-05-22 22:31:50 GMT 32.105194 -110.924095 0 135 16
2022-05-22 22:31:39 GMT 32.105804 -110.924805 0 135 20
2022-05-22 22:31:29 GMT 32.106556 -110.925674 0 137 23
2022-05-22 22:31:17 GMT 32.107395 -110.926659 0 135 26
2022-05-22 22:31:07 GMT 32.108288 -110.927719 0 137 26
2022-05-22 22:30:56 GMT 32.109112 -110.928680 0 135 27
2022-05-22 22:30:47 GMT 32.110027 -110.929749 0 135 28
2022-05-22 22:30:35 GMT 32.110977 -110.930862 0 135 28
2022-05-22 22:30:26 GMT 32.111908 -110.931969 0 135 28
2022-05-22 22:30:15 GMT 32.112877 -110.933105 0 137 30
2022-05-22 22:30:04 GMT 32.113979 -110.934402 0 135 34
2022-05-22 22:29:54 GMT 32.115143 -110.935768 0 135 34
2022-05-22 22:29:36 GMT 32.116646 -110.937531 0 132 21
2022-05-22 22:29:28 GMT 32.117287 -110.938080 0 180 15
2022-05-22 22:29:19 GMT 32.117718 -110.937950 0 208 12
2022-05-22 22:29:11 GMT 32.118061 -110.937775 0 177 6
2022-05-22 22:29:00 GMT 32.118275 -110.937813 0 90 4
2022-05-22 22:28:50 GMT 32.118298 -110.937912 0 47 0
2022-05-22 22:28:15 GMT 32.118290 -110.937920 0 47 0
2022-05-22 22:27:55 GMT 32.118298 -110.937927 0 47 0
2022-05-22 22:27:44 GMT 32.118290 -110.937920 0 47 0
2022-05-22 22:27:35 GMT 32.118301 -110.937912 0 47 0
2022-05-22 22:27:16 GMT 32.118298 -110.937912 0 47 0
2022-05-22 22:27:05 GMT 32.118290 -110.937912 0 47 0
2022-05-22 22:26:54 GMT 32.118324 -110.937866 0 50 3
2022-05-22 22:26:44 GMT 32.118389 -110.937729 0 56 3
2022-05-22 22:26:32 GMT 32.118473 -110.937576 0 59 3
2022-05-22 22:26:23 GMT 32.118542 -110.937439 0 59 3
We lost coverage of the aircraft here for a total of 47 minutes
2022-05-22 21:39:08 GMT 32.118359 -110.937851 0 47 4 0
2022-05-22 21:39:01 GMT 32.118290 -110.937935 0 33 4 0
2022-05-22 21:38:52 GMT 32.118099 -110.938049 0 351 8 0
2022-05-22 21:38:39 GMT 32.117599 -110.938286 0 78 11 0
2022-05-22 21:38:31 GMT 32.117695 -110.938774 0 135 14 0
2022-05-22 21:38:19 GMT 32.118187 -110.939354 0 135 14 0
2022-05-22 21:38:10 GMT 32.118656 -110.939896 0 135 13 0
2022-05-22 21:37:58 GMT 32.119019 -110.940414 0 104 12 0
2022-05-22 21:37:44 GMT 32.118427 -110.941017 0 2 21 0
2022-05-22 21:37:37 GMT 32.117718 -110.940926 0 337 27 0
2022-05-22 21:37:25 GMT 32.116344 -110.939613 0 315 45 0
2022-05-22 21:37:16 GMT 32.114582 -110.937576 0 315 61 0
2022-05-22 21:37:06 GMT 32.112453 -110.935097 2,600 315 90 0
2022-05-22 21:36:56 GMT 32.108566 -110.930466 2,600 315 152 -192
2022-05-22 21:36:45 GMT 32.103104 -110.924118 2,650 315 161 -448
2022-05-22 21:36:38 GMT 32.099167 -110.919540 2,750 315 156 -832
2022-05-22 21:36:34 GMT 32.097107 -110.917091 2,825 316 156 -832
2022-05-22 21:36:30 GMT 32.094975 -110.914604 2,875 316 156 -704
2022-05-22 21:36:27 GMT 32.093903 -110.913368 2,900 315 156 -832
2022-05-22 21:36:23 GMT 32.092072 -110.911209 2,950 315 156 -704
2022-05-22 21:36:17 GMT 32.088318 -110.906761 3,050 316 156 -768
2022-05-22 21:36:13 GMT 32.086670 -110.904953 3,075 317 157 -704
2022-05-22 21:36:09 GMT 32.084244 -110.902145 3,150 317 156 -896
2022-05-22 21:36:06 GMT 32.083008 -110.900772 3,200 317 155 -1088
2022-05-22 21:36:03 GMT 32.081085 -110.898575 3,250 317 157 -896
2022-05-22 21:35:56 GMT 32.077515 -110.894455 3,375 314 159 -1216
2022-05-22 21:35:51 GMT 32.075657 -110.892181 3,425 313 159 -960
2022-05-22 21:35:48 GMT 32.073421 -110.889214 3,500 311 160 -1024
2022-05-22 21:35:42 GMT 32.070534 -110.885399 3,600 314 160 -1088
2022-05-22 21:35:36 GMT 32.067902 -110.882156 3,725 323 163 -576
2022-05-22 21:35:31 GMT 32.064949 -110.878899 3,775 317 162 -640
2022-05-22 21:35:26 GMT 32.062157 -110.875931 3,850 320 163 -768
2022-05-22 21:35:23 GMT 32.060486 -110.874298 3,875 323 163 -576
2022-05-22 21:35:20 GMT 32.057968 -110.872208 3,925 328 163 -704
2022-05-22 21:35:14 GMT 32.054241 -110.869820 4,025 336 165 -1088
2022-05-22 21:35:11 GMT 32.052612 -110.868919 4,050 340 166 -896
2022-05-22 21:35:05 GMT 32.048141 -110.867188 4,100 347 173 -256
2022-05-22 21:35:02 GMT 32.046097 -110.866684 4,125 353 178 -448
2022-05-22 21:34:59 GMT 32.043396 -110.866287 4,150 358 182 -640
2022-05-22 21:34:53 GMT 32.037392 -110.866455 4,225 8 187 -960
2022-05-22 21:34:50 GMT 32.035400 -110.866829 4,300 16 191 -1280
2022-05-22 21:34:43 GMT 32.029987 -110.868645 4,375 19 193 -896
2022-05-22 21:34:40 GMT 32.027802 -110.869629 4,400 25 199 0
2022-05-22 21:34:37 GMT 32.024780 -110.871223 4,400 27 203 320
2022-05-22 21:34:32 GMT 32.019745 -110.874466 4,375 30 210 256
2022-05-22 21:34:27 GMT 32.015488 -110.877426 4,350 30 216 -128
2022-05-22 21:34:21 GMT 32.010864 -110.880669 4,350 30 221 0
2022-05-22 21:34:11 GMT 32.001617 -110.887650 4,350 38 228 -64
2022-05-22 21:34:02 GMT 31.995354 -110.895493 4,325 56 229 192
2022-05-22 21:33:59 GMT 31.993790 -110.898247 4,325 57 230 64
2022-05-22 21:33:50 GMT 31.988113 -110.908905 4,325 57 241 256
2022-05-22 21:33:46 GMT 31.985779 -110.913193 4,325 59 252 -704
2022-05-22 21:33:41 GMT 31.982924 -110.918640 4,375 61 255 -704
2022-05-22 21:33:34 GMT 31.979805 -110.926712 4,525 83 261 -2176
2022-05-22 21:33:30 GMT 31.978638 -110.933022 4,675 85 261 -2368
2022-05-22 21:33:20 GMT 31.979828 -110.947739 5,175 106 261 -2304
2022-05-22 21:33:12 GMT 31.982878 -110.958328 5,375 112 271 -1600
2022-05-22 21:33:08 GMT 31.984268 -110.962082 5,450 115 271 -2240
2022-05-22 21:33:03 GMT 31.987976 -110.969055 5,750 131 267 -2688
2022-05-22 21:32:59 GMT 31.991730 -110.974167 5,875 133 268 -2816
2022-05-22 21:32:51 GMT 31.998657 -110.982819 6,250 133 268 -2496
2022-05-22 21:32:48 GMT 32.000706 -110.985458 6,350 133 266 -2944
2022-05-22 21:32:45 GMT 32.002716 -110.987953 6,475 133 264 -3072
2022-05-22 21:32:41 GMT 32.006241 -110.992294 6,625 134 263 -3200
2022-05-22 21:32:36 GMT 32.011368 -110.998001 6,950 141 258 -2560
2022-05-22 21:32:32 GMT 32.014801 -111.001137 7,075 143 258 -2048
2022-05-22 21:32:27 GMT 32.019424 -111.005142 7,225 143 260 -1536
2022-05-22 21:32:22 GMT 32.025238 -111.010254 7,300 142 267 -320
2022-05-22 21:32:15 GMT 32.031738 -111.016075 7,325 142 274 192
2022-05-22 21:32:10 GMT 32.036682 -111.020523 7,275 143 278 384
2022-05-22 21:32:04 GMT 32.042324 -111.025368 7,300 143 284 -256
2022-05-22 21:32:00 GMT 32.047440 -111.029755 7,350 143 286 -576
2022-05-22 21:31:56 GMT 32.051743 -111.033546 7,350 142 287 -320
2022-05-22 21:31:53 GMT 32.054150 -111.035736 7,375 142 287 -320
2022-05-22 21:31:49 GMT 32.058243 -111.039474 7,425 142 289 -704
2022-05-22 21:31:43 GMT 32.064625 -111.045319 7,500 142 291 -768
2022-05-22 21:31:40 GMT 32.069183 -111.049355 7,600 143 295 -512
2022-05-22 21:31:35 GMT 32.074444 -111.054008 7,625 143 293 -832
2022-05-22 21:31:32 GMT 32.076122 -111.055466 7,650 143 293 -640
2022-05-22 21:31:28 GMT 32.081383 -111.060059 7,700 143 295 -1024
2022-05-22 21:31:22 GMT 32.087357 -111.065353 7,875 143 294 -1984
2022-05-22 21:31:19 GMT 32.091671 -111.069145 8,000 142 294 -1984
2022-05-22 21:31:14 GMT 32.097675 -111.074638 8,175 142 293 -1600
2022-05-22 21:31:11 GMT 32.099533 -111.076340 8,200 142 293 -1472
2022-05-22 21:31:07 GMT 32.103588 -111.080070 8,325 142 292 -1792
2022-05-22 21:31:01 GMT 32.109917 -111.085793 8,500 141 292 -1984
2022-05-22 21:30:57 GMT 32.115597 -111.091003 8,700 141 288 -2432
2022-05-22 21:30:51 GMT 32.121048 -111.096054 8,900 142 286 -2112
2022-05-22 21:30:45 GMT 32.126724 -111.101257 9,075 141 286 -1792
2022-05-22 21:30:40 GMT 32.132080 -111.106331 9,200 141 286 -1408
2022-05-22 21:30:37 GMT 32.136406 -111.110451 9,300 140 287 -1280
2022-05-22 21:30:32 GMT 32.140224 -111.114098 9,375 141 287 -1280
2022-05-22 21:30:29 GMT 32.143112 -111.116821 9,575 140 288 -1600
2022-05-22 21:30:26 GMT 32.147160 -111.120712 9,850 140 288 -1664
2022-05-22 21:30:21 GMT 32.152885 -111.126259 9,700 140 287 -1856
2022-05-22 21:30:16 GMT 32.158287 -111.131363 9,850 141 288 -1536
2022-05-22 21:30:13 GMT 32.159454 -111.132423 9,875 141 289 -1152
2022-05-22 21:30:08 GMT 32.166016 -111.138481 9,950 141 292 -512
2022-05-22 21:30:04 GMT 32.170441 -111.142586 10,000 141 294 -1024
2022-05-22 21:30:00 GMT 32.174652 -111.146484 10,075 141 294 -1600
2022-05-22 21:29:55 GMT 32.180328 -111.151756 10,225 141 294 -1728
2022-05-22 21:29:52 GMT 32.188019 -111.158844 10,375 141 297 -1024
2022-05-22 21:29:48 GMT 32.188019 -111.158844 10,375 141 298 -896
2022-05-22 21:29:42 GMT 32.193466 -111.163895 10,425 141 302 -576
2022-05-22 21:29:37 GMT 32.199188 -111.169113 10,475 142 307 -768
2022-05-22 21:29:34 GMT 32.203117 -111.172729 10,525 141 309 -768
2022-05-22 21:29:30 GMT 32.207291 -111.176529 10,575 142 312 -640
2022-05-22 21:29:27 GMT 32.211124 -111.180069 10,600 141 315 -640
2022-05-22 21:29:22 GMT 32.217453 -111.185928 10,675 141 319 -704
2022-05-22 21:29:19 GMT 32.220665 -111.188927 10,700 141 324 -448
2022-05-22 21:29:16 GMT 32.223225 -111.191284 10,700 141 324 -384
2022-05-22 21:29:12 GMT 32.228580 -111.196274 10,775 139 332 -576
2022-05-22 21:29:09 GMT 32.231918 -111.199440 10,775 139 332 -576
2022-05-22 21:29:06 GMT 32.235535 -111.203117 10,800 135 338 -832
2022-05-22 21:29:00 GMT 32.245571 -111.215668 11,000 131 342 -1728
2022-05-22 21:28:57 GMT 32.245571 -111.215668 11,025 131 342 -1856
2022-05-22 21:28:54 GMT 32.247246 -111.217911 11,075 131 342 -1920
2022-05-22 21:28:50 GMT 32.252060 -111.224319 11,200 131 342 -1728
2022-05-22 21:28:46 GMT 32.256603 -111.230408 11,300 131 345 -1024
2022-05-22 21:28:43 GMT 32.260654 -111.235786 11,375 131 346 -1280
2022-05-22 21:28:39 GMT 32.264053 -111.240364 11,450 131 347 -1536
2022-05-22 21:28:35 GMT 32.269127 -111.247169 11,600 131 348 -1856
2022-05-22 21:28:31 GMT 32.272945 -111.252380 11,700 130 349 -1856
2022-05-22 21:28:28 GMT 32.276733 -111.257500 11,825 130 349 -1856
2022-05-22 21:28:24 GMT 32.280067 -111.262016 11,925 130 350 -1856
2022-05-22 21:28:21 GMT 32.282673 -111.265610 12,050 130 350 -1920
2022-05-22 21:28:18 GMT 32.287003 -111.271545 12,125 130 350 -2176
2022-05-22 21:28:15 GMT 32.290073 -111.275749 12,400 130 348 -3264
2022-05-22 21:28:10 GMT 32.295338 -111.282928 12,500 130 346 -3456
2022-05-22 21:28:05 GMT 32.300362 -111.289764 12,750 130 345 -2880
2022-05-22 21:28:02 GMT 32.302319 -111.292511 12,825 130 345 -2368
2022-05-22 21:27:57 GMT 32.309052 -111.301613 12,950 130 349 -384
2022-05-22 21:27:53 GMT 32.313309 -111.307434 12,975 130 349 -64
2022-05-22 21:27:49 GMT 32.318100 -111.313927 12,975 130 349 0
2022-05-22 21:27:44 GMT 32.323174 -111.320877 12,975 130 349 0
2022-05-22 21:27:41 GMT 32.326309 -111.325119 12,975 130 349 -64
2022-05-22 21:27:37 GMT 32.328964 -111.328751 12,975 130 349 -64
2022-05-22 21:27:34 GMT 32.332855 -111.334023 12,975 130 349 -64
2022-05-22 21:27:31 GMT 32.335976 -111.338249 12,975 130 349 0
2022-05-22 21:27:28 GMT 32.339813 -111.343468 12,975 130 349 0
2022-05-22 21:27:25 GMT 32.345379 -111.351028 12,975 130 349 0
2022-05-22 21:27:22 GMT 32.345379 -111.351028 12,975 131 348 0
2022-05-22 21:27:19 GMT 32.349384 -111.356468 12,975 131 349 0
2022-05-22 21:27:15 GMT 32.357250 -111.367065 12,975 131 349 -64
2022-05-22 21:27:12 GMT 32.357250 -111.367065 12,975 131 350 0
2022-05-22 21:27:09 GMT 32.358742 -111.369026 12,975 131 350 0
2022-05-22 21:27:06 GMT 32.362045 -111.373512 12,975 131 350 0
2022-05-22 21:27:03 GMT 32.366375 -111.379280 12,975 131 350 0
2022-05-22 21:27:00 GMT 32.369026 -111.382927 12,975 131 350 0
2022-05-22 21:26:55 GMT 32.374428 -111.390099 12,975 131 349 64
2022-05-22 21:26:52 GMT 32.376663 -111.393074 12,975 131 349 64
2022-05-22 21:26:49 GMT 32.380806 -111.398621 12,975 131 349 64
2022-05-22 21:26:46 GMT 32.384529 -111.403610 12,975 131 349 64
2022-05-22 21:26:43 GMT 32.387836 -111.407982 12,975 131 349 64
2022-05-22 21:26:39 GMT 32.392502 -111.414223 12,975 131 348 128
2022-05-22 21:26:34 GMT 32.397427 -111.420815 12,950 131 347 128
2022-05-22 21:26:31 GMT 32.399002 -111.423012 12,950 131 347 64
2022-05-22 21:26:28 GMT 32.402847 -111.428116 12,950 131 347 0
2022-05-22 21:26:25 GMT 32.407478 -111.434326 12,950 131 347 0
2022-05-22 21:26:21 GMT 32.411205 -111.439316 12,975 131 347 -192
2022-05-22 21:26:17 GMT 32.415955 -111.445648 13,000 131 347 -448
2022-05-22 21:26:13 GMT 32.418777 -111.449432 13,025 131 348 -768
2022-05-22 21:26:09 GMT 32.424362 -111.456848 13,100 131 349 -1280
2022-05-22 21:26:03 GMT 32.430058 -111.464485 13,250 131 349 -1920
2022-05-22 21:26:00 GMT 32.433197 -111.468658 13,350 131 350 -2048
2022-05-22 21:25:57 GMT 32.440384 -111.478271 13,575 131 350 -2112
2022-05-22 21:25:54 GMT 32.440384 -111.478271 13,575 131 350 -2048
2022-05-22 21:25:49 GMT 32.445969 -111.485794 13,750 131 350 -2048
2022-05-22 21:25:46 GMT 32.447342 -111.487663 13,875 131 351 -2048
2022-05-22 21:25:42 GMT 32.455902 -111.499252 13,975 131 352 -1984
2022-05-22 21:25:39 GMT 32.459793 -111.504471 14,075 131 352 -1984
2022-05-22 21:25:36 GMT 32.459793 -111.504471 14,175 131 352 -1920
2022-05-22 21:25:31 GMT 32.463593 -111.509636 14,300 131 353 -1728
2022-05-22 21:25:28 GMT 32.468369 -111.516052 14,425 131 355 -1600
2022-05-22 21:25:25 GMT 32.470604 -111.519081 14,450 131 356 -1664
2022-05-22 21:25:20 GMT 32.476913 -111.527489 14,625 131 358 -1920
2022-05-22 21:25:15 GMT 32.482101 -111.534439 14,775 131 358 -1920
2022-05-22 21:25:10 GMT 32.486385 -111.540100 14,900 131 359 -1856
2022-05-22 21:25:07 GMT 32.490715 -111.545868 15,000 131 359 -1792
2022-05-22 21:25:04 GMT 32.493759 -111.549957 15,100 131 361 -1792
2022-05-22 21:25:00 GMT 32.505798 -111.565887 15,500 131 366 -1920
2022-05-22 21:24:54 GMT 32.505798 -111.565887 15,375 131 364 -1472
2022-05-22 21:24:47 GMT 32.512390 -111.574570 15,575 131 366 -1984
2022-05-22 21:24:44 GMT 32.522045 -111.587463 15,750 131 367 -2048
2022-05-22 21:24:39 GMT 32.522045 -111.587463 15,875 129 369 -2112
2022-05-22 21:24:36 GMT 32.529030 -111.597549 16,000 128 369 -2112
2022-05-22 21:24:33 GMT 32.529030 -111.597549 16,050 127 370 -2112
2022-05-22 21:24:29 GMT 32.533081 -111.603897 16,200 126 370 -2176
2022-05-22 21:24:24 GMT 32.538666 -111.612854 16,425 124 371 -2112
2022-05-22 21:24:21 GMT 32.541180 -111.616943 16,500 123 371 -2048
2022-05-22 21:24:15 GMT 32.547184 -111.627708 16,750 121 373 -1856
2022-05-22 21:24:12 GMT 32.549557 -111.632248 16,775 119 375 -1920
2022-05-22 21:24:08 GMT 32.553143 -111.639481 16,900 118 376 -1984
2022-05-22 21:24:05 GMT 32.554771 -111.643066 16,975 117 375 -1920
2022-05-22 21:24:01 GMT 32.558624 -111.651749 17,250 115 377 -1792
2022-05-22 21:23:57 GMT 32.561371 -111.658615 17,250 115 379 -1728
2022-05-22 21:23:54 GMT 32.564255 -111.665916 17,375 115 380 -1728
2022-05-22 21:23:51 GMT 32.565338 -111.668571 17,375 115 380 -1728
2022-05-22 21:23:48 GMT 32.568413 -111.676361 17,500 115 382 -1792
2022-05-22 21:23:45 GMT 32.570457 -111.681572 17,575 114 383 -1792
2022-05-22 21:23:40 GMT 32.575836 -111.695198 17,775 114 387 -1600
2022-05-22 21:23:34 GMT 32.578445 -111.701843 17,875 114 388 -1472
2022-05-22 21:23:30 GMT 32.582199 -111.711403 18,050 114 392 -1728
2022-05-22 21:23:26 GMT 32.585217 -111.719131 18,100 114 392 -1728
2022-05-22 21:23:21 GMT 32.588985 -111.728767 18,275 114 393 -1920
2022-05-22 21:23:18 GMT 32.591316 -111.734657 18,350 115 395 -2048
2022-05-22 21:23:14 GMT 32.593323 -111.739693 18,425 115 395 -2048
2022-05-22 21:23:10 GMT 32.601650 -111.761002 18,725 114 396 -1984
2022-05-22 21:23:05 GMT 32.601650 -111.761002 18,800 114 397 -1920
2022-05-22 21:23:01 GMT 32.604397 -111.767899 18,975 114 398 -1984
2022-05-22 21:22:58 GMT 32.606277 -111.772758 19,850 114 403 -2176
2022-05-22 21:22:55 GMT 32.609283 -111.780449 19,125 114 399 -2176
2022-05-22 21:22:52 GMT 32.610912 -111.784485 19,200 115 399 -2240
2022-05-22 21:22:49 GMT 32.613693 -111.791550 19,350 114 400 -2304
2022-05-22 21:22:46 GMT 32.615799 -111.796928 19,450 114 400 -2240
2022-05-22 21:22:42 GMT 32.619095 -111.805283 19,600 114 401 -1792
2022-05-22 21:22:39 GMT 32.621887 -111.812477 19,700 114 402 -1792
2022-05-22 21:22:36 GMT 32.623810 -111.817368 19,775 114 403 -2112
2022-05-22 21:22:30 GMT 32.627720 -111.827309 19,950 114 403 -2176
2022-05-22 21:22:27 GMT 32.631454 -111.836700 20,275 114 404 -2176
2022-05-22 21:22:22 GMT 32.634293 -111.843948 20,325 114 405 -2176
2022-05-22 21:22:19 GMT 32.638706 -111.855225 20,450 114 405 -2048
2022-05-22 21:22:16 GMT 32.642288 -111.864304 20,625 114 406 -2112
2022-05-22 21:22:13 GMT 32.642288 -111.864304 20,600 114 406 -2112
2022-05-22 21:22:07 GMT 32.647293 -111.877022 20,875 114 408 -2240
2022-05-22 21:22:01 GMT 32.651093 -111.886742 21,100 114 408 -2048
2022-05-22 21:21:58 GMT 32.654343 -111.895096 21,200 114 409 -2112
2022-05-22 21:21:55 GMT 32.659328 -111.907745 21,350 114 409 -2112
2022-05-22 21:21:52 GMT 32.659328 -111.907745 21,375 114 410 -2112
2022-05-22 21:21:46 GMT 32.663891 -111.919571 21,600 114 410 -2112
2022-05-22 21:21:40 GMT 32.667427 -111.928596 21,700 114 412 -2048
2022-05-22 21:21:36 GMT 32.671898 -111.940033 21,925 114 412 -2048
2022-05-22 21:21:32 GMT 32.674831 -111.947601 22,125 114 417 -2176
2022-05-22 21:21:26 GMT 32.679951 -111.960663 22,300 114 416 -2112
2022-05-22 21:21:23 GMT 32.681671 -111.965134 22,350 114 417 -2112
2022-05-22 21:21:17 GMT 32.686386 -111.977158 22,550 114 417 -2176
2022-05-22 21:21:14 GMT 32.689587 -111.985435 22,750 114 419 -2176
2022-05-22 21:21:10 GMT 32.692612 -111.993172 22,850 114 419 -2176
2022-05-22 21:21:05 GMT 32.696850 -112.004044 23,025 114 420 -2176
2022-05-22 21:21:02 GMT 32.698151 -112.007370 23,200 114 421 -2304
2022-05-22 21:20:59 GMT 32.700485 -112.013306 23,200 114 421 -2304
2022-05-22 21:20:56 GMT 32.703506 -112.021088 23,325 114 421 -2304
2022-05-22 21:20:53 GMT 32.706436 -112.028633 23,575 114 422 -2176
2022-05-22 21:20:49 GMT 32.709824 -112.037254 23,625 114 423 -1984
2022-05-22 21:20:46 GMT 32.712353 -112.043785 23,725 114 424 -1920
2022-05-22 21:20:42 GMT 32.715225 -112.051041 23,825 114 425 -1984
2022-05-22 21:20:39 GMT 32.720730 -112.065201 23,975 114 426 -2112
2022-05-22 21:20:35 GMT 32.720730 -112.065201 24,050 114 427 -2304
2022-05-22 21:20:31 GMT 32.724361 -112.074448 24,225 114 427 -2432
2022-05-22 21:20:28 GMT 32.726967 -112.081062 24,375 114 428 -2368
2022-05-22 21:20:25 GMT 32.729668 -112.087959 24,475 114 428 -2304
2022-05-22 21:20:20 GMT 32.733158 -112.096977 24,600 114 429 -2112
2022-05-22 21:20:17 GMT 32.736000 -112.104210 24,750 114 430 -2176
2022-05-22 21:20:11 GMT 32.741772 -112.119011 25,025 114 430 -3008
2022-05-22 21:20:07 GMT 32.744564 -112.126076 25,550 114 423 0
2022-05-22 21:20:04 GMT 32.747543 -112.133713 25,400 114 428 -3200
2022-05-22 21:19:59 GMT 32.753643 -112.149223 25,675 114 427 -2048
2022-05-22 21:19:55 GMT 32.753643 -112.149223 25,825 114 427 -1920
2022-05-22 21:19:51 GMT 32.758064 -112.160660 25,950 114 425 -1344
2022-05-22 21:19:48 GMT 32.760624 -112.167160 25,950 114 425 -1024
2022-05-22 21:19:43 GMT 32.764893 -112.177994 26,000 114 424 -64
2022-05-22 21:19:38 GMT 32.768555 -112.187439 26,000 114 423 0
2022-05-22 21:19:35 GMT 32.771988 -112.196228 26,000 114 423 0
2022-05-22 21:19:30 GMT 32.775330 -112.204742 26,000 114 425 64
2022-05-22 21:19:27 GMT 32.778076 -112.211830 26,000 114 426 0
2022-05-22 21:19:24 GMT 32.780228 -112.217270 26,000 114 429 -192
2022-05-22 21:19:21 GMT 32.783295 -112.225174 26,025 114 430 -448
2022-05-22 21:19:18 GMT 32.785439 -112.230721 26,050 114 434 -896
2022-05-22 21:19:14 GMT 32.788513 -112.238579 26,250 114 440 0
2022-05-22 21:19:09 GMT 32.794601 -112.254288 26,300 114 438 -2048
2022-05-22 21:19:01 GMT 32.799728 -112.267609 26,550 114 440 -2176
2022-05-22 21:18:56 GMT 32.803780 -112.278030 26,725 114 442 -2176
2022-05-22 21:18:53 GMT 32.806366 -112.284721 26,825 114 443 -2176
2022-05-22 21:18:47 GMT 32.810947 -112.296638 27,075 114 444 -2112
2022-05-22 21:18:44 GMT 32.813919 -112.304276 27,125 114 445 -2112
2022-05-22 21:18:39 GMT 32.817947 -112.314713 27,300 114 446 -2048
2022-05-22 21:18:36 GMT 32.820911 -112.322372 27,400 114 448 -2048
2022-05-22 21:18:32 GMT 32.825008 -112.332848 27,575 114 450 -2112
2022-05-22 21:18:29 GMT 32.827057 -112.338120 27,650 114 450 -2112
2022-05-22 21:18:26 GMT 32.829163 -112.343498 27,800 114 452 -2112
2022-05-22 21:18:23 GMT 32.832642 -112.352524 27,875 114 452 -2048
2022-05-22 21:18:19 GMT 32.836506 -112.362503 28,000 114 455 -1344
2022-05-22 21:18:15 GMT 32.839554 -112.370415 28,125 114 455 -1280
2022-05-22 21:18:12 GMT 32.842026 -112.376846 28,150 114 456 -1088
2022-05-22 21:18:08 GMT 32.849400 -112.395966 28,250 114 457 -1024
2022-05-22 21:18:04 GMT 32.849400 -112.395966 28,300 114 457 -1024
2022-05-22 21:17:59 GMT 32.853542 -112.406784 28,375 114 458 -1024
2022-05-22 21:17:55 GMT 32.857269 -112.416481 28,475 114 458 -1024
2022-05-22 21:17:52 GMT 32.858505 -112.419746 28,475 114 458 -1024
2022-05-22 21:17:47 GMT 32.864159 -112.434364 28,575 114 459 -1024
2022-05-22 21:17:43 GMT 32.868027 -112.444466 28,650 114 460 -960
2022-05-22 21:17:38 GMT 32.871422 -112.453362 28,750 114 460 -960
2022-05-22 21:17:35 GMT 32.874527 -112.461494 28,800 114 460 -1024
2022-05-22 21:17:32 GMT 32.876999 -112.467972 28,825 114 461 -1024
2022-05-22 21:17:29 GMT 32.880543 -112.477242 28,900 114 462 -1024
2022-05-22 21:17:26 GMT 32.882675 -112.482803 28,925 114 463 -1024
2022-05-22 21:17:21 GMT 32.890686 -112.503899 29,025 114 464 -1024
2022-05-22 21:17:17 GMT 32.890686 -112.503899 29,075 114 465 -960
2022-05-22 21:17:14 GMT 32.893753 -112.511917 29,150 114 465 -1024
2022-05-22 21:17:11 GMT 32.896000 -112.517769 29,175 114 466 -1024
2022-05-22 21:17:07 GMT 32.899567 -112.527138 29,250 114 466 -1024
2022-05-22 21:17:03 GMT 32.902634 -112.535263 29,350 114 466 -1088
2022-05-22 21:17:00 GMT 32.904785 -112.540817 29,450 114 466 -1024
2022-05-22 21:16:57 GMT 32.907730 -112.548538 29,475 114 465 -1024
2022-05-22 21:16:53 GMT 32.910805 -112.556671 29,475 114 465 -1024
2022-05-22 21:16:50 GMT 32.914810 -112.567070 29,550 114 465 -1024
2022-05-22 21:16:44 GMT 32.920349 -112.581520 29,650 114 465 -1024
2022-05-22 21:16:41 GMT 32.922913 -112.588112 29,700 114 465 -1088
2022-05-22 21:16:38 GMT 32.924561 -112.592339 29,750 114 465 -1024
2022-05-22 21:16:35 GMT 32.926941 -112.598549 29,875 114 466 -1024
2022-05-22 21:16:32 GMT 32.930099 -112.606567 29,875 114 466 -1024
2022-05-22 21:16:29 GMT 32.933716 -112.615906 29,925 112 466 -1024
2022-05-22 21:16:24 GMT 32.937973 -112.628044 29,950 112 466 -1024
2022-05-22 21:16:20 GMT 32.940781 -112.637329 30,100 107 466 -1024
2022-05-22 21:16:16 GMT 32.943192 -112.646721 30,175 105 467 -1024
2022-05-22 21:16:12 GMT 32.945343 -112.656723 30,225 102 466 -1088
2022-05-22 21:16:08 GMT 32.946648 -112.664009 30,250 100 466 -1088
2022-05-22 21:16:05 GMT 32.948185 -112.674545 30,325 97 467 -1024
2022-05-22 21:16:02 GMT 32.949005 -112.682205 30,425 94 468 -960
2022-05-22 21:15:58 GMT 32.949673 -112.691704 30,475 92 468 -960
2022-05-22 21:15:55 GMT 32.950012 -112.700447 30,500 90 469 -1024
2022-05-22 21:15:51 GMT 32.950001 -112.710648 30,575 87 469 -1024
2022-05-22 21:15:48 GMT 32.949692 -112.718025 30,625 85 469 -1024
2022-05-22 21:15:44 GMT 32.948914 -112.728737 30,675 82 470 -1024
2022-05-22 21:15:41 GMT 32.948139 -112.735474 30,725 81 471 -1024
2022-05-22 21:15:38 GMT 32.947266 -112.742195 30,775 80 473 -960
2022-05-22 21:15:35 GMT 32.946167 -112.750160 30,825 80 473 -896
2022-05-22 21:15:30 GMT 32.944382 -112.763397 30,900 80 475 -896
2022-05-22 21:15:26 GMT 32.942917 -112.773888 30,975 80 473 -960
2022-05-22 21:15:23 GMT 32.941853 -112.781830 31,025 80 473 -960
2022-05-22 21:15:19 GMT 32.940445 -112.792068 31,100 80 473 -960
2022-05-22 21:15:16 GMT 32.938408 -112.807167 31,175 80 473 -960
2022-05-22 21:15:09 GMT 32.936829 -112.818825 31,250 80 472 -960
2022-05-22 21:15:06 GMT 32.935757 -112.826790 31,300 80 471 -960
2022-05-22 21:15:03 GMT 32.934685 -112.834633 31,350 80 471 -960
2022-05-22 21:14:58 GMT 32.933056 -112.846970 31,475 80 470 -960
2022-05-22 21:14:55 GMT 32.932030 -112.854424 31,475 80 470 -960
2022-05-22 21:14:51 GMT 32.930786 -112.863594 31,550 80 469 -960
2022-05-22 21:14:46 GMT 32.928913 -112.877571 31,625 80 469 -960
2022-05-22 21:14:43 GMT 32.927933 -112.884911 31,675 80 469 -1024
2022-05-22 21:14:40 GMT 32.927124 -112.890892 31,725 80 470 -1024
2022-05-22 21:14:37 GMT 32.925613 -112.902100 31,775 80 470 -1024
2022-05-22 21:14:34 GMT 32.924816 -112.908066 31,825 80 470 -1024
2022-05-22 21:14:31 GMT 32.924118 -112.913277 31,850 80 470 -1024
2022-05-22 21:14:28 GMT 32.922859 -112.922638 31,925 80 471 -960
2022-05-22 21:14:23 GMT 32.921276 -112.934181 32,000 80 471 -960
2022-05-22 21:14:19 GMT 32.919743 -112.945679 32,075 80 471 -960
2022-05-22 21:14:16 GMT 32.918716 -112.953239 32,125 80 472 -960
2022-05-22 21:14:11 GMT 32.916870 -112.966751 32,200 80 472 -896
2022-05-22 21:14:08 GMT 32.916092 -112.972191 32,225 80 473 -896
2022-05-22 21:14:04 GMT 32.914295 -112.985413 32,300 80 473 -960
2022-05-22 21:14:00 GMT 32.912567 -112.997734 32,400 80 473 -960
2022-05-22 21:13:57 GMT 32.912064 -113.001579 32,425 80 473 -960
2022-05-22 21:13:53 GMT 32.909592 -113.019600 32,500 80 472 -1024
2022-05-22 21:13:50 GMT 32.909592 -113.019600 32,525 80 472 -1024
2022-05-22 21:13:47 GMT 32.907806 -113.032730 32,575 80 471 -1024
2022-05-22 21:13:44 GMT 32.907806 -113.032730 32,750 80 471 -1024
2022-05-22 21:13:41 GMT 32.906658 -113.040962 32,675 80 471 -1088
2022-05-22 21:13:38 GMT 32.905403 -113.050385 32,750 80 471 -1088
2022-05-22 21:13:35 GMT 32.904240 -113.058846 32,800 80 472 -1088
2022-05-22 21:13:30 GMT 32.902748 -113.069778 32,900 80 471 -1024
2022-05-22 21:13:27 GMT 32.901672 -113.077606 32,950 80 471 -832
2022-05-22 21:13:24 GMT 32.900375 -113.087151 32,975 80 471 -704
2022-05-22 21:13:21 GMT 32.899490 -113.093597 33,000 80 472 -256
2022-05-22 21:13:17 GMT 32.898422 -113.101280 33,000 80 472 0
2022-05-22 21:13:14 GMT 32.897369 -113.109024 33,000 80 472 0
2022-05-22 21:13:11 GMT 32.895905 -113.119553 33,000 80 473 0
2022-05-22 21:13:08 GMT 32.893707 -113.135666 33,000 80 473 0
2022-05-22 21:13:05 GMT 32.893707 -113.135666 33,000 80 473 0
2022-05-22 21:13:02 GMT 32.892975 -113.140945 33,000 80 473 0
2022-05-22 21:12:59 GMT 32.891556 -113.151436 33,000 80 474 0
2022-05-22 21:12:56 GMT 32.890411 -113.159630 33,000 80 474 0
2022-05-22 21:12:53 GMT 32.889633 -113.165169 33,000 80 474 0
2022-05-22 21:12:50 GMT 32.888271 -113.175102 33,000 80 474 0
2022-05-22 21:12:46 GMT 32.887299 -113.182419 33,000 80 475 0
2022-05-22 21:12:43 GMT 32.885105 -113.198189 33,000 80 475 0
2022-05-22 21:12:39 GMT 32.885105 -113.198189 33,000 80 475 0
2022-05-22 21:12:35 GMT 32.883087 -113.213181 33,000 80 476 0
2022-05-22 21:12:32 GMT 32.881897 -113.221909 33,000 80 476 0
2022-05-22 21:12:29 GMT 32.881348 -113.225922 33,000 80 476 0
2022-05-22 21:12:26 GMT 32.880432 -113.232460 33,000 80 476 0
2022-05-22 21:12:23 GMT 32.879101 -113.242142 33,000 80 476 0
2022-05-22 21:12:20 GMT 32.878098 -113.249649 33,000 80 476 0
2022-05-22 21:12:16 GMT 32.876446 -113.261871 33,000 80 476 0
2022-05-22 21:12:13 GMT 32.875378 -113.269432 33,000 80 476 0
2022-05-22 21:12:09 GMT 32.874435 -113.276077 33,025 80 476 0
2022-05-22 21:12:05 GMT 32.872955 -113.286812 33,025 80 476 0
2022-05-22 21:12:02 GMT 32.871651 -113.296120 33,025 80 476 0
2022-05-22 21:11:59 GMT 32.870590 -113.303818 33,000 80 476 64
2022-05-22 21:11:56 GMT 32.869308 -113.312935 33,000 80 476 64
2022-05-22 21:11:52 GMT 32.867928 -113.323021 33,000 80 476 64
2022-05-22 21:11:49 GMT 32.866856 -113.330811 33,000 80 476 0
2022-05-22 21:11:43 GMT 32.864716 -113.346115 33,000 80 476 -64
2022-05-22 21:11:40 GMT 32.863678 -113.353416 33,000 80 476 -64
2022-05-22 21:11:34 GMT 32.861691 -113.367920 33,000 80 476 0
2022-05-22 21:11:30 GMT 32.860107 -113.379128 33,000 80 476 0
2022-05-22 21:11:27 GMT 32.858990 -113.387314 33,025 80 476 0
2022-05-22 21:11:24 GMT 32.857780 -113.395836 33,000 80 476 0
2022-05-22 21:11:20 GMT 32.856567 -113.404579 33,000 80 476 0
2022-05-22 21:11:17 GMT 32.855545 -113.412033 33,000 80 476 0
2022-05-22 21:11:10 GMT 32.852600 -113.432793 33,000 80 476 0
2022-05-22 21:11:06 GMT 32.851311 -113.442024 33,000 80 476 0
2022-05-22 21:11:03 GMT 32.850143 -113.450150 33,000 80 476 0
2022-05-22 21:10:59 GMT 32.848663 -113.460808 33,000 80 476 0
2022-05-22 21:10:56 GMT 32.847519 -113.468941 33,000 80 476 0
2022-05-22 21:10:52 GMT 32.846420 -113.476662 33,000 80 476 0
2022-05-22 21:10:49 GMT 32.845367 -113.484207 33,000 80 476 0
2022-05-22 21:10:41 GMT 32.842346 -113.505470 33,000 80 476 64
2022-05-22 21:10:38 GMT 32.840042 -113.521729 33,000 80 476 0
2022-05-22 21:10:35 GMT 32.840042 -113.521729 33,000 80 476 0
2022-05-22 21:10:30 GMT 32.838455 -113.532936 33,000 80 476 0
2022-05-22 21:10:27 GMT 32.837250 -113.541237 33,000 80 476 0
2022-05-22 21:10:24 GMT 32.836166 -113.549026 33,000 80 476 0
2022-05-22 21:10:20 GMT 32.834747 -113.559250 33,000 80 476 0
2022-05-22 21:10:17 GMT 32.833328 -113.569191 33,000 80 476 0
2022-05-22 21:10:14 GMT 32.832268 -113.576546 33,000 80 476 0
2022-05-22 21:10:09 GMT 32.830673 -113.587868 33,000 80 476 0
2022-05-22 21:10:05 GMT 32.829300 -113.597862 33,000 80 476 -64
2022-05-22 21:10:02 GMT 32.828064 -113.606651 33,000 80 476 -64
2022-05-22 21:09:58 GMT 32.826508 -113.617477 33,000 80 476 0
2022-05-22 21:09:55 GMT 32.825611 -113.623917 33,000 80 476 0
2022-05-22 21:09:52 GMT 32.824219 -113.633621 33,000 80 476 0
2022-05-22 21:09:49 GMT 32.823147 -113.641403 33,000 80 476 0
2022-05-22 21:09:45 GMT 32.821842 -113.650482 33,000 80 476 0
2022-05-22 21:09:42 GMT 32.820602 -113.659332 33,000 80 476 0
2022-05-22 21:09:39 GMT 32.818451 -113.674492 33,000 80 476 0
2022-05-22 21:09:36 GMT 32.818451 -113.674492 33,000 80 476 0
2022-05-22 21:09:30 GMT 32.816628 -113.687309 33,000 80 476 0
2022-05-22 21:09:27 GMT 32.815292 -113.696907 33,000 80 476 0
2022-05-22 21:09:24 GMT 32.814102 -113.705200 33,000 80 476 0
2022-05-22 21:09:19 GMT 32.812531 -113.716621 33,000 80 476 0
2022-05-22 21:09:16 GMT 32.811447 -113.724152 33,000 80 476 0
2022-05-22 21:09:13 GMT 32.809177 -113.740219 33,000 80 476 0
2022-05-22 21:09:10 GMT 32.809177 -113.740219 33,000 89 475 0
2022-05-22 21:09:07 GMT 32.807922 -113.749130 33,000 80 476 0
2022-05-22 21:09:01 GMT 32.805634 -113.765518 33,000 80 476 0
2022-05-22 21:08:58 GMT 32.805222 -113.768478 33,000 80 476 0
2022-05-22 21:08:54 GMT 32.803268 -113.782318 33,000 80 476 0
2022-05-22 21:08:49 GMT 32.801422 -113.795563 33,000 80 476 0
2022-05-22 21:08:46 GMT 32.800369 -113.802925 33,000 80 476 0
2022-05-22 21:08:42 GMT 32.798889 -113.813431 33,000 80 476 0
2022-05-22 21:08:35 GMT 32.796341 -113.831215 33,000 80 476 0
2022-05-22 21:08:31 GMT 32.793777 -113.849174 33,000 80 475 0
2022-05-22 21:08:28 GMT 32.792747 -113.856590 33,000 80 475 0
2022-05-22 21:08:21 GMT 32.789886 -113.876480 33,000 80 475 0
2022-05-22 21:08:17 GMT 32.789886 -113.876480 33,000 80 475 0
2022-05-22 21:08:14 GMT 32.788559 -113.885818 33,000 80 475 0
2022-05-22 21:08:10 GMT 32.787140 -113.895432 33,000 80 475 0
2022-05-22 21:08:03 GMT 32.784740 -113.912132 33,000 80 476 0
2022-05-22 21:07:59 GMT 32.783295 -113.921799 33,000 80 475 0
2022-05-22 21:07:55 GMT 32.781528 -113.933830 33,000 81 475 0
2022-05-22 21:07:52 GMT 32.780781 -113.938873 33,000 80 475 0
2022-05-22 21:07:49 GMT 32.779404 -113.949478 33,000 82 476 0
2022-05-22 21:07:43 GMT 32.776871 -113.975754 33,000 84 476 0
2022-05-22 21:07:38 GMT 32.776871 -113.975754 33,000 86 477 0
2022-05-22 21:07:34 GMT 32.776127 -113.988144 33,000 86 476 0
2022-05-22 21:07:31 GMT 32.775879 -113.993645 33,000 87 477 0
2022-05-22 21:07:28 GMT 32.775604 -114.003975 33,000 89 477 0
2022-05-22 21:07:21 GMT 32.775383 -114.022507 33,000 89 477 0
2022-05-22 21:07:16 GMT 32.775288 -114.031921 33,000 89 477 0
2022-05-22 21:07:12 GMT 32.775150 -114.045151 33,000 89 477 0
2022-05-22 21:07:07 GMT 32.774963 -114.059891 33,000 89 477 0
2022-05-22 21:07:02 GMT 32.774872 -114.071495 33,000 89 477 0
2022-05-22 21:06:59 GMT 32.774780 -114.079063 33,000 89 477 0
2022-05-22 21:06:56 GMT 32.774685 -114.086235 33,000 89 476 0
2022-05-22 21:06:50 GMT 32.774498 -114.102882 33,000 89 475 0
2022-05-22 21:06:47 GMT 32.774406 -114.111961 33,000 89 476 0
2022-05-22 21:06:44 GMT 32.774357 -114.118744 33,000 89 476 0
2022-05-22 21:06:39 GMT 32.774185 -114.133667 33,000 89 476 0
2022-05-22 21:06:36 GMT 32.774124 -114.137863 33,000 89 476 0
2022-05-22 21:06:33 GMT 32.774033 -114.146713 33,000 89 476 0
2022-05-22 21:06:30 GMT 32.773846 -114.161400 33,000 89 476 0
2022-05-22 21:06:27 GMT 32.773846 -114.161400 33,000 89 476 0
2022-05-22 21:06:24 GMT 32.773773 -114.169754 33,000 89 475 0
2022-05-22 21:06:20 GMT 32.773636 -114.181076 33,000 89 475 0
2022-05-22 21:06:17 GMT 32.773590 -114.186401 33,000 89 475 0
2022-05-22 21:06:14 GMT 32.773476 -114.198006 33,000 89 475 0
2022-05-22 21:06:10 GMT 32.773315 -114.208099 33,000 89 475 0
2022-05-22 21:06:06 GMT 32.773178 -114.218864 33,000 89 475 0
2022-05-22 21:06:03 GMT 32.773148 -114.224297 33,000 89 475 0
2022-05-22 21:05:57 GMT 32.772915 -114.240211 33,000 89 475 0
2022-05-22 21:05:52 GMT 32.772766 -114.254845 33,000 89 475 0
2022-05-22 21:05:47 GMT 32.772591 -114.268799 33,000 89 475 0
2022-05-22 21:05:44 GMT 32.772495 -114.275246 33,000 89 475 0
2022-05-22 21:05:41 GMT 32.772404 -114.281357 33,000 89 475 0
2022-05-22 21:05:38 GMT 32.772308 -114.291702 33,000 89 475 0
2022-05-22 21:05:35 GMT 32.772217 -114.297363 33,000 89 475 0
2022-05-22 21:05:31 GMT 32.772079 -114.310440 33,000 89 475 0
2022-05-22 21:05:27 GMT 32.771984 -114.318184 33,000 89 475 0
2022-05-22 21:05:24 GMT 32.771843 -114.328102 33,000 89 475 0
2022-05-22 21:05:20 GMT 32.771759 -114.335709 33,000 89 475 0
2022-05-22 21:05:17 GMT 32.771576 -114.352516 33,000 89 475 0
2022-05-22 21:05:11 GMT 32.771255 -114.375313 33,000 89 475 0
2022-05-22 21:05:05 GMT 32.771255 -114.375313 33,000 89 474 0
2022-05-22 21:05:02 GMT 32.771145 -114.383820 33,000 89 474 64
2022-05-22 21:04:59 GMT 32.771072 -114.389153 33,000 89 474 0
2022-05-22 21:04:56 GMT 32.770912 -114.401306 33,000 89 474 0
2022-05-22 21:04:51 GMT 32.770775 -114.411285 33,000 89 474 0
2022-05-22 21:04:46 GMT 32.770523 -114.427826 33,000 89 474 0
2022-05-22 21:04:42 GMT 32.770386 -114.436394 33,000 89 474 0
2022-05-22 21:04:38 GMT 32.770294 -114.444084 33,000 89 474 0
2022-05-22 21:04:33 GMT 32.770020 -114.461555 33,000 89 474 0
2022-05-22 21:04:28 GMT 32.769844 -114.472382 33,000 89 474 0
2022-05-22 21:04:24 GMT 32.769562 -114.492043 33,000 89 474 0
2022-05-22 21:04:21 GMT 32.769562 -114.492043 33,000 89 474 0
2022-05-22 21:04:17 GMT 32.769424 -114.501213 33,000 89 474 0
2022-05-22 21:04:12 GMT 32.769283 -114.511787 33,000 89 474 0
2022-05-22 21:04:09 GMT 32.769150 -114.520828 33,000 89 474 0
2022-05-22 21:04:06 GMT 32.769058 -114.526978 33,000 89 474 -64
2022-05-22 21:04:00 GMT 32.768829 -114.544388 33,000 89 474 0
2022-05-22 21:03:57 GMT 32.768726 -114.553436 33,000 89 474 0
2022-05-22 21:03:51 GMT 32.768555 -114.565926 33,000 88 475 0
2022-05-22 21:03:48 GMT 32.768463 -114.574051 33,000 89 475 0
2022-05-22 21:03:45 GMT 32.768372 -114.581581 33,000 89 475 0
2022-05-22 21:03:40 GMT 32.768234 -114.594376 33,000 88 475 0
2022-05-22 21:03:37 GMT 32.767914 -114.604431 33,000 86 475 0
2022-05-22 21:03:34 GMT 32.767422 -114.615036 33,000 86 475 0
2022-05-22 21:03:31 GMT 32.767048 -114.622269 33,000 86 475 0
2022-05-22 21:03:27 GMT 32.766586 -114.630577 33,000 86 475 0
2022-05-22 21:03:24 GMT 32.766037 -114.640961 33,000 86 476 0
2022-05-22 21:03:17 GMT 32.765213 -114.656784 33,000 86 476 0
2022-05-22 21:03:14 GMT 32.764664 -114.666672 33,000 86 476 0
2022-05-22 21:03:10 GMT 32.764118 -114.677315 33,000 86 477 -64
2022-05-22 21:03:07 GMT 32.763699 -114.685158 33,000 86 477 0
2022-05-22 21:03:03 GMT 32.763382 -114.691170 33,000 86 478 0
2022-05-22 21:02:56 GMT 32.762302 -114.711220 33,000 86 479 0
2022-05-22 21:02:53 GMT 32.761742 -114.721535 33,000 86 479 0
2022-05-22 21:02:48 GMT 32.761139 -114.732368 33,000 86 479 64
2022-05-22 21:02:45 GMT 32.760635 -114.742088 33,000 86 479 0
2022-05-22 21:02:42 GMT 32.760452 -114.745605 33,000 86 479 0
2022-05-22 21:02:38 GMT 32.759647 -114.760269 33,000 86 479 0
2022-05-22 21:02:34 GMT 32.759079 -114.770874 33,000 86 479 -64
2022-05-22 21:02:31 GMT 32.758717 -114.777306 33,000 86 479 -64
2022-05-22 21:02:27 GMT 32.758163 -114.787132 33,000 86 479 -64
2022-05-22 21:02:23 GMT 32.757706 -114.795647 33,000 86 479 -64
2022-05-22 21:02:20 GMT 32.757065 -114.807022 33,000 86 479 0
2022-05-22 21:02:17 GMT 32.756653 -114.814819 33,025 86 479 0
2022-05-22 21:02:13 GMT 32.756016 -114.825569 33,025 86 478 0
2022-05-22 21:02:10 GMT 32.755829 -114.829597 33,000 86 478 0
2022-05-22 21:02:05 GMT 32.755051 -114.843330 33,000 86 478 0
2022-05-22 21:02:02 GMT 32.754620 -114.851189 33,000 86 478 0
2022-05-22 21:01:59 GMT 32.754154 -114.859871 33,000 86 478 0
2022-05-22 21:01:54 GMT 32.752712 -114.885994 33,000 86 478 0
2022-05-22 21:01:50 GMT 32.752712 -114.885994 33,000 86 478 0
2022-05-22 21:01:45 GMT 32.752029 -114.898643 33,000 86 477 0
2022-05-22 21:01:41 GMT 32.751389 -114.909683 33,000 86 474 0
2022-05-22 21:01:37 GMT 32.750931 -114.917595 33,000 86 474 0
2022-05-22 21:01:33 GMT 32.749592 -114.941711 33,000 86 477 0
2022-05-22 21:01:29 GMT 32.749592 -114.941711 33,000 86 477 0
2022-05-22 21:01:24 GMT 32.748894 -114.953819 33,000 86 477 0
2022-05-22 21:01:19 GMT 32.748150 -114.967667 33,000 86 476 -64
2022-05-22 21:01:14 GMT 32.747730 -114.975121 33,000 86 476 -64
2022-05-22 21:01:10 GMT 32.746845 -114.990364 33,000 86 476 0
2022-05-22 21:01:07 GMT 32.746582 -114.995377 33,000 86 475 0
2022-05-22 21:01:03 GMT 32.745823 -115.009201 33,000 86 475 0
2022-05-22 21:01:00 GMT 32.745392 -115.016251 33,000 86 475 0
2022-05-22 21:00:57 GMT 32.744984 -115.024055 33,000 86 475 64
2022-05-22 21:00:51 GMT 32.744110 -115.038994 33,000 86 475 0
2022-05-22 21:00:47 GMT 32.743729 -115.045746 33,000 86 475 0
2022-05-22 21:00:43 GMT 32.743057 -115.057617 33,000 86 475 0
2022-05-22 21:00:39 GMT 32.742462 -115.067833 33,000 86 474 0
2022-05-22 21:00:36 GMT 32.741821 -115.079208 33,000 86 473 0
2022-05-22 21:00:31 GMT 32.741165 -115.090698 33,000 86 474 0
2022-05-22 21:00:27 GMT 32.740585 -115.100082 33,000 86 474 0
2022-05-22 21:00:24 GMT 32.740219 -115.107109 33,000 86 474 0
2022-05-22 21:00:17 GMT 32.738979 -115.127747 33,000 86 473 0
2022-05-22 21:00:13 GMT 32.738617 -115.134026 33,000 86 473 0
2022-05-22 21:00:08 GMT 32.737766 -115.148941 33,000 86 473 0
2022-05-22 21:00:04 GMT 32.737015 -115.161766 33,000 86 473 0
2022-05-22 20:59:57 GMT 32.736145 -115.176651 33,000 86 473 0
2022-05-22 20:59:54 GMT 32.735535 -115.187279 33,000 86 473 0
2022-05-22 20:59:50 GMT 32.734863 -115.198296 33,000 85 472 0
2022-05-22 20:59:46 GMT 32.734497 -115.204338 33,000 85 472 0
2022-05-22 20:59:43 GMT 32.733948 -115.213844 33,000 85 472 0
2022-05-22 20:59:40 GMT 32.733486 -115.221581 33,000 85 472 0
2022-05-22 20:59:35 GMT 32.732555 -115.236664 33,000 85 472 -64
2022-05-22 20:59:30 GMT 32.731842 -115.248672 33,000 85 472 0
2022-05-22 20:59:25 GMT 32.731201 -115.259048 33,000 85 472 0
2022-05-22 20:59:20 GMT 32.730377 -115.272728 33,000 85 471 0
2022-05-22 20:59:17 GMT 32.729782 -115.282837 33,000 85 471 0
2022-05-22 20:59:13 GMT 32.729298 -115.290581 33,000 85 471 0
2022-05-22 20:59:08 GMT 32.728413 -115.305214 33,000 85 471 0
2022-05-22 20:59:05 GMT 32.727528 -115.319733 33,000 85 471 0
2022-05-22 20:59:01 GMT 32.727528 -115.319733 33,000 85 471 64
2022-05-22 20:58:58 GMT 32.726830 -115.331390 33,000 85 471 0
2022-05-22 20:58:55 GMT 32.726349 -115.339249 33,000 85 471 0
2022-05-22 20:58:52 GMT 32.726028 -115.344193 33,000 85 471 0
2022-05-22 20:58:45 GMT 32.724747 -115.365562 33,000 85 471 0
2022-05-22 20:58:42 GMT 32.724380 -115.372101 33,000 85 471 0
2022-05-22 20:58:38 GMT 32.723709 -115.382568 33,000 85 471 0
2022-05-22 20:58:35 GMT 32.723385 -115.388504 33,000 85 471 0
2022-05-22 20:58:33 GMT 32.723057 -115.393890 33,000 85 471 0
2022-05-22 20:58:30 GMT 32.722733 -115.399239 33,000 85 471 0
2022-05-22 20:58:24 GMT 32.721195 -115.424942 33,000 85 471 0
2022-05-22 20:58:21 GMT 32.721195 -115.424942 33,000 85 471 0
2022-05-22 20:58:17 GMT 32.720451 -115.437668 33,000 85 471 0
2022-05-22 20:58:14 GMT 32.720032 -115.444611 33,000 85 471 0
2022-05-22 20:58:09 GMT 32.719437 -115.454941 33,000 85 471 0
2022-05-22 20:58:06 GMT 32.719025 -115.461586 33,000 85 471 0
2022-05-22 20:58:03 GMT 32.717842 -115.481667 33,000 85 471 0
2022-05-22 20:58:00 GMT 32.717842 -115.481667 33,000 85 471 0
2022-05-22 20:57:56 GMT 32.717239 -115.491905 33,000 85 471 0
2022-05-22 20:57:53 GMT 32.716827 -115.498611 33,000 85 471 0
2022-05-22 20:57:50 GMT 32.716370 -115.506630 33,000 85 471 0
2022-05-22 20:57:47 GMT 32.716122 -115.510422 33,000 85 471 0
2022-05-22 20:57:42 GMT 32.715237 -115.525108 33,000 85 470 0
2022-05-22 20:57:39 GMT 32.714630 -115.535141 33,000 85 470 0
2022-05-22 20:57:35 GMT 32.713989 -115.545738 33,000 85 470 0
2022-05-22 20:57:32 GMT 32.713745 -115.549606 33,000 85 470 0
2022-05-22 20:57:28 GMT 32.713028 -115.561066 33,000 85 470 0
2022-05-22 20:57:22 GMT 32.712116 -115.575500 33,000 85 470 -64
2022-05-22 20:57:18 GMT 32.711281 -115.589233 33,000 85 470 0
2022-05-22 20:57:13 GMT 32.710464 -115.602371 33,000 85 470 0
2022-05-22 20:57:10 GMT 32.710144 -115.607430 33,000 85 470 0
2022-05-22 20:57:06 GMT 32.709465 -115.617760 33,000 85 470 0
2022-05-22 20:56:59 GMT 32.708267 -115.637093 33,000 85 470 -64
2022-05-22 20:56:56 GMT 32.707836 -115.643883 33,000 85 470 0
2022-05-22 20:56:51 GMT 32.706985 -115.657143 33,000 85 470 320
2022-05-22 20:56:49 GMT 32.706718 -115.661263 33,000 85 469 640
2022-05-22 20:56:46 GMT 32.706161 -115.670158 32,950 85 468 896
2022-05-22 20:56:43 GMT 32.705601 -115.679420 32,875 85 468 1280
2022-05-22 20:56:40 GMT 32.705135 -115.686317 32,825 85 467 1280
2022-05-22 20:56:36 GMT 32.704468 -115.697021 32,725 85 467 1344
2022-05-22 20:56:30 GMT 32.703690 -115.709549 32,625 85 466 1408
2022-05-22 20:56:26 GMT 32.702866 -115.722290 32,500 85 466 0
2022-05-22 20:56:23 GMT 32.702454 -115.728714 32,425 85 466 1472
2022-05-22 20:56:19 GMT 32.701736 -115.739960 32,325 85 465 1472
2022-05-22 20:56:15 GMT 32.700302 -115.763161 32,150 85 465 1536
2022-05-22 20:56:10 GMT 32.700302 -115.763161 32,100 85 465 1600
2022-05-22 20:56:07 GMT 32.700062 -115.767311 32,050 85 465 1664
2022-05-22 20:56:04 GMT 32.699455 -115.776955 31,950 85 465 1728
2022-05-22 20:55:59 GMT 32.698105 -115.798203 31,750 85 465 1728
2022-05-22 20:55:56 GMT 32.698105 -115.798203 31,700 85 465 1728
2022-05-22 20:55:52 GMT 32.697693 -115.804688 31,625 85 465 1792
2022-05-22 20:55:48 GMT 32.696987 -115.815964 31,500 85 465 1792
2022-05-22 20:55:46 GMT 32.696686 -115.820786 31,450 85 465 1792
2022-05-22 20:55:42 GMT 32.695908 -115.833252 31,300 85 465 1792
2022-05-22 20:55:37 GMT 32.695129 -115.846161 31,150 85 465 1792
2022-05-22 20:55:33 GMT 32.694626 -115.853905 31,000 85 465 1792
2022-05-22 20:55:29 GMT 32.693893 -115.865883 30,875 85 465 1792
2022-05-22 20:55:26 GMT 32.693497 -115.872467 30,875 85 465 1792
2022-05-22 20:55:22 GMT 32.692753 -115.884293 30,700 85 466 1920
2022-05-22 20:55:14 GMT 32.691467 -115.904060 30,350 85 466 1920
2022-05-22 20:55:11 GMT 32.690964 -115.911804 30,325 85 466 1920
2022-05-22 20:55:06 GMT 32.690186 -115.923996 30,075 85 467 2048
2022-05-22 20:55:03 GMT 32.689545 -115.934105 30,050 85 467 2048
2022-05-22 20:55:00 GMT 32.689270 -115.939102 29,975 85 467 2048
2022-05-22 20:54:55 GMT 32.688538 -115.950150 29,825 85 468 2112
2022-05-22 20:54:53 GMT 32.688034 -115.958168 29,650 85 468 2176
2022-05-22 20:54:49 GMT 32.687256 -115.970085 29,550 85 469 2112
2022-05-22 20:54:45 GMT 32.686932 -115.975548 29,325 85 469 2112
2022-05-22 20:54:43 GMT 32.686516 -115.981712 29,375 85 469 2112
2022-05-22 20:54:41 GMT 32.686111 -115.987885 29,225 85 470 2176
2022-05-22 20:54:38 GMT 32.685562 -115.996399 29,150 85 470 2176
2022-05-22 20:54:35 GMT 32.685120 -116.003235 29,100 85 470 2048
2022-05-22 20:54:33 GMT 32.684837 -116.007942 29,025 85 470 1792
2022-05-22 20:54:30 GMT 32.683815 -116.023308 28,800 85 470 1472
2022-05-22 20:54:27 GMT 32.683815 -116.023308 28,825 85 469 1408
2022-05-22 20:54:24 GMT 32.683411 -116.029739 28,775 85 469 1472
2022-05-22 20:54:21 GMT 32.682724 -116.039963 28,700 85 466 1344
2022-05-22 20:54:18 GMT 32.682220 -116.048088 28,600 85 467 1408
2022-05-22 20:54:14 GMT 32.681671 -116.056152 28,575 85 467 1344
2022-05-22 20:54:11 GMT 32.680973 -116.066742 28,475 85 466 1408
2022-05-22 20:54:08 GMT 32.680527 -116.073799 28,400 85 465 1472
2022-05-22 20:54:05 GMT 32.679565 -116.088516 28,300 85 464 1472
2022-05-22 20:54:02 GMT 32.679565 -116.088516 28,275 85 464 1472
2022-05-22 20:53:57 GMT 32.678604 -116.102913 28,125 85 463 1536
2022-05-22 20:53:52 GMT 32.677994 -116.111977 28,025 85 463 1664
2022-05-22 20:53:50 GMT 32.677483 -116.119659 27,925 85 462 1600
2022-05-22 20:53:47 GMT 32.676971 -116.127449 27,850 85 461 1600
2022-05-22 20:53:44 GMT 32.676453 -116.135101 27,775 85 461 1664
2022-05-22 20:53:40 GMT 32.676041 -116.141235 27,725 85 460 1728
2022-05-22 20:53:38 GMT 32.675713 -116.146729 27,650 85 460 1728
2022-05-22 20:53:35 GMT 32.675201 -116.154129 27,550 85 460 1728
2022-05-22 20:53:32 GMT 32.674713 -116.161522 27,475 85 459 1728
2022-05-22 20:53:29 GMT 32.673294 -116.182777 27,275 85 458 1664
2022-05-22 20:53:25 GMT 32.673294 -116.182777 27,250 85 458 1664
2022-05-22 20:53:21 GMT 32.672653 -116.192398 27,150 85 457 1728
2022-05-22 20:53:18 GMT 32.672333 -116.197723 27,100 85 456 1728
2022-05-22 20:53:14 GMT 32.671509 -116.209641 26,950 85 456 1728
2022-05-22 20:53:08 GMT 32.670452 -116.225822 26,650 85 454 1664
2022-05-22 20:53:02 GMT 32.669476 -116.240173 26,550 85 453 1728
2022-05-22 20:52:58 GMT 32.668671 -116.252655 26,450 85 452 1792
2022-05-22 20:52:53 GMT 32.668079 -116.261360 26,350 85 451 1728
2022-05-22 20:52:48 GMT 32.667297 -116.272926 26,200 85 450 1792
2022-05-22 20:52:45 GMT 32.666729 -116.281708 26,100 85 449 1856
2022-05-22 20:52:41 GMT 32.665649 -116.297318 25,950 85 448 1728
2022-05-22 20:52:38 GMT 32.665649 -116.297318 25,925 85 448 1728
2022-05-22 20:52:34 GMT 32.664917 -116.308136 25,775 85 447 1792
2022-05-22 20:52:30 GMT 32.664368 -116.316269 25,650 85 446 1792
2022-05-22 20:52:27 GMT 32.663704 -116.326103 25,575 85 441 1856
2022-05-22 20:52:24 GMT 32.663239 -116.332657 25,475 85 445 1792
2022-05-22 20:52:21 GMT 32.662720 -116.340218 25,350 85 444 1728
2022-05-22 20:52:17 GMT 32.662216 -116.347740 25,300 85 443 1728
2022-05-22 20:52:14 GMT 32.661797 -116.353958 25,150 85 442 1792
2022-05-22 20:52:11 GMT 32.661301 -116.361038 24,600 85 442 1792
2022-05-22 20:52:08 GMT 32.660660 -116.370102 25,025 85 441 1856
2022-05-22 20:52:04 GMT 32.659927 -116.381088 24,875 85 440 1984
2022-05-22 20:52:00 GMT 32.659187 -116.391121 24,700 85 439 1984
2022-05-22 20:51:57 GMT 32.658863 -116.395889 24,675 85 439 1984
2022-05-22 20:51:55 GMT 32.658535 -116.400871 24,450 85 438 2112
2022-05-22 20:51:51 GMT 32.657745 -116.412254 24,450 85 438 2112
2022-05-22 20:51:46 GMT 32.656952 -116.423019 24,275 85 437 2048
2022-05-22 20:51:44 GMT 32.656540 -116.429092 23,225 85 436 2048
2022-05-22 20:51:40 GMT 32.655975 -116.436974 23,975 85 435 2048
2022-05-22 20:51:37 GMT 32.655396 -116.445297 23,975 85 435 2048
2022-05-22 20:51:34 GMT 32.654984 -116.450958 23,900 85 434 2048
2022-05-22 20:51:30 GMT 32.654205 -116.462029 23,650 85 433 1984
2022-05-22 20:51:27 GMT 32.653793 -116.468155 23,625 85 432 1856
2022-05-22 20:51:24 GMT 32.653152 -116.477600 23,525 85 432 1792
2022-05-22 20:51:21 GMT 32.652718 -116.483887 23,450 85 431 1728
2022-05-22 20:51:16 GMT 32.652020 -116.494087 23,300 85 429 1920
2022-05-22 20:51:14 GMT 32.651779 -116.497650 23,250 85 429 2048
2022-05-22 20:51:12 GMT 32.651367 -116.503586 23,050 85 428 2176
2022-05-22 20:51:09 GMT 32.650406 -116.517593 22,325 85 427 2240
2022-05-22 20:51:06 GMT 32.650406 -116.517593 22,925 85 427 2240
2022-05-22 20:51:03 GMT 32.650017 -116.523125 22,875 85 427 2240
2022-05-22 20:51:00 GMT 32.649364 -116.533440 22,700 85 426 2304
2022-05-22 20:50:56 GMT 32.648804 -116.542198 22,450 85 425 2240
2022-05-22 20:50:53 GMT 32.648438 -116.547745 22,475 85 425 2240
2022-05-22 20:50:51 GMT 32.648071 -116.553352 22,375 85 424 2176
2022-05-22 20:50:45 GMT 32.647202 -116.567032 22,175 85 423 2048
2022-05-22 20:50:42 GMT 32.646896 -116.572113 22,100 85 422 2112
2022-05-22 20:50:40 GMT 32.646515 -116.578072 22,000 85 422 2176
2022-05-22 20:50:35 GMT 32.645691 -116.590927 21,775 85 420 2368
2022-05-22 20:50:32 GMT 32.645416 -116.595757 21,700 85 420 2368
2022-05-22 20:50:30 GMT 32.645130 -116.600533 21,625 85 419 2368
2022-05-22 20:50:25 GMT 32.644501 -116.610809 21,450 85 419 2368
2022-05-22 20:50:22 GMT 32.643967 -116.618866 21,300 85 418 2368
2022-05-22 20:50:20 GMT 32.643631 -116.624596 21,100 85 417 2368
2022-05-22 20:50:16 GMT 32.643036 -116.633827 21,050 85 416 2432
2022-05-22 20:50:13 GMT 32.642670 -116.639320 20,950 85 416 2432
2022-05-22 20:50:11 GMT 32.642349 -116.643822 20,850 85 414 2432
2022-05-22 20:50:09 GMT 32.641937 -116.649704 20,775 84 414 2368
2022-05-22 20:50:04 GMT 32.641266 -116.658714 20,600 84 413 2304
2022-05-22 20:50:01 GMT 32.640656 -116.666458 20,475 84 412 2176
2022-05-22 20:49:58 GMT 32.640057 -116.672958 20,225 83 409 2432
2022-05-22 20:49:54 GMT 32.639145 -116.682327 20,225 83 409 2432
2022-05-22 20:49:51 GMT 32.638412 -116.689583 20,075 83 408 2496
2022-05-22 20:49:48 GMT 32.637726 -116.696442 19,950 83 408 2496
2022-05-22 20:49:44 GMT 32.636845 -116.705185 19,500 83 406 2752
2022-05-22 20:49:40 GMT 32.636005 -116.713310 19,625 83 406 2688
2022-05-22 20:49:37 GMT 32.635391 -116.719742 19,500 83 406 2752
2022-05-22 20:49:30 GMT 32.633789 -116.735611 19,100 83 405 2624
2022-05-22 20:49:27 GMT 32.633148 -116.742043 18,925 83 404 2560
2022-05-22 20:49:23 GMT 32.632141 -116.752808 18,825 83 403 2560
2022-05-22 20:49:20 GMT 32.631546 -116.758408 18,725 82 403 2624
2022-05-22 20:49:16 GMT 32.630745 -116.765442 18,550 80 402 2752
2022-05-22 20:49:10 GMT 32.628651 -116.780014 18,275 78 401 2624
2022-05-22 20:49:07 GMT 32.627335 -116.787361 18,125 77 400 2624
2022-05-22 20:49:02 GMT 32.625092 -116.798897 17,825 76 399 2752
2022-05-22 20:48:59 GMT 32.624039 -116.804443 17,775 76 398 2752
2022-05-22 20:48:56 GMT 32.623062 -116.809441 17,650 76 398 2688
2022-05-22 20:48:52 GMT 32.621384 -116.817902 17,025 76 392 2560
2022-05-22 20:48:48 GMT 32.619415 -116.827957 17,275 76 396 2688
2022-05-22 20:48:45 GMT 32.618500 -116.832512 16,925 76 395 2624
2022-05-22 20:48:38 GMT 32.615429 -116.848228 16,550 76 391 2624
2022-05-22 20:48:34 GMT 32.614220 -116.854233 16,700 76 393 2496
2022-05-22 20:48:27 GMT 32.610725 -116.871605 16,375 76 391 2688
2022-05-22 20:48:23 GMT 32.607101 -116.892830 15,800 79 390 2688
2022-05-22 20:48:17 GMT 32.606304 -116.899132 15,875 81 390 2688
2022-05-22 20:48:14 GMT 32.606304 -116.899132 15,775 83 389 2624
2022-05-22 20:48:09 GMT 32.605270 -116.910408 15,550 86 387 2688
2022-05-22 20:48:06 GMT 32.604862 -116.916672 15,350 87 387 2624
2022-05-22 20:48:03 GMT 32.604630 -116.920929 15,325 87 387 2624
2022-05-22 20:47:57 GMT 32.604397 -116.934944 15,025 90 386 2432
2022-05-22 20:47:53 GMT 32.604534 -116.942848 14,900 92 384 2304
2022-05-22 20:47:48 GMT 32.605179 -116.954407 14,675 95 382 2368
2022-05-22 20:47:45 GMT 32.605419 -116.957649 14,600 95 382 2368
2022-05-22 20:47:43 GMT 32.606003 -116.964569 14,425 96 380 2432
2022-05-22 20:47:35 GMT 32.607235 -116.978386 14,200 96 379 2624
2022-05-22 20:47:32 GMT 32.608074 -116.987968 13,975 96 378 2560
2022-05-22 20:47:28 GMT 32.607658 -116.998688 12,300 96 370 2560
2022-05-22 20:47:26 GMT 32.607861 -117.000702 12,300 96 370 2560
2022-05-22 20:47:25 GMT 32.608051 -117.002708 12,300 96 370 2560
2022-05-22 20:47:24 GMT 32.608238 -117.004723 12,300 96 370 2560
2022-05-22 20:47:22 GMT 32.608620 -117.008743 12,300 96 370 2560
2022-05-22 20:47:21 GMT 32.608810 -117.010750 12,300 96 370 2560
2022-05-22 20:47:20 GMT 32.609200 -117.014771 12,300 96 370 2560
2022-05-22 20:47:18 GMT 32.609390 -117.016792 12,300 96 370 2560
2022-05-22 20:47:17 GMT 32.609581 -117.018799 12,300 96 370 2560
2022-05-22 20:47:15 GMT 32.609959 -117.022820 12,300 96 370 2560
2022-05-22 20:47:14 GMT 32.610149 -117.024834 12,300 96 370 2560
2022-05-22 20:47:12 GMT 32.610538 -117.028847 12,300 96 370 2560
2022-05-22 20:47:10 GMT 32.610920 -117.032867 12,300 96 370 2560
2022-05-22 20:47:09 GMT 32.611111 -117.034889 12,300 96 370 2560
2022-05-22 20:47:07 GMT 32.611488 -117.038910 12,300 96 370 2560
2022-05-22 20:47:06 GMT 32.611679 -117.040916 12,300 96 370 2560
2022-05-22 20:47:05 GMT 32.612061 -117.044937 12,300 96 370 2560
2022-05-22 20:47:03 GMT 32.612259 -117.046951 12,300 96 370 2560
2022-05-22 20:47:02 GMT 32.612450 -117.048958 12,300 96 370 2560
2022-05-22 20:47:00 GMT 32.612831 -117.052994 12,300 96 370 1088
2022-05-22 20:46:59 GMT 32.613022 -117.055000 12,300 96 370 1088
2022-05-22 20:46:57 GMT 32.613400 -117.059021 12,300 96 370 1088
2022-05-22 20:46:56 GMT 32.613510 -117.061096 12,100 96 369 1088
2022-05-22 20:46:54 GMT 32.613899 -117.065109 12,100 96 369 1088
2022-05-22 20:46:53 GMT 32.614101 -117.067123 12,100 96 369 1088
2022-05-22 20:46:51 GMT 32.614429 -117.071259 11,900 96 367 1088
2022-05-22 20:46:50 GMT 32.614632 -117.073257 11,900 96 367 1088
2022-05-22 20:46:48 GMT 32.615021 -117.077263 11,900 96 367 1088
2022-05-22 20:46:47 GMT 32.615219 -117.079262 11,900 96 367 1088
2022-05-22 20:46:45 GMT 32.615601 -117.083443 11,400 96 365 1088
2022-05-22 20:46:44 GMT 32.615791 -117.085419 11,400 96 365 1088
2022-05-22 20:46:42 GMT 32.616192 -117.089394 11,400 96 365 1088
2022-05-22 20:46:41 GMT 32.616280 -117.091568 11,400 96 362 1088
2022-05-22 20:46:40 GMT 32.616680 -117.095512 11,400 96 362 1088
2022-05-22 20:46:38 GMT 32.616879 -117.097481 11,400 96 362 1088
2022-05-22 20:46:36 GMT 32.617489 -117.101250 11,400 96 365 1088
2022-05-22 20:46:35 GMT 32.617668 -117.103241 11,400 96 365 1088
2022-05-22 20:46:34 GMT 32.618019 -117.107208 11,400 96 365 1088
2022-05-22 20:46:32 GMT 32.618000 -117.109070 11,200 96 367 1088
2022-05-22 20:46:31 GMT 32.618408 -117.113068 11,200 96 367 1088
2022-05-22 20:46:29 GMT 32.618610 -117.115059 11,200 96 367 1088
2022-05-22 20:46:27 GMT 32.619041 -117.119926 11,100 96 348 1088
2022-05-22 20:46:26 GMT 32.619228 -117.121819 11,100 96 348 1088
2022-05-22 20:46:25 GMT 32.619621 -117.125603 11,100 96 348 1088
2022-05-22 20:46:23 GMT 32.619820 -117.127502 11,100 96 348 1088
2022-05-22 20:46:21 GMT 32.620152 -117.131119 11,000 96 354 1088
2022-05-22 20:46:19 GMT 32.620548 -117.134972 11,000 96 354 1088
2022-05-22 20:46:18 GMT 32.621052 -117.139503 10,900 96 337 1088
2022-05-22 20:46:16 GMT 32.621231 -117.141327 10,900 96 337 1088
2022-05-22 20:46:14 GMT 32.621590 -117.144997 10,900 96 337 1088
2022-05-22 20:46:13 GMT 32.621769 -117.146843 10,900 96 337 1088
2022-05-22 20:46:12 GMT 32.622360 -117.151131 10,900 96 328 1088
2022-05-22 20:46:10 GMT 32.622520 -117.152924 10,900 96 328 1088
2022-05-22 20:46:09 GMT 32.622681 -117.154709 10,900 96 328 1088
2022-05-22 20:46:08 GMT 32.622829 -117.158432 10,700 96 326 1088
2022-05-22 20:46:06 GMT 32.623009 -117.160202 10,700 96 326 1088
2022-05-22 20:46:05 GMT 32.623371 -117.163750 10,700 96 326 1088
2022-05-22 20:46:03 GMT 32.623550 -117.165520 10,700 96 326 1088
2022-05-22 20:46:02 GMT 32.623730 -117.167290 10,700 96 326 1088
2022-05-22 20:46:00 GMT 32.624100 -117.170837 10,700 96 326 1088
2022-05-22 20:45:59 GMT 32.624279 -117.172607 10,700 96 326 192
2022-05-22 20:45:57 GMT 32.624409 -117.176140 10,600 96 325 192
2022-05-22 20:45:56 GMT 32.624611 -117.177902 10,600 96 325 192
2022-05-22 20:45:55 GMT 32.624809 -117.179672 10,600 96 325 192
2022-05-22 20:45:53 GMT 32.625221 -117.183197 10,600 96 325 192
2022-05-22 20:45:52 GMT 32.625900 -117.185120 10,500 94 317 -320
2022-05-22 20:45:50 GMT 32.626141 -117.188583 10,500 94 317 -320
2022-05-22 20:45:49 GMT 32.626259 -117.190308 10,500 94 317 -320
2022-05-22 20:45:48 GMT 32.626831 -117.192039 10,500 92 314 1184
2022-05-22 20:45:46 GMT 32.626968 -117.195473 10,500 92 314 1184
2022-05-22 20:45:45 GMT 32.627102 -117.198898 10,500 92 314 1184
2022-05-22 20:45:43 GMT 32.627590 -117.200546 10,400 93 312 1184
2022-05-22 20:45:42 GMT 32.627628 -117.202263 10,400 93 312 1184
2022-05-22 20:45:40 GMT 32.627720 -117.205681 10,400 93 312 1184
2022-05-22 20:45:39 GMT 32.627762 -117.207390 10,400 93 312 1184
2022-05-22 20:45:37 GMT 32.627972 -117.210640 10,200 96 311 1184
2022-05-22 20:45:36 GMT 32.628071 -117.212349 10,200 96 311 1184
2022-05-22 20:45:35 GMT 32.628250 -117.215752 10,200 96 311 1184
2022-05-22 20:45:33 GMT 32.627850 -117.217331 10,000 102 311 1184
2022-05-22 20:45:32 GMT 32.628319 -117.220688 10,000 102 311 1184
2022-05-22 20:45:30 GMT 32.628551 -117.222366 10,000 102 311 1184
2022-05-22 20:45:29 GMT 32.628792 -117.224052 10,000 102 311 1184
2022-05-22 20:45:28 GMT 32.628288 -117.225822 9,700 110 308 1184
2022-05-22 20:45:26 GMT 32.629120 -117.229042 9,700 110 308 1184
2022-05-22 20:45:25 GMT 32.629539 -117.230652 9,700 110 308 1184
2022-05-22 20:45:24 GMT 32.629890 -117.234222 9,500 118 300 1184
2022-05-22 20:45:22 GMT 32.630459 -117.235718 9,500 118 300 1184
2022-05-22 20:45:20 GMT 32.631592 -117.238724 9,500 118 300 1184
2022-05-22 20:45:19 GMT 32.632160 -117.240227 9,500 118 300 1184
2022-05-22 20:45:17 GMT 32.632252 -117.243973 9,300 129 298 1184
2022-05-22 20:45:15 GMT 32.633888 -117.246597 9,300 129 298 1184
2022-05-22 20:45:14 GMT 32.634708 -117.247917 9,300 129 298 1184
2022-05-22 20:45:12 GMT 32.635361 -117.252083 8,900 135 291 1184
2022-05-22 20:45:11 GMT 32.636318 -117.253189 8,900 135 291 1184
2022-05-22 20:45:10 GMT 32.638260 -117.255409 8,900 135 291 1184
2022-05-22 20:45:08 GMT 32.639221 -117.256523 8,900 135 291 1184
2022-05-22 20:45:07 GMT 32.641159 -117.258743 8,900 135 291 1184
2022-05-22 20:45:05 GMT 32.642120 -117.259850 8,900 135 291 1184
2022-05-22 20:45:04 GMT 32.642639 -117.261452 8,700 138 292 1184
2022-05-22 20:45:02 GMT 32.644680 -117.263550 8,700 138 292 1184
2022-05-22 20:44:59 GMT 32.647549 -117.265373 8,725 135 289 2240
2022-05-22 20:44:57 GMT 32.648529 -117.266556 8,725 135 289 2240
2022-05-22 20:44:53 GMT 32.653198 -117.272133 7,675 135 287 2432
2022-05-22 20:44:50 GMT 32.658535 -117.278435 8,350 134 286 2496
2022-05-22 20:44:47 GMT 32.658535 -117.278435 8,300 134 284 2496
2022-05-22 20:44:43 GMT 32.663193 -117.283928 8,100 134 282 2496
2022-05-22 20:44:38 GMT 32.668304 -117.290039 7,850 135 281 2432
2022-05-22 20:44:31 GMT 32.673431 -117.296082 7,600 135 278 2496
2022-05-22 20:44:28 GMT 32.676498 -117.299706 7,500 135 277 2624
2022-05-22 20:44:26 GMT 32.677811 -117.301247 7,425 135 276 2624
2022-05-22 20:44:22 GMT 32.682541 -117.306847 7,200 134 274 2304
2022-05-22 20:43:52 GMT 32.723331 -117.353462 4,100 240 278 2976
2022-05-22 20:43:51 GMT 32.724129 -117.352272 4,100 240 278 2976
2022-05-22 20:43:50 GMT 32.724941 -117.351082 4,100 240 278 2976
2022-05-22 20:43:48 GMT 32.726540 -117.348701 4,100 240 278 2976
2022-05-22 20:43:47 GMT 32.727341 -117.347511 4,100 240 278 2976
2022-05-22 20:43:46 GMT 32.728951 -117.345131 4,100 240 278 2976
2022-05-22 20:43:44 GMT 32.729752 -117.343941 4,100 240 278 2976
2022-05-22 20:43:42 GMT 32.731361 -117.341553 4,100 240 278 2976
2022-05-22 20:43:41 GMT 32.732159 -117.340363 4,100 240 278 2976
2022-05-22 20:43:40 GMT 32.732960 -117.339172 4,100 240 278 2976
2022-05-22 20:43:39 GMT 32.734558 -117.336792 4,100 240 278 2976
2022-05-22 20:43:37 GMT 32.735371 -117.335602 4,100 240 278 2976
2022-05-22 20:43:36 GMT 32.736969 -117.333214 4,100 240 278 2880
2022-05-22 20:43:34 GMT 32.737770 -117.332024 4,100 240 278 2880
2022-05-22 20:43:32 GMT 32.739380 -117.329643 4,100 240 278 2880
2022-05-22 20:43:31 GMT 32.740181 -117.328453 4,100 240 278 2880
2022-05-22 20:43:30 GMT 32.741791 -117.326057 4,100 240 278 2880
2022-05-22 20:43:28 GMT 32.742592 -117.324867 4,100 240 278 2880
2022-05-22 20:43:27 GMT 32.743389 -117.323677 4,100 240 278 2880
2022-05-22 20:43:25 GMT 32.744991 -117.321297 4,100 240 278 2880
2022-05-22 20:43:24 GMT 32.745800 -117.320099 4,100 240 278 2880
2022-05-22 20:43:23 GMT 32.751862 -117.318153 4,100 240 278 2880
2022-05-22 20:43:21 GMT 32.751862 -117.318153 3,700 260 258 2880
2022-05-22 20:43:19 GMT 32.752449 -117.315407 3,700 260 258 2880
2022-05-22 20:43:18 GMT 32.752750 -117.314041 3,700 260 258 2880
2022-05-22 20:43:16 GMT 32.753342 -117.311302 3,700 260 258 2880
2022-05-22 20:43:15 GMT 32.753639 -117.309929 3,700 260 258 2880
2022-05-22 20:43:14 GMT 32.754230 -117.307182 3,700 260 258 2880
2022-05-22 20:43:12 GMT 32.754532 -117.305809 3,700 260 258 2880
2022-05-22 20:43:11 GMT 32.756222 -117.302811 3,600 271 239 2880
2022-05-22 20:43:09 GMT 32.756271 -117.301498 3,600 271 239 2880
2022-05-22 20:43:08 GMT 32.756310 -117.300194 3,600 271 239 2880
2022-05-22 20:43:07 GMT 32.757629 -117.297073 3,600 280 226 2880
2022-05-22 20:43:05 GMT 32.757488 -117.295853 3,600 280 226 2880
2022-05-22 20:43:03 GMT 32.757210 -117.293388 3,600 280 226 2880
2022-05-22 20:43:01 GMT 32.757969 -117.289574 3,300 286 204 2880
2022-05-22 20:43:00 GMT 32.757702 -117.288490 3,300 286 204 2880
2022-05-22 20:42:58 GMT 32.757172 -117.286339 3,300 286 204 2880
2022-05-22 20:42:57 GMT 32.756908 -117.285271 3,300 286 204 2880
2022-05-22 20:42:56 GMT 32.756378 -117.283119 3,300 286 204 2880
2022-05-22 20:42:54 GMT 32.756111 -117.282043 3,300 286 204 2880
2022-05-22 20:42:53 GMT 32.755852 -117.280960 3,300 286 204 2880
2022-05-22 20:42:51 GMT 32.755409 -117.279099 3,100 286 211 2880
2022-05-22 20:42:50 GMT 32.755131 -117.277992 3,100 286 211 2880
2022-05-22 20:42:48 GMT 32.754581 -117.275757 3,100 286 211 2880
2022-05-22 20:42:47 GMT 32.754299 -117.274651 3,100 286 211 2880
2022-05-22 20:42:46 GMT 32.754051 -117.273682 2,400 286 218 2880
2022-05-22 20:42:45 GMT 32.753761 -117.272530 2,400 286 218 2880
2022-05-22 20:42:43 GMT 32.753201 -117.270180 2,400 286 214 2880
2022-05-22 20:42:42 GMT 32.752941 -117.269142 2,400 286 220 2880
2022-05-22 20:42:40 GMT 32.752319 -117.266800 2,400 286 216 2880
2022-05-22 20:42:39 GMT 32.752041 -117.265640 2,400 286 215 2880
2022-05-22 20:42:37 GMT 32.751461 -117.263382 2,400 286 214 2880
2022-05-22 20:42:36 GMT 32.751179 -117.262222 2,400 286 213 160
2022-05-22 20:42:35 GMT 32.750900 -117.261078 2,400 286 212 160
2022-05-22 20:42:34 GMT 32.750309 -117.258789 2,400 286 207 160
2022-05-22 20:42:32 GMT 32.750038 -117.257751 2,000 286 210 160
2022-05-22 20:42:30 GMT 32.749519 -117.255547 2,000 286 212 160
2022-05-22 20:42:29 GMT 32.749249 -117.254410 2,000 286 211 160
2022-05-22 20:42:28 GMT 32.748680 -117.252220 2,000 286 211 160
2022-05-22 20:42:26 GMT 32.748428 -117.251099 2,000 285 211 160
2022-05-22 20:42:25 GMT 32.747822 -117.248871 2,000 284 208 160
2022-05-22 20:42:23 GMT 32.747570 -117.247726 2,000 284 205 160
2022-05-22 20:42:21 GMT 32.747070 -117.245621 1,800 283 212 160
2022-05-22 20:42:20 GMT 32.746861 -117.244476 1,800 283 211 160
2022-05-22 20:42:19 GMT 32.746380 -117.242172 1,800 284 201 160
2022-05-22 20:42:17 GMT 32.746140 -117.241158 1,675 283 206 160
2022-05-22 20:42:16 GMT 32.745918 -117.240051 1,675 283 203 160
2022-05-22 20:42:14 GMT 32.745480 -117.237877 1,675 284 200 160
2022-05-22 20:42:13 GMT 32.745258 -117.236794 1,675 284 197 160
2022-05-22 20:42:12 GMT 32.744789 -117.234703 1,675 284 194 160
2022-05-22 20:42:10 GMT 32.744560 -117.233673 1,675 284 192 160
2022-05-22 20:42:08 GMT 32.744141 -117.231659 1,550 284 191 160
2022-05-22 20:42:07 GMT 32.743919 -117.230637 1,550 284 189 160
2022-05-22 20:42:06 GMT 32.743469 -117.228638 1,550 284 185 160
2022-05-22 20:42:04 GMT 32.743221 -117.227638 1,500 284 182 160
2022-05-22 20:42:03 GMT 32.742802 -117.225708 1,500 285 178 160
2022-05-22 20:42:01 GMT 32.742592 -117.224716 1,400 285 174 0
2022-05-22 20:41:59 GMT 32.742180 -117.222801 1,400 287 166 0
2022-05-22 20:41:58 GMT 32.741982 -117.221939 1,325 288 168 3232
2022-05-22 20:41:56 GMT 32.741489 -117.220169 1,325 287 163 3232
2022-05-22 20:41:55 GMT 32.741219 -117.219292 1,325 286 160 3232
2022-05-22 20:41:54 GMT 32.741039 -117.218468 1,325 287 162 3232
2022-05-22 20:41:53 GMT 32.740589 -117.216789 1,325 288 163 3232
2022-05-22 20:41:51 GMT 32.740360 -117.215927 1,200 287 162 3232
2022-05-22 20:41:50 GMT 32.740131 -117.215080 1,200 287 161 3232
2022-05-22 20:41:48 GMT 32.739639 -117.213432 1,000 286 158 3232
2022-05-22 20:41:47 GMT 32.739429 -117.212601 1,000 286 158 3232
2022-05-22 20:41:46 GMT 32.739029 -117.210938 1,000 287 157 3232
2022-05-22 20:41:44 GMT 32.738800 -117.210083 1,000 287 151 3232
2022-05-22 20:41:43 GMT 32.738419 -117.208504 925 287 153 3232
2022-05-22 20:41:41 GMT 32.738201 -117.207733 875 288 156 3232
2022-05-22 20:41:39 GMT 32.737720 -117.206131 800 285 155 3232
2022-05-22 20:41:38 GMT 32.737469 -117.205322 525 284 153 3232
2022-05-22 20:41:36 GMT 32.737160 -117.203712 525 286 158 3232
2022-05-22 20:41:35 GMT 32.736961 -117.202881 525 287 155 0
2022-05-22 20:41:33 GMT 32.736530 -117.201309 525 286 149 0
2022-05-22 20:41:32 GMT 32.736279 -117.200569 525 283 155 0
2022-05-22 20:41:31 GMT 32.735989 -117.198952 325 287 151 0
2022-05-22 20:41:29 GMT 32.735790 -117.198143 325 289 148 0
2022-05-22 20:41:27 GMT 32.735340 -117.196640 150 286 151 0
2022-05-22 20:41:26 GMT 32.735161 -117.195831 150 287 150 0
2022-05-22 20:41:24 GMT 32.734730 -117.194313 -50 286 155 0
2022-05-22 20:41:23 GMT 32.734509 -117.193542 -50 285 157 0
2022-05-22 20:41:21 GMT 32.734112 -117.191902 -50 285 153 0
2022-05-22 20:41:19 GMT 32.733749 -117.190292 -50 286 148 0
2022-05-22 20:41:17 GMT 32.733341 -117.188766 -50 285 143 0
2022-05-22 20:41:16 GMT 32.733150 -117.188019 -50 285 139 0
2022-05-22 20:41:15 GMT 32.732811 -117.186546 -50 286 129 0
2022-05-22 20:41:13 GMT 32.732651 -117.185860 -50 286 126 0
2022-05-22 20:41:12 GMT 32.732491 -117.185204 -50 286 123 0
2022-05-22 20:41:11 GMT 32.732140 -117.183922 -50 284 113 0
2022-05-22 20:41:09 GMT 32.732010 -117.183281 -50 285 109 0
2022-05-22 20:41:08 GMT 32.731770 -117.182129 -50 286 101 0
2022-05-22 20:41:06 GMT 32.731628 -117.181602 -50 286 98 0
2022-05-22 20:41:04 GMT 32.731369 -117.180588 -50 285 90 0
2022-05-22 20:41:03 GMT 32.731258 -117.180107 -50 285 86 0
2022-05-22 20:41:01 GMT 32.731049 -117.179222 0 286 75
2022-05-22 20:41:00 GMT 32.730942 -117.178833 0 285 71
2022-05-22 20:40:58 GMT 32.730770 -117.178108 0 285 62
2022-05-22 20:40:57 GMT 32.730679 -117.177742 0 285 55
2022-05-22 20:40:56 GMT 32.730560 -117.177116 0 287 40
2022-05-22 20:40:54 GMT 32.730480 -117.176918 0 285 37
2022-05-22 20:40:53 GMT 32.730358 -117.176491 0 282 23
2022-05-22 20:40:51 GMT 32.730339 -117.176323 0 283 18
2022-05-22 20:40:50 GMT 32.730309 -117.176178 0 284 12
2022-05-22 20:40:48 GMT 32.730270 -117.176033 0 274 7
2022-05-22 20:40:47 GMT 32.730259 -117.175957 0 270 1
2022-05-22 20:40:46 GMT 32.730251 -117.175926 0 270 1
2022-05-22 20:40:44 GMT 32.730251 -117.175911 0 270 0
2022-05-22 20:40:43 GMT 32.730228 -117.175919 0 270 2
2022-05-22 20:40:41 GMT 32.730251 -117.175903 0 270 1
2022-05-22 20:40:40 GMT 32.730270 -117.175919 0 270 0
2022-05-22 20:40:38 GMT 32.730270 -117.175919 0 270 0
2022-05-22 20:40:36 GMT 32.730259 -117.175903 0 270 0
2022-05-22 20:40:35 GMT 32.730240 -117.175911 0 271 0
2022-05-22 20:40:33 GMT 32.730251 -117.175903 0 272 0
2022-05-22 20:40:32 GMT 32.730251 -117.175926 0 275 2
2022-05-22 20:40:31 GMT 32.730259 -117.175919 0 279 3
2022-05-22 20:40:30 GMT 32.730240 -117.175911 0 279 5
2022-05-22 20:40:28 GMT 32.730240 -117.175873 0 282 5
2022-05-22 20:40:26 GMT 32.730221 -117.175819 0 281 4
2022-05-22 20:40:25 GMT 32.730228 -117.175819 0 284 6
2022-05-22 20:40:23 GMT 32.730202 -117.175758 0 259 5
2022-05-22 20:40:22 GMT 32.730190 -117.175713 0 249 4
2022-05-22 20:40:21 GMT 32.730190 -117.175667 0 288 6
2022-05-22 20:40:19 GMT 32.730240 -117.175636 0 288 4
2022-05-22 20:40:17 GMT 32.730228 -117.175636 0 287 9
2022-05-22 20:40:16 GMT 32.730221 -117.175591 0 297 8
2022-05-22 20:40:14 GMT 32.730240 -117.175507 0 321 9
2022-05-22 20:40:12 GMT 32.730179 -117.175461 0 348 8
2022-05-22 20:40:11 GMT 32.730141 -117.175400 0 12 6
2022-05-22 20:40:09 GMT 32.730110 -117.175369 0 40 8
2022-05-22 20:40:08 GMT 32.730080 -117.175346 0 47 10
2022-05-22 20:40:07 GMT 32.729969 -117.175407 0 71 10
2022-05-22 20:40:05 GMT 32.729950 -117.175461 0 71 10
2022-05-22 20:40:04 GMT 32.729931 -117.175552 0 72 13
2022-05-22 20:40:02 GMT 32.729912 -117.175621 0 72 13
2022-05-22 20:40:00 GMT 32.729889 -117.175797 0 67 10
2022-05-22 20:39:59 GMT 32.729870 -117.175850 0 69 10
2022-05-22 20:39:58 GMT 32.729839 -117.175903 0 70 10
2022-05-22 20:39:57 GMT 32.729809 -117.175949 0 70 10
2022-05-22 20:39:55 GMT 32.729790 -117.176064 0 64 10
2022-05-22 20:39:54 GMT 32.729801 -117.176109 0 60 11
2022-05-22 20:39:53 GMT 32.729752 -117.176193 0 64 13
2022-05-22 20:39:51 GMT 32.729698 -117.176277 0 67 10
2022-05-22 20:39:49 GMT 32.729649 -117.176422 0 66 5
2022-05-22 20:39:48 GMT 32.729641 -117.176453 0 67 5
2022-05-22 20:39:46 GMT 32.729599 -117.176567 0 69 3
2022-05-22 20:39:45 GMT 32.729580 -117.176620 0 68 3
2022-05-22 20:39:43 GMT 32.729519 -117.176720 0 67 1
2022-05-22 20:39:42 GMT 32.729519 -117.176750 0 67 1
2022-05-22 20:39:41 GMT 32.729511 -117.176819 0 67 0
2022-05-22 20:39:38 GMT 32.729530 -117.176819 0 67 0
2022-05-22 20:39:36 GMT 32.729542 -117.176842 0 66 1
2022-05-22 20:39:35 GMT 32.729561 -117.176849 0 67 1
2022-05-22 20:39:33 GMT 32.729561 -117.176842 0 68 1
2022-05-22 20:39:32 GMT 32.729549 -117.176826 0 68 1
2022-05-22 20:39:31 GMT 32.729511 -117.176849 0 69 0
2022-05-22 20:39:29 GMT 32.729511 -117.176826 0 69 0
2022-05-22 20:39:28 GMT 32.729530 -117.176826 0 69 0
2022-05-22 20:39:26 GMT 32.729519 -117.176849 0 69 0
2022-05-22 20:39:25 GMT 32.729511 -117.176849 0 69 0
2022-05-22 20:39:23 GMT 32.729519 -117.176842 0 69 0
2022-05-22 20:39:22 GMT 32.729542 -117.176842 0 69 0
2022-05-22 20:39:20 GMT 32.729542 -117.176849 0 69 0
2022-05-22 20:39:19 GMT 32.729530 -117.176842 0 69 0
2022-05-22 20:39:17 GMT 32.729519 -117.176819 0 69 0
2022-05-22 20:39:16 GMT 32.729488 -117.176826 0 69 0
2022-05-22 20:39:13 GMT 32.729519 -117.176819 0 69 0
2022-05-22 20:39:11 GMT 32.729511 -117.176819 0 68 0
2022-05-22 20:39:07 GMT 32.729542 -117.176804 0 66 0
2022-05-22 20:39:06 GMT 32.729542 -117.176811 0 66 0
2022-05-22 20:39:05 GMT 32.729561 -117.176788 0 66 0
2022-05-22 20:39:03 GMT 32.729561 -117.176788 0 66 0
2022-05-22 20:39:02 GMT 32.729591 -117.176804 0 67 1
2022-05-22 20:39:00 GMT 32.729580 -117.176773 0 67 0
2022-05-22 20:38:58 GMT 32.729580 -117.176773 0 67 0
2022-05-22 20:38:57 GMT 32.729591 -117.176773 0 67 1
2022-05-22 20:38:55 GMT 32.729568 -117.176758 0 70 0
2022-05-22 20:38:51 GMT 32.729561 -117.176750 0 70 0
2022-05-22 20:38:49 GMT 32.729568 -117.176758 0 70 0
2022-05-22 20:38:48 GMT 32.729549 -117.176758 0 69 1
2022-05-22 20:38:45 GMT 32.729542 -117.176758 0 64 2
2022-05-22 20:38:44 GMT 32.729580 -117.176773 0 66 1
2022-05-22 20:38:43 GMT 32.729591 -117.176758 0 70 1
2022-05-22 20:38:41 GMT 32.729591 -117.176750 0 72 1
2022-05-22 20:38:40 GMT 32.729580 -117.176750 0 76 1
2022-05-22 20:38:39 GMT 32.729568 -117.176727 0 76 0
2022-05-22 20:38:38 GMT 32.729580 -117.176712 0 76 0
2022-05-22 20:38:36 GMT 32.729580 -117.176712 0 77 2
2022-05-22 20:38:34 GMT 32.729549 -117.176697 0 78 3
2022-05-22 20:38:33 GMT 32.729561 -117.176743 0 69 3
2022-05-22 20:38:32 GMT 32.729568 -117.176743 0 63 5
2022-05-22 20:38:30 GMT 32.729561 -117.176811 0 69 3
2022-05-22 20:38:28 GMT 32.729530 -117.176826 0 70 1
2022-05-22 20:38:26 GMT 32.729519 -117.176826 0 70 1
2022-05-22 20:38:25 GMT 32.729511 -117.176842 0 68 2
2022-05-22 20:38:24 GMT 32.729519 -117.176872 0 67 2
2022-05-22 20:38:22 GMT 32.729549 -117.176872 0 69 3
2022-05-22 20:38:21 GMT 32.729530 -117.176910 0 69 2
2022-05-22 20:38:19 GMT 32.729542 -117.176918 0 69 3
2022-05-22 20:38:18 GMT 32.729530 -117.176933 0 71 3
2022-05-22 20:38:17 GMT 32.729511 -117.176949 0 73 4
2022-05-22 20:38:15 GMT 32.729511 -117.176971 0 75 4
2022-05-22 20:38:13 GMT 32.729488 -117.177002 0 84 4
2022-05-22 20:38:12 GMT 32.729469 -117.177032 0 91 4
2022-05-22 20:38:11 GMT 32.729488 -117.177078 0 96 4
2022-05-22 20:38:09 GMT 32.729481 -117.177101 0 100 4
2022-05-22 20:38:08 GMT 32.729450 -117.177147 0 113 4
2022-05-22 20:38:06 GMT 32.729450 -117.177162 0 106 5
2022-05-22 20:38:05 GMT 32.729481 -117.177177 0 96 4
2022-05-22 20:38:04 GMT 32.729469 -117.177223 0 109 5
2022-05-22 20:38:02 GMT 32.729481 -117.177254 0 113 4
2022-05-22 20:38:00 GMT 32.729488 -117.177299 0 108 4
2022-05-22 20:37:59 GMT 32.729511 -117.177322 0 99 3
2022-05-22 20:37:58 GMT 32.729542 -117.177353 0 90 4
2022-05-22 20:37:56 GMT 32.729530 -117.177368 0 91 4
2022-05-22 20:37:54 GMT 32.729549 -117.177399 0 90 6
2022-05-22 20:37:53 GMT 32.729511 -117.177467 0 111 4
2022-05-22 20:37:51 GMT 32.729511 -117.177483 0 113 6
2022-05-22 20:37:50 GMT 32.729530 -117.177559 0 116 3
2022-05-22 20:37:49 GMT 32.729542 -117.177567 0 110 3
2022-05-22 20:37:47 GMT 32.729561 -117.177567 0 104 3
2022-05-22 20:37:45 GMT 32.729561 -117.177612 0 112 4
2022-05-22 20:37:44 GMT 32.729561 -117.177628 0 112 4
2022-05-22 20:37:43 GMT 32.729568 -117.177643 0 115 4
2022-05-22 20:37:42 GMT 32.729591 -117.177689 0 118 3
2022-05-22 20:37:40 GMT 32.729599 -117.177696 0 118 2
2022-05-22 20:37:38 GMT 32.729599 -117.177727 0 104 4
2022-05-22 20:37:37 GMT 32.729599 -117.177750 0 98 4
2022-05-22 20:37:35 GMT 32.729630 -117.177773 0 106 4
2022-05-22 20:37:34 GMT 32.729610 -117.177811 0 102 4
2022-05-22 20:37:32 GMT 32.729641 -117.177834 0 91 3
2022-05-22 20:37:31 GMT 32.729660 -117.177841 0 90 3
2022-05-22 20:37:30 GMT 32.729671 -117.177856 0 100 5
2022-05-22 20:37:28 GMT 32.729660 -117.177887 0 110 3
2022-05-22 20:37:26 GMT 32.729649 -117.177933 0 110 3
2022-05-22 20:37:25 GMT 32.729671 -117.177948 0 109 3
2022-05-22 20:37:24 GMT 32.729679 -117.177979 0 109 1
2022-05-22 20:37:22 GMT 32.729671 -117.177971 0 110 3
2022-05-22 20:37:20 GMT 32.729671 -117.178001 0 108 3
2022-05-22 20:37:19 GMT 32.729679 -117.178001 0 105 4
2022-05-22 20:37:17 GMT 32.729698 -117.178040 0 110 3
2022-05-22 20:37:16 GMT 32.729698 -117.178062 0 114 3
2022-05-22 20:37:15 GMT 32.729698 -117.178093 0 115 1
2022-05-22 20:37:13 GMT 32.729691 -117.178101 0 117 2
2022-05-22 20:37:12 GMT 32.729698 -117.178123 0 119 2
2022-05-22 20:37:10 GMT 32.729710 -117.178131 0 121 2
2022-05-22 20:37:09 GMT 32.729698 -117.178146 0 122 1
2022-05-22 20:37:07 GMT 32.729698 -117.178162 0 122 3
2022-05-22 20:37:06 GMT 32.729691 -117.178177 0 122 3
2022-05-22 20:37:04 GMT 32.729710 -117.178200 0 118 3
2022-05-22 20:37:03 GMT 32.729721 -117.178207 0 116 3
2022-05-22 20:37:01 GMT 32.729729 -117.178238 0 116 3
2022-05-22 20:37:00 GMT 32.729740 -117.178253 0 117 3
2022-05-22 20:36:59 GMT 32.729729 -117.178261 0 118 4
2022-05-22 20:36:58 GMT 32.729771 -117.178299 0 95 4
2022-05-22 20:36:56 GMT 32.729790 -117.178299 0 93 5
2022-05-22 20:36:55 GMT 32.729778 -117.178360 0 104 1
2022-05-22 20:36:54 GMT 32.729752 -117.178368 0 116 5
2022-05-22 20:36:52 GMT 32.729759 -117.178398 0 113 4
2022-05-22 20:36:50 GMT 32.729790 -117.178429 0 106 2
2022-05-22 20:36:49 GMT 32.729790 -117.178452 0 106 3
2022-05-22 20:36:48 GMT 32.729809 -117.178482 0 123 3
2022-05-22 20:36:46 GMT 32.729790 -117.178497 0 131 3
2022-05-22 20:36:45 GMT 32.729820 -117.178513 0 119 4
2022-05-22 20:36:43 GMT 32.729832 -117.178543 0 120 4
2022-05-22 20:36:42 GMT 32.729839 -117.178551 0 115 4
2022-05-22 20:36:41 GMT 32.729851 -117.178589 0 109 4
2022-05-22 20:36:39 GMT 32.729870 -117.178596 0 105 5
2022-05-22 20:36:38 GMT 32.729881 -117.178658 0 104 5
2022-05-22 20:36:36 GMT 32.729900 -117.178688 0 99 5
2022-05-22 20:36:34 GMT 32.729900 -117.178741 0 100 6
2022-05-22 20:36:33 GMT 32.729900 -117.178772 0 99 6
2022-05-22 20:36:31 GMT 32.729919 -117.178833 0 96 5
2022-05-22 20:36:30 GMT 32.729919 -117.178841 0 97 8
2022-05-22 20:36:29 GMT 32.729931 -117.178932 0 109 6
2022-05-22 20:36:27 GMT 32.729900 -117.178970 0 117 6
2022-05-22 20:36:26 GMT 32.729919 -117.178993 0 114 6
2022-05-22 20:36:24 GMT 32.729950 -117.179047 0 112 6
2022-05-22 20:36:23 GMT 32.729969 -117.179123 0 115 5
2022-05-22 20:36:21 GMT 32.729980 -117.179138 0 112 5
2022-05-22 20:36:20 GMT 32.730011 -117.179192 0 100 4
2022-05-22 20:36:18 GMT 32.730019 -117.179207 0 95 3
2022-05-22 20:36:16 GMT 32.730030 -117.179230 0 94 4
2022-05-22 20:36:15 GMT 32.730030 -117.179260 0 100 3
2022-05-22 20:36:14 GMT 32.730030 -117.179291 0 112 3
2022-05-22 20:36:12 GMT 32.730019 -117.179329 0 112 2
2022-05-22 20:36:11 GMT 32.730019 -117.179337 0 112 2
2022-05-22 20:36:09 GMT 32.730042 -117.179337 0 113 3
2022-05-22 20:36:07 GMT 32.730030 -117.179367 0 115 3
2022-05-22 20:36:06 GMT 32.730030 -117.179398 0 117 3
2022-05-22 20:36:05 GMT 32.730042 -117.179413 0 114 3
2022-05-22 20:36:03 GMT 32.730068 -117.179420 0 113 3
2022-05-22 20:36:02 GMT 32.730080 -117.179451 0 112 3
2022-05-22 20:36:00 GMT 32.730091 -117.179459 0 112 2
2022-05-22 20:35:59 GMT 32.730099 -117.179482 0 113 2
2022-05-22 20:35:57 GMT 32.730099 -117.179497 0 116 3
2022-05-22 20:35:56 GMT 32.730068 -117.179497 0 119 3
2022-05-22 20:35:55 GMT 32.730049 -117.179550 0 118 3
2022-05-22 20:35:53 GMT 32.730068 -117.179558 0 115 3
2022-05-22 20:35:51 GMT 32.730091 -117.179581 0 103 3
2022-05-22 20:35:50 GMT 32.730110 -117.179581 0 88 3
2022-05-22 20:35:49 GMT 32.730129 -117.179611 0 88 0
2022-05-22 20:35:47 GMT 32.730141 -117.179611 0 88 2
2022-05-22 20:35:46 GMT 32.730129 -117.179649 0 88 1
2022-05-22 20:35:44 GMT 32.730129 -117.179642 0 89 1
2022-05-22 20:35:42 GMT 32.730122 -117.179626 0 103 5
2022-05-22 20:35:41 GMT 32.730122 -117.179657 0 121 3
2022-05-22 20:35:39 GMT 32.730110 -117.179710 0 123 1
2022-05-22 20:35:37 GMT 32.730099 -117.179733 0 121 2
2022-05-22 20:35:36 GMT 32.730122 -117.179718 0 118 3
2022-05-22 20:35:35 GMT 32.730122 -117.179733 0 112 4
2022-05-22 20:35:33 GMT 32.730160 -117.179764 0 96 4
2022-05-22 20:35:31 GMT 32.730160 -117.179779 0 105 4
2022-05-22 20:35:30 GMT 32.730148 -117.179817 0 108 2
2022-05-22 20:35:29 GMT 32.730141 -117.179817 0 114 5
2022-05-22 20:35:27 GMT 32.730160 -117.179848 0 111 5
2022-05-22 20:35:25 GMT 32.730171 -117.179916 0 116 4
2022-05-22 20:35:24 GMT 32.730179 -117.179932 0 108 4
2022-05-22 20:35:23 GMT 32.730190 -117.179947 0 101 4
2022-05-22 20:35:22 GMT 32.730221 -117.179977 0 101 6
2022-05-22 20:35:20 GMT 32.730190 -117.180031 0 107 4
2022-05-22 20:35:19 GMT 32.730209 -117.180031 0 103 5
2022-05-22 20:35:17 GMT 32.730221 -117.180092 0 102 5
2022-05-22 20:35:16 GMT 32.730251 -117.180138 0 89 6
2022-05-22 20:35:15 GMT 32.730251 -117.180183 0 90 6
2022-05-22 20:35:13 GMT 32.730259 -117.180199 0 98 7
2022-05-22 20:35:11 GMT 32.730209 -117.180283 0 125 6
2022-05-22 20:35:10 GMT 32.730221 -117.180313 0 121 6
2022-05-22 20:35:09 GMT 32.730259 -117.180351 0 110 6
2022-05-22 20:35:07 GMT 32.730289 -117.180382 0 102 6
2022-05-22 20:35:06 GMT 32.730309 -117.180443 0 97 6
2022-05-22 20:35:04 GMT 32.730309 -117.180481 0 98 5
2022-05-22 20:35:03 GMT 32.730320 -117.180519 0 100 5
2022-05-22 20:35:01 GMT 32.730301 -117.180580 0 120 7
2022-05-22 20:34:59 GMT 32.730301 -117.180588 0 119 10
2022-05-22 20:34:58 GMT 32.730331 -117.180641 0 113 9
2022-05-22 20:34:57 GMT 32.730381 -117.180702 0 102 11
2022-05-22 20:34:55 GMT 32.730412 -117.180748 0 97 11
2022-05-22 20:34:54 GMT 32.730419 -117.180878 0 98 11
2022-05-22 20:34:52 GMT 32.730431 -117.181000 0 105 11
2022-05-22 20:34:50 GMT 32.730419 -117.181068 0 112 10
2022-05-22 20:34:49 GMT 32.730419 -117.181099 0 112 13
2022-05-22 20:34:48 GMT 32.730499 -117.181252 0 106 10
2022-05-22 20:34:46 GMT 32.730511 -117.181343 0 109 13
2022-05-22 20:34:44 GMT 32.730541 -117.181396 0 103 13
2022-05-22 20:34:42 GMT 32.730560 -117.181572 0 113 10
2022-05-22 20:34:41 GMT 32.730579 -117.181587 0 107 13
2022-05-22 20:34:39 GMT 32.730621 -117.181740 0 105 12
2022-05-22 20:34:38 GMT 32.730598 -117.181824 0 112 12
2022-05-22 20:34:37 GMT 32.730652 -117.181931 0 103 12
2022-05-22 20:34:35 GMT 32.730679 -117.181992 0 102 12
2022-05-22 20:34:34 GMT 32.730690 -117.182121 0 105 13
2022-05-22 20:34:32 GMT 32.730740 -117.182167 0 102 14
2022-05-22 20:34:31 GMT 32.730770 -117.182312 0 97 14
2022-05-22 20:34:29 GMT 32.730770 -117.182381 0 99 16
2022-05-22 20:34:28 GMT 32.730770 -117.182549 0 116 11
2022-05-22 20:34:26 GMT 32.730801 -117.182602 0 114 12
2022-05-22 20:34:25 GMT 32.730831 -117.182663 0 104 12
2022-05-22 20:34:24 GMT 32.730881 -117.182777 0 101 13
2022-05-22 20:34:22 GMT 32.730888 -117.182854 0 105 13
2022-05-22 20:34:21 GMT 32.730919 -117.182991 0 107 12
2022-05-22 20:34:19 GMT 32.730919 -117.183052 0 109 13
2022-05-22 20:34:18 GMT 32.730942 -117.183113 0 108 13
2022-05-22 20:34:16 GMT 32.730999 -117.183243 0 102 12
2022-05-22 20:34:15 GMT 32.731010 -117.183372 0 105 12
2022-05-22 20:34:13 GMT 32.731022 -117.183441 0 105 12
2022-05-22 20:34:12 GMT 32.731071 -117.183563 0 102 12
2022-05-22 20:34:10 GMT 32.731060 -117.183640 0 108 11
2022-05-22 20:34:09 GMT 32.731098 -117.183746 0 104 11
2022-05-22 20:34:07 GMT 32.731121 -117.183800 0 103 12
2022-05-22 20:34:05 GMT 32.731152 -117.183899 0 99 14
2022-05-22 20:34:04 GMT 32.731152 -117.184021 0 109 10
2022-05-22 20:34:03 GMT 32.731178 -117.184113 0 102 13
2022-05-22 20:34:01 GMT 32.731209 -117.184181 0 99 12
2022-05-22 20:34:00 GMT 32.731201 -117.184311 0 112 15
2022-05-22 20:33:59 GMT 32.731251 -117.184410 0 107 12
2022-05-22 20:33:57 GMT 32.731289 -117.184464 0 101 11
2022-05-22 20:33:56 GMT 32.731312 -117.184578 0 101 13
2022-05-22 20:33:54 GMT 32.731300 -117.184631 0 102 15
2022-05-22 20:33:52 GMT 32.731319 -117.184807 0 113 14
2022-05-22 20:33:51 GMT 32.731339 -117.184891 0 116 13
2022-05-22 20:33:50 GMT 32.731361 -117.184959 0 114 12
2022-05-22 20:33:49 GMT 32.731441 -117.185059 0 101 13
2022-05-22 20:33:47 GMT 32.731449 -117.185120 0 101 14
2022-05-22 20:33:45 GMT 32.731480 -117.185272 0 101 16
2022-05-22 20:33:44 GMT 32.731480 -117.185364 0 105 15
2022-05-22 20:33:42 GMT 32.731522 -117.185539 0 103 14
2022-05-22 20:33:41 GMT 32.731522 -117.185631 0 109 14
2022-05-22 20:33:39 GMT 32.731548 -117.185753 0 111 17
2022-05-22 20:33:38 GMT 32.731579 -117.185860 0 112 16
2022-05-22 20:33:37 GMT 32.731621 -117.185944 0 108 14
2022-05-22 20:33:35 GMT 32.731659 -117.186081 0 107 17
2022-05-22 20:33:34 GMT 32.731701 -117.186256 0 107 17
2022-05-22 20:33:32 GMT 32.731720 -117.186363 0 111 15
2022-05-22 20:33:31 GMT 32.731789 -117.186501 0 103 17
2022-05-22 20:33:30 GMT 32.731800 -117.186600 0 105 16
2022-05-22 20:33:27 GMT 32.731850 -117.186768 0 104 16
2022-05-22 20:33:26 GMT 32.731869 -117.186859 0 103 16
2022-05-22 20:33:25 GMT 32.731911 -117.187019 0 102 16
2022-05-22 20:33:23 GMT 32.731918 -117.187103 0 103 18
2022-05-22 20:33:22 GMT 32.731960 -117.187309 0 105 15
2022-05-22 20:33:20 GMT 32.731979 -117.187370 0 103 18
2022-05-22 20:33:19 GMT 32.732029 -117.187576 0 100 14
2022-05-22 20:33:17 GMT 32.732040 -117.187630 0 100 18
2022-05-22 20:33:15 GMT 32.732059 -117.187851 0 110 15
2022-05-22 20:33:14 GMT 32.732079 -117.187912 0 111 18
2022-05-22 20:33:13 GMT 32.732121 -117.188011 0 108 16
2022-05-22 20:33:11 GMT 32.732159 -117.188171 0 108 17
2022-05-22 20:33:10 GMT 32.732208 -117.188263 0 104 16
2022-05-22 20:33:09 GMT 32.732262 -117.188454 0 100 14
2022-05-22 20:33:07 GMT 32.732269 -117.188499 0 100 17
2022-05-22 20:33:05 GMT 32.732288 -117.188660 0 101 18
2022-05-22 20:33:04 GMT 32.732281 -117.188789 0 110 16
2022-05-22 20:33:02 GMT 32.732342 -117.188972 0 111 14
2022-05-22 20:33:01 GMT 32.732361 -117.189018 0 112 17
2022-05-22 20:32:59 GMT 32.732422 -117.189201 0 108 17
2022-05-22 20:32:58 GMT 32.732449 -117.189293 0 107 16
2022-05-22 20:32:56 GMT 32.732498 -117.189468 0 108 18
2022-05-22 20:32:55 GMT 32.732552 -117.189583 0 102 15
2022-05-22 20:32:53 GMT 32.732578 -117.189751 0 99 13
2022-05-22 20:32:52 GMT 32.732571 -117.189789 0 104 17
2022-05-22 20:32:50 GMT 32.732620 -117.190010 0 106 15
2022-05-22 20:32:49 GMT 32.732620 -117.190071 0 109 17
2022-05-22 20:32:47 GMT 32.732670 -117.190239 0 109 18
2022-05-22 20:32:46 GMT 32.732712 -117.190331 0 106 16
2022-05-22 20:32:45 GMT 32.732731 -117.190392 0 104 18
2022-05-22 20:32:43 GMT 32.732792 -117.190590 0 99 17
2022-05-22 20:32:42 GMT 32.732792 -117.190681 0 103 17
2022-05-22 20:32:40 GMT 32.732841 -117.190872 0 99 15
2022-05-22 20:32:39 GMT 32.732841 -117.190933 0 102 17
2022-05-22 20:32:38 GMT 32.732841 -117.191032 0 109 18
2022-05-22 20:32:36 GMT 32.732899 -117.191223 0 108 15
2022-05-22 20:32:35 GMT 32.732910 -117.191269 0 108 19
2022-05-22 20:32:34 GMT 32.732979 -117.191467 0 103 17
2022-05-22 20:32:32 GMT 32.732990 -117.191559 0 105 17
2022-05-22 20:32:31 GMT 32.733009 -117.191727 0 110 18
2022-05-22 20:32:29 GMT 32.733051 -117.191841 0 108 16
2022-05-22 20:32:28 GMT 32.733109 -117.192009 0 105 16
2022-05-22 20:32:26 GMT 32.733139 -117.192101 0 102 15
2022-05-22 20:32:24 GMT 32.733158 -117.192253 0 103 19
2022-05-22 20:32:23 GMT 32.733181 -117.192368 0 104 17
2022-05-22 20:32:21 GMT 32.733219 -117.192574 0 108 16
2022-05-22 20:32:20 GMT 32.733250 -117.192673 0 109 14
2022-05-22 20:32:18 GMT 32.733280 -117.192780 0 108 18
2022-05-22 20:32:16 GMT 32.733330 -117.192993 0 110 14
2022-05-22 20:32:15 GMT 32.733360 -117.193062 0 105 15
2022-05-22 20:32:14 GMT 32.733398 -117.193222 0 103 15
2022-05-22 20:32:12 GMT 32.733429 -117.193314 0 101 13
2022-05-22 20:32:10 GMT 32.733429 -117.193420 0 107 16
2022-05-22 20:32:09 GMT 32.733459 -117.193520 0 106 15
2022-05-22 20:32:07 GMT 32.733490 -117.193703 0 110 10
2022-05-22 20:32:06 GMT 32.733521 -117.193733 0 103 12
2022-05-22 20:32:04 GMT 32.733551 -117.193848 0 102 12
2022-05-22 20:32:03 GMT 32.733551 -117.193939 0 102 10
2022-05-22 20:32:01 GMT 32.733608 -117.194031 0 87 10
2022-05-22 20:32:00 GMT 32.733620 -117.194092 0 82 11
2022-05-22 20:31:58 GMT 32.733620 -117.194191 0 75 11
2022-05-22 20:31:57 GMT 32.733608 -117.194267 0 71 10
2022-05-22 20:31:56 GMT 32.733601 -117.194313 0 72 11
2022-05-22 20:31:54 GMT 32.733559 -117.194427 0 69 9
2022-05-22 20:31:53 GMT 32.733559 -117.194542 0 48 9
2022-05-22 20:31:51 GMT 32.733540 -117.194588 0 37 8
2022-05-22 20:31:50 GMT 32.733521 -117.194618 0 39 8
2022-05-22 20:31:48 GMT 32.733471 -117.194656 0 36 9
2022-05-22 20:31:47 GMT 32.733429 -117.194710 0 31 8
2022-05-22 20:31:45 GMT 32.733341 -117.194778 0 32 6
2022-05-22 20:31:43 GMT 32.733250 -117.194817 0 83 2
2022-05-22 20:31:42 GMT 32.733250 -117.194832 0 99 3
2022-05-22 20:31:40 GMT 32.733231 -117.194847 0 128 3
2022-05-22 20:31:39 GMT 32.733150 -117.194870 0 134 0
2022-05-22 20:31:36 GMT 32.733139 -117.194870 0 134 0
2022-05-22 20:31:34 GMT 32.733150 -117.194870 0 134 0
2022-05-22 20:31:33 GMT 32.733139 -117.194870 0 134 0
2022-05-22 20:31:29 GMT 32.733139 -117.194870 0 134 0
2022-05-22 20:31:27 GMT 32.733131 -117.194878 0 134 0
2022-05-22 20:31:26 GMT 32.733120 -117.194893 0 134 1
2022-05-22 20:31:22 GMT 32.733150 -117.194847 0 133 0
2022-05-22 20:31:19 GMT 32.733150 -117.194862 0 133 0
2022-05-22 20:31:18 GMT 32.733139 -117.194870 0 133 0
2022-05-22 20:31:16 GMT 32.733139 -117.194870 0 130 0
2022-05-22 20:31:13 GMT 32.733139 -117.194862 0 130 0
2022-05-22 20:31:11 GMT 32.733139 -117.194847 0 130 0
2022-05-22 20:31:09 GMT 32.733150 -117.194862 0 130 0
2022-05-22 20:31:07 GMT 32.733150 -117.194847 0 130 0
2022-05-22 20:31:03 GMT 32.733139 -117.194862 0 132 1
2022-05-22 20:31:02 GMT 32.733120 -117.194832 0 133 2
2022-05-22 20:31:00 GMT 32.733131 -117.194862 0 133 0
2022-05-22 20:30:57 GMT 32.733120 -117.194878 0 133 0
2022-05-22 20:30:56 GMT 32.733109 -117.194878 0 133 0
2022-05-22 20:30:53 GMT 32.733120 -117.194870 0 133 1
2022-05-22 20:30:52 GMT 32.733131 -117.194878 0 133 1
2022-05-22 20:30:49 GMT 32.733120 -117.194862 0 133 1
2022-05-22 20:30:47 GMT 32.733109 -117.194878 0 133 0
2022-05-22 20:30:46 GMT 32.733089 -117.194893 0 132 2
2022-05-22 20:30:44 GMT 32.733101 -117.194901 0 131 2
2022-05-22 20:30:42 GMT 32.733120 -117.194870 0 131 1
2022-05-22 20:30:41 GMT 32.733131 -117.194862 0 131 1
2022-05-22 20:30:37 GMT 32.733131 -117.194878 0 132 1
2022-05-22 20:30:33 GMT 32.733131 -117.194878 0 131 1
2022-05-22 20:30:30 GMT 32.733131 -117.194862 0 131 0
2022-05-22 20:30:29 GMT 32.733150 -117.194832 0 131 1
2022-05-22 20:30:27 GMT 32.733139 -117.194839 0 131 1
2022-05-22 20:30:24 GMT 32.733131 -117.194878 0 131 0
2022-05-22 20:30:20 GMT 32.733131 -117.194870 0 131 0
2022-05-22 20:30:19 GMT 32.733120 -117.194878 0 131 0
2022-05-22 20:30:17 GMT 32.733131 -117.194870 0 131 0
2022-05-22 20:30:16 GMT 32.733131 -117.194862 0 131 0
2022-05-22 20:30:14 GMT 32.733120 -117.194862 0 131 0
2022-05-22 20:30:12 GMT 32.733131 -117.194862 0 131 0
2022-05-22 20:30:10 GMT 32.733158 -117.194862 0 131 1
2022-05-22 20:30:08 GMT 32.733150 -117.194862 0 131 1
2022-05-22 20:30:05 GMT 32.733131 -117.194862 0 131 0
2022-05-22 20:30:04 GMT 32.733139 -117.194862 0 131 1
2022-05-22 20:30:01 GMT 32.733120 -117.194870 0 131 0
2022-05-22 20:29:57 GMT 32.733131 -117.194870 0 130 0
2022-05-22 20:29:54 GMT 32.733139 -117.194862 0 130 0
2022-05-22 20:29:45 GMT 32.733131 -117.194870 0 130 0
2022-05-22 20:29:43 GMT 32.733139 -117.194870 0 130 0
2022-05-22 20:29:41 GMT 32.733139 -117.194870 0 130 0
2022-05-22 20:29:37 GMT 32.733139 -117.194862 0 130 0
2022-05-22 20:29:33 GMT 32.733131 -117.194878 0 130 1
2022-05-22 20:29:28 GMT 32.733131 -117.194878 0 130 0
2022-05-22 20:29:25 GMT 32.733131 -117.194870 0 130 0
2022-05-22 20:29:22 GMT 32.733139 -117.194862 0 130 0
2022-05-22 20:29:21 GMT 32.733131 -117.194878 0 130 0
2022-05-22 20:29:19 GMT 32.733131 -117.194878 0 130 0
2022-05-22 20:29:17 GMT 32.733150 -117.194862 0 130 0
2022-05-22 20:29:14 GMT 32.733139 -117.194862 0 130 0
2022-05-22 20:29:12 GMT 32.733120 -117.194878 0 130 0
2022-05-22 20:29:11 GMT 32.733109 -117.194878 0 129 1
2022-05-22 20:29:09 GMT 32.733131 -117.194870 0 129 0
2022-05-22 20:29:06 GMT 32.733139 -117.194862 0 129 0
2022-05-22 20:29:02 GMT 32.733139 -117.194847 0 129 0
2022-05-22 20:28:58 GMT 32.733131 -117.194870 0 129 0
2022-05-22 20:28:55 GMT 32.733120 -117.194878 0 129 0
2022-05-22 20:28:52 GMT 32.733120 -117.194870 0 129 0
2022-05-22 20:28:44 GMT 32.733120 -117.194878 0 129 0
2022-05-22 20:28:40 GMT 32.733120 -117.194870 0 129 0
2022-05-22 20:28:29 GMT 32.733120 -117.194878 0 128 0
2022-05-22 20:28:27 GMT 32.733120 -117.194870 0 125 0
2022-05-22 20:28:25 GMT 32.733120 -117.194878 0 125 0
2022-05-22 20:28:24 GMT 32.733109 -117.194878 0 125 0
2022-05-22 20:28:19 GMT 32.733120 -117.194878 0 124 0
2022-05-22 20:28:17 GMT 32.733109 -117.194893 0 124 0
2022-05-22 20:28:16 GMT 32.733109 -117.194878 0 123 0
2022-05-22 20:28:15 GMT 32.733131 -117.194878 0 123 0
2022-05-22 20:28:13 GMT 32.733120 -117.194870 0 123 1
2022-05-22 20:28:11 GMT 32.733120 -117.194893 0 119 2
2022-05-22 20:28:10 GMT 32.733139 -117.194870 0 119 2
2022-05-22 20:28:08 GMT 32.733150 -117.194893 0 119 1
2022-05-22 20:28:07 GMT 32.733150 -117.194878 0 121 4
2022-05-22 20:28:05 GMT 32.733158 -117.194893 0 117 4
2022-05-22 20:28:04 GMT 32.733181 -117.194939 0 109 3
2022-05-22 20:28:02 GMT 32.733189 -117.194969 0 104 2
2022-05-22 20:28:01 GMT 32.733219 -117.194946 0 103 4
2022-05-22 20:27:59 GMT 32.733238 -117.195030 0 102 3
2022-05-22 20:27:58 GMT 32.733250 -117.195061 0 100 3
2022-05-22 20:27:56 GMT 32.733250 -117.195091 0 97 3
2022-05-22 20:27:54 GMT 32.733269 -117.195129 0 95 3
2022-05-22 20:27:53 GMT 32.733269 -117.195137 0 95 3
2022-05-22 20:27:52 GMT 32.733269 -117.195160 0 95 3
2022-05-22 20:27:50 GMT 32.733280 -117.195183 0 94 3
2022-05-22 20:27:49 GMT 32.733292 -117.195198 0 94 3
2022-05-22 20:27:47 GMT 32.733299 -117.195221 0 90 3
2022-05-22 20:27:46 GMT 32.733311 -117.195259 0 86 3
2022-05-22 20:27:44 GMT 32.733311 -117.195267 0 84 3
2022-05-22 20:27:43 GMT 32.733318 -117.195312 0 83 3
2022-05-22 20:27:41 GMT 32.733330 -117.195320 0 81 3
2022-05-22 20:27:40 GMT 32.733330 -117.195343 0 80 3
2022-05-22 20:27:38 GMT 32.733341 -117.195374 0 77 3
2022-05-22 20:27:37 GMT 32.733341 -117.195389 0 76 3
2022-05-22 20:27:35 GMT 32.733349 -117.195419 0 76 3
2022-05-22 20:27:34 GMT 32.733349 -117.195427 0 76 3
2022-05-22 20:27:33 GMT 32.733349 -117.195457 0 78 3
2022-05-22 20:27:31 GMT 32.733341 -117.195480 0 80 3
2022-05-22 20:27:30 GMT 32.733330 -117.195511 0 82 3
2022-05-22 20:27:28 GMT 32.733318 -117.195534 0 84 3
2022-05-22 20:27:27 GMT 32.733318 -117.195557 0 88 3
2022-05-22 20:27:26 GMT 32.733311 -117.195557 0 90 4
2022-05-22 20:27:16 GMT 32.733231 -117.195732 0 239 4
2022-05-22 20:27:04 GMT 32.733124 -117.195801 0 227 0
2022-05-22 20:25:59 GMT 32.733124 -117.195747 0 227 0
2022-05-22 20:25:24 GMT 32.733135 -117.195747 0 227 0
2022-05-22 20:25:08 GMT 32.733135 -117.195732 0 227 0
2022-05-22 20:24:44 GMT 32.733135 -117.195747 0 227 0
2022-05-22 20:24:33 GMT 32.733135 -117.195732 0 227 0
2022-05-22 20:23:40 GMT 32.733124 -117.195732 0 227 0
2022-05-22 20:23:31 GMT 32.733044 -117.195686 0 227 0
2022-05-22 20:23:23 GMT 32.733032 -117.195671 0 227 0
2022-05-22 20:23:08 GMT 32.733124 -117.195732 0 227 0
2022-05-22 20:22:04 GMT 32.733124 -117.195747 0 227 0
2022-05-22 20:20:55 GMT 32.733124 -117.195747 0 227 0
2022-05-22 20:20:40 GMT 32.733124 -117.195747 0 227 0
2022-05-22 20:20:20 GMT 32.733124 -117.195747 0 227 0
2022-05-22 20:20:10 GMT 32.733124 -117.195747 0 227 0
2022-05-22 20:19:40 GMT 32.733124 -117.195732 0 227 0
2022-05-22 20:19:09 GMT 32.733124 -117.195732 0 227 0
2022-05-22 20:18:49 GMT 32.733124 -117.195732 0 227 0
2022-05-22 20:18:19 GMT 32.733124 -117.195747 0 227 0
2022-05-22 20:17:29 GMT 32.733124 -117.195732 0 227 0
2022-05-22 20:17:04 GMT 32.733124 -117.195747 0 227 0
2022-05-22 20:16:48 GMT 32.733124 -117.195732 0 227 0
2022-05-22 20:16:34 GMT 32.733124 -117.195724 0 227 0
2022-05-22 20:15:44 GMT 32.733124 -117.195732 0 227 0
2022-05-22 20:15:35 GMT 32.733124 -117.195732 0 227 0
2022-05-22 20:15:00 GMT 32.733124 -117.195747 0 227 0
2022-05-22 20:14:44 GMT 32.733124 -117.195732 0 227 0
2022-05-22 20:14:40 GMT 32.733124 -117.195747 0 227 0
2022-05-22 20:14:29 GMT 32.733124 -117.195732 0 227 0
2022-05-22 20:14:06 GMT 32.733112 -117.195732 0 227 0
2022-05-22 20:13:05 GMT 32.733112 -117.195747 0 227 0
2022-05-22 20:12:41 GMT 32.733112 -117.195732 0 227 0
2022-05-22 20:12:16 GMT 32.733112 -117.195747 0 227 0
2022-05-22 20:11:55 GMT 32.733124 -117.195747 0 227 0
2022-05-22 20:11:51 GMT 32.733124 -117.195747 0 227 0
2022-05-22 20:11:36 GMT 32.733124 -117.195732 0 227 0
2022-05-22 20:11:25 GMT 32.733124 -117.195747 0 227 0
2022-05-22 20:11:16 GMT 32.733124 -117.195732 0 227 0
2022-05-22 20:10:25 GMT 32.733124 -117.195747 0 227 0
2022-05-22 20:09:51 GMT 32.733124 -117.195732 0 227 0
2022-05-22 20:08:57 GMT 32.733124 -117.195747 0 227 0
2022-05-22 20:06:27 GMT 32.733112 -117.195747 0 227 0
2022-05-22 20:05:36 GMT 32.733112 -117.195732 0 227 0
2022-05-22 20:04:47 GMT 32.733124 -117.195732 0 227 0
2022-05-22 20:04:41 GMT 32.733124 -117.195732 0 227 0
2022-05-22 20:04:22 GMT 32.733124 -117.195732 0 227 0
2022-05-22 20:04:07 GMT 32.733124 -117.195732 0 227 0
2022-05-22 20:03:58 GMT 32.733124 -117.195732 0 227 0
2022-05-22 20:03:48 GMT 32.733124 -117.195732 0 227 0
2022-05-22 20:03:07 GMT 32.733124 -117.195732 0 227 0
2022-05-22 20:02:58 GMT 32.733124 -117.195747 0 227 0
2022-05-22 20:02:42 GMT 32.733124 -117.195732 0 227 0
2022-05-22 20:02:04 GMT 32.733124 -117.195747 0 227 0
2022-05-22 20:01:14 GMT 32.733124 -117.195732 0 227 0
We lost coverage of the aircraft here for a total of 25 minutes
2022-05-22 19:36:41 GMT 32.733559 -117.195221 0 147 3 -64
2022-05-22 19:36:40 GMT 32.733582 -117.195198 0 147 3 -64
2022-05-22 19:36:38 GMT 32.733589 -117.195190 0 147 3 -64
2022-05-22 19:36:37 GMT 32.733589 -117.195160 0 147 3 -64
2022-05-22 19:36:35 GMT 32.733608 -117.195229 0 144 6 -64
2022-05-22 19:36:34 GMT 32.733620 -117.195221 0 117 7 -64
2022-05-22 19:36:32 GMT 32.733620 -117.195152 0 117 6 -64
2022-05-22 19:36:31 GMT 32.733608 -117.195122 0 117 6 -64
2022-05-22 19:36:29 GMT 32.733662 -117.195091 0 117 6 -64
2022-05-22 19:36:28 GMT 32.733688 -117.195000 0 117 9 -64
2022-05-22 19:36:26 GMT 32.733749 -117.195007 0 111 11 -64
2022-05-22 19:36:25 GMT 32.733791 -117.195030 0 108 12 -64
2022-05-22 19:36:23 GMT 32.733841 -117.195107 0 105 14 -64
2022-05-22 19:36:22 GMT 32.733879 -117.195236 0 105 14 -64
2022-05-22 19:36:19 GMT 32.733910 -117.195381 0 106 14 -64
2022-05-22 19:36:18 GMT 32.733929 -117.195457 0 106 14 -64
2022-05-22 19:36:17 GMT 32.733940 -117.195534 0 107 14 -64
2022-05-22 19:36:16 GMT 32.733959 -117.195610 0 108 14 -64
2022-05-22 19:36:14 GMT 32.734001 -117.195747 0 107 15 -64
2022-05-22 19:36:13 GMT 32.734020 -117.195831 0 107 15 -64
2022-05-22 19:36:11 GMT 32.734070 -117.195976 0 106 15 -64
2022-05-22 19:36:10 GMT 32.734119 -117.196136 0 104 14 -64
2022-05-22 19:36:08 GMT 32.734131 -117.196220 0 105 14 -64
2022-05-22 19:36:07 GMT 32.734180 -117.196373 0 103 14 -64
2022-05-22 19:36:05 GMT 32.734200 -117.196442 0 103 14 -64
2022-05-22 19:36:04 GMT 32.734211 -117.196518 0 103 14 -64
2022-05-22 19:36:03 GMT 32.734241 -117.196678 0 103 14 -64
2022-05-22 19:36:01 GMT 32.734249 -117.196762 0 103 14 -64
2022-05-22 19:36:00 GMT 32.734280 -117.196808 0 102 14 -64
2022-05-22 19:35:58 GMT 32.734329 -117.196922 0 101 14 -64
2022-05-22 19:35:57 GMT 32.734341 -117.196968 0 101 14 -64
2022-05-22 19:35:55 GMT 32.734371 -117.197098 0 99 14 -64
2022-05-22 19:35:53 GMT 32.734402 -117.197243 0 96 15 -64
2022-05-22 19:35:52 GMT 32.734421 -117.197319 0 94 15 -64
2022-05-22 19:35:51 GMT 32.734451 -117.197495 0 104 14 0
2022-05-22 19:35:51 GMT 32.734402 -117.197418 0 105 14 -64
2022-05-22 19:35:50 GMT 32.734451 -117.197495 0 104 14 0
2022-05-22 19:35:49 GMT 32.734440 -117.197578 0 103 12 -64
2022-05-22 19:35:47 GMT 32.734451 -117.197723 0 103 10 -64
2022-05-22 19:35:46 GMT 32.734489 -117.197731 0 97 15 -64
2022-05-22 19:35:44 GMT 32.734482 -117.197899 0 121 13 -64
2022-05-22 19:35:43 GMT 32.734489 -117.197990 0 124 11 -64
2022-05-22 19:35:42 GMT 32.734558 -117.198067 0 119 12 -64
2022-05-22 19:35:40 GMT 32.734589 -117.198120 0 127 11 -64
2022-05-22 19:35:38 GMT 32.734638 -117.198219 0 143 11 -64
2022-05-22 19:35:37 GMT 32.734650 -117.198288 0 156 11 -64
2022-05-22 19:35:36 GMT 32.734741 -117.198311 0 159 12 -64
2022-05-22 19:35:34 GMT 32.734829 -117.198349 0 188 11 -64
2022-05-22 19:35:32 GMT 32.734859 -117.198380 0 199 12 -64
2022-05-22 19:35:31 GMT 32.734928 -117.198349 0 202 11 -64
2022-05-22 19:35:30 GMT 32.735020 -117.198341 0 224 14 -64
2022-05-22 19:35:28 GMT 32.735050 -117.198280 0 223 15 -64
2022-05-22 19:35:26 GMT 32.735119 -117.198174 0 229 18 -64
2022-05-22 19:35:25 GMT 32.735168 -117.198097 0 235 19 -64
2022-05-22 19:35:23 GMT 32.735260 -117.197929 0 247 20 -64
2022-05-22 19:35:22 GMT 32.735298 -117.197830 0 253 21 -64
2022-05-22 19:35:20 GMT 32.735401 -117.197578 0 275 20 -64
2022-05-22 19:35:19 GMT 32.735371 -117.197327 0 278 22 -64
2022-05-22 19:35:17 GMT 32.735378 -117.197212 0 284 26 -64
2022-05-22 19:35:16 GMT 32.735310 -117.197060 0 279 28 -64
2022-05-22 19:35:14 GMT 32.735260 -117.196747 0 282 37 -64
2022-05-22 19:35:13 GMT 32.735241 -117.196541 0 286 41 -64
2022-05-22 19:35:12 GMT 32.735161 -117.196068 0 288 49 -64
2022-05-22 19:35:10 GMT 32.735088 -117.195831 0 288 55 -64
2022-05-22 19:35:09 GMT 32.735001 -117.195549 0 286 61 -64
2022-05-22 19:35:07 GMT 32.734840 -117.194923 0 286 72 288
2022-05-22 19:35:06 GMT 32.734741 -117.194550 0 285 77 288
2022-05-22 19:35:04 GMT 32.734539 -117.193764 -125 285 89 288
2022-05-22 19:35:03 GMT 32.734341 -117.192818 -125 285 99 288
2022-05-22 19:35:01 GMT 32.734219 -117.192352 -125 285 108 -32
2022-05-22 19:35:00 GMT 32.734100 -117.191811 -125 285 112 -32
2022-05-22 19:34:58 GMT 32.733822 -117.190659 -100 286 121 64
2022-05-22 19:34:57 GMT 32.733521 -117.189423 -100 286 128 64
2022-05-22 19:34:55 GMT 32.733360 -117.188766 -100 286 131 64
2022-05-22 19:34:53 GMT 32.733009 -117.187408 -100 285 135 64
2022-05-22 19:34:52 GMT 32.732849 -117.186699 -100 285 135 64
2022-05-22 19:34:51 GMT 32.732521 -117.185226 -50 286 135 -832
2022-05-22 19:34:49 GMT 32.732349 -117.184570 -50 286 139 -832
2022-05-22 19:34:47 GMT 32.731972 -117.183090 -50 285 138 -832
2022-05-22 19:34:46 GMT 32.731812 -117.182373 -50 285 140 -832
2022-05-22 19:34:45 GMT 32.731461 -117.180878 -25 285 141 -832
2022-05-22 19:34:43 GMT 32.731300 -117.180122 -25 286 139 -832
2022-05-22 19:34:42 GMT 32.731121 -117.179382 -25 286 137 -832
2022-05-22 19:34:40 GMT 32.730740 -117.177948 25 284 140 -832
2022-05-22 19:34:39 GMT 32.730610 -117.177223 25 286 143 -832
2022-05-22 19:34:38 GMT 32.730431 -117.176468 75 286 142 -736
2022-05-22 19:34:37 GMT 32.730042 -117.174957 75 284 136 -736
2022-05-22 19:34:35 GMT 32.729919 -117.174271 125 286 146 -736
2022-05-22 19:34:34 GMT 32.729519 -117.172729 125 285 138 -736
2022-05-22 19:34:32 GMT 32.729359 -117.171997 175 285 140 -736
2022-05-22 19:34:30 GMT 32.729019 -117.170540 175 286 142 -736
2022-05-22 19:34:29 GMT 32.728840 -117.169762 175 285 138 -736
2022-05-22 19:34:27 GMT 32.728470 -117.168297 250 285 139 -736
2022-05-22 19:34:26 GMT 32.728340 -117.167603 250 287 145 -736
2022-05-22 19:34:25 GMT 32.728119 -117.166840 300 285 143 -736
2022-05-22 19:34:23 GMT 32.727791 -117.165352 300 286 142 -736
2022-05-22 19:34:22 GMT 32.727390 -117.163857 300 286 140 -736
2022-05-22 19:34:20 GMT 32.727200 -117.163139 400 286 141 -736
2022-05-22 19:34:19 GMT 32.726860 -117.161697 400 286 145 -736
2022-05-22 19:34:17 GMT 32.726681 -117.160988 400 286 150 -736
2022-05-22 19:34:15 GMT 32.726269 -117.159431 500 286 144 -736
2022-05-22 19:34:14 GMT 32.726101 -117.158669 500 286 143 -736
2022-05-22 19:34:12 GMT 32.725700 -117.157204 500 284 144 -736
2022-05-22 19:34:11 GMT 32.725529 -117.156387 500 285 138 -736
2022-05-22 19:34:09 GMT 32.725182 -117.154938 600 286 141 -736
2022-05-22 19:34:08 GMT 32.725010 -117.154213 600 287 143 -736
2022-05-22 19:34:06 GMT 32.724609 -117.152710 600 285 140 -736
2022-05-22 19:34:05 GMT 32.724419 -117.152023 575 284 144 -736
2022-05-22 19:34:03 GMT 32.724098 -117.150543 575 286 147 -736
2022-05-22 19:34:02 GMT 32.723862 -117.149727 600 285 143 -736
2022-05-22 19:34:01 GMT 32.723652 -117.148949 600 284 140 -736
2022-05-22 19:33:59 GMT 32.723389 -117.147469 700 287 142 -736
2022-05-22 19:33:58 GMT 32.723141 -117.146751 700 284 142 -736
2022-05-22 19:33:56 GMT 32.722832 -117.145149 700 287 135 -736
2022-05-22 19:33:55 GMT 32.722450 -117.143799 700 285 141 -736
2022-05-22 19:33:52 GMT 32.722118 -117.142288 700 286 140 -736
2022-05-22 19:33:50 GMT 32.721779 -117.140831 750 287 141 -736
2022-05-22 19:33:49 GMT 32.721550 -117.140091 800 286 140 -736
2022-05-22 19:33:48 GMT 32.721161 -117.138618 800 285 140 -736
2022-05-22 19:33:46 GMT 32.720959 -117.137863 800 285 138 -736
2022-05-22 19:33:45 GMT 32.720650 -117.136429 1,400 286 141 -736
2022-05-22 19:33:43 GMT 32.720459 -117.135658 1,400 286 139 -736
2022-05-22 19:33:41 GMT 32.720100 -117.134232 1,400 286 141 -736
2022-05-22 19:33:40 GMT 32.719921 -117.133499 1,400 286 141 -736
2022-05-22 19:33:39 GMT 32.719730 -117.132751 1,400 286 141 -736
2022-05-22 19:33:37 GMT 32.719360 -117.131287 1,400 286 143 -832
2022-05-22 19:33:36 GMT 32.719170 -117.130569 1,400 286 144 -832
2022-05-22 19:33:35 GMT 32.718761 -117.129066 1,400 285 144 -832
2022-05-22 19:33:33 GMT 32.718571 -117.128288 1,400 285 142 -832
2022-05-22 19:33:32 GMT 32.718231 -117.126823 1,400 286 144 -832
2022-05-22 19:33:30 GMT 32.718029 -117.126060 1,400 285 144 -832
2022-05-22 19:33:29 GMT 32.717659 -117.124527 1,400 285 144 -832
2022-05-22 19:33:27 GMT 32.717468 -117.123772 1,400 285 144 -832
2022-05-22 19:33:26 GMT 32.717121 -117.122261 1,400 286 145 -832
2022-05-22 19:33:24 GMT 32.716930 -117.121483 1,400 286 144 -832
2022-05-22 19:33:23 GMT 32.716770 -117.120720 1,400 286 145 -832
2022-05-22 19:33:21 GMT 32.716400 -117.119232 1,400 287 146 -832
2022-05-22 19:33:20 GMT 32.716202 -117.118462 1,400 286 145 -832
2022-05-22 19:33:19 GMT 32.715981 -117.117722 1,400 286 146 -832
2022-05-22 19:33:17 GMT 32.715549 -117.116173 1,400 285 145 -832
2022-05-22 19:33:16 GMT 32.715199 -117.114677 1,400 285 147 -832
2022-05-22 19:33:14 GMT 32.715012 -117.113892 1,400 285 147 -832
2022-05-22 19:33:13 GMT 32.714840 -117.113136 1,400 285 149 -832
2022-05-22 19:33:12 GMT 32.714451 -117.111610 1,400 284 150 -832
2022-05-22 19:33:10 GMT 32.714298 -117.110832 1,400 285 152 -832
2022-05-22 19:33:09 GMT 32.713940 -117.109222 1,400 286 152 -832
2022-05-22 19:33:07 GMT 32.713772 -117.108398 1,400 286 151 -832
2022-05-22 19:33:05 GMT 32.713371 -117.106880 1,500 286 156 -832
2022-05-22 19:33:04 GMT 32.713150 -117.106049 1,500 285 155 -832
2022-05-22 19:33:02 GMT 32.712742 -117.104401 1,500 285 153 -832
2022-05-22 19:33:01 GMT 32.712528 -117.103630 1,600 284 155 -832
2022-05-22 19:33:00 GMT 32.712170 -117.101967 1,600 285 155 -832
2022-05-22 19:32:58 GMT 32.711960 -117.101158 1,600 284 154 -832
2022-05-22 19:32:57 GMT 32.711590 -117.099571 1,700 284 157 -832
2022-05-22 19:32:55 GMT 32.711430 -117.098747 1,700 284 159 -832
2022-05-22 19:32:53 GMT 32.711048 -117.097092 1,700 284 161 -832
2022-05-22 19:32:52 GMT 32.710892 -117.096230 1,700 284 161 -832
2022-05-22 19:32:50 GMT 32.710522 -117.094543 1,700 284 162 -832
2022-05-22 19:32:49 GMT 32.710312 -117.093674 1,700 284 161 -832
2022-05-22 19:32:47 GMT 32.709949 -117.091927 1,700 284 160 -832
2022-05-22 19:32:46 GMT 32.709782 -117.091141 1,800 284 163 -832
2022-05-22 19:32:45 GMT 32.709591 -117.090286 1,800 284 165 -832
2022-05-22 19:32:44 GMT 32.709179 -117.088539 1,800 284 164 -832
2022-05-22 19:32:42 GMT 32.709000 -117.087662 1,800 285 163 -832
2022-05-22 19:32:41 GMT 32.708611 -117.085938 1,900 285 165 -832
2022-05-22 19:32:39 GMT 32.708431 -117.085083 1,900 285 166 -832
2022-05-22 19:32:38 GMT 32.708031 -117.083321 1,900 285 166 -1120
2022-05-22 19:32:36 GMT 32.707851 -117.082481 2,000 285 169 -1120
2022-05-22 19:32:34 GMT 32.707432 -117.080681 2,000 286 169 -1120
2022-05-22 19:32:33 GMT 32.707199 -117.079788 2,000 285 168 -1120
2022-05-22 19:32:31 GMT 32.706779 -117.078049 2,100 285 171 -1120
2022-05-22 19:32:30 GMT 32.706348 -117.076233 2,100 286 171 -1120
2022-05-22 19:32:28 GMT 32.706139 -117.075333 2,100 286 171 -1120
2022-05-22 19:32:27 GMT 32.705688 -117.073578 2,200 286 173 -1120
2022-05-22 19:32:25 GMT 32.705448 -117.072601 2,200 286 169 -1120
2022-05-22 19:32:24 GMT 32.705231 -117.071709 2,200 286 169 -1120
2022-05-22 19:32:22 GMT 32.704781 -117.069847 2,200 287 166 -1120
2022-05-22 19:32:21 GMT 32.704350 -117.068138 2,300 287 174 -1120
2022-05-22 19:32:19 GMT 32.704128 -117.067253 2,300 288 177 -1120
2022-05-22 19:32:18 GMT 32.703892 -117.066391 2,300 288 181 -1120
2022-05-22 19:32:16 GMT 32.703419 -117.064667 2,300 287 191 -1120
2022-05-22 19:32:13 GMT 32.702499 -117.061195 2,300 287 176 -1024
2022-05-22 19:32:07 GMT 32.701038 -117.055458 2,425 286 177 -1152
2022-05-22 19:32:02 GMT 32.700153 -117.051704 2,500 286 179 -1088
2022-05-22 19:31:59 GMT 32.699409 -117.048561 2,550 286 181 -1024
2022-05-22 19:31:56 GMT 32.698608 -117.045265 2,600 286 182 -1024
2022-05-22 19:31:51 GMT 32.697464 -117.040482 2,700 288 185 -1216
2022-05-22 19:31:46 GMT 32.696274 -117.036034 2,800 288 188 -1280
2022-05-22 19:31:43 GMT 32.695587 -117.033508 2,850 288 189 -1344
2022-05-22 19:31:39 GMT 32.694336 -117.028831 2,950 288 192 -1152
2022-05-22 19:31:35 GMT 32.693115 -117.024338 3,050 288 193 -1216
2022-05-22 19:31:27 GMT 32.691147 -117.017082 3,200 288 197 -1344
2022-05-22 19:31:24 GMT 32.690098 -117.012917 3,300 287 199 -1344
2022-05-22 19:31:20 GMT 32.688995 -117.008514 3,400 286 203 -1344
2022-05-22 19:31:15 GMT 32.687943 -117.004066 3,500 285 204 -1280
2022-05-22 19:31:13 GMT 32.687401 -117.001648 3,550 285 206 -1344
2022-05-22 19:31:07 GMT 32.685883 -116.994781 3,675 285 210 -1280
2022-05-22 19:31:03 GMT 32.684933 -116.990379 3,750 284 213 -576
2022-05-22 19:30:57 GMT 32.683441 -116.983093 3,825 284 221 -1216
2022-05-22 19:30:54 GMT 32.683022 -116.980911 3,850 284 222 -1408
2022-05-22 19:30:51 GMT 32.682129 -116.976822 3,950 285 223 -1600
2022-05-22 19:30:46 GMT 32.680695 -116.970314 4,075 287 229 -1536
2022-05-22 19:30:42 GMT 32.679428 -116.965446 4,175 288 232 -1536
2022-05-22 19:30:38 GMT 32.678101 -116.960617 4,250 288 239 -1728
2022-05-22 19:30:33 GMT 32.676506 -116.955177 4,400 290 239 -1664
2022-05-22 19:30:31 GMT 32.675575 -116.951988 4,475 288 239 -1792
2022-05-22 19:30:27 GMT 32.674667 -116.948639 4,550 285 239 -1792
2022-05-22 19:30:23 GMT 32.673527 -116.942680 4,700 277 238 -1920
2022-05-22 19:30:18 GMT 32.673248 -116.934685 4,900 265 237 -2112
2022-05-22 19:30:15 GMT 32.673569 -116.930893 4,975 260 237 -1408
2022-05-22 19:30:12 GMT 32.673843 -116.929138 5,025 258 237 -1408
2022-05-22 19:30:10 GMT 32.674667 -116.925293 5,100 254 236 -1600
2022-05-22 19:30:05 GMT 32.676411 -116.918800 5,250 252 236 -1216
2022-05-22 19:30:02 GMT 32.677277 -116.915733 5,275 252 236 -1152
2022-05-22 19:29:58 GMT 32.678833 -116.910461 5,375 251 236 -960
2022-05-22 19:29:51 GMT 32.681534 -116.901398 5,475 251 237 -576
2022-05-22 19:29:48 GMT 32.682175 -116.899147 5,500 251 237 -512
2022-05-22 19:29:44 GMT 32.684006 -116.893211 5,550 250 241 -448
2022-05-22 19:29:41 GMT 32.684921 -116.890244 5,550 250 242 -448
2022-05-22 19:29:38 GMT 32.686386 -116.885574 5,700 250 244 -704
2022-05-22 19:29:33 GMT 32.687988 -116.880692 5,650 249 245 -768
2022-05-22 19:29:30 GMT 32.689270 -116.876785 5,675 249 245 -704
2022-05-22 19:29:28 GMT 32.690285 -116.873627 5,700 249 246 -576
2022-05-22 19:29:25 GMT 32.691422 -116.870140 5,725 249 249 -384
2022-05-22 19:29:20 GMT 32.693542 -116.863701 5,750 250 251 -256
2022-05-22 19:29:17 GMT 32.695126 -116.858826 5,775 250 254 -512
2022-05-22 19:29:12 GMT 32.698105 -116.849319 5,850 250 258 -768
2022-05-22 19:29:09 GMT 32.698105 -116.849319 5,875 250 259 -704
2022-05-22 19:29:07 GMT 32.699177 -116.845818 5,900 251 260 -704
2022-05-22 19:29:04 GMT 32.700439 -116.841743 5,925 251 262 -704
2022-05-22 19:29:01 GMT 32.701458 -116.838364 5,975 251 264 -832
2022-05-22 19:28:58 GMT 32.702389 -116.835228 6,000 251 266 -768
2022-05-22 19:28:54 GMT 32.703827 -116.830261 6,025 251 268 -704
2022-05-22 19:28:51 GMT 32.705276 -116.825478 6,100 247 270 -960
2022-05-22 19:28:48 GMT 32.706764 -116.821274 6,125 247 270 -1024
2022-05-22 19:28:44 GMT 32.712433 -116.807739 6,325 243 271 -1344
2022-05-22 19:28:38 GMT 32.712433 -116.807739 6,350 241 273 -1344
2022-05-22 19:28:34 GMT 32.715500 -116.801315 6,450 241 275 -960
2022-05-22 19:28:31 GMT 32.717468 -116.797195 6,500 241 275 -1024
2022-05-22 19:28:27 GMT 32.719288 -116.793358 6,550 241 276 -1216
2022-05-22 19:28:21 GMT 32.723335 -116.784836 6,675 241 277 -1216
2022-05-22 19:28:17 GMT 32.726456 -116.778275 6,775 241 278 -1024
2022-05-22 19:28:13 GMT 32.728867 -116.773239 6,850 241 278 -1024
2022-05-22 19:28:10 GMT 32.730553 -116.769646 6,875 241 278 -1024
2022-05-22 19:28:06 GMT 32.733345 -116.763817 6,950 241 279 -1024
2022-05-22 19:28:01 GMT 32.736008 -116.758194 7,025 241 279 -1152
2022-05-22 19:27:58 GMT 32.737816 -116.754288 7,075 241 279 -1024
2022-05-22 19:27:55 GMT 32.739769 -116.750252 7,125 241 279 -1024
2022-05-22 19:27:49 GMT 32.743881 -116.741493 7,225 241 281 -832
2022-05-22 19:27:45 GMT 32.746426 -116.736130 7,300 241 281 -832
2022-05-22 19:27:41 GMT 32.749054 -116.730560 7,350 241 282 -960
2022-05-22 19:27:37 GMT 32.751175 -116.726036 7,400 241 282 -1024
2022-05-22 19:27:33 GMT 32.754108 -116.719872 7,550 242 283 -1088
2022-05-22 19:27:30 GMT 32.755737 -116.716385 7,525 241 283 -1088
2022-05-22 19:27:27 GMT 32.758163 -116.711281 7,600 242 284 -1088
2022-05-22 19:27:24 GMT 32.759090 -116.709274 7,625 242 283 -1088
2022-05-22 19:27:22 GMT 32.760773 -116.705620 7,675 242 284 -1152
2022-05-22 19:27:17 GMT 32.764397 -116.697617 7,800 241 283 -1024
2022-05-22 19:27:13 GMT 32.766815 -116.692490 7,850 239 284 -1152
2022-05-22 19:27:09 GMT 32.769699 -116.687111 7,950 235 283 -1472
2022-05-22 19:27:06 GMT 32.771942 -116.683372 8,025 234 282 -1472
2022-05-22 19:27:03 GMT 32.773453 -116.681068 8,075 232 282 -1472
2022-05-22 19:27:00 GMT 32.780136 -116.672005 8,275 227 282 -1664
2022-05-22 19:26:56 GMT 32.780136 -116.672005 8,275 227 282 -1664
2022-05-22 19:26:53 GMT 32.782471 -116.669258 8,350 223 280 -1728
2022-05-22 19:26:48 GMT 32.787907 -116.663483 8,600 220 280 -1536
2022-05-22 19:26:45 GMT 32.790756 -116.660690 8,575 221 280 -1600
2022-05-22 19:26:42 GMT 32.792652 -116.658775 8,625 220 280 -1536
2022-05-22 19:26:37 GMT 32.799133 -116.652336 8,825 220 281 -1216
2022-05-22 19:26:32 GMT 32.803253 -116.648270 8,850 220 281 -1088
2022-05-22 19:26:27 GMT 32.808975 -116.642563 9,000 221 283 -1408
2022-05-22 19:26:24 GMT 32.811493 -116.640030 9,050 221 283 -1536
2022-05-22 19:26:21 GMT 32.813828 -116.637726 9,100 221 283 -1536
2022-05-22 19:26:19 GMT 32.817654 -116.633827 9,175 221 283 -1408
2022-05-22 19:26:16 GMT 32.820118 -116.631363 9,250 221 283 -1280
2022-05-22 19:26:13 GMT 32.822212 -116.629234 9,300 221 283 -1280
2022-05-22 19:26:10 GMT 32.824677 -116.626793 9,350 221 283 -1280
2022-05-22 19:26:05 GMT 32.831104 -116.620262 9,500 221 284 -1536
2022-05-22 19:26:01 GMT 32.834644 -116.616676 9,600 221 284 -1536
2022-05-22 19:25:55 GMT 32.840740 -116.610458 9,750 221 284 -1472
2022-05-22 19:25:53 GMT 32.841705 -116.609489 9,775 221 284 -1472
2022-05-22 19:25:50 GMT 32.844746 -116.606422 9,850 221 285 -1408
2022-05-22 19:25:47 GMT 32.849442 -116.601692 9,950 221 285 -1344
2022-05-22 19:25:44 GMT 32.854427 -116.596664 9,975 221 286 -1408
2022-05-22 19:25:42 GMT 32.854427 -116.596664 10,050 221 286 -1408
2022-05-22 19:25:39 GMT 32.856491 -116.594604 10,100 221 286 -1408
2022-05-22 19:25:34 GMT 32.861618 -116.589554 10,225 221 288 -1216
2022-05-22 19:25:32 GMT 32.864502 -116.586639 10,275 221 288 -1216
2022-05-22 19:25:29 GMT 32.866112 -116.585068 10,300 221 288 -1152
2022-05-22 19:25:22 GMT 32.873142 -116.578003 10,425 221 290 -1152
2022-05-22 19:25:19 GMT 32.876820 -116.574249 10,500 221 291 -1152
2022-05-22 19:25:13 GMT 32.883152 -116.567856 10,625 221 295 -1024
2022-05-22 19:25:11 GMT 32.885666 -116.565277 10,800 221 295 -1024
2022-05-22 19:25:08 GMT 32.887482 -116.563461 10,675 221 295 -1088
2022-05-22 19:25:03 GMT 32.893753 -116.557083 10,800 221 297 -1280
2022-05-22 19:25:00 GMT 32.897629 -116.553169 10,875 221 298 -1088
2022-05-22 19:24:57 GMT 32.898788 -116.551979 10,875 221 299 -960
2022-05-22 19:24:51 GMT 32.905380 -116.545334 10,925 221 303 -448
2022-05-22 19:24:48 GMT 32.909592 -116.541061 10,950 221 307 -448
2022-05-22 19:24:42 GMT 32.916550 -116.534012 11,000 221 312 -384
2022-05-22 19:24:39 GMT 32.920258 -116.530281 11,025 221 316 -384
2022-05-22 19:24:36 GMT 32.921402 -116.529182 11,025 221 316 -448
2022-05-22 19:24:31 GMT 32.928589 -116.521927 11,100 221 322 -512
2022-05-22 19:24:27 GMT 32.932636 -116.517967 11,125 221 325 -640
2022-05-22 19:24:20 GMT 32.940811 -116.509735 11,225 221 329 -1024
2022-05-22 19:24:17 GMT 32.947632 -116.502922 11,325 221 331 -1408
2022-05-22 19:24:14 GMT 32.947632 -116.502922 11,350 221 336 -1664
2022-05-22 19:24:10 GMT 32.952885 -116.497620 11,475 221 332 -1728
2022-05-22 19:24:05 GMT 32.958008 -116.492523 11,600 221 332 -1728
2022-05-22 19:23:59 GMT 32.965034 -116.485405 11,875 221 334 -1664
2022-05-22 19:23:57 GMT 32.968826 -116.481552 11,875 221 334 -1664
2022-05-22 19:23:54 GMT 32.970016 -116.480301 11,900 221 334 -1664
2022-05-22 19:23:49 GMT 32.977478 -116.472763 12,075 221 336 -1664
2022-05-22 19:23:45 GMT 32.981934 -116.468254 12,175 221 336 -1664
2022-05-22 19:23:38 GMT 32.989700 -116.460403 12,500 219 339 -1664
2022-05-22 19:23:35 GMT 32.994225 -116.456085 12,450 218 340 -1664
2022-05-22 19:23:28 GMT 33.003395 -116.448128 12,650 215 341 -1664
2022-05-22 19:23:24 GMT 33.008148 -116.444366 12,750 213 342 -1536
2022-05-22 19:23:17 GMT 33.017075 -116.437881 12,925 210 345 -1728
2022-05-22 19:23:14 GMT 33.022110 -116.434586 13,025 207 346 -1920
2022-05-22 19:23:10 GMT 33.027695 -116.431290 13,200 206 347 -1792
2022-05-22 19:23:06 GMT 33.033142 -116.428116 13,350 206 347 -1664
2022-05-22 19:23:03 GMT 33.037891 -116.425369 13,325 206 348 -1600
2022-05-22 19:23:00 GMT 33.043808 -116.421951 13,450 207 353 -1664
2022-05-22 19:22:55 GMT 33.048504 -116.419258 13,550 207 350 -1664
2022-05-22 19:22:52 GMT 33.053696 -116.416245 13,650 206 351 -1792
2022-05-22 19:22:48 GMT 33.060791 -116.412125 13,800 207 351 -1792
2022-05-22 19:22:45 GMT 33.063263 -116.410690 13,850 207 351 -1728
2022-05-22 19:22:42 GMT 33.069580 -116.407013 13,975 207 353 -1664
2022-05-22 19:22:38 GMT 33.074387 -116.404182 14,275 207 353 -1600
2022-05-22 19:22:34 GMT 33.081650 -116.399925 14,175 207 355 -1344
2022-05-22 19:22:31 GMT 33.084915 -116.398003 14,300 207 358 -1152
2022-05-22 19:22:28 GMT 33.089424 -116.395386 14,375 207 360 -1472
2022-05-22 19:22:24 GMT 33.100983 -116.388611 14,425 207 360 -1472
2022-05-22 19:22:21 GMT 33.100983 -116.388611 14,475 207 361 -1856
2022-05-22 19:22:17 GMT 33.105286 -116.386032 14,575 207 361 -2304
2022-05-22 19:22:13 GMT 33.115906 -116.379822 14,850 207 360 -2560
2022-05-22 19:22:10 GMT 33.120529 -116.377129 14,925 207 360 -2560
2022-05-22 19:22:07 GMT 33.120529 -116.377129 15,175 207 359 -1920
2022-05-22 19:22:03 GMT 33.128017 -116.372795 15,175 207 359 -2048
2022-05-22 19:22:00 GMT 33.132294 -116.370316 15,275 207 359 -1920
2022-05-22 19:21:56 GMT 33.136162 -116.368088 15,350 207 359 -1856
2022-05-22 19:21:52 GMT 33.142044 -116.364662 15,475 206 360 -1792
2022-05-22 19:21:50 GMT 33.145706 -116.362518 15,550 207 360 -1856
2022-05-22 19:21:47 GMT 33.152206 -116.358727 16,150 207 364 -1920
2022-05-22 19:21:43 GMT 33.156006 -116.356529 15,750 206 362 -1856
2022-05-22 19:21:41 GMT 33.159763 -116.354347 15,825 207 363 -1856
2022-05-22 19:21:38 GMT 33.164200 -116.351753 15,925 207 363 -1856
2022-05-22 19:21:33 GMT 33.172073 -116.347137 16,075 207 364 -1920
2022-05-22 19:21:31 GMT 33.176521 -116.344543 16,175 207 364 -1920
2022-05-22 19:21:28 GMT 33.181046 -116.341866 16,275 207 364 -1856
2022-05-22 19:21:25 GMT 33.184994 -116.339554 16,350 207 365 -1920
2022-05-22 19:21:22 GMT 33.188599 -116.337418 16,425 207 365 -1920
2022-05-22 19:21:18 GMT 33.194733 -116.333786 16,550 207 367 -1920
2022-05-22 19:21:15 GMT 33.199127 -116.331207 16,725 207 368 -1920
2022-05-22 19:21:12 GMT 33.204300 -116.328186 16,750 207 367 -1920
2022-05-22 19:21:10 GMT 33.207619 -116.326210 16,825 207 368 -1920
2022-05-22 19:21:07 GMT 33.211899 -116.323685 16,900 207 368 -1920
2022-05-22 19:21:04 GMT 33.216385 -116.321045 17,025 207 369 -2112
2022-05-22 19:21:01 GMT 33.219723 -116.319092 17,075 207 368 -1984
2022-05-22 19:20:57 GMT 33.227123 -116.314667 17,250 207 369 -2176
2022-05-22 19:20:54 GMT 33.230255 -116.312859 17,325 207 369 -2112
2022-05-22 19:20:51 GMT 33.234806 -116.310127 17,425 207 369 -2240
2022-05-22 19:20:49 GMT 33.240112 -116.307045 17,575 207 368 -2368
2022-05-22 19:20:46 GMT 33.242722 -116.305473 17,625 207 368 -2368
2022-05-22 19:20:44 GMT 33.247795 -116.302505 17,775 207 369 -1792
2022-05-22 19:20:41 GMT 33.251495 -116.300278 17,850 207 369 -1984
2022-05-22 19:20:36 GMT 33.258968 -116.295830 18,000 207 370 -1792
2022-05-22 19:20:34 GMT 33.261482 -116.294373 18,175 207 370 -1792
2022-05-22 19:20:31 GMT 33.266880 -116.291183 18,150 207 372 -1792
2022-05-22 19:20:27 GMT 33.273632 -116.287201 18,275 207 372 -1792
2022-05-22 19:20:23 GMT 33.279961 -116.283447 18,400 207 373 -1792
2022-05-22 19:20:20 GMT 33.284500 -116.280777 18,475 207 374 -1792
2022-05-22 19:20:17 GMT 33.288574 -116.278343 18,550 207 374 -1792
2022-05-22 19:20:13 GMT 33.293381 -116.275558 20,475 207 377 -1792
2022-05-22 19:20:10 GMT 33.298553 -116.272484 18,750 207 376 -1792
2022-05-22 19:20:06 GMT 33.305740 -116.268311 18,900 208 377 -1792
2022-05-22 19:20:04 GMT 33.309723 -116.265892 18,975 209 377 -1792
2022-05-22 19:20:00 GMT 33.315079 -116.262375 19,075 212 378 -1792
2022-05-22 19:19:58 GMT 33.318283 -116.260071 19,225 214 377 -1792
2022-05-22 19:19:54 GMT 33.322044 -116.257210 19,200 214 378 -1792
2022-05-22 19:19:52 GMT 33.327026 -116.253036 19,400 218 378 -1792
2022-05-22 19:19:49 GMT 33.329865 -116.250458 19,375 219 378 -1856
2022-05-22 19:19:45 GMT 33.336990 -116.243477 19,550 223 378 -1984
2022-05-22 19:19:42 GMT 33.340851 -116.239220 19,675 226 378 -2048
2022-05-22 19:19:39 GMT 33.343460 -116.236122 19,700 226 377 -1984
2022-05-22 19:19:37 GMT 33.347229 -116.231369 19,850 230 378 -1984
2022-05-22 19:19:34 GMT 33.349743 -116.227951 19,875 231 377 -1984
2022-05-22 19:19:31 GMT 33.354034 -116.221619 20,025 234 378 -1920
2022-05-22 19:19:28 GMT 33.355774 -116.218819 20,075 235 378 -1920
2022-05-22 19:19:24 GMT 33.360779 -116.210464 20,225 235 378 -1920
2022-05-22 19:19:21 GMT 33.363010 -116.206596 20,350 235 378 -1920
2022-05-22 19:19:18 GMT 33.366348 -116.201019 20,400 235 379 -1920
2022-05-22 19:19:13 GMT 33.371338 -116.192451 20,575 236 380 -1920
2022-05-22 19:19:10 GMT 33.374184 -116.187653 20,725 236 382 -1984
2022-05-22 19:19:07 GMT 33.377071 -116.182610 20,750 236 381 -1920
2022-05-22 19:19:03 GMT 33.382050 -116.173996 20,925 236 382 -1984
2022-05-22 19:18:59 GMT 33.386055 -116.167023 21,050 236 383 -1984
2022-05-22 19:18:56 GMT 33.388008 -116.163658 21,125 236 383 -1984
2022-05-22 19:18:52 GMT 33.394730 -116.152077 21,275 236 384 -1984
2022-05-22 19:18:50 GMT 33.394730 -116.152077 21,625 236 385 -1984
2022-05-22 19:18:46 GMT 33.398857 -116.144936 21,475 236 385 -1984
2022-05-22 19:18:42 GMT 33.403374 -116.137199 21,850 236 386 -1984
2022-05-22 19:18:38 GMT 33.406860 -116.131088 21,725 236 386 -1984
2022-05-22 19:18:35 GMT 33.408913 -116.127563 21,800 236 386 -1984
2022-05-22 19:18:32 GMT 33.417709 -116.112305 21,975 236 388 -1984
2022-05-22 19:18:28 GMT 33.417709 -116.112305 22,075 236 388 -1984
2022-05-22 19:18:25 GMT 33.419769 -116.108734 22,150 236 388 -1984
2022-05-22 19:18:20 GMT 33.426044 -116.097908 22,475 236 390 -1984
2022-05-22 19:18:17 GMT 33.428238 -116.094070 22,475 236 391 -1984
2022-05-22 19:18:14 GMT 33.430557 -116.090065 22,475 236 391 -1984
2022-05-22 19:18:11 GMT 33.434563 -116.083168 22,700 236 392 -1984
2022-05-22 19:18:08 GMT 33.438377 -116.076607 22,750 236 393 -1984
2022-05-22 19:18:04 GMT 33.440964 -116.072151 22,825 236 393 -1856
2022-05-22 19:17:59 GMT 33.447086 -116.061646 23,125 236 395 -1408
2022-05-22 19:17:56 GMT 33.450073 -116.056496 23,050 236 395 -1344
2022-05-22 19:17:53 GMT 33.452087 -116.053085 23,100 236 396 -1216
2022-05-22 19:17:50 GMT 33.456814 -116.044884 23,500 236 397 -1024
2022-05-22 19:17:47 GMT 33.460213 -116.039108 23,500 236 397 -1024
2022-05-22 19:17:44 GMT 33.462250 -116.035622 23,275 236 397 -1024
2022-05-22 19:17:39 GMT 33.468018 -116.025681 23,375 236 398 -1024
2022-05-22 19:17:34 GMT 33.473572 -116.016190 23,475 236 399 -1024
2022-05-22 19:17:30 GMT 33.479187 -116.006561 23,550 236 399 -1024
2022-05-22 19:17:22 GMT 33.485397 -115.995895 23,850 236 399 -1024
2022-05-22 19:17:19 GMT 33.488934 -115.989731 23,750 236 399 -1088
2022-05-22 19:17:16 GMT 33.495667 -115.978218 23,775 235 399 -1088
2022-05-22 19:17:13 GMT 33.495667 -115.978218 23,800 234 400 -1088
2022-05-22 19:17:09 GMT 33.499874 -115.971512 23,875 232 400 -1024
2022-05-22 19:17:06 GMT 33.502201 -115.967926 23,900 232 400 -960
2022-05-22 19:17:03 GMT 33.506161 -115.962036 23,950 231 400 -896
2022-05-22 19:17:00 GMT 33.510815 -115.955421 24,000 230 400 -640
2022-05-22 19:16:57 GMT 33.515003 -115.949760 24,000 228 402 0
2022-05-22 19:16:54 GMT 33.518169 -115.945618 24,000 227 401 0
2022-05-22 19:16:51 GMT 33.528122 -115.933449 24,000 225 401 0
2022-05-22 19:16:46 GMT 33.528122 -115.933449 24,000 224 402 0
2022-05-22 19:16:40 GMT 33.536545 -115.924057 24,000 220 403 0
2022-05-22 19:16:37 GMT 33.539722 -115.920731 24,000 220 403 0
2022-05-22 19:16:35 GMT 33.542656 -115.917778 24,000 220 402 0
2022-05-22 19:16:30 GMT 33.549686 -115.910912 24,000 220 403 0
2022-05-22 19:16:28 GMT 33.554214 -115.906487 24,000 220 403 0
2022-05-22 19:16:24 GMT 33.559277 -115.901642 24,000 220 403 0
2022-05-22 19:16:20 GMT 33.565838 -115.895287 24,000 220 403 0
2022-05-22 19:16:15 GMT 33.573566 -115.887794 24,000 220 403 0
2022-05-22 19:16:10 GMT 33.580261 -115.881325 24,000 219 402 0
2022-05-22 19:16:05 GMT 33.586853 -115.874931 24,000 219 402 -64
2022-05-22 19:16:01 GMT 33.593536 -115.868484 24,000 219 402 -64
2022-05-22 19:15:58 GMT 33.596832 -115.865295 24,000 219 402 -64
2022-05-22 19:15:54 GMT 33.612305 -115.850273 24,000 220 401 0
2022-05-22 19:15:47 GMT 33.612305 -115.850273 24,000 220 401 0
2022-05-22 19:15:44 GMT 33.617558 -115.845161 24,000 220 401 0
2022-05-22 19:15:40 GMT 33.623051 -115.839844 24,000 220 401 0
2022-05-22 19:15:36 GMT 33.627960 -115.835075 24,000 220 401 0
2022-05-22 19:15:33 GMT 33.633617 -115.829597 24,000 220 401 0
2022-05-22 19:15:28 GMT 33.640320 -115.823082 24,000 220 401 0
2022-05-22 19:15:25 GMT 33.643723 -115.819817 24,000 220 401 0
2022-05-22 19:15:22 GMT 33.648514 -115.815125 24,000 220 401 0
2022-05-22 19:15:19 GMT 33.658058 -115.805908 24,000 220 401 0
2022-05-22 19:15:15 GMT 33.658058 -115.805908 24,000 220 401 0
2022-05-22 19:15:12 GMT 33.664532 -115.799622 24,000 220 401 0
2022-05-22 19:15:06 GMT 33.674446 -115.790009 24,000 220 400 0
2022-05-22 19:15:03 GMT 33.674446 -115.790009 24,000 220 400 0
2022-05-22 19:15:01 GMT 33.678955 -115.785645 24,000 220 400 0
2022-05-22 19:14:54 GMT 33.688553 -115.776329 24,000 220 400 0
2022-05-22 19:14:51 GMT 33.694336 -115.770676 24,000 220 400 0
2022-05-22 19:14:44 GMT 33.704681 -115.760582 24,000 220 400 0
2022-05-22 19:14:40 GMT 33.709080 -115.756302 24,000 220 400 0
2022-05-22 19:14:36 GMT 33.715714 -115.749825 24,000 220 400 0
2022-05-22 19:14:32 GMT 33.721527 -115.744164 24,000 220 400 0
2022-05-22 19:14:29 GMT 33.725372 -115.740402 24,000 220 400 0
2022-05-22 19:14:23 GMT 33.733154 -115.732841 24,000 220 400 0
2022-05-22 19:14:18 GMT 33.740223 -115.725922 24,000 220 400 0
2022-05-22 19:14:15 GMT 33.746704 -115.719612 24,000 220 400 0
2022-05-22 19:14:12 GMT 33.750511 -115.715904 24,000 220 400 0
2022-05-22 19:14:09 GMT 33.754715 -115.711823 24,000 220 400 0
2022-05-22 19:14:02 GMT 33.762909 -115.703804 24,000 220 400 64
2022-05-22 19:13:59 GMT 33.768993 -115.697884 24,000 220 400 64
2022-05-22 19:13:56 GMT 33.772579 -115.694389 24,000 220 400 0
2022-05-22 19:13:53 GMT 33.781887 -115.685349 24,000 220 400 0
2022-05-22 19:13:50 GMT 33.781887 -115.685349 24,000 220 400 0
2022-05-22 19:13:47 GMT 33.786942 -115.680428 24,000 220 400 0
2022-05-22 19:13:43 GMT 33.792641 -115.674873 24,000 220 400 64
2022-05-22 19:13:40 GMT 33.794224 -115.673332 24,000 220 400 64
2022-05-22 19:13:37 GMT 33.799858 -115.667839 23,975 220 401 64
2022-05-22 19:13:30 GMT 33.808960 -115.658958 23,975 220 401 128
2022-05-22 19:13:27 GMT 33.823460 -115.644836 23,975 220 401 64
2022-05-22 19:13:21 GMT 33.823460 -115.644836 23,975 220 401 -64
2022-05-22 19:13:18 GMT 33.827316 -115.641136 24,000 220 401 -320
2022-05-22 19:13:15 GMT 33.832722 -115.635857 24,000 220 401 -768
2022-05-22 19:13:10 GMT 33.838577 -115.630150 24,100 220 402 -1024
2022-05-22 19:13:07 GMT 33.844223 -115.624695 24,175 220 402 -1024
2022-05-22 19:13:03 GMT 33.847713 -115.621262 24,200 220 402 -960
2022-05-22 19:12:59 GMT 33.854691 -115.614510 24,700 220 402 -960
2022-05-22 19:12:57 GMT 33.857437 -115.611824 24,300 220 402 -960
2022-05-22 19:12:54 GMT 33.862701 -115.606667 24,450 220 403 -1024
2022-05-22 19:12:49 GMT 33.869339 -115.600159 24,450 220 403 -1024
2022-05-22 19:12:47 GMT 33.872852 -115.596710 24,475 220 403 -1024
2022-05-22 19:12:43 GMT 33.877304 -115.592369 24,525 220 404 -1024
2022-05-22 19:12:39 GMT 33.883713 -115.586090 24,600 220 404 -1024
2022-05-22 19:12:35 GMT 33.890404 -115.579552 24,750 220 406 -1024
2022-05-22 19:12:27 GMT 33.899433 -115.570679 24,800 220 407 -1024
2022-05-22 19:12:25 GMT 33.904175 -115.566078 24,850 220 408 -1024
2022-05-22 19:12:22 GMT 33.907207 -115.563065 24,875 220 408 -1024
2022-05-22 19:12:18 GMT 33.914234 -115.556259 24,975 220 410 -1024
2022-05-22 19:12:15 GMT 33.919727 -115.550880 25,025 220 412 -960
2022-05-22 19:12:12 GMT 33.923538 -115.547195 25,075 220 413 -960
2022-05-22 19:12:07 GMT 33.929855 -115.541084 25,125 220 414 -960
2022-05-22 19:12:04 GMT 33.933697 -115.537315 25,175 219 415 -960
2022-05-22 19:12:01 GMT 33.938305 -115.532799 25,225 219 415 -960
2022-05-22 19:11:55 GMT 33.954689 -115.516891 25,550 219 416 -1024
2022-05-22 19:11:50 GMT 33.954689 -115.516891 25,400 219 416 -960
2022-05-22 19:11:44 GMT 33.964977 -115.506882 25,525 219 416 -1024
2022-05-22 19:11:41 GMT 33.970982 -115.501038 25,625 219 416 -1024
2022-05-22 19:11:34 GMT 33.981125 -115.491196 25,700 219 416 -1024
2022-05-22 19:11:31 GMT 33.984669 -115.487762 25,750 219 416 -1024
2022-05-22 19:11:25 GMT 34.000671 -115.472252 25,975 219 415 -896
2022-05-22 19:11:21 GMT 34.000671 -115.472252 25,925 219 416 -960
2022-05-22 19:11:18 GMT 34.003662 -115.469337 25,950 219 415 0
2022-05-22 19:11:15 GMT 34.008270 -115.464905 25,975 219 415 -448
2022-05-22 19:11:13 GMT 34.012554 -115.460754 26,000 219 415 -128
2022-05-22 19:11:10 GMT 34.015999 -115.457382 26,000 219 415 -64
2022-05-22 19:11:03 GMT 34.025776 -115.447884 26,000 219 415 0
2022-05-22 19:11:00 GMT 34.032486 -115.441422 26,000 220 414 -64
2022-05-22 19:10:52 GMT 34.048691 -115.425560 26,025 220 411 0
2022-05-22 19:10:49 GMT 34.048691 -115.425560 26,025 220 410 0
2022-05-22 19:10:43 GMT 34.055969 -115.418381 26,000 220 409 0
2022-05-22 19:10:40 GMT 34.060272 -115.414124 26,000 221 404 64
2022-05-22 19:10:37 GMT 34.063717 -115.410751 26,000 220 406 64
2022-05-22 19:10:33 GMT 34.070419 -115.403999 26,000 221 403 0
2022-05-22 19:10:30 GMT 34.074188 -115.400169 26,000 221 403 0
2022-05-22 19:10:28 GMT 34.078472 -115.395813 26,000 219 401 -64
2022-05-22 19:10:25 GMT 34.083572 -115.391029 26,000 217 401 0
2022-05-22 19:10:20 GMT 34.089691 -115.385918 26,000 206 399 0
2022-05-22 19:10:17 GMT 34.094440 -115.382484 26,000 204 398 0
2022-05-22 19:10:11 GMT 34.106323 -115.375557 26,000 203 398 0
2022-05-22 19:10:06 GMT 34.113155 -115.372467 26,000 199 397 0
2022-05-22 19:10:00 GMT 34.123535 -115.369087 26,000 173 400 0
2022-05-22 19:09:55 GMT 34.134613 -115.366928 26,000 185 397 0
2022-05-22 19:09:50 GMT 34.142624 -115.366364 26,000 179 399 0
2022-05-22 19:09:46 GMT 34.158401 -115.367599 26,000 172 400 0
2022-05-22 19:09:38 GMT 34.162811 -115.368607 26,000 161 402 -64
2022-05-22 19:09:34 GMT 34.172508 -115.371895 26,000 161 402 0
2022-05-22 19:09:30 GMT 34.178009 -115.374603 26,000 152 403 -128
2022-05-22 19:09:28 GMT 34.181808 -115.376846 26,025 145 404 0
2022-05-22 19:09:23 GMT 34.189175 -115.382256 26,025 145 404 0
2022-05-22 19:09:20 GMT 34.194061 -115.386658 26,000 138 406 128
2022-05-22 19:09:15 GMT 34.205376 -115.399132 26,000 135 407 0
2022-05-22 19:09:07 GMT 34.211563 -115.406403 26,000 135 408 0
2022-05-22 19:09:02 GMT 34.218361 -115.414291 26,000 135 408 0
2022-05-22 19:08:59 GMT 34.222736 -115.419388 26,000 135 409 0
2022-05-22 19:08:57 GMT 34.225983 -115.423203 26,000 135 409 0
2022-05-22 19:08:53 GMT 34.231396 -115.429520 26,000 135 410 64
2022-05-22 19:08:46 GMT 34.239441 -115.438896 26,000 135 410 64
2022-05-22 19:08:43 GMT 34.244431 -115.444672 26,000 136 410 0
2022-05-22 19:08:36 GMT 34.254810 -115.456757 26,000 136 410 0
2022-05-22 19:08:32 GMT 34.261047 -115.463951 26,000 136 411 0
2022-05-22 19:08:24 GMT 34.269569 -115.473801 26,000 136 411 64
2022-05-22 19:08:21 GMT 34.275009 -115.480095 26,000 136 411 0
2022-05-22 19:08:14 GMT 34.284142 -115.490456 26,100 138 411 -704
2022-05-22 19:08:11 GMT 34.289246 -115.495903 26,100 141 411 -1088
2022-05-22 19:08:07 GMT 34.293682 -115.500237 26,125 141 411 -1088
2022-05-22 19:08:00 GMT 34.305954 -115.509521 26,325 159 412 -1024
2022-05-22 19:07:54 GMT 34.315983 -115.514374 26,325 159 412 -1024
2022-05-22 19:07:50 GMT 34.325199 -115.517120 26,450 170 412 -1024
2022-05-22 19:07:47 GMT 34.331360 -115.518158 26,500 186 410 -1024
2022-05-22 19:07:43 GMT 34.338593 -115.518547 26,575 183 411 -1024
2022-05-22 19:07:38 GMT 34.346786 -115.517937 26,725 197 408 -832
2022-05-22 19:07:33 GMT 34.355553 -115.516029 26,725 193 409 -896
2022-05-22 19:07:29 GMT 34.364025 -115.513000 26,775 200 408 -960
2022-05-22 19:07:25 GMT 34.372032 -115.509567 26,875 200 409 -1024
2022-05-22 19:07:20 GMT 34.381294 -115.505508 27,075 201 411 -1088
2022-05-22 19:07:17 GMT 34.384880 -115.503899 27,000 201 411 -1088
2022-05-22 19:07:11 GMT 34.396610 -115.498756 27,100 200 412 -1088
2022-05-22 19:07:07 GMT 34.404198 -115.495438 27,225 200 414 -1088
2022-05-22 19:07:04 GMT 34.409225 -115.493217 27,250 200 417 -1088
2022-05-22 19:07:00 GMT 34.415451 -115.490524 27,500 200 415 -1088
2022-05-22 19:06:55 GMT 34.425102 -115.486336 27,500 200 417 -1088
2022-05-22 19:06:50 GMT 34.434357 -115.482285 27,475 200 419 -1088
2022-05-22 19:06:47 GMT 34.444653 -115.477814 27,525 200 424 -1152
2022-05-22 19:06:44 GMT 34.444653 -115.477814 27,650 200 424 -1152
2022-05-22 19:06:38 GMT 34.454845 -115.473351 28,000 200 427 -896
2022-05-22 19:06:35 GMT 34.460449 -115.470901 27,750 200 424 -1152
2022-05-22 19:06:32 GMT 34.467510 -115.467796 27,800 200 426 -1152
2022-05-22 19:06:29 GMT 34.474167 -115.464874 27,875 200 427 -1088
2022-05-22 19:06:26 GMT 34.479080 -115.462723 27,925 200 427 -1024
2022-05-22 19:06:23 GMT 34.484364 -115.460419 27,975 200 427 -832
2022-05-22 19:06:20 GMT 34.487576 -115.459045 27,975 200 427 0
2022-05-22 19:06:18 GMT 34.493206 -115.456581 28,000 200 427 0
2022-05-22 19:06:10 GMT 34.508011 -115.450111 28,000 200 428 0
2022-05-22 19:06:06 GMT 34.516018 -115.446625 28,000 200 428 0
2022-05-22 19:06:03 GMT 34.521931 -115.444054 28,000 200 429 0
2022-05-22 19:06:00 GMT 34.525558 -115.442451 28,000 200 428 0
2022-05-22 19:05:57 GMT 34.532867 -115.439240 28,000 200 429 0
2022-05-22 19:05:53 GMT 34.539200 -115.436501 28,000 200 430 64
2022-05-22 19:05:50 GMT 34.545624 -115.433693 28,000 200 429 64
2022-05-22 19:05:44 GMT 34.556004 -115.429176 28,000 200 430 64
2022-05-22 19:05:40 GMT 34.565128 -115.425163 28,000 200 430 64
2022-05-22 19:05:37 GMT 34.568947 -115.423508 28,000 200 430 64
2022-05-22 19:05:34 GMT 34.573654 -115.421463 28,000 200 430 64
2022-05-22 19:05:31 GMT 34.581516 -115.418015 28,000 200 430 64
2022-05-22 19:05:23 GMT 34.597439 -115.411095 27,975 200 431 64
2022-05-22 19:05:19 GMT 34.601715 -115.409248 27,975 200 431 64
2022-05-22 19:05:13 GMT 34.613571 -115.404037 28,000 200 431 0
2022-05-22 19:05:10 GMT 34.624531 -115.399300 27,975 200 459 0
2022-05-22 19:05:07 GMT 34.624531 -115.399300 28,000 200 432 0
2022-05-22 19:05:02 GMT 34.636356 -115.394157 28,000 200 434 -128
2022-05-22 19:04:57 GMT 34.649155 -115.388603 28,000 200 435 -128
2022-05-22 19:04:54 GMT 34.649155 -115.388603 28,000 200 438 -64
2022-05-22 19:04:50 GMT 34.657116 -115.385170 28,000 200 439 0
2022-05-22 19:04:47 GMT 34.669033 -115.380020 27,975 200 445 0
2022-05-22 19:04:41 GMT 34.676483 -115.376816 27,975 200 449 0
2022-05-22 19:04:38 GMT 34.682648 -115.374161 27,975 198 467 64
2022-05-22 19:04:35 GMT 34.686813 -115.372360 27,975 200 458 0
2022-05-22 19:04:32 GMT 34.695057 -115.368752 27,975 200 460 -64
2022-05-22 19:04:27 GMT 34.704941 -115.364464 28,000 200 465 -64
2022-05-22 19:04:21 GMT 34.715401 -115.359940 28,000 200 465 -64
2022-05-22 19:04:19 GMT 34.719265 -115.358215 28,000 200 465 0
2022-05-22 19:04:10 GMT 34.739422 -115.349464 28,000 199 466 64
2022-05-22 19:04:03 GMT 34.751106 -115.345177 28,000 195 467 0
2022-05-22 19:03:58 GMT 34.761383 -115.341927 28,000 193 469 -64
2022-05-22 19:03:54 GMT 34.773010 -115.338844 28,000 191 470 0
2022-05-22 19:03:42 GMT 34.799149 -115.334412 28,000 189 472 0
2022-05-22 19:03:36 GMT 34.809437 -115.333557 28,000 183 475 0
2022-05-22 19:03:33 GMT 34.818279 -115.333214 28,000 180 476 0
2022-05-22 19:03:21 GMT 34.841324 -115.334015 28,000 176 477 0
2022-05-22 19:03:13 GMT 34.862411 -115.335541 28,000 176 478 0
2022-05-22 19:02:57 GMT 34.895462 -115.337952 28,000 176 479 0
2022-05-22 19:02:47 GMT 34.918716 -115.339630 28,000 176 479 -64
2022-05-22 19:02:41 GMT 34.933914 -115.340752 28,000 176 480 0
2022-05-22 19:02:28 GMT 34.959457 -115.342598 28,000 176 480 -64
2022-05-22 19:02:19 GMT 34.981956 -115.344200 28,000 176 480 0
2022-05-22 19:02:02 GMT 35.020065 -115.346916 27,900 176 479 1088
2022-05-22 19:01:55 GMT 35.033539 -115.347916 27,750 176 478 1728
2022-05-22 19:01:52 GMT 35.038971 -115.348320 27,650 176 478 1984
2022-05-22 19:01:46 GMT 35.054672 -115.349442 27,425 176 478 1920
2022-05-22 19:01:42 GMT 35.063461 -115.350052 27,325 176 478 1536
2022-05-22 19:01:36 GMT 35.074551 -115.350838 27,200 176 477 1280
2022-05-22 19:01:33 GMT 35.083534 -115.351463 27,100 176 475 1408
2022-05-22 19:01:31 GMT 35.087910 -115.351753 27,050 176 475 1408
2022-05-22 19:01:26 GMT 35.097363 -115.352386 26,950 176 474 1536
2022-05-22 19:01:20 GMT 35.109512 -115.353188 26,800 176 472 1536
2022-05-22 19:01:15 GMT 35.122780 -115.354042 26,650 177 471 1408
2022-05-22 19:01:12 GMT 35.126923 -115.354271 26,625 177 470 1600
2022-05-22 19:01:01 GMT 35.170822 -115.356903 26,350 177 467 1472
2022-05-22 19:00:52 GMT 35.170822 -115.356903 26,100 177 466 1600
2022-05-22 19:00:44 GMT 35.191498 -115.358070 25,850 177 463 1472
2022-05-22 19:00:33 GMT 35.212486 -115.359482 25,625 176 459 1344
2022-05-22 19:00:22 GMT 35.249359 -115.362106 25,175 176 455 1664
2022-05-22 19:00:09 GMT 35.263973 -115.363167 25,025 176 452 1408
2022-05-22 18:59:59 GMT 35.302006 -115.365913 24,425 176 448 1920
2022-05-22 18:59:51 GMT 35.302006 -115.365913 24,475 176 445 1344
2022-05-22 18:59:38 GMT 35.326351 -115.367546 24,150 176 443 2112
2022-05-22 18:59:28 GMT 35.348370 -115.369125 23,825 176 440 2048
2022-05-22 18:59:18 GMT 35.368248 -115.370529 23,450 176 438 2368
2022-05-22 18:59:08 GMT 35.389389 -115.372009 23,125 176 439 1152
2022-05-22 18:58:57 GMT 35.410610 -115.373512 23,025 176 438 192
2022-05-22 18:58:46 GMT 35.432556 -115.375046 23,000 176 439 0
2022-05-22 18:58:41 GMT 35.442780 -115.375786 23,000 176 438 576
2022-05-22 18:58:36 GMT 35.453064 -115.376534 22,950 176 438 960
2022-05-22 18:58:30 GMT 35.465149 -115.377388 22,825 176 437 1600
2022-05-22 18:58:25 GMT 35.474945 -115.378075 22,650 176 436 2240
2022-05-22 18:58:18 GMT 35.489613 -115.379120 22,375 176 435 2432
2022-05-22 18:58:16 GMT 35.495773 -115.379562 22,250 176 435 2432
2022-05-22 18:58:04 GMT 35.517868 -115.381104 21,800 176 434 2432
2022-05-22 18:57:55 GMT 35.537186 -115.382507 21,400 176 432 2560
2022-05-22 18:57:44 GMT 35.559299 -115.384148 20,950 176 431 2368
2022-05-22 18:57:34 GMT 35.579178 -115.385605 20,375 176 428 2304
2022-05-22 18:57:23 GMT 35.601940 -115.387299 20,125 177 426 2240
2022-05-22 18:57:13 GMT 35.620331 -115.387535 19,800 182 422 2048
2022-05-22 18:57:02 GMT 35.641136 -115.386894 19,425 182 417 2112
2022-05-22 18:56:51 GMT 35.661438 -115.386253 19,050 182 413 2176
2022-05-22 18:56:41 GMT 35.681171 -115.385605 18,675 182 409 2048
2022-05-22 18:56:30 GMT 35.700394 -115.384995 18,300 182 405 2368
2022-05-22 18:56:21 GMT 35.720463 -115.384323 17,900 182 400 2176
2022-05-22 18:56:09 GMT 35.740723 -115.383621 17,500 182 397 2240
2022-05-22 18:56:00 GMT 35.758682 -115.383034 17,125 182 393 2560
2022-05-22 18:55:49 GMT 35.777397 -115.382393 16,650 182 391 2560
2022-05-22 18:55:39 GMT 35.796936 -115.381683 16,175 182 389 2816
2022-05-22 18:55:26 GMT 35.817947 -115.380875 15,625 182 387 2880
2022-05-22 18:55:23 GMT 35.825207 -115.380638 15,425 182 386 3008
2022-05-22 18:55:14 GMT 35.840652 -115.380020 14,975 182 385 3008
2022-05-22 18:55:02 GMT 35.861298 -115.379272 14,400 182 383 3072
2022-05-22 18:54:53 GMT 35.879791 -115.378700 13,875 182 382 3072
2022-05-22 18:54:46 GMT 35.889496 -115.378479 13,575 182 381 3264
2022-05-22 18:54:41 GMT 35.899597 -115.378128 13,050 184 379 0
2022-05-22 18:54:35 GMT 35.909046 -115.377190 13,050 187 378 2432
2022-05-22 18:54:32 GMT 35.916504 -115.376076 12,900 189 374 2368
2022-05-22 18:54:26 GMT 35.926117 -115.374069 12,675 193 370 1728
2022-05-22 18:54:21 GMT 35.933762 -115.371948 12,575 195 365 1024
2022-05-22 18:54:14 GMT 35.943588 -115.368599 12,475 198 356 576
2022-05-22 18:54:10 GMT 35.952896 -115.364685 12,400 201 347 1024
2022-05-22 18:54:04 GMT 35.959946 -115.361366 12,250 202 341 2176
2022-05-22 18:53:59 GMT 35.966309 -115.358276 12,050 202 338 2880
2022-05-22 18:53:54 GMT 35.974358 -115.354401 11,775 202 336 3456
2022-05-22 18:53:49 GMT 35.981781 -115.350723 11,475 202 336 3520
2022-05-22 18:53:44 GMT 35.992599 -115.344391 10,500 200 290 3040
2022-05-22 18:53:42 GMT 35.995129 -115.343246 10,500 200 290 3040
2022-05-22 18:53:41 GMT 35.996391 -115.342667 10,500 200 290 3040
2022-05-22 18:53:39 GMT 35.998909 -115.341530 10,500 200 290 3040
2022-05-22 18:53:38 GMT 36.000172 -115.340950 10,500 200 290 3040
2022-05-22 18:53:36 GMT 36.002701 -115.339813 10,500 200 290 3040
2022-05-22 18:53:35 GMT 36.003960 -115.339233 10,500 200 290 3040
2022-05-22 18:53:33 GMT 36.006481 -115.338089 10,500 200 290 3040
2022-05-22 18:53:32 GMT 36.007740 -115.337509 10,500 200 290 3040
2022-05-22 18:53:30 GMT 36.010269 -115.336372 10,500 200 290 3040
2022-05-22 18:53:29 GMT 36.011532 -115.335793 10,500 200 290 3040
2022-05-22 18:53:28 GMT 36.014050 -115.334641 10,500 200 290 3040
2022-05-22 18:53:26 GMT 36.015320 -115.334068 10,500 200 290 3040
2022-05-22 18:53:24 GMT 36.017841 -115.332916 10,500 200 290 3040
2022-05-22 18:53:22 GMT 36.020359 -115.331779 10,500 200 290 3040
2022-05-22 18:53:21 GMT 36.021622 -115.331200 10,500 200 290 3040
2022-05-22 18:53:19 GMT 36.024151 -115.330063 10,500 200 290 3040
2022-05-22 18:53:18 GMT 36.025410 -115.329483 10,500 200 290 3040
2022-05-22 18:53:17 GMT 36.027931 -115.328331 10,500 200 290 3040
2022-05-22 18:53:15 GMT 36.029190 -115.327759 10,500 200 290 3040
2022-05-22 18:53:14 GMT 36.031910 -115.326431 10,100 199 287 3040
2022-05-22 18:53:12 GMT 36.033161 -115.325882 10,100 199 287 3040
2022-05-22 18:53:11 GMT 36.034409 -115.325317 10,100 199 287 3040
2022-05-22 18:53:09 GMT 36.036991 -115.324203 10,100 199 286 3040
2022-05-22 18:53:08 GMT 36.039478 -115.323090 10,100 199 286 3040
2022-05-22 18:53:06 GMT 36.040722 -115.322533 10,100 199 286 3040
2022-05-22 18:53:05 GMT 36.042740 -115.321182 9,900 199 285 3040
2022-05-22 18:53:03 GMT 36.045219 -115.320084 9,900 199 285 3040
2022-05-22 18:53:01 GMT 36.046459 -115.319519 9,900 199 285 3040
2022-05-22 18:53:00 GMT 36.047699 -115.318970 9,900 199 285 3040
2022-05-22 18:52:58 GMT 36.050228 -115.317688 9,600 199 281 3040
2022-05-22 18:52:56 GMT 36.052689 -115.316643 9,600 199 281 3040
2022-05-22 18:52:55 GMT 36.053860 -115.316063 9,400 199 282 3040
2022-05-22 18:52:54 GMT 36.055092 -115.315529 9,400 199 282 3040
2022-05-22 18:52:52 GMT 36.057560 -115.314468 9,400 199 282 3040
2022-05-22 18:52:51 GMT 36.058788 -115.313942 9,400 199 282 3040
2022-05-22 18:52:49 GMT 36.060921 -115.312851 8,800 199 289 3040
2022-05-22 18:52:48 GMT 36.062180 -115.312309 8,800 199 289 3040
2022-05-22 18:52:46 GMT 36.064381 -115.310951 8,800 199 291 3040
2022-05-22 18:52:45 GMT 36.065659 -115.310432 8,800 199 291 3040
2022-05-22 18:52:43 GMT 36.068218 -115.309372 8,800 199 291 928
2022-05-22 18:52:42 GMT 36.069489 -115.308853 8,800 199 291 928
2022-05-22 18:52:40 GMT 36.071678 -115.307678 8,600 201 293 928
2022-05-22 18:52:39 GMT 36.072960 -115.307121 8,600 201 293 928
2022-05-22 18:52:38 GMT 36.074242 -115.306557 8,600 201 293 928
2022-05-22 18:52:36 GMT 36.077888 -115.304893 8,300 205 291 928
2022-05-22 18:52:34 GMT 36.079128 -115.304260 8,300 205 291 928
2022-05-22 18:52:33 GMT 36.081879 -115.303429 8,000 212 283 928
2022-05-22 18:52:30 GMT 36.085350 -115.301109 8,000 212 283 928
2022-05-22 18:52:28 GMT 36.086498 -115.300339 8,000 212 283 928
2022-05-22 18:52:27 GMT 36.089149 -115.299179 7,500 220 275 928
2022-05-22 18:52:25 GMT 36.090179 -115.298248 7,500 220 275 928
2022-05-22 18:52:23 GMT 36.093121 -115.297409 7,500 230 273 928
2022-05-22 18:52:22 GMT 36.093979 -115.296280 7,500 230 273 928
2022-05-22 18:52:21 GMT 36.095711 -115.294006 7,500 230 273 928
2022-05-22 18:52:19 GMT 36.096581 -115.292877 7,500 230 273 928
2022-05-22 18:52:17 GMT 36.099060 -115.291237 7,200 239 272 928
2022-05-22 18:52:16 GMT 36.099758 -115.289940 7,200 239 272 928
2022-05-22 18:52:14 GMT 36.101151 -115.287354 7,200 239 272 928
2022-05-22 18:52:12 GMT 36.103161 -115.284889 7,000 245 266 928
2022-05-22 18:52:11 GMT 36.103722 -115.283531 7,000 245 266 928
2022-05-22 18:52:10 GMT 36.105701 -115.281342 6,800 251 270 928
2022-05-22 18:52:07 GMT 36.106548 -115.278442 6,800 251 270 928
2022-05-22 18:52:06 GMT 36.106972 -115.276993 6,800 251 270 928
2022-05-22 18:52:05 GMT 36.107391 -115.275543 6,800 251 270 928
2022-05-22 18:52:03 GMT 36.108829 -115.272980 6,500 255 273 928
2022-05-22 18:52:02 GMT 36.109150 -115.271477 6,500 255 273 928
2022-05-22 18:52:00 GMT 36.110020 -115.267677 6,300 255 251 928
2022-05-22 18:51:59 GMT 36.110310 -115.266289 6,300 255 251 928
2022-05-22 18:51:57 GMT 36.110901 -115.263512 6,300 255 251 928
2022-05-22 18:51:56 GMT 36.111191 -115.262123 6,300 255 251 928
2022-05-22 18:51:54 GMT 36.111870 -115.258942 6,100 255 245 928
2022-05-22 18:51:53 GMT 36.112160 -115.257591 6,100 255 245 928
2022-05-22 18:51:52 GMT 36.112728 -115.254578 6,100 255 241 928
2022-05-22 18:51:50 GMT 36.113022 -115.253250 6,100 255 241 928
2022-05-22 18:51:49 GMT 36.113602 -115.250587 6,100 255 241 928
2022-05-22 18:51:47 GMT 36.113892 -115.249260 6,100 255 241 928
2022-05-22 18:51:46 GMT 36.114319 -115.247559 6,000 255 233 928
2022-05-22 18:51:45 GMT 36.114849 -115.244980 6,000 255 233 1120
2022-05-22 18:51:43 GMT 36.115120 -115.243690 6,000 255 233 1120
2022-05-22 18:51:41 GMT 36.115669 -115.241241 5,900 255 238 1120
2022-05-22 18:51:40 GMT 36.115952 -115.239922 5,900 255 238 1120
2022-05-22 18:51:38 GMT 36.116501 -115.237289 5,900 255 238 1120
2022-05-22 18:51:37 GMT 36.116669 -115.236313 5,700 254 247 1120
2022-05-22 18:51:35 GMT 36.117279 -115.233589 5,700 254 247 1120
2022-05-22 18:51:33 GMT 36.117901 -115.230873 5,700 254 247 1120
2022-05-22 18:51:32 GMT 36.118031 -115.229439 5,200 252 248 1120
2022-05-22 18:51:31 GMT 36.118389 -115.228088 5,200 252 247 1120
2022-05-22 18:51:30 GMT 36.118740 -115.226761 5,200 252 246 1120
2022-05-22 18:51:28 GMT 36.119411 -115.223923 5,200 251 239 1120
2022-05-22 18:51:26 GMT 36.120190 -115.221291 5,200 252 237 1120
2022-05-22 18:51:25 GMT 36.120499 -115.220009 5,200 252 238 1120
2022-05-22 18:51:24 GMT 36.120850 -115.218697 5,200 252 236 1120
2022-05-22 18:51:22 GMT 36.121471 -115.216118 4,850 251 237 1120
2022-05-22 18:51:21 GMT 36.121799 -115.214813 4,850 251 236 1120
2022-05-22 18:51:20 GMT 36.122478 -115.212257 4,850 250 237 1120
2022-05-22 18:51:18 GMT 36.122849 -115.210991 4,850 250 238 1120
2022-05-22 18:51:17 GMT 36.123230 -115.209717 4,850 250 239 1120
2022-05-22 18:51:15 GMT 36.123901 -115.207138 4,700 249 240 1120
2022-05-22 18:51:13 GMT 36.124592 -115.204613 4,500 249 243 1120
2022-05-22 18:51:12 GMT 36.125332 -115.202019 4,500 250 243 1120
2022-05-22 18:51:10 GMT 36.125690 -115.200737 4,500 250 243 1120
2022-05-22 18:51:08 GMT 36.126431 -115.198143 4,400 251 241 1120
2022-05-22 18:51:07 GMT 36.126820 -115.196831 4,400 253 239 1120
2022-05-22 18:51:06 GMT 36.127491 -115.194252 4,300 255 236 1120
2022-05-22 18:51:04 GMT 36.127789 -115.192909 4,300 256 232 1120
2022-05-22 18:51:02 GMT 36.128311 -115.190361 4,300 258 230 1120
2022-05-22 18:51:01 GMT 36.128738 -115.187782 4,250 260 227 1120
2022-05-22 18:50:59 GMT 36.129059 -115.185226 4,250 261 224 1120
2022-05-22 18:50:57 GMT 36.129200 -115.183990 4,250 261 225 1120
2022-05-22 18:50:56 GMT 36.129429 -115.181473 4,175 263 222 1120
2022-05-22 18:50:54 GMT 36.129520 -115.180206 4,175 263 221 1120
2022-05-22 18:50:52 GMT 36.129719 -115.177742 4,200 266 219 1120
2022-05-22 18:50:51 GMT 36.129768 -115.176483 4,125 268 217 1120
2022-05-22 18:50:49 GMT 36.129848 -115.174042 4,000 272 214 1120
2022-05-22 18:50:48 GMT 36.129810 -115.172829 4,000 274 213 1120
2022-05-22 18:50:47 GMT 36.129711 -115.170502 4,000 279 214 1120
2022-05-22 18:50:45 GMT 36.129608 -115.169289 4,000 282 212 1120
2022-05-22 18:50:44 GMT 36.129452 -115.168129 4,000 285 212 -352
2022-05-22 18:50:43 GMT 36.129250 -115.166992 4,000 288 212 -352
2022-05-22 18:50:41 GMT 36.128738 -115.164719 3,825 294 210 -352
2022-05-22 18:50:40 GMT 36.128441 -115.163589 3,825 297 208 -352
2022-05-22 18:50:37 GMT 36.127190 -115.160500 3,825 306 207 -352
2022-05-22 18:50:36 GMT 36.126678 -115.159508 3,750 308 205 -352
2022-05-22 18:50:34 GMT 36.125519 -115.157639 3,750 314 198 -352
2022-05-22 18:50:32 GMT 36.124290 -115.155960 3,675 320 194 -352
2022-05-22 18:50:31 GMT 36.123631 -115.155251 3,675 322 194 160
2022-05-22 18:50:30 GMT 36.122929 -115.154556 3,700 323 193 160
2022-05-22 18:50:28 GMT 36.121529 -115.153252 3,500 328 192 160
2022-05-22 18:50:27 GMT 36.120800 -115.152634 3,500 331 190 160
2022-05-22 18:50:25 GMT 36.119289 -115.151611 3,500 335 190 160
2022-05-22 18:50:24 GMT 36.118519 -115.151154 3,400 337 190 160
2022-05-22 18:50:23 GMT 36.117741 -115.150726 3,400 339 191 160
2022-05-22 18:50:21 GMT 36.116138 -115.149979 3,400 345 191 160
2022-05-22 18:50:20 GMT 36.115341 -115.149651 3,300 349 191 160
2022-05-22 18:50:18 GMT 36.113689 -115.149040 2,950 357 192 160
2022-05-22 18:50:17 GMT 36.112801 -115.148949 2,950 359 189 160
2022-05-22 18:50:15 GMT 36.111050 -115.148888 2,950 4 186 160
2022-05-22 18:50:14 GMT 36.110191 -115.148918 2,950 7 185 160
2022-05-22 18:50:12 GMT 36.108459 -115.149117 2,950 12 180 160
2022-05-22 18:50:11 GMT 36.107639 -115.149338 2,950 14 179 160
2022-05-22 18:50:09 GMT 36.106030 -115.149773 2,700 19 179 160
2022-05-22 18:50:08 GMT 36.105270 -115.150101 2,700 20 180 160
2022-05-22 18:50:07 GMT 36.104439 -115.150414 2,700 22 176 160
2022-05-22 18:50:06 GMT 36.102921 -115.151169 2,650 23 175 160
2022-05-22 18:50:04 GMT 36.102161 -115.151550 2,650 24 173 160
2022-05-22 18:50:03 GMT 36.100739 -115.152397 2,600 23 177 160
2022-05-22 18:50:01 GMT 36.099930 -115.152771 2,575 25 170 160
2022-05-22 18:50:00 GMT 36.099209 -115.153214 2,525 25 169 160
2022-05-22 18:49:59 GMT 36.097839 -115.154037 2,175 24 177 160
2022-05-22 18:49:57 GMT 36.097080 -115.154480 2,175 24 172 160
2022-05-22 18:49:55 GMT 36.095631 -115.155273 2,175 25 172 160
2022-05-22 18:49:54 GMT 36.094940 -115.155693 2,175 24 177 160
2022-05-22 18:49:52 GMT 36.093491 -115.156487 2,175 24 179 160
2022-05-22 18:49:51 GMT 36.092751 -115.156898 2,175 24 178 160
2022-05-22 18:49:49 GMT 36.091282 -115.157753 2,125 24 175 160
2022-05-22 18:49:48 GMT 36.090549 -115.158180 2,125 24 172 160
2022-05-22 18:49:46 GMT 36.089100 -115.158981 2,125 24 166 160
2022-05-22 18:49:44 GMT 36.087700 -115.159790 2,125 24 157 -32
2022-05-22 18:49:43 GMT 36.087059 -115.160156 2,125 24 155 -736
2022-05-22 18:49:41 GMT 36.085770 -115.160889 2,125 25 149 -736
2022-05-22 18:49:40 GMT 36.085140 -115.161247 2,150 25 144 224
2022-05-22 18:49:38 GMT 36.083920 -115.161957 2,150 25 134 224
2022-05-22 18:49:37 GMT 36.083351 -115.162308 2,150 24 130 224
2022-05-22 18:49:36 GMT 36.082260 -115.162910 2,150 24 124 0
2022-05-22 18:49:34 GMT 36.081741 -115.163193 2,150 25 120 0
2022-05-22 18:49:33 GMT 36.081211 -115.163521 2,150 24 113 0
2022-05-22 18:49:31 GMT 36.080280 -115.164040 0 24 108
2022-05-22 18:49:30 GMT 36.079842 -115.164284 0 24 105
2022-05-22 18:49:28 GMT 36.078972 -115.164787 0 24 97
2022-05-22 18:49:27 GMT 36.078571 -115.165009 0 25 92
2022-05-22 18:49:26 GMT 36.077728 -115.165512 0 24 77
2022-05-22 18:49:24 GMT 36.077381 -115.165710 0 24 71
2022-05-22 18:49:23 GMT 36.076729 -115.166069 0 24 58
2022-05-22 18:49:21 GMT 36.076439 -115.166229 0 25 52
2022-05-22 18:49:19 GMT 36.075920 -115.166519 0 25 37
2022-05-22 18:49:18 GMT 36.075710 -115.166649 0 25 31
2022-05-22 18:49:17 GMT 36.075508 -115.166763 0 25 25
2022-05-22 18:49:15 GMT 36.075211 -115.166946 0 25 15
2022-05-22 18:49:14 GMT 36.075111 -115.167000 0 25 13
2022-05-22 18:49:13 GMT 36.075031 -115.167053 0 24 11
2022-05-22 18:49:11 GMT 36.074909 -115.167130 0 23 9
2022-05-22 18:49:10 GMT 36.074860 -115.167152 0 23 8
2022-05-22 18:49:09 GMT 36.074772 -115.167198 0 19 7
2022-05-22 18:49:07 GMT 36.074741 -115.167229 0 17 7
2022-05-22 18:49:05 GMT 36.074669 -115.167267 0 11 6
2022-05-22 18:49:04 GMT 36.074600 -115.167320 0 358 5
2022-05-22 18:49:02 GMT 36.074551 -115.167351 0 339 5
2022-05-22 18:49:00 GMT 36.074532 -115.167358 0 331 5
2022-05-22 18:48:59 GMT 36.074501 -115.167381 0 323 5
2022-05-22 18:48:57 GMT 36.074459 -115.167397 0 310 7
2022-05-22 18:48:56 GMT 36.074429 -115.167397 0 306 7
2022-05-22 18:48:54 GMT 36.074390 -115.167381 0 300 8
2022-05-22 18:48:53 GMT 36.074360 -115.167343 0 298 7
2022-05-22 18:48:52 GMT 36.074322 -115.167267 0 298 7
2022-05-22 18:48:50 GMT 36.074291 -115.167191 0 299 7
2022-05-22 18:48:48 GMT 36.074268 -115.167152 0 298 7
2022-05-22 18:48:47 GMT 36.074261 -115.167107 0 298 6
2022-05-22 18:48:46 GMT 36.074230 -115.167038 0 296 6
2022-05-22 18:48:44 GMT 36.074211 -115.167000 0 295 6
2022-05-22 18:48:42 GMT 36.074188 -115.166946 0 292 6
2022-05-22 18:48:41 GMT 36.074169 -115.166908 0 289 6
2022-05-22 18:48:39 GMT 36.074139 -115.166847 0 287 5
2022-05-22 18:48:38 GMT 36.074131 -115.166809 0 286 5
2022-05-22 18:48:36 GMT 36.074108 -115.166763 0 286 5
2022-05-22 18:48:34 GMT 36.074100 -115.166733 0 287 5
2022-05-22 18:48:33 GMT 36.074100 -115.166702 0 289 6
2022-05-22 18:48:32 GMT 36.074089 -115.166672 0 290 7
2022-05-22 18:48:30 GMT 36.074059 -115.166603 0 293 7
2022-05-22 18:48:29 GMT 36.074070 -115.166542 0 307 6
2022-05-22 18:48:28 GMT 36.074070 -115.166496 0 313 6
2022-05-22 18:48:27 GMT 36.074039 -115.166451 0 309 5
2022-05-22 18:48:25 GMT 36.074020 -115.166443 0 302 5
2022-05-22 18:48:23 GMT 36.073978 -115.166397 0 294 5
2022-05-22 18:48:22 GMT 36.073978 -115.166367 0 289 5
2022-05-22 18:48:21 GMT 36.073959 -115.166359 0 282 5
2022-05-22 18:48:19 GMT 36.073959 -115.166290 0 295 5
2022-05-22 18:48:18 GMT 36.073952 -115.166260 0 299 5
2022-05-22 18:48:17 GMT 36.073952 -115.166206 0 300 5
2022-05-22 18:48:15 GMT 36.073921 -115.166199 0 285 5
2022-05-22 18:48:14 GMT 36.073891 -115.166153 0 274 4
2022-05-22 18:48:12 GMT 36.073891 -115.166122 0 286 4
2022-05-22 18:48:11 GMT 36.073910 -115.166100 0 292 4
2022-05-22 18:48:09 GMT 36.073898 -115.166077 0 289 7
2022-05-22 18:48:08 GMT 36.073872 -115.165977 0 283 4
2022-05-22 18:48:06 GMT 36.073872 -115.165947 0 279 3
2022-05-22 18:48:04 GMT 36.073860 -115.165916 0 260 4
2022-05-22 18:48:02 GMT 36.073849 -115.165871 0 246 0
2022-05-22 18:48:01 GMT 36.073818 -115.165878 0 243 4
2022-05-22 18:48:00 GMT 36.073849 -115.165848 0 252 5
2022-05-22 18:47:58 GMT 36.073841 -115.165863 0 252 7
2022-05-22 18:47:57 GMT 36.073849 -115.165817 0 247 7
2022-05-22 18:47:55 GMT 36.073879 -115.165741 0 249 7
2022-05-22 18:47:53 GMT 36.073910 -115.165642 0 241 4
2022-05-22 18:47:52 GMT 36.073921 -115.165619 0 233 4
2022-05-22 18:47:50 GMT 36.073952 -115.165527 0 232 3
2022-05-22 18:47:49 GMT 36.074001 -115.165497 0 233 0
2022-05-22 18:47:48 GMT 36.074020 -115.165459 0 233 0
2022-05-22 18:47:45 GMT 36.073990 -115.165466 0 233 0
2022-05-22 18:47:44 GMT 36.074001 -115.165482 0 233 0
2022-05-22 18:47:42 GMT 36.074001 -115.165482 0 233 0
2022-05-22 18:47:40 GMT 36.074009 -115.165466 0 229 0
2022-05-22 18:47:38 GMT 36.074001 -115.165489 0 229 0
2022-05-22 18:47:37 GMT 36.074032 -115.165443 0 229 0
2022-05-22 18:47:36 GMT 36.074032 -115.165390 0 229 0
2022-05-22 18:47:32 GMT 36.074001 -115.165466 0 229 0
2022-05-22 18:47:31 GMT 36.073990 -115.165428 0 229 0
2022-05-22 18:47:30 GMT 36.073990 -115.165443 0 229 0
2022-05-22 18:47:28 GMT 36.074020 -115.165413 0 229 0
2022-05-22 18:47:26 GMT 36.074020 -115.165421 0 229 0
2022-05-22 18:47:25 GMT 36.074009 -115.165451 0 229 0
2022-05-22 18:47:23 GMT 36.074001 -115.165466 0 229 0
2022-05-22 18:47:21 GMT 36.073971 -115.165428 0 231 2
2022-05-22 18:47:20 GMT 36.073971 -115.165451 0 232 2
2022-05-22 18:47:19 GMT 36.074020 -115.165459 0 232 0
2022-05-22 18:47:17 GMT 36.074020 -115.165459 0 232 0
2022-05-22 18:47:16 GMT 36.074020 -115.165482 0 232 0
2022-05-22 18:47:14 GMT 36.074020 -115.165459 0 232 0
2022-05-22 18:47:12 GMT 36.074020 -115.165466 0 232 0
2022-05-22 18:47:11 GMT 36.074020 -115.165390 0 236 2
2022-05-22 18:47:09 GMT 36.074020 -115.165428 0 236 1
2022-05-22 18:47:08 GMT 36.074009 -115.165466 0 236 0
2022-05-22 18:47:06 GMT 36.074032 -115.165451 0 236 1
2022-05-22 18:47:05 GMT 36.074032 -115.165489 0 236 1
2022-05-22 18:47:02 GMT 36.074001 -115.165489 0 236 0
2022-05-22 18:47:01 GMT 36.074020 -115.165421 0 240 2
2022-05-22 18:46:59 GMT 36.074009 -115.165451 0 242 1
2022-05-22 18:46:58 GMT 36.074009 -115.165459 0 243 2
2022-05-22 18:46:56 GMT 36.074020 -115.165497 0 242 1
2022-05-22 18:46:54 GMT 36.073990 -115.165520 0 242 0
2022-05-22 18:46:53 GMT 36.073978 -115.165520 0 242 0
2022-05-22 18:46:52 GMT 36.073959 -115.165558 0 242 2
2022-05-22 18:46:49 GMT 36.073959 -115.165558 0 243 2
2022-05-22 18:46:47 GMT 36.074001 -115.165550 0 242 3
2022-05-22 18:46:46 GMT 36.073990 -115.165520 0 242 1
2022-05-22 18:46:44 GMT 36.073990 -115.165482 0 242 2
2022-05-22 18:46:43 GMT 36.074020 -115.165497 0 235 1
2022-05-22 18:46:41 GMT 36.074020 -115.165482 0 231 2
2022-05-22 18:46:39 GMT 36.073990 -115.165497 0 219 1
2022-05-22 18:46:38 GMT 36.074001 -115.165497 0 219 2
2022-05-22 18:46:37 GMT 36.073971 -115.165527 0 219 0
2022-05-22 18:46:35 GMT 36.073952 -115.165550 0 219 1
2022-05-22 18:46:34 GMT 36.073952 -115.165558 0 221 2
2022-05-22 18:46:32 GMT 36.073959 -115.165558 0 218 3
2022-05-22 18:46:30 GMT 36.073971 -115.165550 0 217 3
2022-05-22 18:46:28 GMT 36.073978 -115.165512 0 214 2
2022-05-22 18:46:27 GMT 36.073959 -115.165497 0 213 3
2022-05-22 18:46:25 GMT 36.073978 -115.165497 0 220 4
2022-05-22 18:46:24 GMT 36.074009 -115.165466 0 221 4
2022-05-22 18:46:21 GMT 36.074051 -115.165413 0 217 1
2022-05-22 18:46:19 GMT 36.074051 -115.165421 0 217 0
2022-05-22 18:46:18 GMT 36.074059 -115.165413 0 217 1
2022-05-22 18:46:16 GMT 36.074051 -115.165421 0 216 3
2022-05-22 18:46:15 GMT 36.074051 -115.165413 0 211 3
2022-05-22 18:46:14 GMT 36.074051 -115.165398 0 208 4
2022-05-22 18:46:12 GMT 36.074081 -115.165382 0 208 4
2022-05-22 18:46:11 GMT 36.074108 -115.165337 0 197 4
2022-05-22 18:46:09 GMT 36.074120 -115.165337 0 203 5
2022-05-22 18:46:07 GMT 36.074169 -115.165329 0 210 4
2022-05-22 18:46:06 GMT 36.074169 -115.165321 0 202 5
2022-05-22 18:46:05 GMT 36.074188 -115.165314 0 205 5
2022-05-22 18:46:04 GMT 36.074230 -115.165314 0 211 5
2022-05-22 18:46:02 GMT 36.074242 -115.165291 0 203 6
2022-05-22 18:46:01 GMT 36.074280 -115.165253 0 198 4
2022-05-22 18:45:59 GMT 36.074322 -115.165230 0 198 4
2022-05-22 18:45:58 GMT 36.074341 -115.165230 0 204 4
2022-05-22 18:45:56 GMT 36.074371 -115.165222 0 207 4
2022-05-22 18:45:54 GMT 36.074390 -115.165207 0 202 4
2022-05-22 18:45:53 GMT 36.074421 -115.165192 0 205 4
2022-05-22 18:45:51 GMT 36.074440 -115.165169 0 207 3
2022-05-22 18:45:49 GMT 36.074478 -115.165154 0 206 2
2022-05-22 18:45:48 GMT 36.074478 -115.165161 0 206 2
2022-05-22 18:45:46 GMT 36.074501 -115.165138 0 206 1
2022-05-22 18:45:44 GMT 36.074509 -115.165131 0 206 1
2022-05-22 18:45:43 GMT 36.074532 -115.165100 0 206 0
2022-05-22 18:45:40 GMT 36.074570 -115.165100 0 206 0
2022-05-22 18:45:37 GMT 36.074570 -115.165108 0 206 0
2022-05-22 18:45:36 GMT 36.074558 -115.165108 0 206 0
2022-05-22 18:45:33 GMT 36.074551 -115.165131 0 206 0
2022-05-22 18:45:32 GMT 36.074581 -115.165092 0 206 0
2022-05-22 18:45:30 GMT 36.074581 -115.165100 0 206 0
2022-05-22 18:45:28 GMT 36.074570 -115.165123 0 206 1
2022-05-22 18:45:25 GMT 36.074589 -115.165108 0 206 0
2022-05-22 18:45:24 GMT 36.074581 -115.165123 0 206 0
2022-05-22 18:45:21 GMT 36.074581 -115.165100 0 206 0
2022-05-22 18:45:14 GMT 36.074589 -115.165100 0 206 0
2022-05-22 18:45:12 GMT 36.074581 -115.165108 0 207 0
2022-05-22 18:45:10 GMT 36.074589 -115.165100 0 207 0
2022-05-22 18:45:09 GMT 36.074581 -115.165108 0 207 0
2022-05-22 18:45:07 GMT 36.074589 -115.165100 0 207 0
2022-05-22 18:45:06 GMT 36.074581 -115.165108 0 207 0
2022-05-22 18:45:01 GMT 36.074589 -115.165100 0 210 0
2022-05-22 18:45:00 GMT 36.074581 -115.165108 0 214 0
2022-05-22 18:44:59 GMT 36.074589 -115.165100 0 214 0
2022-05-22 18:44:57 GMT 36.074581 -115.165092 0 214 1
2022-05-22 18:44:56 GMT 36.074581 -115.165100 0 214 1
2022-05-22 18:44:54 GMT 36.074581 -115.165092 0 213 2
2022-05-22 18:44:53 GMT 36.074581 -115.165100 0 213 2
2022-05-22 18:44:51 GMT 36.074589 -115.165077 0 203 3
2022-05-22 18:44:50 GMT 36.074612 -115.165062 0 204 3
2022-05-22 18:44:48 GMT 36.074638 -115.165047 0 210 3
2022-05-22 18:44:47 GMT 36.074650 -115.165047 0 210 3
2022-05-22 18:44:45 GMT 36.074669 -115.165039 0 208 3
2022-05-22 18:44:44 GMT 36.074669 -115.165031 0 207 5
2022-05-22 18:44:43 GMT 36.074692 -115.165039 0 213 6
2022-05-22 18:44:41 GMT 36.074711 -115.165024 0 207 7
2022-05-22 18:44:40 GMT 36.074741 -115.164993 0 202 6
2022-05-22 18:44:39 GMT 36.074791 -115.164948 0 207 6
2022-05-22 18:44:37 GMT 36.074829 -115.164940 0 209 5
2022-05-22 18:44:36 GMT 36.074841 -115.164932 0 209 7
2022-05-22 18:44:34 GMT 36.074902 -115.164879 0 203 7
2022-05-22 18:44:32 GMT 36.074940 -115.164864 0 203 5
2022-05-22 18:44:31 GMT 36.074970 -115.164841 0 203 7
2022-05-22 18:44:30 GMT 36.075008 -115.164833 0 205 6
2022-05-22 18:44:29 GMT 36.075050 -115.164810 0 207 7
2022-05-22 18:44:27 GMT 36.075069 -115.164810 0 208 9
2022-05-22 18:44:26 GMT 36.075142 -115.164749 0 207 9
2022-05-22 18:44:24 GMT 36.075191 -115.164726 0 207 8
2022-05-22 18:44:23 GMT 36.075241 -115.164658 0 198 9
2022-05-22 18:44:21 GMT 36.075291 -115.164650 0 203 8
2022-05-22 18:44:20 GMT 36.075359 -115.164627 0 208 8
2022-05-22 18:44:18 GMT 36.075390 -115.164612 0 205 9
2022-05-22 18:44:17 GMT 36.075420 -115.164589 0 208 9
2022-05-22 18:44:15 GMT 36.075489 -115.164543 0 201 9
2022-05-22 18:44:14 GMT 36.075531 -115.164513 0 198 9
2022-05-22 18:44:12 GMT 36.075600 -115.164490 0 204 9
2022-05-22 18:44:11 GMT 36.075649 -115.164452 0 201 7
2022-05-22 18:44:09 GMT 36.075722 -115.164429 0 205 8
2022-05-22 18:44:08 GMT 36.075748 -115.164391 0 201 8
2022-05-22 18:44:07 GMT 36.075840 -115.164352 0 201 6
2022-05-22 18:44:05 GMT 36.075859 -115.164330 0 198 7
2022-05-22 18:44:04 GMT 36.075932 -115.164299 0 184 6
2022-05-22 18:44:02 GMT 36.075958 -115.164284 0 166 5
2022-05-22 18:44:01 GMT 36.076012 -115.164268 0 113 4
2022-05-22 18:43:59 GMT 36.076038 -115.164253 0 107 2
2022-05-22 18:43:55 GMT 36.076061 -115.164230 0 93 3
2022-05-22 18:43:54 GMT 36.076080 -115.164200 0 89 2
2022-05-22 18:43:53 GMT 36.076099 -115.164200 0 89 0
2022-05-22 18:43:51 GMT 36.076130 -115.164177 0 89 0
2022-05-22 18:43:50 GMT 36.076118 -115.164169 0 89 0
2022-05-22 18:43:48 GMT 36.076118 -115.164192 0 89 0
2022-05-22 18:43:47 GMT 36.076130 -115.164177 0 89 0
2022-05-22 18:43:45 GMT 36.076130 -115.164177 0 89 0
2022-05-22 18:43:44 GMT 36.076141 -115.164200 0 89 1
2022-05-22 18:43:43 GMT 36.076130 -115.164192 0 89 1
2022-05-22 18:43:41 GMT 36.076118 -115.164192 0 89 2
2022-05-22 18:43:39 GMT 36.076130 -115.164162 0 89 0
2022-05-22 18:43:38 GMT 36.076141 -115.164146 0 89 0
2022-05-22 18:43:35 GMT 36.076141 -115.164146 0 89 0
2022-05-22 18:43:34 GMT 36.076149 -115.164131 0 89 2
2022-05-22 18:43:29 GMT 36.076141 -115.164169 0 90 0
2022-05-22 18:43:27 GMT 36.076141 -115.164162 0 90 0
2022-05-22 18:43:25 GMT 36.076141 -115.164162 0 90 0
2022-05-22 18:43:24 GMT 36.076141 -115.164169 0 90 0
2022-05-22 18:43:22 GMT 36.076141 -115.164162 0 90 0
2022-05-22 18:43:20 GMT 36.076141 -115.164146 0 90 0
2022-05-22 18:43:18 GMT 36.076130 -115.164162 0 90 0
2022-05-22 18:43:14 GMT 36.076149 -115.164146 0 93 1
2022-05-22 18:43:12 GMT 36.076141 -115.164162 0 94 3
2022-05-22 18:43:11 GMT 36.076149 -115.164146 0 90 3
2022-05-22 18:43:09 GMT 36.076199 -115.164124 0 90 0
2022-05-22 18:43:08 GMT 36.076199 -115.164131 0 90 0
2022-05-22 18:43:06 GMT 36.076210 -115.164124 0 90 1
2022-05-22 18:43:04 GMT 36.076199 -115.164124 0 90 3
2022-05-22 18:43:03 GMT 36.076199 -115.164139 0 91 3
2022-05-22 18:43:02 GMT 36.076241 -115.164146 0 90 3
2022-05-22 18:43:00 GMT 36.076248 -115.164124 0 90 2
2022-05-22 18:42:59 GMT 36.076260 -115.164131 0 91 3
2022-05-22 18:42:57 GMT 36.076279 -115.164101 0 95 3
2022-05-22 18:42:56 GMT 36.076290 -115.164078 0 99 2
2022-05-22 18:42:54 GMT 36.076309 -115.164078 0 122 2
2022-05-22 18:42:53 GMT 36.076309 -115.164070 0 162 2
2022-05-22 18:42:51 GMT 36.076321 -115.164078 0 212 5
2022-05-22 18:42:50 GMT 36.076359 -115.164062 0 180 4
2022-05-22 18:42:48 GMT 36.076370 -115.164032 0 180 4
2022-05-22 18:42:47 GMT 36.076420 -115.164001 0 94 4
2022-05-22 18:42:45 GMT 36.076431 -115.163986 0 99 3
2022-05-22 18:42:44 GMT 36.076462 -115.163971 0 117 3
2022-05-22 18:42:42 GMT 36.076481 -115.163971 0 136 3
2022-05-22 18:42:41 GMT 36.076511 -115.163963 0 147 3
2022-05-22 18:42:39 GMT 36.076519 -115.163948 0 201 4
2022-05-22 18:42:37 GMT 36.076561 -115.163940 0 204 5
2022-05-22 18:42:36 GMT 36.076569 -115.163933 0 202 5
2022-05-22 18:42:34 GMT 36.076618 -115.163910 0 209 4
2022-05-22 18:42:33 GMT 36.076641 -115.163902 0 207 4
2022-05-22 18:42:31 GMT 36.076672 -115.163849 0 200 3
2022-05-22 18:42:29 GMT 36.076698 -115.163841 0 203 5
2022-05-22 18:42:27 GMT 36.076698 -115.163857 0 207 9
2022-05-22 18:42:25 GMT 36.076801 -115.163811 0 211 6
2022-05-22 18:42:24 GMT 36.076820 -115.163780 0 204 6
2022-05-22 18:42:22 GMT 36.076881 -115.163727 0 200 4
2022-05-22 18:42:21 GMT 36.076920 -115.163696 0 200 1
2022-05-22 18:42:20 GMT 36.076962 -115.163689 0 200 0
2022-05-22 18:42:18 GMT 36.076969 -115.163689 0 200 0
2022-05-22 18:42:16 GMT 36.076981 -115.163673 0 199 0
2022-05-22 18:42:15 GMT 36.077019 -115.163612 0 199 0
2022-05-22 18:42:13 GMT 36.076988 -115.163658 0 200 0
2022-05-22 18:42:10 GMT 36.076988 -115.163673 0 200 0
2022-05-22 18:42:05 GMT 36.077011 -115.163658 0 200 0
2022-05-22 18:42:03 GMT 36.077019 -115.163673 0 200 0
2022-05-22 18:42:01 GMT 36.077019 -115.163673 0 200 0
2022-05-22 18:42:00 GMT 36.077019 -115.163673 0 200 0
2022-05-22 18:41:58 GMT 36.077019 -115.163658 0 200 0
2022-05-22 18:41:57 GMT 36.077042 -115.163658 0 197 1
2022-05-22 18:41:55 GMT 36.077030 -115.163658 0 197 0
2022-05-22 18:41:52 GMT 36.077011 -115.163651 0 197 0
2022-05-22 18:41:51 GMT 36.077000 -115.163658 0 197 1
2022-05-22 18:41:50 GMT 36.076988 -115.163681 0 194 4
2022-05-22 18:41:48 GMT 36.077000 -115.163658 0 190 4
2022-05-22 18:41:46 GMT 36.077049 -115.163628 0 192 1
2022-05-22 18:41:45 GMT 36.077049 -115.163620 0 200 2
2022-05-22 18:41:41 GMT 36.077061 -115.163658 0 205 0
2022-05-22 18:41:40 GMT 36.077068 -115.163651 0 205 0
2022-05-22 18:41:39 GMT 36.077080 -115.163643 0 205 0
2022-05-22 18:41:37 GMT 36.077068 -115.163651 0 205 2
2022-05-22 18:41:36 GMT 36.077080 -115.163651 0 205 1
2022-05-22 18:41:35 GMT 36.077091 -115.163628 0 204 3
2022-05-22 18:41:33 GMT 36.077099 -115.163628 0 204 3
2022-05-22 18:41:31 GMT 36.077122 -115.163620 0 208 5
2022-05-22 18:41:30 GMT 36.077141 -115.163620 0 208 6
2022-05-22 18:41:28 GMT 36.077171 -115.163589 0 206 7
2022-05-22 18:41:27 GMT 36.077229 -115.163551 0 208 5
2022-05-22 18:41:25 GMT 36.077240 -115.163551 0 204 8
2022-05-22 18:41:24 GMT 36.077278 -115.163528 0 205 8
2022-05-22 18:41:22 GMT 36.077351 -115.163490 0 207 7
2022-05-22 18:41:21 GMT 36.077370 -115.163467 0 204 8
2022-05-22 18:41:19 GMT 36.077450 -115.163429 0 202 7
2022-05-22 18:41:18 GMT 36.077480 -115.163399 0 201 6
2022-05-22 18:41:17 GMT 36.077541 -115.163383 0 205 6
2022-05-22 18:41:15 GMT 36.077560 -115.163368 0 205 7
2022-05-22 18:41:13 GMT 36.077621 -115.163330 0 210 7
2022-05-22 18:41:12 GMT 36.077648 -115.163330 0 211 8
2022-05-22 18:41:11 GMT 36.077709 -115.163277 0 212 7
2022-05-22 18:41:09 GMT 36.077740 -115.163254 0 218 7
2022-05-22 18:41:07 GMT 36.077789 -115.163239 0 228 8
2022-05-22 18:41:06 GMT 36.077820 -115.163193 0 226 7
2022-05-22 18:41:04 GMT 36.077862 -115.163139 0 231 7
2022-05-22 18:41:03 GMT 36.077888 -115.163109 0 235 6
2022-05-22 18:41:02 GMT 36.077911 -115.163071 0 238 6
2022-05-22 18:41:00 GMT 36.077950 -115.163017 0 252 6
2022-05-22 18:40:59 GMT 36.077969 -115.162987 0 252 5
2022-05-22 18:40:57 GMT 36.077969 -115.162933 0 245 6
2022-05-22 18:40:56 GMT 36.077991 -115.162903 0 251 5
2022-05-22 18:40:54 GMT 36.077999 -115.162857 0 254 6
2022-05-22 18:40:53 GMT 36.078011 -115.162842 0 256 7
2022-05-22 18:40:52 GMT 36.078041 -115.162758 0 269 6
2022-05-22 18:40:50 GMT 36.078049 -115.162727 0 272 7
2022-05-22 18:40:49 GMT 36.078030 -115.162643 0 264 6
2022-05-22 18:40:47 GMT 36.078030 -115.162628 0 268 7
2022-05-22 18:40:46 GMT 36.078049 -115.162567 0 268 6
2022-05-22 18:40:45 GMT 36.078049 -115.162514 0 276 5
2022-05-22 18:40:43 GMT 36.078060 -115.162468 0 282 4
2022-05-22 18:40:41 GMT 36.078049 -115.162422 0 283 4
2022-05-22 18:40:39 GMT 36.078049 -115.162376 0 283 4
2022-05-22 18:40:38 GMT 36.078030 -115.162361 0 271 4
2022-05-22 18:40:36 GMT 36.078030 -115.162308 0 261 3
2022-05-22 18:40:35 GMT 36.078041 -115.162270 0 263 2
2022-05-22 18:40:34 GMT 36.078030 -115.162247 0 263 2
2022-05-22 18:40:33 GMT 36.078041 -115.162231 0 263 2
2022-05-22 18:40:31 GMT 36.078049 -115.162193 0 263 0
2022-05-22 18:40:30 GMT 36.078049 -115.162201 0 263 0
2022-05-22 18:40:26 GMT 36.078041 -115.162170 0 264 0
2022-05-22 18:40:25 GMT 36.078049 -115.162163 0 264 1
2022-05-22 18:40:22 GMT 36.078049 -115.162170 0 264 1
2022-05-22 18:40:20 GMT 36.078060 -115.162193 0 263 2
2022-05-22 18:40:19 GMT 36.078041 -115.162201 0 261 1
2022-05-22 18:40:16 GMT 36.078030 -115.162178 0 264 0
2022-05-22 18:40:13 GMT 36.078030 -115.162209 0 267 0
2022-05-22 18:40:12 GMT 36.078030 -115.162201 0 267 0
2022-05-22 18:40:10 GMT 36.078030 -115.162193 0 267 0
2022-05-22 18:40:07 GMT 36.078011 -115.162209 0 275 1
2022-05-22 18:40:05 GMT 36.078018 -115.162209 0 276 1
2022-05-22 18:40:04 GMT 36.078030 -115.162239 0 276 1
2022-05-22 18:40:02 GMT 36.078030 -115.162178 0 278 0
2022-05-22 18:40:01 GMT 36.078041 -115.162193 0 278 0
2022-05-22 18:39:57 GMT 36.078041 -115.162193 0 280 0
2022-05-22 18:39:54 GMT 36.078041 -115.162178 0 278 1
2022-05-22 18:39:51 GMT 36.078041 -115.162178 0 278 1
2022-05-22 18:39:49 GMT 36.078049 -115.162178 0 278 1
2022-05-22 18:39:48 GMT 36.078041 -115.162216 0 278 1
2022-05-22 18:39:45 GMT 36.078041 -115.162201 0 275 1
2022-05-22 18:39:44 GMT 36.078030 -115.162193 0 274 0
2022-05-22 18:39:42 GMT 36.078030 -115.162209 0 274 1
2022-05-22 18:39:39 GMT 36.078030 -115.162193 0 274 0
2022-05-22 18:39:37 GMT 36.078041 -115.162193 0 274 0
2022-05-22 18:39:35 GMT 36.078041 -115.162178 0 274 0
2022-05-22 18:39:34 GMT 36.078041 -115.162193 0 274 1
2022-05-22 18:39:33 GMT 36.078060 -115.162148 0 271 2
2022-05-22 18:39:31 GMT 36.078049 -115.162170 0 258 1
2022-05-22 18:39:30 GMT 36.078041 -115.162193 0 256 1
2022-05-22 18:39:27 GMT 36.078041 -115.162201 0 256 0
2022-05-22 18:39:23 GMT 36.078041 -115.162193 0 256 0
2022-05-22 18:39:21 GMT 36.078030 -115.162201 0 255 0
2022-05-22 18:39:18 GMT 36.078018 -115.162178 0 255 0
2022-05-22 18:39:15 GMT 36.078011 -115.162201 0 259 4
2022-05-22 18:39:13 GMT 36.078018 -115.162178 0 260 5
2022-05-22 18:39:12 GMT 36.078030 -115.162148 0 263 5
2022-05-22 18:39:11 GMT 36.078030 -115.162086 0 265 5
2022-05-22 18:39:09 GMT 36.078030 -115.162064 0 268 5
2022-05-22 18:39:08 GMT 36.078041 -115.162041 0 273 7
2022-05-22 18:39:06 GMT 36.078041 -115.161949 0 268 6
2022-05-22 18:39:05 GMT 36.078030 -115.161919 0 268 7
2022-05-22 18:39:03 GMT 36.078041 -115.161850 0 269 8
2022-05-22 18:39:02 GMT 36.078018 -115.161827 0 265 9
2022-05-22 18:39:01 GMT 36.078041 -115.161720 0 268 9
2022-05-22 18:38:59 GMT 36.078030 -115.161652 0 267 8
2022-05-22 18:38:57 GMT 36.078049 -115.161591 0 274 11
2022-05-22 18:38:56 GMT 36.078041 -115.161461 0 273 10
2022-05-22 18:38:54 GMT 36.078030 -115.161392 0 268 9
2022-05-22 18:38:52 GMT 36.078030 -115.161293 0 270 9
2022-05-22 18:38:51 GMT 36.078041 -115.161240 0 271 9
2022-05-22 18:38:49 GMT 36.078018 -115.161148 0 265 11
2022-05-22 18:38:47 GMT 36.078041 -115.161018 0 269 11
2022-05-22 18:38:46 GMT 36.078041 -115.160957 0 268 12
2022-05-22 18:38:45 GMT 36.078030 -115.160919 0 268 14
2022-05-22 18:38:43 GMT 36.078041 -115.160744 0 272 13
2022-05-22 18:38:42 GMT 36.078049 -115.160660 0 275 13
2022-05-22 18:38:41 GMT 36.078041 -115.160591 0 271 12
2022-05-22 18:38:39 GMT 36.078030 -115.160454 0 269 12
2022-05-22 18:38:36 GMT 36.078030 -115.160240 0 267 13
2022-05-22 18:38:35 GMT 36.078018 -115.160156 0 264 13
2022-05-22 18:38:34 GMT 36.078041 -115.160011 0 268 12
2022-05-22 18:38:32 GMT 36.078041 -115.159950 0 269 12
2022-05-22 18:38:30 GMT 36.078049 -115.159798 0 268 11
2022-05-22 18:38:29 GMT 36.078041 -115.159752 0 269 12
2022-05-22 18:38:27 GMT 36.078060 -115.159630 0 275 14
2022-05-22 18:38:26 GMT 36.078049 -115.159554 0 273 14
2022-05-22 18:38:24 GMT 36.078041 -115.159378 0 268 12
2022-05-22 18:38:23 GMT 36.078030 -115.159309 0 269 12
2022-05-22 18:38:21 GMT 36.078030 -115.159180 0 270 12
2022-05-22 18:38:20 GMT 36.078030 -115.159111 0 269 12
2022-05-22 18:38:18 GMT 36.078030 -115.158981 0 271 12
2022-05-22 18:38:17 GMT 36.078030 -115.158829 0 268 10
2022-05-22 18:38:15 GMT 36.078018 -115.158783 0 266 10
2022-05-22 18:38:13 GMT 36.078030 -115.158653 0 267 9
2022-05-22 18:38:12 GMT 36.078049 -115.158546 0 272 7
2022-05-22 18:38:10 GMT 36.078041 -115.158508 0 269 8
2022-05-22 18:38:09 GMT 36.078030 -115.158432 0 267 7
2022-05-22 18:38:07 GMT 36.078030 -115.158379 0 267 7
2022-05-22 18:38:05 GMT 36.078049 -115.158302 0 274 7
2022-05-22 18:38:04 GMT 36.078030 -115.158211 0 266 6
2022-05-22 18:38:02 GMT 36.078030 -115.158180 0 265 7
2022-05-22 18:38:01 GMT 36.078041 -115.158119 0 265 4
2022-05-22 18:37:59 GMT 36.078041 -115.158058 0 271 9
2022-05-22 18:37:57 GMT 36.078049 -115.157990 0 267 7
2022-05-22 18:37:55 GMT 36.078049 -115.157913 0 263 7
2022-05-22 18:37:54 GMT 36.078030 -115.157867 0 262 7
2022-05-22 18:37:52 GMT 36.078049 -115.157799 0 271 8
2022-05-22 18:37:51 GMT 36.078060 -115.157738 0 273 6
2022-05-22 18:37:50 GMT 36.078049 -115.157722 0 271 8
2022-05-22 18:37:48 GMT 36.078049 -115.157623 0 275 8
2022-05-22 18:37:47 GMT 36.078072 -115.157578 0 277 8
2022-05-22 18:37:46 GMT 36.078049 -115.157501 0 272 9
2022-05-22 18:37:44 GMT 36.078030 -115.157448 0 269 9
2022-05-22 18:37:42 GMT 36.078041 -115.157349 0 269 8
2022-05-22 18:37:41 GMT 36.078041 -115.157288 0 270 8
2022-05-22 18:37:39 GMT 36.078030 -115.157219 0 268 9
2022-05-22 18:37:38 GMT 36.078041 -115.157158 0 271 9
2022-05-22 18:37:36 GMT 36.078030 -115.157059 0 267 11
2022-05-22 18:37:35 GMT 36.078041 -115.157013 0 268 12
2022-05-22 18:37:33 GMT 36.078049 -115.156891 0 270 13
2022-05-22 18:37:32 GMT 36.078041 -115.156799 0 269 12
2022-05-22 18:37:30 GMT 36.078049 -115.156677 0 271 13
2022-05-22 18:37:29 GMT 36.078041 -115.156601 0 271 13
2022-05-22 18:37:27 GMT 36.078030 -115.156448 0 264 13
2022-05-22 18:37:26 GMT 36.078049 -115.156303 0 270 11
2022-05-22 18:37:24 GMT 36.078049 -115.156227 0 272 10
2022-05-22 18:37:22 GMT 36.078049 -115.156113 0 271 11
2022-05-22 18:37:21 GMT 36.078041 -115.156036 0 270 10
2022-05-22 18:37:19 GMT 36.078060 -115.155899 0 272 9
2022-05-22 18:37:18 GMT 36.078030 -115.155861 0 264 9
2022-05-22 18:37:17 GMT 36.078041 -115.155777 0 269 13
2022-05-22 18:37:15 GMT 36.078049 -115.155670 0 270 9
2022-05-22 18:37:13 GMT 36.078041 -115.155579 0 272 12
2022-05-22 18:37:12 GMT 36.078060 -115.155487 0 271 11
2022-05-22 18:37:11 GMT 36.078030 -115.155327 0 266 11
2022-05-22 18:37:09 GMT 36.078030 -115.155327 0 266 11
2022-05-22 18:37:07 GMT 36.078060 -115.155197 0 273 10
2022-05-22 18:37:06 GMT 36.078049 -115.155128 0 270 9
2022-05-22 18:37:05 GMT 36.078060 -115.155029 0 274 9
2022-05-22 18:37:03 GMT 36.078041 -115.154968 0 269 7
2022-05-22 18:37:02 GMT 36.078041 -115.154922 0 266 6
2022-05-22 18:37:01 GMT 36.078041 -115.154846 0 271 6
2022-05-22 18:36:59 GMT 36.078049 -115.154823 0 273 6
2022-05-22 18:36:58 GMT 36.078041 -115.154762 0 266 10
2022-05-22 18:36:56 GMT 36.078030 -115.154678 0 259 7
2022-05-22 18:36:54 GMT 36.078041 -115.154602 0 268 7
2022-05-22 18:36:53 GMT 36.078072 -115.154510 0 284 7
2022-05-22 18:36:51 GMT 36.078079 -115.154472 0 284 7
2022-05-22 18:36:50 GMT 36.078030 -115.154411 0 267 8
2022-05-22 18:36:48 GMT 36.078041 -115.154358 0 271 7
2022-05-22 18:36:46 GMT 36.078041 -115.154282 0 270 7
2022-05-22 18:36:45 GMT 36.078041 -115.154221 0 269 5
2022-05-22 18:36:43 GMT 36.078030 -115.154182 0 261 7
2022-05-22 18:36:42 GMT 36.078030 -115.154160 0 263 8
2022-05-22 18:36:41 GMT 36.078041 -115.154099 0 268 8
2022-05-22 18:36:40 GMT 36.078072 -115.154022 0 279 9
2022-05-22 18:36:38 GMT 36.078060 -115.153999 0 278 11
2022-05-22 18:36:36 GMT 36.078030 -115.153839 0 264 7
2022-05-22 18:36:35 GMT 36.078041 -115.153763 0 269 8
2022-05-22 18:36:33 GMT 36.078041 -115.153732 0 268 10
2022-05-22 18:36:31 GMT 36.078041 -115.153618 0 266 10
2022-05-22 18:36:30 GMT 36.078049 -115.153549 0 266 9
2022-05-22 18:36:29 GMT 36.078041 -115.153503 0 267 10
2022-05-22 18:36:27 GMT 36.078060 -115.153381 0 272 8
2022-05-22 18:36:26 GMT 36.078060 -115.153290 0 270 12
2022-05-22 18:36:24 GMT 36.078041 -115.153229 0 263 11
2022-05-22 18:36:23 GMT 36.078041 -115.153168 0 265 12
2022-05-22 18:36:21 GMT 36.078072 -115.153023 0 277 11
2022-05-22 18:36:20 GMT 36.078060 -115.152969 0 272 12
2022-05-22 18:36:18 GMT 36.078041 -115.152832 0 268 11
2022-05-22 18:36:17 GMT 36.078030 -115.152771 0 264 11
2022-05-22 18:36:15 GMT 36.078060 -115.152641 0 273 12
2022-05-22 18:36:14 GMT 36.078060 -115.152557 0 273 12
2022-05-22 18:36:12 GMT 36.078060 -115.152420 0 273 12
2022-05-22 18:36:11 GMT 36.078049 -115.152351 0 271 12
2022-05-22 18:36:10 GMT 36.078041 -115.152222 0 267 12
2022-05-22 18:36:08 GMT 36.078030 -115.152138 0 266 11
2022-05-22 18:36:07 GMT 36.078030 -115.152061 0 265 8
2022-05-22 18:36:05 GMT 36.078041 -115.151947 0 269 6
2022-05-22 18:36:03 GMT 36.078049 -115.151878 0 270 6
2022-05-22 18:36:02 GMT 36.078049 -115.151840 0 268 6
2022-05-22 18:36:00 GMT 36.078049 -115.151772 0 265 6
2022-05-22 18:35:59 GMT 36.078041 -115.151733 0 258 4
2022-05-22 18:35:58 GMT 36.078049 -115.151680 0 265 5
2022-05-22 18:35:55 GMT 36.078060 -115.151611 0 281 3
2022-05-22 18:35:54 GMT 36.078091 -115.151581 0 290 7
2022-05-22 18:35:52 GMT 36.078060 -115.151550 0 284 6
2022-05-22 18:35:51 GMT 36.078041 -115.151520 0 271 5
2022-05-22 18:35:50 GMT 36.078030 -115.151489 0 267 5
2022-05-22 18:35:48 GMT 36.078030 -115.151428 0 264 6
2022-05-22 18:35:47 GMT 36.078041 -115.151382 0 267 6
2022-05-22 18:35:45 GMT 36.078041 -115.151352 0 272 7
2022-05-22 18:35:44 GMT 36.078049 -115.151283 0 277 7
2022-05-22 18:35:42 GMT 36.078030 -115.151199 0 274 7
2022-05-22 18:35:40 GMT 36.078041 -115.151161 0 277 6
2022-05-22 18:35:39 GMT 36.078041 -115.151131 0 272 7
2022-05-22 18:35:38 GMT 36.078030 -115.151047 0 272 6
2022-05-22 18:35:36 GMT 36.078030 -115.151009 0 274 5
2022-05-22 18:35:35 GMT 36.078030 -115.150993 0 278 7
2022-05-22 18:35:34 GMT 36.078018 -115.150909 0 269 6
2022-05-22 18:35:32 GMT 36.078011 -115.150879 0 264 7
2022-05-22 18:35:31 GMT 36.078011 -115.150810 0 260 8
2022-05-22 18:35:29 GMT 36.077999 -115.150749 0 262 7
2022-05-22 18:35:27 GMT 36.078030 -115.150673 0 285 6
2022-05-22 18:35:26 GMT 36.078041 -115.150620 0 292 5
2022-05-22 18:35:24 GMT 36.078018 -115.150574 0 285 5
2022-05-22 18:35:23 GMT 36.077999 -115.150497 0 274 5
2022-05-22 18:35:21 GMT 36.077991 -115.150459 0 265 3
2022-05-22 18:35:19 GMT 36.077980 -115.150436 0 264 4
2022-05-22 18:35:18 GMT 36.077991 -115.150421 0 266 5
2022-05-22 18:35:17 GMT 36.077991 -115.150368 0 267 3
2022-05-22 18:35:15 GMT 36.077991 -115.150352 0 268 4
2022-05-22 18:35:14 GMT 36.077999 -115.150330 0 284 5
2022-05-22 18:35:12 GMT 36.078011 -115.150299 0 279 5
2022-05-22 18:35:10 GMT 36.078011 -115.150238 0 281 4
2022-05-22 18:35:09 GMT 36.077991 -115.150200 0 280 3
2022-05-22 18:35:07 GMT 36.077991 -115.150192 0 284 4
2022-05-22 18:35:06 GMT 36.077999 -115.150162 0 290 3
2022-05-22 18:35:04 GMT 36.077991 -115.150139 0 282 6
2022-05-22 18:35:03 GMT 36.077980 -115.150078 0 281 4
2022-05-22 18:35:01 GMT 36.077980 -115.150070 0 272 6
2022-05-22 18:35:00 GMT 36.077950 -115.150047 0 264 6
2022-05-22 18:34:58 GMT 36.077969 -115.149986 0 273 6
2022-05-22 18:34:56 GMT 36.077969 -115.149910 0 278 5
2022-05-22 18:34:55 GMT 36.077961 -115.149872 0 282 3
2022-05-22 18:34:54 GMT 36.077961 -115.149841 0 262 4
2022-05-22 18:34:52 GMT 36.077930 -115.149818 0 250 5
2022-05-22 18:34:50 GMT 36.077961 -115.149788 0 269 5
2022-05-22 18:34:49 GMT 36.077961 -115.149742 0 273 5
2022-05-22 18:34:47 GMT 36.077969 -115.149681 0 281 4
2022-05-22 18:34:46 GMT 36.077961 -115.149673 0 276 5
2022-05-22 18:34:45 GMT 36.077950 -115.149643 0 270 5
2022-05-22 18:34:43 GMT 36.077942 -115.149567 0 270 5
2022-05-22 18:34:41 GMT 36.077969 -115.149521 0 282 6
2022-05-22 18:34:40 GMT 36.077950 -115.149483 0 281 5
2022-05-22 18:34:39 GMT 36.077950 -115.149452 0 280 5
2022-05-22 18:34:36 GMT 36.077919 -115.149368 0 273 6
2022-05-22 18:34:34 GMT 36.077919 -115.149300 0 272 5
2022-05-22 18:34:33 GMT 36.077919 -115.149261 0 267 5
2022-05-22 18:34:32 GMT 36.077888 -115.149208 0 265 6
2022-05-22 18:34:30 GMT 36.077930 -115.149170 0 277 4
2022-05-22 18:34:29 GMT 36.077919 -115.149132 0 277 5
2022-05-22 18:34:26 GMT 36.077930 -115.149063 0 281 5
2022-05-22 18:34:25 GMT 36.077900 -115.149048 0 263 5
2022-05-22 18:34:23 GMT 36.077911 -115.149010 0 269 8
2022-05-22 18:34:22 GMT 36.077911 -115.148941 0 273 6
2022-05-22 18:34:21 GMT 36.077919 -115.148911 0 280 5
2022-05-22 18:34:19 GMT 36.077911 -115.148842 0 278 5
2022-05-22 18:34:18 GMT 36.077911 -115.148819 0 274 6
2022-05-22 18:34:16 GMT 36.077888 -115.148758 0 277 6
2022-05-22 18:34:15 GMT 36.077900 -115.148682 0 283 5
2022-05-22 18:34:13 GMT 36.077888 -115.148651 0 275 4
2022-05-22 18:34:12 GMT 36.077881 -115.148628 0 269 5
2022-05-22 18:34:10 GMT 36.077881 -115.148590 0 281 8
2022-05-22 18:34:09 GMT 36.077888 -115.148521 0 281 5
2022-05-22 18:34:07 GMT 36.077869 -115.148468 0 277 5
2022-05-22 18:34:05 GMT 36.077862 -115.148399 0 277 4
2022-05-22 18:34:04 GMT 36.077862 -115.148369 0 285 4
2022-05-22 18:34:03 GMT 36.077869 -115.148354 0 283 4
2022-05-22 18:34:02 GMT 36.077850 -115.148308 0 268 4
2022-05-22 18:34:00 GMT 36.077839 -115.148293 0 269 4
2022-05-22 18:33:58 GMT 36.077862 -115.148239 0 278 4
2022-05-22 18:33:57 GMT 36.077839 -115.148239 0 277 5
2022-05-22 18:33:56 GMT 36.077869 -115.148201 0 283 4
2022-05-22 18:33:54 GMT 36.077839 -115.148148 0 259 3
2022-05-22 18:33:53 GMT 36.077831 -115.148132 0 273 5
2022-05-22 18:33:51 GMT 36.077850 -115.148109 0 279 5
2022-05-22 18:33:49 GMT 36.077839 -115.148048 0 276 5
2022-05-22 18:33:48 GMT 36.077820 -115.147972 0 276 4
2022-05-22 18:33:46 GMT 36.077850 -115.147957 0 279 5
2022-05-22 18:33:45 GMT 36.077831 -115.147926 0 275 4
2022-05-22 18:33:43 GMT 36.077831 -115.147888 0 275 5
2022-05-22 18:33:42 GMT 36.077801 -115.147858 0 269 5
2022-05-22 18:33:40 GMT 36.077820 -115.147797 0 276 5
2022-05-22 18:33:39 GMT 36.077820 -115.147758 0 275 4
2022-05-22 18:33:37 GMT 36.077808 -115.147728 0 279 5
2022-05-22 18:33:36 GMT 36.077820 -115.147697 0 284 5
2022-05-22 18:33:34 GMT 36.077801 -115.147629 0 274 5
2022-05-22 18:33:33 GMT 36.077801 -115.147583 0 278 6
2022-05-22 18:33:31 GMT 36.077789 -115.147537 0 271 6
2022-05-22 18:33:30 GMT 36.077782 -115.147469 0 271 6
2022-05-22 18:33:28 GMT 36.077782 -115.147438 0 271 7
2022-05-22 18:33:26 GMT 36.077770 -115.147369 0 269 7
2022-05-22 18:33:25 GMT 36.077770 -115.147331 0 270 8
2022-05-22 18:33:23 GMT 36.077782 -115.147240 0 272 7
2022-05-22 18:33:22 GMT 36.077770 -115.147202 0 273 7
2022-05-22 18:33:20 GMT 36.077759 -115.147110 0 269 6
2022-05-22 18:33:19 GMT 36.077770 -115.147057 0 272 5
2022-05-22 18:33:18 GMT 36.077770 -115.147049 0 274 6
2022-05-22 18:33:17 GMT 36.077770 -115.146980 0 279 8
2022-05-22 18:33:15 GMT 36.077759 -115.146896 0 277 9
2022-05-22 18:33:13 GMT 36.077751 -115.146851 0 274 9
2022-05-22 18:33:12 GMT 36.077740 -115.146797 0 271 9
2022-05-22 18:33:10 GMT 36.077740 -115.146698 0 272 9
2022-05-22 18:33:09 GMT 36.077740 -115.146652 0 272 10
2022-05-22 18:33:07 GMT 36.077721 -115.146492 0 274 10
2022-05-22 18:33:05 GMT 36.077740 -115.146431 0 273 9
2022-05-22 18:33:04 GMT 36.077709 -115.146317 0 262 10
2022-05-22 18:33:02 GMT 36.077702 -115.146248 0 267 8
2022-05-22 18:33:01 GMT 36.077728 -115.146210 0 275 9
2022-05-22 18:32:59 GMT 36.077740 -115.146111 0 278 7
2022-05-22 18:32:57 GMT 36.077709 -115.146027 0 273 9
2022-05-22 18:32:56 GMT 36.077709 -115.145981 0 274 9
2022-05-22 18:32:55 GMT 36.077709 -115.145866 0 278 9
2022-05-22 18:32:53 GMT 36.077690 -115.145821 0 273 9
2022-05-22 18:32:52 GMT 36.077702 -115.145782 0 277 10
2022-05-22 18:32:51 GMT 36.077690 -115.145660 0 277 9
2022-05-22 18:32:49 GMT 36.077679 -115.145607 0 273 10
2022-05-22 18:32:47 GMT 36.077679 -115.145500 0 277 9
2022-05-22 18:32:46 GMT 36.077671 -115.145447 0 275 8
2022-05-22 18:32:44 GMT 36.077671 -115.145348 0 274 8
2022-05-22 18:32:43 GMT 36.077648 -115.145302 0 270 8
2022-05-22 18:32:41 GMT 36.077648 -115.145218 0 272 6
2022-05-22 18:32:40 GMT 36.077648 -115.145142 0 266 4
2022-05-22 18:32:38 GMT 36.077641 -115.145119 0 259 5
2022-05-22 18:32:37 GMT 36.077641 -115.145073 0 259 6
2022-05-22 18:32:35 GMT 36.077648 -115.145027 0 260 5
2022-05-22 18:32:33 GMT 36.077648 -115.144981 0 256 7
2022-05-22 18:32:31 GMT 36.077671 -115.144890 0 246 6
2022-05-22 18:32:30 GMT 36.077660 -115.144852 0 234 5
2022-05-22 18:32:29 GMT 36.077671 -115.144829 0 231 6
2022-05-22 18:32:28 GMT 36.077679 -115.144798 0 224 7
2022-05-22 18:32:26 GMT 36.077721 -115.144753 0 217 8
2022-05-22 18:32:25 GMT 36.077740 -115.144699 0 210 7
2022-05-22 18:32:23 GMT 36.077801 -115.144653 0 206 6
2022-05-22 18:32:22 GMT 36.077850 -115.144608 0 198 6
2022-05-22 18:32:20 GMT 36.077881 -115.144592 0 194 4
2022-05-22 18:32:19 GMT 36.077900 -115.144592 0 195 4
2022-05-22 18:32:17 GMT 36.077950 -115.144569 0 201 4
2022-05-22 18:32:16 GMT 36.077980 -115.144562 0 206 2
2022-05-22 18:32:14 GMT 36.077999 -115.144562 0 204 3
2022-05-22 18:32:13 GMT 36.078011 -115.144547 0 199 3
2022-05-22 18:32:11 GMT 36.078030 -115.144531 0 192 4
2022-05-22 18:32:10 GMT 36.078060 -115.144531 0 191 3
2022-05-22 18:32:09 GMT 36.078079 -115.144508 0 190 2
2022-05-22 18:32:07 GMT 36.078079 -115.144508 0 191 3
2022-05-22 18:32:05 GMT 36.078121 -115.144508 0 194 1
2022-05-22 18:32:04 GMT 36.078121 -115.144524 0 194 2
2022-05-22 18:32:02 GMT 36.078140 -115.144508 0 194 2
2022-05-22 18:32:00 GMT 36.078140 -115.144501 0 193 3
2022-05-22 18:31:59 GMT 36.078178 -115.144493 0 194 0
2022-05-22 18:31:56 GMT 36.078190 -115.144493 0 194 0
2022-05-22 18:31:54 GMT 36.078201 -115.144501 0 195 1
2022-05-22 18:31:53 GMT 36.078201 -115.144493 0 195 2
2022-05-22 18:31:49 GMT 36.078232 -115.144493 0 195 0
2022-05-22 18:31:48 GMT 36.078239 -115.144493 0 195 0
2022-05-22 18:31:47 GMT 36.078239 -115.144493 0 195 0
2022-05-22 18:31:45 GMT 36.078232 -115.144478 0 195 0
2022-05-22 18:31:44 GMT 36.078220 -115.144478 0 195 2
2022-05-22 18:31:43 GMT 36.078251 -115.144493 0 196 1
2022-05-22 18:31:41 GMT 36.078259 -115.144478 0 196 1
2022-05-22 18:31:40 GMT 36.078259 -115.144493 0 196 3
2022-05-22 18:31:38 GMT 36.078270 -115.144478 0 190 3
2022-05-22 18:31:35 GMT 36.078308 -115.144470 0 194 3
2022-05-22 18:31:33 GMT 36.078331 -115.144447 0 189 3
2022-05-22 18:31:32 GMT 36.078362 -115.144447 0 195 2
2022-05-22 18:31:30 GMT 36.078369 -115.144447 0 192 3
2022-05-22 18:31:28 GMT 36.078381 -115.144440 0 186 4
2022-05-22 18:31:26 GMT 36.078430 -115.144417 0 173 3
2022-05-22 18:31:25 GMT 36.078442 -115.144432 0 176 4
2022-05-22 18:31:23 GMT 36.078468 -115.144417 0 171 5
2022-05-22 18:31:22 GMT 36.078491 -115.144432 0 174 5
2022-05-22 18:31:20 GMT 36.078529 -115.144440 0 157 4
2022-05-22 18:31:19 GMT 36.078590 -115.144440 0 141 4
2022-05-22 18:31:17 GMT 36.078602 -115.144447 0 138 4
2022-05-22 18:31:14 GMT 36.078659 -115.144493 0 123 5
2022-05-22 18:31:13 GMT 36.078678 -115.144508 0 120 6
2022-05-22 18:31:12 GMT 36.078732 -115.144577 0 116 4
2022-05-22 18:31:10 GMT 36.078720 -115.144600 0 123 5
2022-05-22 18:31:08 GMT 36.078751 -115.144653 0 117 5
2022-05-22 18:31:07 GMT 36.078758 -115.144669 0 114 5
2022-05-22 18:31:05 GMT 36.078789 -115.144722 0 111 4
2022-05-22 18:31:04 GMT 36.078789 -115.144753 0 107 3
2022-05-22 18:31:03 GMT 36.078812 -115.144783 0 105 4
2022-05-22 18:31:01 GMT 36.078819 -115.144798 0 105 4
2022-05-22 18:31:00 GMT 36.078819 -115.144829 0 110 3
2022-05-22 18:30:58 GMT 36.078850 -115.144882 0 106 2
2022-05-22 18:30:56 GMT 36.078838 -115.144897 0 106 1
2022-05-22 18:30:54 GMT 36.078850 -115.144989 0 105 1
2022-05-22 18:30:53 GMT 36.078838 -115.144951 0 105 1
2022-05-22 18:30:52 GMT 36.078850 -115.144951 0 105 0
2022-05-22 18:30:50 GMT 36.078861 -115.144951 0 105 0
2022-05-22 18:30:49 GMT 36.078861 -115.144974 0 105 0
2022-05-22 18:30:45 GMT 36.078861 -115.144958 0 104 0
2022-05-22 18:30:43 GMT 36.078861 -115.144951 0 102 1
2022-05-22 18:30:41 GMT 36.078861 -115.144974 0 102 1
2022-05-22 18:30:40 GMT 36.078869 -115.144958 0 102 0
2022-05-22 18:30:28 GMT 36.078880 -115.144958 0 102 0
2022-05-22 18:30:25 GMT 36.078869 -115.144958 0 103 0
2022-05-22 18:30:21 GMT 36.078880 -115.144974 0 103 0
2022-05-22 18:30:19 GMT 36.078892 -115.144958 0 103 0
2022-05-22 18:30:18 GMT 36.078880 -115.144974 0 106 0
2022-05-22 18:30:15 GMT 36.078880 -115.144974 0 108 0
2022-05-22 18:30:14 GMT 36.078869 -115.144958 0 109 1
2022-05-22 18:30:13 GMT 36.078880 -115.144974 0 109 0
2022-05-22 18:30:10 GMT 36.078880 -115.144958 0 104 4
2022-05-22 18:30:08 GMT 36.078892 -115.144997 0 102 5
2022-05-22 18:30:07 GMT 36.078899 -115.145050 0 108 7
2022-05-22 18:30:05 GMT 36.078911 -115.145081 0 105 8
2022-05-22 18:30:04 GMT 36.078930 -115.145157 0 113 7
2022-05-22 18:30:02 GMT 36.078930 -115.145210 0 115 7
2022-05-22 18:30:01 GMT 36.078949 -115.145241 0 118 6
2022-05-22 18:29:59 GMT 36.078960 -115.145309 0 130 7
2022-05-22 18:29:58 GMT 36.078972 -115.145363 0 138 6
2022-05-22 18:29:56 GMT 36.079010 -115.145416 0 144 5
2022-05-22 18:29:54 GMT 36.079029 -115.145447 0 148 6
2022-05-22 18:29:53 GMT 36.079090 -115.145493 0 114 3
2022-05-22 18:29:51 GMT 36.079109 -115.145500 0 108 3
2022-05-22 18:29:50 GMT 36.079128 -115.145531 0 101 3
2022-05-22 18:29:48 GMT 36.079189 -115.145538 0 100 2
2022-05-22 18:29:47 GMT 36.079182 -115.145508 0